<?xml version='1.0' encoding='UTF-8'?><gpx version="1.1" creator="JPX - https://github.com/jenetics/jpx" xmlns="http://www.topografix.com/GPX/1/1"><trk><trkseg><trkpt lat="44.8751263" lon="10.8089867"><ele>24.0</ele><time>2026-04-17T16:17:31.045Z</time></trkpt><trkpt lat="44.8751268" lon="10.808857"><ele>24.0</ele><time>2026-04-17T16:17:33.044Z</time></trkpt><trkpt lat="44.8751315" lon="10.8087444"><ele>24.0</ele><time>2026-04-17T16:17:35.045Z</time></trkpt><trkpt lat="44.8751516" lon="10.8086528"><ele>24.0</ele><time>2026-04-17T16:17:37.045Z</time></trkpt><trkpt lat="44.8751774" lon="10.8085673"><ele>24.0</ele><time>2026-04-17T16:17:40.045Z</time></trkpt><trkpt lat="44.8752076" lon="10.8086696"><ele>24.0</ele><time>2026-04-17T16:17:43.045Z</time></trkpt><trkpt lat="44.8752008" lon="10.8088378"><ele>24.0</ele><time>2026-04-17T16:17:45.045Z</time></trkpt><trkpt lat="44.8751893" lon="10.8089488"><ele>24.0</ele><time>2026-04-17T16:17:46.043Z</time></trkpt><trkpt lat="44.8751746" lon="10.8090684"><ele>24.0</ele><time>2026-04-17T16:17:47.045Z</time></trkpt><trkpt lat="44.8751622" lon="10.8091982"><ele>24.0</ele><time>2026-04-17T16:17:48.045Z</time></trkpt><trkpt lat="44.8751489" lon="10.8093319"><ele>24.0</ele><time>2026-04-17T16:17:49.045Z</time></trkpt><trkpt lat="44.8751322" lon="10.8094729"><ele>23.799999999999997</ele><time>2026-04-17T16:17:50.045Z</time></trkpt><trkpt lat="44.8751158" lon="10.8096229"><ele>23.599999999999998</ele><time>2026-04-17T16:17:51.045Z</time></trkpt><trkpt lat="44.875096" lon="10.8097817"><ele>23.4</ele><time>2026-04-17T16:17:52.045Z</time></trkpt><trkpt lat="44.8750733" lon="10.8099463"><ele>23.2</ele><time>2026-04-17T16:17:53.044Z</time></trkpt><trkpt lat="44.875056" lon="10.8100942"><ele>23.0</ele><time>2026-04-17T16:17:54.044Z</time></trkpt><trkpt lat="44.87504" lon="10.8102321"><ele>23.0</ele><time>2026-04-17T16:17:55.045Z</time></trkpt><trkpt lat="44.8750236" lon="10.8103601"><ele>23.0</ele><time>2026-04-17T16:17:56.044Z</time></trkpt><trkpt lat="44.8750085" lon="10.810486"><ele>23.0</ele><time>2026-04-17T16:17:57.044Z</time></trkpt><trkpt lat="44.8749927" lon="10.8106164"><ele>23.0</ele><time>2026-04-17T16:17:58.044Z</time></trkpt><trkpt lat="44.8749779" lon="10.8107493"><ele>23.0</ele><time>2026-04-17T16:17:59.044Z</time></trkpt><trkpt lat="44.8749633" lon="10.8108686"><ele>23.0</ele><time>2026-04-17T16:18:00.045Z</time></trkpt><trkpt lat="44.8749498" lon="10.8109733"><ele>23.0</ele><time>2026-04-17T16:18:01.045Z</time></trkpt><trkpt lat="44.8749362" lon="10.8110693"><ele>23.0</ele><time>2026-04-17T16:18:02.046Z</time></trkpt><trkpt lat="44.8749278" lon="10.8111587"><ele>23.0</ele><time>2026-04-17T16:18:03.045Z</time></trkpt><trkpt lat="44.8749825" lon="10.8112927"><ele>23.0</ele><time>2026-04-17T16:18:05.046Z</time></trkpt><trkpt lat="44.8750522" lon="10.81133"><ele>23.0</ele><time>2026-04-17T16:18:06.045Z</time></trkpt><trkpt lat="44.8751321" lon="10.811349"><ele>23.2</ele><time>2026-04-17T16:18:07.046Z</time></trkpt><trkpt lat="44.8752219" lon="10.8113755"><ele>23.4</ele><time>2026-04-17T16:18:08.045Z</time></trkpt><trkpt lat="44.8753196" lon="10.8113986"><ele>23.599999999999998</ele><time>2026-04-17T16:18:09.044Z</time></trkpt><trkpt lat="44.8754199" lon="10.8114244"><ele>23.799999999999997</ele><time>2026-04-17T16:18:10.045Z</time></trkpt><trkpt lat="44.8755275" lon="10.8114493"><ele>24.0</ele><time>2026-04-17T16:18:11.044Z</time></trkpt><trkpt lat="44.8756449" lon="10.8114707"><ele>24.0</ele><time>2026-04-17T16:18:12.046Z</time></trkpt><trkpt lat="44.8757675" lon="10.8114926"><ele>24.0</ele><time>2026-04-17T16:18:13.045Z</time></trkpt><trkpt lat="44.8758888" lon="10.8115187"><ele>24.0</ele><time>2026-04-17T16:18:14.044Z</time></trkpt><trkpt lat="44.8760168" lon="10.8115487"><ele>24.0</ele><time>2026-04-17T16:18:15.044Z</time></trkpt><trkpt lat="44.8761529" lon="10.8115739"><ele>23.6</ele><time>2026-04-17T16:18:16.045Z</time></trkpt><trkpt lat="44.87628" lon="10.811605"><ele>23.2</ele><time>2026-04-17T16:18:17.044Z</time></trkpt><trkpt lat="44.8763961" lon="10.8116263"><ele>22.8</ele><time>2026-04-17T16:18:18.044Z</time></trkpt><trkpt lat="44.8764988" lon="10.8116496"><ele>22.400000000000002</ele><time>2026-04-17T16:18:19.043Z</time></trkpt><trkpt lat="44.876592" lon="10.8116699"><ele>22.0</ele><time>2026-04-17T16:18:20.045Z</time></trkpt><trkpt lat="44.8766693" lon="10.8116948"><ele>22.0</ele><time>2026-04-17T16:18:21.044Z</time></trkpt><trkpt lat="44.8767292" lon="10.8117674"><ele>22.0</ele><time>2026-04-17T16:18:23.044Z</time></trkpt><trkpt lat="44.8766839" lon="10.8119079"><ele>22.0</ele><time>2026-04-17T16:18:25.046Z</time></trkpt><trkpt lat="44.8766316" lon="10.8119984"><ele>22.0</ele><time>2026-04-17T16:18:26.044Z</time></trkpt><trkpt lat="44.8765684" lon="10.812092"><ele>22.0</ele><time>2026-04-17T16:18:27.045Z</time></trkpt><trkpt lat="44.8764947" lon="10.8121968"><ele>21.8</ele><time>2026-04-17T16:18:28.044Z</time></trkpt><trkpt lat="44.8764206" lon="10.8123077"><ele>21.6</ele><time>2026-04-17T16:18:29.045Z</time></trkpt><trkpt lat="44.8763531" lon="10.8124001"><ele>21.400000000000002</ele><time>2026-04-17T16:18:30.044Z</time></trkpt><trkpt lat="44.8762933" lon="10.8124901"><ele>21.200000000000003</ele><time>2026-04-17T16:18:31.045Z</time></trkpt><trkpt lat="44.8762374" lon="10.8125726"><ele>21.0</ele><time>2026-04-17T16:18:32.044Z</time></trkpt><trkpt lat="44.8761861" lon="10.8126581"><ele>21.5</ele><time>2026-04-17T16:18:33.045Z</time></trkpt><trkpt lat="44.8761352" lon="10.8127346"><ele>22.0</ele><time>2026-04-17T16:18:34.044Z</time></trkpt><trkpt lat="44.876083" lon="10.8128039"><ele>22.5</ele><time>2026-04-17T16:18:35.046Z</time></trkpt><trkpt lat="44.8760338" lon="10.8128683"><ele>23.0</ele><time>2026-04-17T16:18:36.045Z</time></trkpt><trkpt lat="44.8759879" lon="10.8129365"><ele>23.5</ele><time>2026-04-17T16:18:37.044Z</time></trkpt><trkpt lat="44.8759178" lon="10.813061"><ele>24.0</ele><time>2026-04-17T16:18:39.045Z</time></trkpt><trkpt lat="44.875876" lon="10.8131449"><ele>24.166666666666668</ele><time>2026-04-17T16:18:41.044Z</time></trkpt><trkpt lat="44.8758458" lon="10.8132424"><ele>24.333333333333336</ele><time>2026-04-17T16:18:44.044Z</time></trkpt><trkpt lat="44.8757918" lon="10.8133977"><ele>24.5</ele><time>2026-04-17T16:18:46.043Z</time></trkpt><trkpt lat="44.8757587" lon="10.8134908"><ele>24.666666666666668</ele><time>2026-04-17T16:18:47.045Z</time></trkpt><trkpt lat="44.8757246" lon="10.8135898"><ele>24.833333333333336</ele><time>2026-04-17T16:18:48.045Z</time></trkpt><trkpt lat="44.8756882" lon="10.8137001"><ele>25.0</ele><time>2026-04-17T16:18:49.045Z</time></trkpt><trkpt lat="44.8756488" lon="10.8138153"><ele>24.6</ele><time>2026-04-17T16:18:50.045Z</time></trkpt><trkpt lat="44.8756111" lon="10.8139345"><ele>24.2</ele><time>2026-04-17T16:18:51.044Z</time></trkpt><trkpt lat="44.8755683" lon="10.8140621"><ele>23.799999999999997</ele><time>2026-04-17T16:18:52.044Z</time></trkpt><trkpt lat="44.8755226" lon="10.8142013"><ele>23.4</ele><time>2026-04-17T16:18:53.043Z</time></trkpt><trkpt lat="44.8754749" lon="10.8143452"><ele>23.0</ele><time>2026-04-17T16:18:54.044Z</time></trkpt><trkpt lat="44.8754164" lon="10.814513"><ele>22.75</ele><time>2026-04-17T16:18:55.044Z</time></trkpt><trkpt lat="44.8753648" lon="10.8146802"><ele>22.5</ele><time>2026-04-17T16:18:56.044Z</time></trkpt><trkpt lat="44.8753087" lon="10.8148498"><ele>22.25</ele><time>2026-04-17T16:18:57.044Z</time></trkpt><trkpt lat="44.8752539" lon="10.8150263"><ele>22.0</ele><time>2026-04-17T16:18:58.045Z</time></trkpt><trkpt lat="44.8751924" lon="10.8152072"><ele>22.0</ele><time>2026-04-17T16:18:59.045Z</time></trkpt><trkpt lat="44.8751301" lon="10.8153893"><ele>22.0</ele><time>2026-04-17T16:19:00.046Z</time></trkpt><trkpt lat="44.8750639" lon="10.8155767"><ele>22.0</ele><time>2026-04-17T16:19:01.045Z</time></trkpt><trkpt lat="44.8750018" lon="10.815761"><ele>22.0</ele><time>2026-04-17T16:19:02.045Z</time></trkpt><trkpt lat="44.8749376" lon="10.8159483"><ele>22.25</ele><time>2026-04-17T16:19:03.043Z</time></trkpt><trkpt lat="44.8748789" lon="10.8161386"><ele>22.5</ele><time>2026-04-17T16:19:04.044Z</time></trkpt><trkpt lat="44.8748224" lon="10.8163219"><ele>22.75</ele><time>2026-04-17T16:19:05.044Z</time></trkpt><trkpt lat="44.8747823" lon="10.8165035"><ele>23.0</ele><time>2026-04-17T16:19:06.045Z</time></trkpt><trkpt lat="44.8747699" lon="10.8166902"><ele>23.25</ele><time>2026-04-17T16:19:07.045Z</time></trkpt><trkpt lat="44.8747904" lon="10.8168894"><ele>23.5</ele><time>2026-04-17T16:19:08.046Z</time></trkpt><trkpt lat="44.8748149" lon="10.8170824"><ele>23.75</ele><time>2026-04-17T16:19:09.045Z</time></trkpt><trkpt lat="44.874825" lon="10.8172759"><ele>24.0</ele><time>2026-04-17T16:19:10.044Z</time></trkpt><trkpt lat="44.8748232" lon="10.8174544"><ele>24.0</ele><time>2026-04-17T16:19:11.045Z</time></trkpt><trkpt lat="44.8748026" lon="10.8176159"><ele>24.0</ele><time>2026-04-17T16:19:12.044Z</time></trkpt><trkpt lat="44.8747687" lon="10.817757"><ele>24.0</ele><time>2026-04-17T16:19:13.045Z</time></trkpt><trkpt lat="44.8747243" lon="10.8178756"><ele>24.0</ele><time>2026-04-17T16:19:14.044Z</time></trkpt><trkpt lat="44.874682" lon="10.8179657"><ele>24.0</ele><time>2026-04-17T16:19:15.044Z</time></trkpt><trkpt lat="44.8746453" lon="10.8180449"><ele>24.0</ele><time>2026-04-17T16:19:16.045Z</time></trkpt><trkpt lat="44.8746821" lon="10.8181758"><ele>24.0</ele><time>2026-04-17T16:19:18.044Z</time></trkpt><trkpt lat="44.8747446" lon="10.8181898"><ele>24.0</ele><time>2026-04-17T16:19:19.043Z</time></trkpt><trkpt lat="44.87483" lon="10.8181907"><ele>24.0</ele><time>2026-04-17T16:19:20.045Z</time></trkpt><trkpt lat="44.8749088" lon="10.8182451"><ele>24.0</ele><time>2026-04-17T16:19:21.044Z</time></trkpt><trkpt lat="44.8749861" lon="10.8183259"><ele>24.0</ele><time>2026-04-17T16:19:22.044Z</time></trkpt><trkpt lat="44.8750671" lon="10.8184161"><ele>23.25</ele><time>2026-04-17T16:19:23.044Z</time></trkpt><trkpt lat="44.8751573" lon="10.818513"><ele>22.5</ele><time>2026-04-17T16:19:24.045Z</time></trkpt><trkpt lat="44.8752539" lon="10.8186151"><ele>21.75</ele><time>2026-04-17T16:19:25.044Z</time></trkpt><trkpt lat="44.8753543" lon="10.8187293"><ele>21.0</ele><time>2026-04-17T16:19:26.044Z</time></trkpt><trkpt lat="44.8754577" lon="10.8188431"><ele>21.0</ele><time>2026-04-17T16:19:27.045Z</time></trkpt><trkpt lat="44.8755683" lon="10.8189627"><ele>21.0</ele><time>2026-04-17T16:19:28.044Z</time></trkpt><trkpt lat="44.875682" lon="10.8190886"><ele>21.0</ele><time>2026-04-17T16:19:29.045Z</time></trkpt><trkpt lat="44.875801" lon="10.8192193"><ele>21.0</ele><time>2026-04-17T16:19:30.043Z</time></trkpt><trkpt lat="44.8759112" lon="10.8193407"><ele>20.8</ele><time>2026-04-17T16:19:31.044Z</time></trkpt><trkpt lat="44.8760104" lon="10.8194501"><ele>20.6</ele><time>2026-04-17T16:19:32.044Z</time></trkpt><trkpt lat="44.8761" lon="10.8195544"><ele>20.4</ele><time>2026-04-17T16:19:33.043Z</time></trkpt><trkpt lat="44.8761792" lon="10.8196485"><ele>20.2</ele><time>2026-04-17T16:19:34.044Z</time></trkpt><trkpt lat="44.8762402" lon="10.819751"><ele>20.0</ele><time>2026-04-17T16:19:35.045Z</time></trkpt><trkpt lat="44.8762773" lon="10.8198716"><ele>20.0</ele><time>2026-04-17T16:19:36.043Z</time></trkpt><trkpt lat="44.876292" lon="10.8199924"><ele>20.0</ele><time>2026-04-17T16:19:37.044Z</time></trkpt><trkpt lat="44.8763318" lon="10.8201124"><ele>20.0</ele><time>2026-04-17T16:19:38.044Z</time></trkpt><trkpt lat="44.8764081" lon="10.8201932"><ele>20.0</ele><time>2026-04-17T16:19:39.044Z</time></trkpt><trkpt lat="44.8764892" lon="10.8202236"><ele>20.0</ele><time>2026-04-17T16:19:40.043Z</time></trkpt><trkpt lat="44.8765793" lon="10.8202032"><ele>20.0</ele><time>2026-04-17T16:19:41.046Z</time></trkpt><trkpt lat="44.8766561" lon="10.82013"><ele>20.0</ele><time>2026-04-17T16:19:42.044Z</time></trkpt><trkpt lat="44.8766996" lon="10.8200113"><ele>20.0</ele><time>2026-04-17T16:19:43.045Z</time></trkpt><trkpt lat="44.8766997" lon="10.819874"><ele>20.0</ele><time>2026-04-17T16:19:44.044Z</time></trkpt><trkpt lat="44.8766956" lon="10.819716"><ele>20.0</ele><time>2026-04-17T16:19:45.044Z</time></trkpt><trkpt lat="44.8767039" lon="10.8195482"><ele>20.0</ele><time>2026-04-17T16:19:46.043Z</time></trkpt><trkpt lat="44.8767461" lon="10.8193591"><ele>20.0</ele><time>2026-04-17T16:19:47.045Z</time></trkpt><trkpt lat="44.8767984" lon="10.819159"><ele>20.0</ele><time>2026-04-17T16:19:48.045Z</time></trkpt><trkpt lat="44.8768558" lon="10.818955"><ele>20.0</ele><time>2026-04-17T16:19:49.044Z</time></trkpt><trkpt lat="44.8769188" lon="10.8187358"><ele>20.0</ele><time>2026-04-17T16:19:50.046Z</time></trkpt><trkpt lat="44.8769882" lon="10.8185077"><ele>20.0</ele><time>2026-04-17T16:19:51.044Z</time></trkpt><trkpt lat="44.8770568" lon="10.8182705"><ele>20.0</ele><time>2026-04-17T16:19:52.045Z</time></trkpt><trkpt lat="44.8771308" lon="10.8180263"><ele>20.333333333333336</ele><time>2026-04-17T16:19:53.044Z</time></trkpt><trkpt lat="44.8772053" lon="10.817783"><ele>20.666666666666668</ele><time>2026-04-17T16:19:54.044Z</time></trkpt><trkpt lat="44.8772802" lon="10.8175284"><ele>21.0</ele><time>2026-04-17T16:19:55.044Z</time></trkpt><trkpt lat="44.8773539" lon="10.8172807"><ele>21.0</ele><time>2026-04-17T16:19:56.045Z</time></trkpt><trkpt lat="44.8774309" lon="10.8170283"><ele>21.0</ele><time>2026-04-17T16:19:57.045Z</time></trkpt><trkpt lat="44.8775051" lon="10.8167766"><ele>21.0</ele><time>2026-04-17T16:19:58.044Z</time></trkpt><trkpt lat="44.8775801" lon="10.8165408"><ele>21.0</ele><time>2026-04-17T16:19:59.044Z</time></trkpt><trkpt lat="44.8776517" lon="10.8163192"><ele>21.0</ele><time>2026-04-17T16:20:00.045Z</time></trkpt><trkpt lat="44.8777191" lon="10.8161098"><ele>21.0</ele><time>2026-04-17T16:20:01.045Z</time></trkpt><trkpt lat="44.8777829" lon="10.8159149"><ele>21.0</ele><time>2026-04-17T16:20:02.044Z</time></trkpt><trkpt lat="44.8778451" lon="10.8157342"><ele>21.0</ele><time>2026-04-17T16:20:03.045Z</time></trkpt><trkpt lat="44.8779046" lon="10.8155648"><ele>21.0</ele><time>2026-04-17T16:20:04.045Z</time></trkpt><trkpt lat="44.8779602" lon="10.8154058"><ele>21.0</ele><time>2026-04-17T16:20:05.044Z</time></trkpt><trkpt lat="44.87801" lon="10.8152573"><ele>21.0</ele><time>2026-04-17T16:20:06.045Z</time></trkpt><trkpt lat="44.8780602" lon="10.8151072"><ele>21.0</ele><time>2026-04-17T16:20:07.044Z</time></trkpt><trkpt lat="44.8781091" lon="10.8149577"><ele>21.0</ele><time>2026-04-17T16:20:08.044Z</time></trkpt><trkpt lat="44.8781568" lon="10.8148053"><ele>21.0</ele><time>2026-04-17T16:20:09.045Z</time></trkpt><trkpt lat="44.8782029" lon="10.814652"><ele>21.0</ele><time>2026-04-17T16:20:10.045Z</time></trkpt><trkpt lat="44.8782494" lon="10.8144905"><ele>21.0</ele><time>2026-04-17T16:20:11.044Z</time></trkpt><trkpt lat="44.8782956" lon="10.8143162"><ele>21.0</ele><time>2026-04-17T16:20:12.044Z</time></trkpt><trkpt lat="44.8783456" lon="10.8141325"><ele>21.0</ele><time>2026-04-17T16:20:13.044Z</time></trkpt><trkpt lat="44.8783945" lon="10.8139408"><ele>20.666666666666668</ele><time>2026-04-17T16:20:14.045Z</time></trkpt><trkpt lat="44.8784533" lon="10.8137342"><ele>20.333333333333336</ele><time>2026-04-17T16:20:15.046Z</time></trkpt><trkpt lat="44.878504" lon="10.8135335"><ele>20.0</ele><time>2026-04-17T16:20:16.044Z</time></trkpt><trkpt lat="44.8785581" lon="10.8133277"><ele>19.666666666666668</ele><time>2026-04-17T16:20:17.044Z</time></trkpt><trkpt lat="44.8786189" lon="10.8131166"><ele>19.333333333333332</ele><time>2026-04-17T16:20:18.044Z</time></trkpt><trkpt lat="44.8786764" lon="10.8129023"><ele>19.0</ele><time>2026-04-17T16:20:19.044Z</time></trkpt><trkpt lat="44.8787409" lon="10.8126826"><ele>19.333333333333332</ele><time>2026-04-17T16:20:20.045Z</time></trkpt><trkpt lat="44.8788055" lon="10.8124608"><ele>19.666666666666668</ele><time>2026-04-17T16:20:21.043Z</time></trkpt><trkpt lat="44.8788728" lon="10.8122332"><ele>20.0</ele><time>2026-04-17T16:20:22.045Z</time></trkpt><trkpt lat="44.8789388" lon="10.8120109"><ele>19.666666666666668</ele><time>2026-04-17T16:20:23.045Z</time></trkpt><trkpt lat="44.8790109" lon="10.8117711"><ele>19.333333333333332</ele><time>2026-04-17T16:20:24.045Z</time></trkpt><trkpt lat="44.8790823" lon="10.8115337"><ele>19.0</ele><time>2026-04-17T16:20:25.045Z</time></trkpt><trkpt lat="44.8791527" lon="10.8113048"><ele>19.0</ele><time>2026-04-17T16:20:26.044Z</time></trkpt><trkpt lat="44.8792196" lon="10.8110864"><ele>19.0</ele><time>2026-04-17T16:20:27.044Z</time></trkpt><trkpt lat="44.8792807" lon="10.8108845"><ele>19.0</ele><time>2026-04-17T16:20:28.045Z</time></trkpt><trkpt lat="44.8793377" lon="10.8107019"><ele>18.75</ele><time>2026-04-17T16:20:29.045Z</time></trkpt><trkpt lat="44.879393" lon="10.8105376"><ele>18.5</ele><time>2026-04-17T16:20:30.044Z</time></trkpt><trkpt lat="44.8794586" lon="10.8103997"><ele>18.25</ele><time>2026-04-17T16:20:31.045Z</time></trkpt><trkpt lat="44.8795384" lon="10.8102986"><ele>18.0</ele><time>2026-04-17T16:20:32.044Z</time></trkpt><trkpt lat="44.8796331" lon="10.8102157"><ele>18.2</ele><time>2026-04-17T16:20:33.045Z</time></trkpt><trkpt lat="44.8797159" lon="10.8101129"><ele>18.4</ele><time>2026-04-17T16:20:34.045Z</time></trkpt><trkpt lat="44.8798003" lon="10.8100221"><ele>18.599999999999998</ele><time>2026-04-17T16:20:35.045Z</time></trkpt><trkpt lat="44.8798929" lon="10.8099658"><ele>18.8</ele><time>2026-04-17T16:20:36.044Z</time></trkpt><trkpt lat="44.8799951" lon="10.8099359"><ele>19.0</ele><time>2026-04-17T16:20:37.044Z</time></trkpt><trkpt lat="44.8801069" lon="10.8099179"><ele>19.5</ele><time>2026-04-17T16:20:38.046Z</time></trkpt><trkpt lat="44.8802156" lon="10.8098947"><ele>20.0</ele><time>2026-04-17T16:20:39.044Z</time></trkpt><trkpt lat="44.8803287" lon="10.8098509"><ele>20.5</ele><time>2026-04-17T16:20:40.046Z</time></trkpt><trkpt lat="44.8804416" lon="10.8097743"><ele>21.0</ele><time>2026-04-17T16:20:41.044Z</time></trkpt><trkpt lat="44.8805502" lon="10.8096833"><ele>21.0</ele><time>2026-04-17T16:20:42.045Z</time></trkpt><trkpt lat="44.8806577" lon="10.8095999"><ele>21.0</ele><time>2026-04-17T16:20:43.044Z</time></trkpt><trkpt lat="44.8807667" lon="10.8095353"><ele>21.0</ele><time>2026-04-17T16:20:44.044Z</time></trkpt><trkpt lat="44.8808748" lon="10.8094859"><ele>21.0</ele><time>2026-04-17T16:20:45.044Z</time></trkpt><trkpt lat="44.8809871" lon="10.8094672"><ele>20.75</ele><time>2026-04-17T16:20:46.044Z</time></trkpt><trkpt lat="44.881102" lon="10.80946"><ele>20.5</ele><time>2026-04-17T16:20:47.045Z</time></trkpt><trkpt lat="44.881219" lon="10.8094585"><ele>20.25</ele><time>2026-04-17T16:20:48.044Z</time></trkpt><trkpt lat="44.8813441" lon="10.8094605"><ele>20.0</ele><time>2026-04-17T16:20:49.045Z</time></trkpt><trkpt lat="44.8814703" lon="10.8094685"><ele>20.0</ele><time>2026-04-17T16:20:50.044Z</time></trkpt><trkpt lat="44.8816024" lon="10.8094823"><ele>20.0</ele><time>2026-04-17T16:20:51.044Z</time></trkpt><trkpt lat="44.8817389" lon="10.809502"><ele>20.0</ele><time>2026-04-17T16:20:52.043Z</time></trkpt><trkpt lat="44.8818713" lon="10.8095192"><ele>20.0</ele><time>2026-04-17T16:20:53.044Z</time></trkpt><trkpt lat="44.882002" lon="10.8095458"><ele>19.5</ele><time>2026-04-17T16:20:54.044Z</time></trkpt><trkpt lat="44.8821275" lon="10.8095823"><ele>19.0</ele><time>2026-04-17T16:20:55.044Z</time></trkpt><trkpt lat="44.8822474" lon="10.8096299"><ele>18.5</ele><time>2026-04-17T16:20:56.044Z</time></trkpt><trkpt lat="44.8823639" lon="10.8096948"><ele>18.0</ele><time>2026-04-17T16:20:57.044Z</time></trkpt><trkpt lat="44.8824811" lon="10.8097747"><ele>18.0</ele><time>2026-04-17T16:20:58.044Z</time></trkpt><trkpt lat="44.882593" lon="10.8098643"><ele>18.0</ele><time>2026-04-17T16:20:59.044Z</time></trkpt><trkpt lat="44.882702" lon="10.8099654"><ele>18.0</ele><time>2026-04-17T16:21:00.045Z</time></trkpt><trkpt lat="44.8828037" lon="10.8100758"><ele>18.0</ele><time>2026-04-17T16:21:01.043Z</time></trkpt><trkpt lat="44.8828945" lon="10.8101847"><ele>18.166666666666668</ele><time>2026-04-17T16:21:02.043Z</time></trkpt><trkpt lat="44.8829698" lon="10.8102821"><ele>18.333333333333332</ele><time>2026-04-17T16:21:03.044Z</time></trkpt><trkpt lat="44.8830318" lon="10.8103727"><ele>18.5</ele><time>2026-04-17T16:21:04.044Z</time></trkpt><trkpt lat="44.8830895" lon="10.810452"><ele>18.666666666666664</ele><time>2026-04-17T16:21:05.044Z</time></trkpt><trkpt lat="44.8831456" lon="10.8105258"><ele>18.833333333333332</ele><time>2026-04-17T16:21:06.044Z</time></trkpt><trkpt lat="44.8832025" lon="10.8105917"><ele>19.0</ele><time>2026-04-17T16:21:07.044Z</time></trkpt><trkpt lat="44.883257" lon="10.8106564"><ele>19.0</ele><time>2026-04-17T16:21:08.045Z</time></trkpt><trkpt lat="44.883308" lon="10.810717"><ele>19.0</ele><time>2026-04-17T16:21:09.046Z</time></trkpt><trkpt lat="44.883359" lon="10.8107727"><ele>19.0</ele><time>2026-04-17T16:21:10.044Z</time></trkpt><trkpt lat="44.8834399" lon="10.8108544"><ele>19.0</ele><time>2026-04-17T16:21:12.045Z</time></trkpt><trkpt lat="44.8834902" lon="10.8109235"><ele>19.0</ele><time>2026-04-17T16:21:16.044Z</time></trkpt><trkpt lat="44.883433" lon="10.8108324"><ele>19.0</ele><time>2026-04-17T16:21:31.045Z</time></trkpt><trkpt lat="44.8833151" lon="10.8107113"><ele>19.0</ele><time>2026-04-17T16:21:33.05Z</time></trkpt><trkpt lat="44.8832544" lon="10.8106454"><ele>19.0</ele><time>2026-04-17T16:21:34.044Z</time></trkpt><trkpt lat="44.8832014" lon="10.8105872"><ele>19.0</ele><time>2026-04-17T16:21:35.051Z</time></trkpt><trkpt lat="44.883118" lon="10.8104747"><ele>19.0</ele><time>2026-04-17T16:21:37.049Z</time></trkpt><trkpt lat="44.8830487" lon="10.8104166"><ele>19.0</ele><time>2026-04-17T16:21:39.044Z</time></trkpt><trkpt lat="44.8829764" lon="10.8104695"><ele>19.0</ele><time>2026-04-17T16:21:41.044Z</time></trkpt><trkpt lat="44.8829018" lon="10.8106226"><ele>19.0</ele><time>2026-04-17T16:21:43.044Z</time></trkpt><trkpt lat="44.8828581" lon="10.8107379"><ele>19.0</ele><time>2026-04-17T16:21:44.044Z</time></trkpt><trkpt lat="44.8828109" lon="10.810874"><ele>19.0</ele><time>2026-04-17T16:21:45.044Z</time></trkpt><trkpt lat="44.8827613" lon="10.8110249"><ele>19.0</ele><time>2026-04-17T16:21:46.044Z</time></trkpt><trkpt lat="44.8827052" lon="10.8111771"><ele>19.0</ele><time>2026-04-17T16:21:47.043Z</time></trkpt><trkpt lat="44.8826444" lon="10.8113439"><ele>19.0</ele><time>2026-04-17T16:21:48.045Z</time></trkpt><trkpt lat="44.882586" lon="10.811521"><ele>19.0</ele><time>2026-04-17T16:21:49.045Z</time></trkpt><trkpt lat="44.8825211" lon="10.8117044"><ele>19.0</ele><time>2026-04-17T16:21:50.045Z</time></trkpt><trkpt lat="44.8824528" lon="10.8118918"><ele>19.0</ele><time>2026-04-17T16:21:51.045Z</time></trkpt><trkpt lat="44.882383" lon="10.8120825"><ele>18.75</ele><time>2026-04-17T16:21:52.044Z</time></trkpt><trkpt lat="44.8823139" lon="10.8122739"><ele>18.5</ele><time>2026-04-17T16:21:53.044Z</time></trkpt><trkpt lat="44.8822446" lon="10.8124673"><ele>18.25</ele><time>2026-04-17T16:21:54.044Z</time></trkpt><trkpt lat="44.8821812" lon="10.8126464"><ele>18.0</ele><time>2026-04-17T16:21:55.045Z</time></trkpt><trkpt lat="44.8821203" lon="10.8128145"><ele>18.0</ele><time>2026-04-17T16:21:56.044Z</time></trkpt><trkpt lat="44.8820606" lon="10.8129743"><ele>18.0</ele><time>2026-04-17T16:21:57.044Z</time></trkpt><trkpt lat="44.8820086" lon="10.8131164"><ele>18.0</ele><time>2026-04-17T16:21:58.043Z</time></trkpt><trkpt lat="44.8819617" lon="10.813245"><ele>18.0</ele><time>2026-04-17T16:21:59.044Z</time></trkpt><trkpt lat="44.8819127" lon="10.8133644"><ele>18.0</ele><time>2026-04-17T16:22:00.045Z</time></trkpt><trkpt lat="44.8818615" lon="10.8134896"><ele>18.0</ele><time>2026-04-17T16:22:01.044Z</time></trkpt><trkpt lat="44.8818129" lon="10.8136322"><ele>18.0</ele><time>2026-04-17T16:22:02.045Z</time></trkpt><trkpt lat="44.8817605" lon="10.813779"><ele>18.0</ele><time>2026-04-17T16:22:03.044Z</time></trkpt><trkpt lat="44.8817053" lon="10.8139327"><ele>18.0</ele><time>2026-04-17T16:22:04.043Z</time></trkpt><trkpt lat="44.8816449" lon="10.8140987"><ele>17.75</ele><time>2026-04-17T16:22:05.045Z</time></trkpt><trkpt lat="44.8815847" lon="10.8142664"><ele>17.5</ele><time>2026-04-17T16:22:06.044Z</time></trkpt><trkpt lat="44.8815255" lon="10.8144336"><ele>17.25</ele><time>2026-04-17T16:22:07.044Z</time></trkpt><trkpt lat="44.88147" lon="10.8145892"><ele>17.0</ele><time>2026-04-17T16:22:08.044Z</time></trkpt><trkpt lat="44.8814152" lon="10.8147502"><ele>17.0</ele><time>2026-04-17T16:22:09.043Z</time></trkpt><trkpt lat="44.8813607" lon="10.8149046"><ele>17.0</ele><time>2026-04-17T16:22:10.044Z</time></trkpt><trkpt lat="44.8813026" lon="10.8150655"><ele>17.0</ele><time>2026-04-17T16:22:11.043Z</time></trkpt><trkpt lat="44.8812524" lon="10.8152122"><ele>17.0</ele><time>2026-04-17T16:22:12.044Z</time></trkpt><trkpt lat="44.8812046" lon="10.8153442"><ele>17.166666666666668</ele><time>2026-04-17T16:22:13.044Z</time></trkpt><trkpt lat="44.8811577" lon="10.8154693"><ele>17.333333333333336</ele><time>2026-04-17T16:22:14.044Z</time></trkpt><trkpt lat="44.8811096" lon="10.8155896"><ele>17.5</ele><time>2026-04-17T16:22:15.045Z</time></trkpt><trkpt lat="44.8810663" lon="10.8157018"><ele>17.666666666666668</ele><time>2026-04-17T16:22:16.044Z</time></trkpt><trkpt lat="44.881032" lon="10.8157975"><ele>17.833333333333332</ele><time>2026-04-17T16:22:17.044Z</time></trkpt><trkpt lat="44.8810019" lon="10.8158823"><ele>18.0</ele><time>2026-04-17T16:22:18.045Z</time></trkpt><trkpt lat="44.8809573" lon="10.8159936"><ele>18.5</ele><time>2026-04-17T16:22:20.045Z</time></trkpt><trkpt lat="44.8808816" lon="10.8160238"><ele>19.0</ele><time>2026-04-17T16:22:22.044Z</time></trkpt><trkpt lat="44.8808187" lon="10.8161375"><ele>19.5</ele><time>2026-04-17T16:22:24.045Z</time></trkpt><trkpt lat="44.8807901" lon="10.8162214"><ele>20.0</ele><time>2026-04-17T16:22:25.044Z</time></trkpt><trkpt lat="44.8807427" lon="10.8163559"><ele>20.5</ele><time>2026-04-17T16:22:27.045Z</time></trkpt><trkpt lat="44.8807175" lon="10.8164413"><ele>21.0</ele><time>2026-04-17T16:22:29.045Z</time></trkpt><trkpt lat="44.8807639" lon="10.8165486"><ele>21.0</ele><time>2026-04-17T16:22:32.044Z</time></trkpt><trkpt lat="44.8808379" lon="10.8165992"><ele>21.0</ele><time>2026-04-17T16:22:34.044Z</time></trkpt><trkpt lat="44.8809301" lon="10.8166574"><ele>21.0</ele><time>2026-04-17T16:22:36.044Z</time></trkpt><trkpt lat="44.8810377" lon="10.8167276"><ele>21.0</ele><time>2026-04-17T16:22:38.044Z</time></trkpt><trkpt lat="44.8810961" lon="10.8167677"><ele>21.0</ele><time>2026-04-17T16:22:39.044Z</time></trkpt><trkpt lat="44.8811523" lon="10.8168159"><ele>21.0</ele><time>2026-04-17T16:22:40.044Z</time></trkpt><trkpt lat="44.8812102" lon="10.8168572"><ele>20.666666666666668</ele><time>2026-04-17T16:22:41.044Z</time></trkpt><trkpt lat="44.8812756" lon="10.8169002"><ele>20.333333333333332</ele><time>2026-04-17T16:22:42.045Z</time></trkpt><trkpt lat="44.8813404" lon="10.8169424"><ele>20.0</ele><time>2026-04-17T16:22:43.044Z</time></trkpt><trkpt lat="44.8814081" lon="10.8169829"><ele>19.666666666666664</ele><time>2026-04-17T16:22:44.044Z</time></trkpt><trkpt lat="44.8814747" lon="10.8170359"><ele>19.333333333333332</ele><time>2026-04-17T16:22:45.044Z</time></trkpt><trkpt lat="44.8815499" lon="10.8170786"><ele>19.0</ele><time>2026-04-17T16:22:46.044Z</time></trkpt><trkpt lat="44.8816314" lon="10.8171125"><ele>19.0</ele><time>2026-04-17T16:22:47.044Z</time></trkpt><trkpt lat="44.8817081" lon="10.8171684"><ele>19.0</ele><time>2026-04-17T16:22:48.044Z</time></trkpt><trkpt lat="44.881787" lon="10.8172202"><ele>19.0</ele><time>2026-04-17T16:22:49.044Z</time></trkpt><trkpt lat="44.8818646" lon="10.817281"><ele>19.0</ele><time>2026-04-17T16:22:50.044Z</time></trkpt><trkpt lat="44.8819507" lon="10.8173386"><ele>19.0</ele><time>2026-04-17T16:22:51.044Z</time></trkpt><trkpt lat="44.8820355" lon="10.8173983"><ele>19.0</ele><time>2026-04-17T16:22:52.044Z</time></trkpt><trkpt lat="44.8821179" lon="10.8174539"><ele>19.0</ele><time>2026-04-17T16:22:53.043Z</time></trkpt><trkpt lat="44.882202" lon="10.8175079"><ele>19.0</ele><time>2026-04-17T16:22:54.044Z</time></trkpt><trkpt lat="44.8822855" lon="10.817565"><ele>19.0</ele><time>2026-04-17T16:22:55.045Z</time></trkpt><trkpt lat="44.8823735" lon="10.8176335"><ele>19.0</ele><time>2026-04-17T16:22:56.044Z</time></trkpt><trkpt lat="44.8824602" lon="10.8176916"><ele>19.0</ele><time>2026-04-17T16:22:57.044Z</time></trkpt><trkpt lat="44.8825458" lon="10.8177476"><ele>19.0</ele><time>2026-04-17T16:22:58.044Z</time></trkpt><trkpt lat="44.8826318" lon="10.8178015"><ele>19.0</ele><time>2026-04-17T16:22:59.045Z</time></trkpt><trkpt lat="44.8827159" lon="10.817861"><ele>19.0</ele><time>2026-04-17T16:23:00.044Z</time></trkpt><trkpt lat="44.8828015" lon="10.8179188"><ele>19.0</ele><time>2026-04-17T16:23:01.044Z</time></trkpt><trkpt lat="44.8828868" lon="10.8179756"><ele>19.0</ele><time>2026-04-17T16:23:02.045Z</time></trkpt><trkpt lat="44.8829754" lon="10.8180357"><ele>19.0</ele><time>2026-04-17T16:23:03.044Z</time></trkpt><trkpt lat="44.8830663" lon="10.8180883"><ele>19.0</ele><time>2026-04-17T16:23:04.044Z</time></trkpt><trkpt lat="44.8831578" lon="10.8181479"><ele>19.0</ele><time>2026-04-17T16:23:05.044Z</time></trkpt><trkpt lat="44.8832488" lon="10.8182086"><ele>19.0</ele><time>2026-04-17T16:23:06.045Z</time></trkpt><trkpt lat="44.8833383" lon="10.8182753"><ele>19.0</ele><time>2026-04-17T16:23:07.044Z</time></trkpt><trkpt lat="44.8834194" lon="10.8183377"><ele>19.0</ele><time>2026-04-17T16:23:08.043Z</time></trkpt><trkpt lat="44.8834996" lon="10.8183906"><ele>19.0</ele><time>2026-04-17T16:23:09.044Z</time></trkpt><trkpt lat="44.8835768" lon="10.8184433"><ele>19.0</ele><time>2026-04-17T16:23:10.044Z</time></trkpt><trkpt lat="44.8836548" lon="10.818497"><ele>19.0</ele><time>2026-04-17T16:23:11.045Z</time></trkpt><trkpt lat="44.883736" lon="10.8185546"><ele>19.0</ele><time>2026-04-17T16:23:12.044Z</time></trkpt><trkpt lat="44.8838204" lon="10.8186083"><ele>18.8</ele><time>2026-04-17T16:23:13.044Z</time></trkpt><trkpt lat="44.8839041" lon="10.8186618"><ele>18.599999999999998</ele><time>2026-04-17T16:23:14.044Z</time></trkpt><trkpt lat="44.8839896" lon="10.8187168"><ele>18.4</ele><time>2026-04-17T16:23:15.044Z</time></trkpt><trkpt lat="44.8840758" lon="10.818773"><ele>18.2</ele><time>2026-04-17T16:23:16.044Z</time></trkpt><trkpt lat="44.8841688" lon="10.8188208"><ele>18.0</ele><time>2026-04-17T16:23:17.044Z</time></trkpt><trkpt lat="44.8842468" lon="10.8188753"><ele>18.166666666666668</ele><time>2026-04-17T16:23:18.045Z</time></trkpt><trkpt lat="44.8843141" lon="10.8189269"><ele>18.333333333333332</ele><time>2026-04-17T16:23:19.044Z</time></trkpt><trkpt lat="44.8843835" lon="10.8189704"><ele>18.5</ele><time>2026-04-17T16:23:20.045Z</time></trkpt><trkpt lat="44.8844489" lon="10.8190216"><ele>18.666666666666664</ele><time>2026-04-17T16:23:21.043Z</time></trkpt><trkpt lat="44.8845442" lon="10.8190731"><ele>18.833333333333332</ele><time>2026-04-17T16:23:23.045Z</time></trkpt><trkpt lat="44.8846281" lon="10.819055"><ele>19.0</ele><time>2026-04-17T16:23:25.045Z</time></trkpt><trkpt lat="44.8847001" lon="10.8189169"><ele>19.0</ele><time>2026-04-17T16:23:27.044Z</time></trkpt><trkpt lat="44.8847409" lon="10.8188125"><ele>19.0</ele><time>2026-04-17T16:23:28.044Z</time></trkpt><trkpt lat="44.8847823" lon="10.818705"><ele>19.0</ele><time>2026-04-17T16:23:29.044Z</time></trkpt><trkpt lat="44.8848142" lon="10.8186074"><ele>19.0</ele><time>2026-04-17T16:23:30.044Z</time></trkpt><trkpt lat="44.8848426" lon="10.8185207"><ele>19.0</ele><time>2026-04-17T16:23:31.044Z</time></trkpt><trkpt lat="44.8849134" lon="10.8183955"><ele>19.0</ele><time>2026-04-17T16:23:33.043Z</time></trkpt><trkpt lat="44.885032" lon="10.8183762"><ele>18.75</ele><time>2026-04-17T16:23:35.045Z</time></trkpt><trkpt lat="44.8851169" lon="10.8184173"><ele>18.5</ele><time>2026-04-17T16:23:36.045Z</time></trkpt><trkpt lat="44.885215" lon="10.8184801"><ele>18.25</ele><time>2026-04-17T16:23:37.044Z</time></trkpt><trkpt lat="44.8853314" lon="10.818551"><ele>18.0</ele><time>2026-04-17T16:23:38.043Z</time></trkpt><trkpt lat="44.8854498" lon="10.8186344"><ele>17.666666666666668</ele><time>2026-04-17T16:23:39.044Z</time></trkpt><trkpt lat="44.8855804" lon="10.8187223"><ele>17.333333333333336</ele><time>2026-04-17T16:23:40.044Z</time></trkpt><trkpt lat="44.8857142" lon="10.8188184"><ele>17.0</ele><time>2026-04-17T16:23:41.044Z</time></trkpt><trkpt lat="44.8858567" lon="10.8189159"><ele>17.0</ele><time>2026-04-17T16:23:42.044Z</time></trkpt><trkpt lat="44.886002" lon="10.8190142"><ele>17.0</ele><time>2026-04-17T16:23:43.044Z</time></trkpt><trkpt lat="44.8861534" lon="10.8191143"><ele>17.0</ele><time>2026-04-17T16:23:44.044Z</time></trkpt><trkpt lat="44.886303" lon="10.8192153"><ele>17.333333333333336</ele><time>2026-04-17T16:23:45.045Z</time></trkpt><trkpt lat="44.8864551" lon="10.8193185"><ele>17.666666666666668</ele><time>2026-04-17T16:23:46.044Z</time></trkpt><trkpt lat="44.886614" lon="10.8194237"><ele>18.0</ele><time>2026-04-17T16:23:47.044Z</time></trkpt><trkpt lat="44.8867718" lon="10.8195276"><ele>18.333333333333332</ele><time>2026-04-17T16:23:48.044Z</time></trkpt><trkpt lat="44.8869187" lon="10.8196208"><ele>18.666666666666664</ele><time>2026-04-17T16:23:49.044Z</time></trkpt><trkpt lat="44.8870614" lon="10.8197164"><ele>19.0</ele><time>2026-04-17T16:23:50.044Z</time></trkpt><trkpt lat="44.8871963" lon="10.8198083"><ele>19.0</ele><time>2026-04-17T16:23:51.044Z</time></trkpt><trkpt lat="44.8873231" lon="10.8198956"><ele>19.0</ele><time>2026-04-17T16:23:52.044Z</time></trkpt><trkpt lat="44.8874516" lon="10.8199814"><ele>19.0</ele><time>2026-04-17T16:23:53.045Z</time></trkpt><trkpt lat="44.8875784" lon="10.8200654"><ele>19.0</ele><time>2026-04-17T16:23:54.044Z</time></trkpt><trkpt lat="44.8877135" lon="10.8201558"><ele>19.0</ele><time>2026-04-17T16:23:55.043Z</time></trkpt><trkpt lat="44.8878537" lon="10.8202542"><ele>19.0</ele><time>2026-04-17T16:23:56.044Z</time></trkpt><trkpt lat="44.8879954" lon="10.8203448"><ele>19.0</ele><time>2026-04-17T16:23:57.044Z</time></trkpt><trkpt lat="44.8881379" lon="10.8204449"><ele>19.0</ele><time>2026-04-17T16:23:58.044Z</time></trkpt><trkpt lat="44.8882765" lon="10.8205368"><ele>19.0</ele><time>2026-04-17T16:23:59.044Z</time></trkpt><trkpt lat="44.8884151" lon="10.8206272"><ele>19.0</ele><time>2026-04-17T16:24:00.044Z</time></trkpt><trkpt lat="44.8885389" lon="10.8207113"><ele>19.0</ele><time>2026-04-17T16:24:01.045Z</time></trkpt><trkpt lat="44.888655" lon="10.8207901"><ele>19.0</ele><time>2026-04-17T16:24:02.044Z</time></trkpt><trkpt lat="44.8887703" lon="10.8208641"><ele>19.0</ele><time>2026-04-17T16:24:03.045Z</time></trkpt><trkpt lat="44.8888859" lon="10.8209446"><ele>19.0</ele><time>2026-04-17T16:24:04.043Z</time></trkpt><trkpt lat="44.8890035" lon="10.8210179"><ele>19.0</ele><time>2026-04-17T16:24:05.044Z</time></trkpt><trkpt lat="44.8891049" lon="10.8210846"><ele>19.0</ele><time>2026-04-17T16:24:06.044Z</time></trkpt><trkpt lat="44.8891901" lon="10.8211445"><ele>19.0</ele><time>2026-04-17T16:24:07.045Z</time></trkpt><trkpt lat="44.8892618" lon="10.8211992"><ele>19.0</ele><time>2026-04-17T16:24:08.045Z</time></trkpt><trkpt lat="44.8893353" lon="10.8212538"><ele>19.0</ele><time>2026-04-17T16:24:09.044Z</time></trkpt><trkpt lat="44.8894243" lon="10.8212923"><ele>19.0</ele><time>2026-04-17T16:24:10.044Z</time></trkpt><trkpt lat="44.8895288" lon="10.8213194"><ele>19.0</ele><time>2026-04-17T16:24:11.044Z</time></trkpt><trkpt lat="44.8896452" lon="10.8213614"><ele>19.0</ele><time>2026-04-17T16:24:12.044Z</time></trkpt><trkpt lat="44.8897699" lon="10.8214364"><ele>19.0</ele><time>2026-04-17T16:24:13.044Z</time></trkpt><trkpt lat="44.8899014" lon="10.8215356"><ele>19.0</ele><time>2026-04-17T16:24:14.043Z</time></trkpt><trkpt lat="44.890036" lon="10.8216266"><ele>18.333333333333332</ele><time>2026-04-17T16:24:15.045Z</time></trkpt><trkpt lat="44.8901769" lon="10.8217199"><ele>17.666666666666668</ele><time>2026-04-17T16:24:16.043Z</time></trkpt><trkpt lat="44.8903164" lon="10.8218028"><ele>17.0</ele><time>2026-04-17T16:24:17.044Z</time></trkpt><trkpt lat="44.8904518" lon="10.821881"><ele>17.0</ele><time>2026-04-17T16:24:18.044Z</time></trkpt><trkpt lat="44.8905592" lon="10.8219418"><ele>17.0</ele><time>2026-04-17T16:24:19.045Z</time></trkpt><trkpt lat="44.8906536" lon="10.822"><ele>17.0</ele><time>2026-04-17T16:24:20.044Z</time></trkpt><trkpt lat="44.8907365" lon="10.8220471"><ele>17.0</ele><time>2026-04-17T16:24:21.044Z</time></trkpt><trkpt lat="44.8908233" lon="10.8220963"><ele>17.0</ele><time>2026-04-17T16:24:22.043Z</time></trkpt><trkpt lat="44.8909115" lon="10.8221508"><ele>17.0</ele><time>2026-04-17T16:24:23.044Z</time></trkpt><trkpt lat="44.8910134" lon="10.8222061"><ele>17.0</ele><time>2026-04-17T16:24:24.045Z</time></trkpt><trkpt lat="44.8911206" lon="10.8222596"><ele>17.0</ele><time>2026-04-17T16:24:25.044Z</time></trkpt><trkpt lat="44.8912351" lon="10.8223181"><ele>17.0</ele><time>2026-04-17T16:24:26.044Z</time></trkpt><trkpt lat="44.8913576" lon="10.8223813"><ele>17.0</ele><time>2026-04-17T16:24:27.044Z</time></trkpt><trkpt lat="44.891485" lon="10.8224488"><ele>17.0</ele><time>2026-04-17T16:24:28.044Z</time></trkpt><trkpt lat="44.8916183" lon="10.8225162"><ele>17.0</ele><time>2026-04-17T16:24:29.044Z</time></trkpt><trkpt lat="44.8917577" lon="10.8225882"><ele>17.0</ele><time>2026-04-17T16:24:30.043Z</time></trkpt><trkpt lat="44.8918985" lon="10.8226606"><ele>17.0</ele><time>2026-04-17T16:24:31.044Z</time></trkpt><trkpt lat="44.8920399" lon="10.8227336"><ele>17.0</ele><time>2026-04-17T16:24:32.044Z</time></trkpt><trkpt lat="44.8921831" lon="10.822804"><ele>17.0</ele><time>2026-04-17T16:24:33.044Z</time></trkpt><trkpt lat="44.8923275" lon="10.8228775"><ele>17.0</ele><time>2026-04-17T16:24:34.044Z</time></trkpt><trkpt lat="44.8924718" lon="10.8229494"><ele>17.0</ele><time>2026-04-17T16:24:35.044Z</time></trkpt><trkpt lat="44.892616" lon="10.8230238"><ele>17.0</ele><time>2026-04-17T16:24:36.044Z</time></trkpt><trkpt lat="44.8927545" lon="10.8230936"><ele>16.5</ele><time>2026-04-17T16:24:37.044Z</time></trkpt><trkpt lat="44.8928848" lon="10.8231585"><ele>16.0</ele><time>2026-04-17T16:24:38.044Z</time></trkpt><trkpt lat="44.8930146" lon="10.823228"><ele>15.5</ele><time>2026-04-17T16:24:39.044Z</time></trkpt><trkpt lat="44.8931343" lon="10.823291"><ele>15.0</ele><time>2026-04-17T16:24:40.044Z</time></trkpt><trkpt lat="44.8932557" lon="10.8233518"><ele>15.0</ele><time>2026-04-17T16:24:41.045Z</time></trkpt><trkpt lat="44.8933758" lon="10.8234109"><ele>15.0</ele><time>2026-04-17T16:24:42.045Z</time></trkpt><trkpt lat="44.8934846" lon="10.8234681"><ele>15.0</ele><time>2026-04-17T16:24:43.044Z</time></trkpt><trkpt lat="44.8935837" lon="10.8235227"><ele>15.0</ele><time>2026-04-17T16:24:44.044Z</time></trkpt><trkpt lat="44.8936765" lon="10.8235721"><ele>15.0</ele><time>2026-04-17T16:24:45.044Z</time></trkpt><trkpt lat="44.8937621" lon="10.8236152"><ele>15.166666666666666</ele><time>2026-04-17T16:24:46.044Z</time></trkpt><trkpt lat="44.8938523" lon="10.8236575"><ele>15.333333333333332</ele><time>2026-04-17T16:24:47.044Z</time></trkpt><trkpt lat="44.8939301" lon="10.8236963"><ele>15.5</ele><time>2026-04-17T16:24:48.044Z</time></trkpt><trkpt lat="44.8940104" lon="10.8237337"><ele>15.666666666666666</ele><time>2026-04-17T16:24:49.044Z</time></trkpt><trkpt lat="44.8940804" lon="10.8237726"><ele>15.833333333333332</ele><time>2026-04-17T16:24:50.044Z</time></trkpt><trkpt lat="44.8941466" lon="10.8238054"><ele>16.0</ele><time>2026-04-17T16:24:51.044Z</time></trkpt><trkpt lat="44.8942471" lon="10.8238567"><ele>16.166666666666664</ele><time>2026-04-17T16:24:53.043Z</time></trkpt><trkpt lat="44.8943059" lon="10.8239033"><ele>16.333333333333332</ele><time>2026-04-17T16:24:56.044Z</time></trkpt><trkpt lat="44.8943571" lon="10.8239665"><ele>16.5</ele><time>2026-04-17T16:25:01.043Z</time></trkpt><trkpt lat="44.8944333" lon="10.8239431"><ele>16.666666666666668</ele><time>2026-04-17T16:25:05.044Z</time></trkpt><trkpt lat="44.8944716" lon="10.8240811"><ele>16.833333333333336</ele><time>2026-04-17T16:25:07.044Z</time></trkpt><trkpt lat="44.8944923" lon="10.8242176"><ele>17.0</ele><time>2026-04-17T16:25:08.044Z</time></trkpt><trkpt lat="44.8945221" lon="10.8243705"><ele>17.0</ele><time>2026-04-17T16:25:09.043Z</time></trkpt><trkpt lat="44.8945531" lon="10.8245476"><ele>17.0</ele><time>2026-04-17T16:25:10.044Z</time></trkpt><trkpt lat="44.894592" lon="10.8247335"><ele>17.0</ele><time>2026-04-17T16:25:11.045Z</time></trkpt><trkpt lat="44.8946312" lon="10.8249443"><ele>17.0</ele><time>2026-04-17T16:25:12.044Z</time></trkpt><trkpt lat="44.8946772" lon="10.8251614"><ele>16.666666666666668</ele><time>2026-04-17T16:25:13.044Z</time></trkpt><trkpt lat="44.8947231" lon="10.8253853"><ele>16.333333333333332</ele><time>2026-04-17T16:25:14.044Z</time></trkpt><trkpt lat="44.8947726" lon="10.8256169"><ele>16.0</ele><time>2026-04-17T16:25:15.044Z</time></trkpt><trkpt lat="44.8948292" lon="10.825851"><ele>16.333333333333332</ele><time>2026-04-17T16:25:16.043Z</time></trkpt><trkpt lat="44.8948785" lon="10.8260737"><ele>16.666666666666668</ele><time>2026-04-17T16:25:17.044Z</time></trkpt><trkpt lat="44.8949246" lon="10.8262964"><ele>17.0</ele><time>2026-04-17T16:25:18.043Z</time></trkpt><trkpt lat="44.8949658" lon="10.8264995"><ele>17.0</ele><time>2026-04-17T16:25:19.044Z</time></trkpt><trkpt lat="44.8950032" lon="10.8266927"><ele>17.0</ele><time>2026-04-17T16:25:20.045Z</time></trkpt><trkpt lat="44.8950404" lon="10.8268745"><ele>17.0</ele><time>2026-04-17T16:25:21.043Z</time></trkpt><trkpt lat="44.8950729" lon="10.8270483"><ele>17.0</ele><time>2026-04-17T16:25:22.044Z</time></trkpt><trkpt lat="44.8950969" lon="10.8272148"><ele>17.0</ele><time>2026-04-17T16:25:23.045Z</time></trkpt><trkpt lat="44.8951078" lon="10.8273692"><ele>17.0</ele><time>2026-04-17T16:25:24.043Z</time></trkpt><trkpt lat="44.8951128" lon="10.8275199"><ele>17.0</ele><time>2026-04-17T16:25:25.044Z</time></trkpt><trkpt lat="44.895118" lon="10.8276718"><ele>17.0</ele><time>2026-04-17T16:25:26.044Z</time></trkpt><trkpt lat="44.8951118" lon="10.8278292"><ele>17.0</ele><time>2026-04-17T16:25:27.045Z</time></trkpt><trkpt lat="44.8950988" lon="10.8279936"><ele>17.0</ele><time>2026-04-17T16:25:28.043Z</time></trkpt><trkpt lat="44.8950831" lon="10.8281515"><ele>17.0</ele><time>2026-04-17T16:25:29.043Z</time></trkpt><trkpt lat="44.8950572" lon="10.8283192"><ele>17.0</ele><time>2026-04-17T16:25:30.044Z</time></trkpt><trkpt lat="44.8950289" lon="10.8284848"><ele>17.0</ele><time>2026-04-17T16:25:31.045Z</time></trkpt><trkpt lat="44.8949952" lon="10.8286544"><ele>17.25</ele><time>2026-04-17T16:25:32.044Z</time></trkpt><trkpt lat="44.8949586" lon="10.8288299"><ele>17.5</ele><time>2026-04-17T16:25:33.044Z</time></trkpt><trkpt lat="44.8949202" lon="10.82901"><ele>17.75</ele><time>2026-04-17T16:25:34.044Z</time></trkpt><trkpt lat="44.8948696" lon="10.8292162"><ele>18.0</ele><time>2026-04-17T16:25:35.044Z</time></trkpt><trkpt lat="44.8948221" lon="10.8294345"><ele>18.0</ele><time>2026-04-17T16:25:36.044Z</time></trkpt><trkpt lat="44.8947706" lon="10.8296666"><ele>18.0</ele><time>2026-04-17T16:25:37.043Z</time></trkpt><trkpt lat="44.8947239" lon="10.8299037"><ele>18.0</ele><time>2026-04-17T16:25:38.044Z</time></trkpt><trkpt lat="44.8946796" lon="10.8301438"><ele>18.0</ele><time>2026-04-17T16:25:39.045Z</time></trkpt><trkpt lat="44.8946243" lon="10.8303942"><ele>18.0</ele><time>2026-04-17T16:25:40.043Z</time></trkpt><trkpt lat="44.894579" lon="10.8306464"><ele>18.0</ele><time>2026-04-17T16:25:41.043Z</time></trkpt><trkpt lat="44.8945255" lon="10.8309032"><ele>17.333333333333332</ele><time>2026-04-17T16:25:42.043Z</time></trkpt><trkpt lat="44.8944734" lon="10.8311628"><ele>16.666666666666664</ele><time>2026-04-17T16:25:43.045Z</time></trkpt><trkpt lat="44.894423" lon="10.8314283"><ele>16.0</ele><time>2026-04-17T16:25:44.045Z</time></trkpt><trkpt lat="44.8943706" lon="10.8316958"><ele>16.0</ele><time>2026-04-17T16:25:45.044Z</time></trkpt><trkpt lat="44.8943167" lon="10.8319635"><ele>16.0</ele><time>2026-04-17T16:25:46.044Z</time></trkpt><trkpt lat="44.8942637" lon="10.8322342"><ele>16.0</ele><time>2026-04-17T16:25:47.044Z</time></trkpt><trkpt lat="44.8942091" lon="10.8325066"><ele>16.666666666666664</ele><time>2026-04-17T16:25:48.043Z</time></trkpt><trkpt lat="44.8941554" lon="10.8327774"><ele>17.333333333333332</ele><time>2026-04-17T16:25:49.044Z</time></trkpt><trkpt lat="44.894102" lon="10.8330519"><ele>18.0</ele><time>2026-04-17T16:25:50.044Z</time></trkpt><trkpt lat="44.894051" lon="10.8333245"><ele>17.333333333333332</ele><time>2026-04-17T16:25:51.045Z</time></trkpt><trkpt lat="44.8939962" lon="10.8335992"><ele>16.666666666666664</ele><time>2026-04-17T16:25:52.044Z</time></trkpt><trkpt lat="44.8939413" lon="10.833878"><ele>16.0</ele><time>2026-04-17T16:25:53.044Z</time></trkpt><trkpt lat="44.8938861" lon="10.834153"><ele>15.666666666666666</ele><time>2026-04-17T16:25:54.045Z</time></trkpt><trkpt lat="44.8938315" lon="10.8344295"><ele>15.333333333333332</ele><time>2026-04-17T16:25:55.044Z</time></trkpt><trkpt lat="44.8937756" lon="10.8347091"><ele>15.0</ele><time>2026-04-17T16:25:56.044Z</time></trkpt><trkpt lat="44.8937193" lon="10.8349891"><ele>15.666666666666668</ele><time>2026-04-17T16:25:57.044Z</time></trkpt><trkpt lat="44.893661" lon="10.8352707"><ele>16.333333333333336</ele><time>2026-04-17T16:25:58.044Z</time></trkpt><trkpt lat="44.8936032" lon="10.8355536"><ele>17.0</ele><time>2026-04-17T16:25:59.045Z</time></trkpt><trkpt lat="44.8935472" lon="10.835838"><ele>17.0</ele><time>2026-04-17T16:26:00.044Z</time></trkpt><trkpt lat="44.8934904" lon="10.8361253"><ele>17.0</ele><time>2026-04-17T16:26:01.043Z</time></trkpt><trkpt lat="44.8934375" lon="10.8364085"><ele>17.0</ele><time>2026-04-17T16:26:02.044Z</time></trkpt><trkpt lat="44.8933805" lon="10.8366963"><ele>17.0</ele><time>2026-04-17T16:26:03.044Z</time></trkpt><trkpt lat="44.8933243" lon="10.8369863"><ele>17.0</ele><time>2026-04-17T16:26:04.044Z</time></trkpt><trkpt lat="44.8932678" lon="10.8372773"><ele>17.0</ele><time>2026-04-17T16:26:05.043Z</time></trkpt><trkpt lat="44.8932114" lon="10.837568"><ele>17.0</ele><time>2026-04-17T16:26:06.044Z</time></trkpt><trkpt lat="44.8931517" lon="10.8378571"><ele>17.0</ele><time>2026-04-17T16:26:07.044Z</time></trkpt><trkpt lat="44.8930956" lon="10.8381466"><ele>17.0</ele><time>2026-04-17T16:26:08.043Z</time></trkpt><trkpt lat="44.8930386" lon="10.8384362"><ele>17.0</ele><time>2026-04-17T16:26:09.045Z</time></trkpt><trkpt lat="44.8929754" lon="10.8387317"><ele>17.0</ele><time>2026-04-17T16:26:10.044Z</time></trkpt><trkpt lat="44.8929113" lon="10.8390222"><ele>17.0</ele><time>2026-04-17T16:26:11.044Z</time></trkpt><trkpt lat="44.8928555" lon="10.8392873"><ele>16.666666666666668</ele><time>2026-04-17T16:26:12.044Z</time></trkpt><trkpt lat="44.8928038" lon="10.8395431"><ele>16.333333333333332</ele><time>2026-04-17T16:26:13.044Z</time></trkpt><trkpt lat="44.8927553" lon="10.8397848"><ele>16.0</ele><time>2026-04-17T16:26:14.044Z</time></trkpt><trkpt lat="44.8927097" lon="10.84001"><ele>16.333333333333332</ele><time>2026-04-17T16:26:15.044Z</time></trkpt><trkpt lat="44.8926671" lon="10.8402227"><ele>16.666666666666668</ele><time>2026-04-17T16:26:16.044Z</time></trkpt><trkpt lat="44.8926254" lon="10.8404296"><ele>17.0</ele><time>2026-04-17T16:26:17.044Z</time></trkpt><trkpt lat="44.8925842" lon="10.8406247"><ele>16.75</ele><time>2026-04-17T16:26:18.044Z</time></trkpt><trkpt lat="44.892547" lon="10.8408106"><ele>16.5</ele><time>2026-04-17T16:26:19.043Z</time></trkpt><trkpt lat="44.8925125" lon="10.8409815"><ele>16.25</ele><time>2026-04-17T16:26:20.043Z</time></trkpt><trkpt lat="44.8924787" lon="10.8411562"><ele>16.0</ele><time>2026-04-17T16:26:21.045Z</time></trkpt><trkpt lat="44.8924486" lon="10.8413161"><ele>16.0</ele><time>2026-04-17T16:26:22.045Z</time></trkpt><trkpt lat="44.8924194" lon="10.8414599"><ele>16.0</ele><time>2026-04-17T16:26:23.043Z</time></trkpt><trkpt lat="44.8923931" lon="10.8415899"><ele>16.0</ele><time>2026-04-17T16:26:24.044Z</time></trkpt><trkpt lat="44.892368" lon="10.8417183"><ele>16.0</ele><time>2026-04-17T16:26:25.042Z</time></trkpt><trkpt lat="44.8923415" lon="10.8418441"><ele>16.0</ele><time>2026-04-17T16:26:26.045Z</time></trkpt><trkpt lat="44.8923129" lon="10.8419618"><ele>15.999999999999998</ele><time>2026-04-17T16:26:27.043Z</time></trkpt><trkpt lat="44.8922895" lon="10.8420712"><ele>16.0</ele><time>2026-04-17T16:26:28.044Z</time></trkpt><trkpt lat="44.8922723" lon="10.8421769"><ele>16.0</ele><time>2026-04-17T16:26:29.044Z</time></trkpt><trkpt lat="44.8922504" lon="10.8422815"><ele>16.0</ele><time>2026-04-17T16:26:30.044Z</time></trkpt><trkpt lat="44.892231" lon="10.8423784"><ele>15.999999999999998</ele><time>2026-04-17T16:26:31.043Z</time></trkpt><trkpt lat="44.8922144" lon="10.8425367"><ele>16.0</ele><time>2026-04-17T16:26:33.044Z</time></trkpt><trkpt lat="44.8922793" lon="10.8426648"><ele>16.2</ele><time>2026-04-17T16:26:35.044Z</time></trkpt><trkpt lat="44.8923508" lon="10.8427311"><ele>16.400000000000002</ele><time>2026-04-17T16:26:36.042Z</time></trkpt><trkpt lat="44.8924371" lon="10.8427896"><ele>16.6</ele><time>2026-04-17T16:26:37.044Z</time></trkpt><trkpt lat="44.8925363" lon="10.8428366"><ele>16.8</ele><time>2026-04-17T16:26:38.043Z</time></trkpt><trkpt lat="44.8926375" lon="10.8428621"><ele>17.0</ele><time>2026-04-17T16:26:39.044Z</time></trkpt><trkpt lat="44.8927463" lon="10.8428575"><ele>17.0</ele><time>2026-04-17T16:26:40.044Z</time></trkpt><trkpt lat="44.8928554" lon="10.842829"><ele>17.0</ele><time>2026-04-17T16:26:41.045Z</time></trkpt><trkpt lat="44.8929728" lon="10.8427845"><ele>17.0</ele><time>2026-04-17T16:26:42.044Z</time></trkpt><trkpt lat="44.8930901" lon="10.8427415"><ele>17.0</ele><time>2026-04-17T16:26:43.044Z</time></trkpt><trkpt lat="44.893199" lon="10.8427069"><ele>17.0</ele><time>2026-04-17T16:26:44.044Z</time></trkpt><trkpt lat="44.8932971" lon="10.8426812"><ele>17.0</ele><time>2026-04-17T16:26:45.044Z</time></trkpt><trkpt lat="44.8933854" lon="10.842659"><ele>17.0</ele><time>2026-04-17T16:26:46.045Z</time></trkpt><trkpt lat="44.8934655" lon="10.8426328"><ele>17.0</ele><time>2026-04-17T16:26:47.045Z</time></trkpt><trkpt lat="44.8935375" lon="10.8425962"><ele>17.0</ele><time>2026-04-17T16:26:48.045Z</time></trkpt><trkpt lat="44.8936042" lon="10.8425354"><ele>17.0</ele><time>2026-04-17T16:26:49.044Z</time></trkpt><trkpt lat="44.8936693" lon="10.8424325"><ele>17.0</ele><time>2026-04-17T16:26:50.044Z</time></trkpt><trkpt lat="44.8937397" lon="10.8423009"><ele>17.0</ele><time>2026-04-17T16:26:51.045Z</time></trkpt><trkpt lat="44.8938128" lon="10.8421532"><ele>17.0</ele><time>2026-04-17T16:26:52.044Z</time></trkpt><trkpt lat="44.8938931" lon="10.8419919"><ele>17.0</ele><time>2026-04-17T16:26:53.044Z</time></trkpt><trkpt lat="44.8939712" lon="10.8418283"><ele>16.75</ele><time>2026-04-17T16:26:54.043Z</time></trkpt><trkpt lat="44.8940517" lon="10.8416512"><ele>16.5</ele><time>2026-04-17T16:26:55.044Z</time></trkpt><trkpt lat="44.8941267" lon="10.8414847"><ele>16.25</ele><time>2026-04-17T16:26:56.043Z</time></trkpt><trkpt lat="44.8941956" lon="10.8413323"><ele>16.0</ele><time>2026-04-17T16:26:57.045Z</time></trkpt><trkpt lat="44.894259" lon="10.8411997"><ele>16.0</ele><time>2026-04-17T16:26:58.044Z</time></trkpt><trkpt lat="44.8943154" lon="10.8410856"><ele>16.0</ele><time>2026-04-17T16:26:59.044Z</time></trkpt><trkpt lat="44.8943719" lon="10.8409884"><ele>16.0</ele><time>2026-04-17T16:27:00.044Z</time></trkpt><trkpt lat="44.8944415" lon="10.8409153"><ele>16.0</ele><time>2026-04-17T16:27:01.044Z</time></trkpt><trkpt lat="44.8945291" lon="10.8408694"><ele>16.0</ele><time>2026-04-17T16:27:02.044Z</time></trkpt><trkpt lat="44.8946391" lon="10.8408417"><ele>16.0</ele><time>2026-04-17T16:27:03.044Z</time></trkpt><trkpt lat="44.8947615" lon="10.8408559"><ele>16.0</ele><time>2026-04-17T16:27:04.043Z</time></trkpt><trkpt lat="44.8949081" lon="10.8408861"><ele>16.0</ele><time>2026-04-17T16:27:05.044Z</time></trkpt><trkpt lat="44.8950678" lon="10.8409191"><ele>16.0</ele><time>2026-04-17T16:27:06.044Z</time></trkpt><trkpt lat="44.8952288" lon="10.8409593"><ele>16.0</ele><time>2026-04-17T16:27:07.044Z</time></trkpt><trkpt lat="44.8953916" lon="10.840999"><ele>16.0</ele><time>2026-04-17T16:27:08.042Z</time></trkpt><trkpt lat="44.8955626" lon="10.8410378"><ele>16.0</ele><time>2026-04-17T16:27:09.043Z</time></trkpt><trkpt lat="44.8957325" lon="10.8410763"><ele>16.0</ele><time>2026-04-17T16:27:10.043Z</time></trkpt><trkpt lat="44.8959096" lon="10.8411101"><ele>16.0</ele><time>2026-04-17T16:27:11.044Z</time></trkpt><trkpt lat="44.8960881" lon="10.8411483"><ele>16.0</ele><time>2026-04-17T16:27:12.044Z</time></trkpt><trkpt lat="44.8962736" lon="10.8411876"><ele>15.666666666666666</ele><time>2026-04-17T16:27:13.045Z</time></trkpt><trkpt lat="44.8964622" lon="10.8412318"><ele>15.333333333333332</ele><time>2026-04-17T16:27:14.045Z</time></trkpt><trkpt lat="44.8966485" lon="10.8412744"><ele>15.0</ele><time>2026-04-17T16:27:15.044Z</time></trkpt><trkpt lat="44.8968394" lon="10.841316"><ele>15.666666666666668</ele><time>2026-04-17T16:27:16.043Z</time></trkpt><trkpt lat="44.8970298" lon="10.8413621"><ele>16.333333333333336</ele><time>2026-04-17T16:27:17.043Z</time></trkpt><trkpt lat="44.8972123" lon="10.8414043"><ele>17.0</ele><time>2026-04-17T16:27:18.044Z</time></trkpt><trkpt lat="44.8973933" lon="10.8414404"><ele>17.0</ele><time>2026-04-17T16:27:19.044Z</time></trkpt><trkpt lat="44.8975698" lon="10.8414752"><ele>17.0</ele><time>2026-04-17T16:27:20.044Z</time></trkpt><trkpt lat="44.8977394" lon="10.8415084"><ele>17.0</ele><time>2026-04-17T16:27:21.044Z</time></trkpt><trkpt lat="44.8978998" lon="10.8415401"><ele>18.0</ele><time>2026-04-17T16:27:22.044Z</time></trkpt><trkpt lat="44.8980536" lon="10.8415693"><ele>19.0</ele><time>2026-04-17T16:27:23.044Z</time></trkpt><trkpt lat="44.8982039" lon="10.8415958"><ele>20.0</ele><time>2026-04-17T16:27:24.043Z</time></trkpt><trkpt lat="44.8983516" lon="10.8416252"><ele>19.333333333333336</ele><time>2026-04-17T16:27:25.044Z</time></trkpt><trkpt lat="44.8985087" lon="10.8416391"><ele>18.666666666666668</ele><time>2026-04-17T16:27:26.045Z</time></trkpt><trkpt lat="44.8986614" lon="10.8416726"><ele>18.0</ele><time>2026-04-17T16:27:27.043Z</time></trkpt><trkpt lat="44.8988112" lon="10.841708"><ele>18.0</ele><time>2026-04-17T16:27:28.043Z</time></trkpt><trkpt lat="44.8989609" lon="10.8417343"><ele>18.0</ele><time>2026-04-17T16:27:29.044Z</time></trkpt><trkpt lat="44.8991059" lon="10.8417688"><ele>18.0</ele><time>2026-04-17T16:27:30.043Z</time></trkpt><trkpt lat="44.8992467" lon="10.8418068"><ele>18.0</ele><time>2026-04-17T16:27:31.043Z</time></trkpt><trkpt lat="44.8993727" lon="10.8418448"><ele>18.0</ele><time>2026-04-17T16:27:32.043Z</time></trkpt><trkpt lat="44.8994989" lon="10.841874"><ele>18.0</ele><time>2026-04-17T16:27:33.044Z</time></trkpt><trkpt lat="44.8996176" lon="10.8419068"><ele>18.0</ele><time>2026-04-17T16:27:34.044Z</time></trkpt><trkpt lat="44.899729" lon="10.8419336"><ele>18.0</ele><time>2026-04-17T16:27:35.044Z</time></trkpt><trkpt lat="44.8998403" lon="10.8419633"><ele>18.0</ele><time>2026-04-17T16:27:36.044Z</time></trkpt><trkpt lat="44.8999603" lon="10.8419926"><ele>18.0</ele><time>2026-04-17T16:27:37.044Z</time></trkpt><trkpt lat="44.900083" lon="10.8420155"><ele>18.0</ele><time>2026-04-17T16:27:38.044Z</time></trkpt><trkpt lat="44.9002075" lon="10.8420439"><ele>18.0</ele><time>2026-04-17T16:27:39.042Z</time></trkpt><trkpt lat="44.9003342" lon="10.8420692"><ele>17.25</ele><time>2026-04-17T16:27:40.044Z</time></trkpt><trkpt lat="44.90046" lon="10.8420857"><ele>16.5</ele><time>2026-04-17T16:27:41.044Z</time></trkpt><trkpt lat="44.9006017" lon="10.842116"><ele>15.75</ele><time>2026-04-17T16:27:42.043Z</time></trkpt><trkpt lat="44.9007317" lon="10.8421522"><ele>15.0</ele><time>2026-04-17T16:27:43.043Z</time></trkpt><trkpt lat="44.9008603" lon="10.8421823"><ele>15.0</ele><time>2026-04-17T16:27:44.044Z</time></trkpt><trkpt lat="44.9009851" lon="10.842218"><ele>15.0</ele><time>2026-04-17T16:27:45.045Z</time></trkpt><trkpt lat="44.9011036" lon="10.8422403"><ele>15.0</ele><time>2026-04-17T16:27:46.044Z</time></trkpt><trkpt lat="44.9012175" lon="10.8422662"><ele>15.0</ele><time>2026-04-17T16:27:47.044Z</time></trkpt><trkpt lat="44.9013254" lon="10.8422844"><ele>15.0</ele><time>2026-04-17T16:27:48.045Z</time></trkpt><trkpt lat="44.9014176" lon="10.8423047"><ele>15.0</ele><time>2026-04-17T16:27:49.043Z</time></trkpt><trkpt lat="44.9015038" lon="10.8423145"><ele>15.0</ele><time>2026-04-17T16:27:50.044Z</time></trkpt><trkpt lat="44.9015804" lon="10.8423314"><ele>15.0</ele><time>2026-04-17T16:27:51.044Z</time></trkpt><trkpt lat="44.9016523" lon="10.8423483"><ele>15.0</ele><time>2026-04-17T16:27:52.044Z</time></trkpt><trkpt lat="44.901723" lon="10.8423672"><ele>15.0</ele><time>2026-04-17T16:27:53.043Z</time></trkpt><trkpt lat="44.9018233" lon="10.8424455"><ele>14.6</ele><time>2026-04-17T16:27:55.043Z</time></trkpt><trkpt lat="44.9018666" lon="10.8425946"><ele>14.2</ele><time>2026-04-17T16:27:57.043Z</time></trkpt><trkpt lat="44.9018783" lon="10.8427027"><ele>13.8</ele><time>2026-04-17T16:27:58.044Z</time></trkpt><trkpt lat="44.90189" lon="10.8428267"><ele>13.4</ele><time>2026-04-17T16:27:59.044Z</time></trkpt><trkpt lat="44.9018957" lon="10.8429884"><ele>13.0</ele><time>2026-04-17T16:28:00.044Z</time></trkpt><trkpt lat="44.9019055" lon="10.8431498"><ele>13.0</ele><time>2026-04-17T16:28:01.043Z</time></trkpt><trkpt lat="44.9019157" lon="10.8433277"><ele>13.0</ele><time>2026-04-17T16:28:02.044Z</time></trkpt><trkpt lat="44.9019249" lon="10.8435089"><ele>13.0</ele><time>2026-04-17T16:28:03.045Z</time></trkpt><trkpt lat="44.901936" lon="10.8436946"><ele>13.0</ele><time>2026-04-17T16:28:04.043Z</time></trkpt><trkpt lat="44.9019476" lon="10.8438906"><ele>13.5</ele><time>2026-04-17T16:28:05.044Z</time></trkpt><trkpt lat="44.9019573" lon="10.8440818"><ele>14.0</ele><time>2026-04-17T16:28:06.043Z</time></trkpt><trkpt lat="44.9019648" lon="10.8442646"><ele>14.5</ele><time>2026-04-17T16:28:07.045Z</time></trkpt><trkpt lat="44.9019696" lon="10.8444508"><ele>15.0</ele><time>2026-04-17T16:28:08.044Z</time></trkpt><trkpt lat="44.9019816" lon="10.8446312"><ele>15.2</ele><time>2026-04-17T16:28:09.044Z</time></trkpt><trkpt lat="44.9019919" lon="10.8448078"><ele>15.4</ele><time>2026-04-17T16:28:10.044Z</time></trkpt><trkpt lat="44.9020016" lon="10.8449636"><ele>15.600000000000001</ele><time>2026-04-17T16:28:11.044Z</time></trkpt><trkpt lat="44.9020111" lon="10.84511"><ele>15.8</ele><time>2026-04-17T16:28:12.045Z</time></trkpt><trkpt lat="44.9020215" lon="10.845248"><ele>16.0</ele><time>2026-04-17T16:28:13.043Z</time></trkpt><trkpt lat="44.902035" lon="10.8453921"><ele>16.0</ele><time>2026-04-17T16:28:14.044Z</time></trkpt><trkpt lat="44.9020449" lon="10.8455431"><ele>16.0</ele><time>2026-04-17T16:28:15.044Z</time></trkpt><trkpt lat="44.9020499" lon="10.8456937"><ele>16.0</ele><time>2026-04-17T16:28:16.043Z</time></trkpt><trkpt lat="44.9020558" lon="10.8458394"><ele>16.0</ele><time>2026-04-17T16:28:17.044Z</time></trkpt><trkpt lat="44.9020546" lon="10.8459819"><ele>16.0</ele><time>2026-04-17T16:28:18.044Z</time></trkpt><trkpt lat="44.9020574" lon="10.8461242"><ele>16.0</ele><time>2026-04-17T16:28:19.043Z</time></trkpt><trkpt lat="44.9020622" lon="10.8462801"><ele>16.0</ele><time>2026-04-17T16:28:20.044Z</time></trkpt><trkpt lat="44.902072" lon="10.8464235"><ele>16.0</ele><time>2026-04-17T16:28:21.043Z</time></trkpt><trkpt lat="44.9020803" lon="10.8465666"><ele>16.0</ele><time>2026-04-17T16:28:22.043Z</time></trkpt><trkpt lat="44.9020908" lon="10.8466877"><ele>16.0</ele><time>2026-04-17T16:28:23.044Z</time></trkpt><trkpt lat="44.9020987" lon="10.8468071"><ele>16.166666666666664</ele><time>2026-04-17T16:28:24.043Z</time></trkpt><trkpt lat="44.9021061" lon="10.8469159"><ele>16.333333333333332</ele><time>2026-04-17T16:28:25.044Z</time></trkpt><trkpt lat="44.9021098" lon="10.847011"><ele>16.5</ele><time>2026-04-17T16:28:26.044Z</time></trkpt><trkpt lat="44.9021037" lon="10.8471365"><ele>16.666666666666668</ele><time>2026-04-17T16:28:28.044Z</time></trkpt><trkpt lat="44.9021093" lon="10.8472497"><ele>16.833333333333336</ele><time>2026-04-17T16:28:48.042Z</time></trkpt><trkpt lat="44.9022205" lon="10.8472681"><ele>17.0</ele><time>2026-04-17T16:28:50.043Z</time></trkpt><trkpt lat="44.902314" lon="10.8472651"><ele>17.0</ele><time>2026-04-17T16:28:51.044Z</time></trkpt><trkpt lat="44.9024187" lon="10.8472549"><ele>17.0</ele><time>2026-04-17T16:28:52.043Z</time></trkpt><trkpt lat="44.9025322" lon="10.8472405"><ele>17.0</ele><time>2026-04-17T16:28:53.044Z</time></trkpt><trkpt lat="44.9026646" lon="10.8472232"><ele>17.0</ele><time>2026-04-17T16:28:54.044Z</time></trkpt><trkpt lat="44.9028122" lon="10.8472099"><ele>17.333333333333336</ele><time>2026-04-17T16:28:55.044Z</time></trkpt><trkpt lat="44.9029682" lon="10.847188"><ele>17.666666666666668</ele><time>2026-04-17T16:28:56.043Z</time></trkpt><trkpt lat="44.903134" lon="10.8471697"><ele>18.0</ele><time>2026-04-17T16:28:57.044Z</time></trkpt><trkpt lat="44.9033025" lon="10.8471474"><ele>17.666666666666668</ele><time>2026-04-17T16:28:58.042Z</time></trkpt><trkpt lat="44.9034811" lon="10.8471255"><ele>17.333333333333336</ele><time>2026-04-17T16:28:59.044Z</time></trkpt><trkpt lat="44.9036664" lon="10.847101"><ele>17.0</ele><time>2026-04-17T16:29:00.043Z</time></trkpt><trkpt lat="44.9038576" lon="10.847076"><ele>17.0</ele><time>2026-04-17T16:29:01.045Z</time></trkpt><trkpt lat="44.9040526" lon="10.8470537"><ele>17.0</ele><time>2026-04-17T16:29:02.042Z</time></trkpt><trkpt lat="44.9042576" lon="10.8470276"><ele>17.0</ele><time>2026-04-17T16:29:03.045Z</time></trkpt><trkpt lat="44.9044663" lon="10.8470005"><ele>17.0</ele><time>2026-04-17T16:29:04.043Z</time></trkpt><trkpt lat="44.904678" lon="10.8469723"><ele>17.0</ele><time>2026-04-17T16:29:05.043Z</time></trkpt><trkpt lat="44.9048974" lon="10.8469413"><ele>17.0</ele><time>2026-04-17T16:29:06.044Z</time></trkpt><trkpt lat="44.9051172" lon="10.8469122"><ele>17.666666666666668</ele><time>2026-04-17T16:29:07.042Z</time></trkpt><trkpt lat="44.9053358" lon="10.8468811"><ele>18.333333333333332</ele><time>2026-04-17T16:29:08.043Z</time></trkpt><trkpt lat="44.9055481" lon="10.8468515"><ele>19.0</ele><time>2026-04-17T16:29:09.043Z</time></trkpt><trkpt lat="44.9057475" lon="10.8468266"><ele>19.0</ele><time>2026-04-17T16:29:10.045Z</time></trkpt><trkpt lat="44.9059388" lon="10.8468001"><ele>19.0</ele><time>2026-04-17T16:29:11.043Z</time></trkpt><trkpt lat="44.9061227" lon="10.8467757"><ele>19.0</ele><time>2026-04-17T16:29:12.044Z</time></trkpt><trkpt lat="44.9063097" lon="10.846749"><ele>18.666666666666664</ele><time>2026-04-17T16:29:13.045Z</time></trkpt><trkpt lat="44.9064998" lon="10.8467193"><ele>18.333333333333332</ele><time>2026-04-17T16:29:14.044Z</time></trkpt><trkpt lat="44.9066922" lon="10.8466826"><ele>18.0</ele><time>2026-04-17T16:29:15.043Z</time></trkpt><trkpt lat="44.9068864" lon="10.8466376"><ele>17.666666666666668</ele><time>2026-04-17T16:29:16.045Z</time></trkpt><trkpt lat="44.9070852" lon="10.8465872"><ele>17.333333333333336</ele><time>2026-04-17T16:29:17.042Z</time></trkpt><trkpt lat="44.9072834" lon="10.8465331"><ele>17.0</ele><time>2026-04-17T16:29:18.043Z</time></trkpt><trkpt lat="44.9074823" lon="10.8464709"><ele>17.0</ele><time>2026-04-17T16:29:19.045Z</time></trkpt><trkpt lat="44.9076875" lon="10.8464174"><ele>17.0</ele><time>2026-04-17T16:29:20.044Z</time></trkpt><trkpt lat="44.9078927" lon="10.8463649"><ele>17.0</ele><time>2026-04-17T16:29:21.043Z</time></trkpt><trkpt lat="44.9080997" lon="10.8463118"><ele>17.0</ele><time>2026-04-17T16:29:22.044Z</time></trkpt><trkpt lat="44.9083034" lon="10.8462564"><ele>17.0</ele><time>2026-04-17T16:29:23.044Z</time></trkpt><trkpt lat="44.9085061" lon="10.8462"><ele>17.0</ele><time>2026-04-17T16:29:24.044Z</time></trkpt><trkpt lat="44.9087099" lon="10.8461458"><ele>17.0</ele><time>2026-04-17T16:29:25.043Z</time></trkpt><trkpt lat="44.9089108" lon="10.8460907"><ele>17.0</ele><time>2026-04-17T16:29:26.044Z</time></trkpt><trkpt lat="44.9091098" lon="10.8460336"><ele>17.0</ele><time>2026-04-17T16:29:27.044Z</time></trkpt><trkpt lat="44.9093102" lon="10.8459769"><ele>17.333333333333336</ele><time>2026-04-17T16:29:28.043Z</time></trkpt><trkpt lat="44.9095098" lon="10.8459227"><ele>17.666666666666668</ele><time>2026-04-17T16:29:29.043Z</time></trkpt><trkpt lat="44.9097099" lon="10.8458695"><ele>18.0</ele><time>2026-04-17T16:29:30.044Z</time></trkpt><trkpt lat="44.9099109" lon="10.845817"><ele>18.0</ele><time>2026-04-17T16:29:31.044Z</time></trkpt><trkpt lat="44.9101114" lon="10.8457637"><ele>18.0</ele><time>2026-04-17T16:29:32.044Z</time></trkpt><trkpt lat="44.910311" lon="10.8457119"><ele>18.0</ele><time>2026-04-17T16:29:33.044Z</time></trkpt><trkpt lat="44.9105112" lon="10.8456583"><ele>18.0</ele><time>2026-04-17T16:29:34.043Z</time></trkpt><trkpt lat="44.9107098" lon="10.8456036"><ele>18.0</ele><time>2026-04-17T16:29:35.044Z</time></trkpt><trkpt lat="44.9109121" lon="10.8455482"><ele>18.0</ele><time>2026-04-17T16:29:36.043Z</time></trkpt><trkpt lat="44.911107" lon="10.8454888"><ele>17.666666666666668</ele><time>2026-04-17T16:29:37.044Z</time></trkpt><trkpt lat="44.9112993" lon="10.845424"><ele>17.333333333333336</ele><time>2026-04-17T16:29:38.044Z</time></trkpt><trkpt lat="44.9114901" lon="10.8453425"><ele>17.0</ele><time>2026-04-17T16:29:39.044Z</time></trkpt><trkpt lat="44.9116749" lon="10.8452406"><ele>17.333333333333336</ele><time>2026-04-17T16:29:40.044Z</time></trkpt><trkpt lat="44.9118464" lon="10.8451146"><ele>17.666666666666668</ele><time>2026-04-17T16:29:41.043Z</time></trkpt><trkpt lat="44.9120157" lon="10.8449775"><ele>18.0</ele><time>2026-04-17T16:29:42.044Z</time></trkpt><trkpt lat="44.912175" lon="10.8448167"><ele>18.0</ele><time>2026-04-17T16:29:43.044Z</time></trkpt><trkpt lat="44.9123258" lon="10.8446383"><ele>18.0</ele><time>2026-04-17T16:29:44.044Z</time></trkpt><trkpt lat="44.9124661" lon="10.8444418"><ele>18.0</ele><time>2026-04-17T16:29:45.044Z</time></trkpt><trkpt lat="44.9125841" lon="10.8442197"><ele>17.666666666666668</ele><time>2026-04-17T16:29:46.044Z</time></trkpt><trkpt lat="44.9126939" lon="10.8439824"><ele>17.333333333333336</ele><time>2026-04-17T16:29:47.043Z</time></trkpt><trkpt lat="44.9127877" lon="10.8437302"><ele>17.0</ele><time>2026-04-17T16:29:48.044Z</time></trkpt><trkpt lat="44.91287" lon="10.8434694"><ele>17.0</ele><time>2026-04-17T16:29:49.043Z</time></trkpt><trkpt lat="44.9129472" lon="10.8431965"><ele>17.0</ele><time>2026-04-17T16:29:50.045Z</time></trkpt><trkpt lat="44.9130218" lon="10.8429236"><ele>17.0</ele><time>2026-04-17T16:29:51.045Z</time></trkpt><trkpt lat="44.9130879" lon="10.842666"><ele>17.0</ele><time>2026-04-17T16:29:52.044Z</time></trkpt><trkpt lat="44.9131495" lon="10.8424221"><ele>17.0</ele><time>2026-04-17T16:29:53.043Z</time></trkpt><trkpt lat="44.9132071" lon="10.8421887"><ele>17.0</ele><time>2026-04-17T16:29:54.044Z</time></trkpt><trkpt lat="44.9132628" lon="10.8419654"><ele>17.0</ele><time>2026-04-17T16:29:55.044Z</time></trkpt><trkpt lat="44.9133137" lon="10.8417578"><ele>17.0</ele><time>2026-04-17T16:29:56.044Z</time></trkpt><trkpt lat="44.9133623" lon="10.8415506"><ele>17.0</ele><time>2026-04-17T16:29:57.044Z</time></trkpt><trkpt lat="44.9134107" lon="10.8413529"><ele>16.75</ele><time>2026-04-17T16:29:58.043Z</time></trkpt><trkpt lat="44.9134621" lon="10.8411565"><ele>16.5</ele><time>2026-04-17T16:29:59.044Z</time></trkpt><trkpt lat="44.9135158" lon="10.8409589"><ele>16.25</ele><time>2026-04-17T16:30:00.044Z</time></trkpt><trkpt lat="44.9135711" lon="10.8407694"><ele>16.0</ele><time>2026-04-17T16:30:01.045Z</time></trkpt><trkpt lat="44.9136315" lon="10.8405948"><ele>16.0</ele><time>2026-04-17T16:30:02.043Z</time></trkpt><trkpt lat="44.9136964" lon="10.8404375"><ele>16.0</ele><time>2026-04-17T16:30:03.043Z</time></trkpt><trkpt lat="44.9137648" lon="10.8402966"><ele>16.0</ele><time>2026-04-17T16:30:04.044Z</time></trkpt><trkpt lat="44.9138388" lon="10.8401757"><ele>16.0</ele><time>2026-04-17T16:30:05.044Z</time></trkpt><trkpt lat="44.9139143" lon="10.8400684"><ele>16.6</ele><time>2026-04-17T16:30:06.043Z</time></trkpt><trkpt lat="44.9139984" lon="10.8399744"><ele>17.200000000000003</ele><time>2026-04-17T16:30:07.043Z</time></trkpt><trkpt lat="44.9140791" lon="10.8399345"><ele>17.799999999999997</ele><time>2026-04-17T16:30:08.044Z</time></trkpt><trkpt lat="44.9141603" lon="10.8399323"><ele>18.4</ele><time>2026-04-17T16:30:09.045Z</time></trkpt><trkpt lat="44.914245" lon="10.8399884"><ele>19.0</ele><time>2026-04-17T16:30:10.044Z</time></trkpt><trkpt lat="44.9143229" lon="10.8400671"><ele>19.0</ele><time>2026-04-17T16:30:11.043Z</time></trkpt><trkpt lat="44.914407" lon="10.8401595"><ele>19.0</ele><time>2026-04-17T16:30:12.043Z</time></trkpt><trkpt lat="44.9144856" lon="10.8402781"><ele>19.0</ele><time>2026-04-17T16:30:13.045Z</time></trkpt><trkpt lat="44.9145425" lon="10.84042"><ele>19.0</ele><time>2026-04-17T16:30:14.044Z</time></trkpt><trkpt lat="44.9145644" lon="10.8406237"><ele>19.0</ele><time>2026-04-17T16:30:15.043Z</time></trkpt><trkpt lat="44.9145967" lon="10.8408278"><ele>19.0</ele><time>2026-04-17T16:30:16.044Z</time></trkpt><trkpt lat="44.9146322" lon="10.8410492"><ele>19.0</ele><time>2026-04-17T16:30:17.044Z</time></trkpt><trkpt lat="44.9146664" lon="10.8412806"><ele>18.666666666666664</ele><time>2026-04-17T16:30:18.044Z</time></trkpt><trkpt lat="44.9147023" lon="10.8415172"><ele>18.333333333333332</ele><time>2026-04-17T16:30:19.045Z</time></trkpt><trkpt lat="44.9147399" lon="10.8417654"><ele>18.0</ele><time>2026-04-17T16:30:20.044Z</time></trkpt><trkpt lat="44.914776" lon="10.8420199"><ele>18.0</ele><time>2026-04-17T16:30:21.043Z</time></trkpt><trkpt lat="44.9148137" lon="10.8422827"><ele>18.0</ele><time>2026-04-17T16:30:22.043Z</time></trkpt><trkpt lat="44.9148585" lon="10.8425572"><ele>18.0</ele><time>2026-04-17T16:30:23.044Z</time></trkpt><trkpt lat="44.9149213" lon="10.8428198"><ele>18.0</ele><time>2026-04-17T16:30:24.044Z</time></trkpt><trkpt lat="44.9150036" lon="10.8430811"><ele>18.0</ele><time>2026-04-17T16:30:25.044Z</time></trkpt><trkpt lat="44.9150908" lon="10.8433396"><ele>18.0</ele><time>2026-04-17T16:30:26.045Z</time></trkpt><trkpt lat="44.9151845" lon="10.8436073"><ele>18.0</ele><time>2026-04-17T16:30:27.043Z</time></trkpt><trkpt lat="44.9152748" lon="10.8438882"><ele>18.0</ele><time>2026-04-17T16:30:28.043Z</time></trkpt><trkpt lat="44.9153619" lon="10.8441765"><ele>18.0</ele><time>2026-04-17T16:30:29.044Z</time></trkpt><trkpt lat="44.9154438" lon="10.8444594"><ele>18.0</ele><time>2026-04-17T16:30:30.044Z</time></trkpt><trkpt lat="44.9155187" lon="10.8447304"><ele>18.0</ele><time>2026-04-17T16:30:31.043Z</time></trkpt><trkpt lat="44.9155881" lon="10.8449931"><ele>18.0</ele><time>2026-04-17T16:30:32.044Z</time></trkpt><trkpt lat="44.9156539" lon="10.8452443"><ele>18.0</ele><time>2026-04-17T16:30:33.044Z</time></trkpt><trkpt lat="44.9157106" lon="10.8454934"><ele>18.0</ele><time>2026-04-17T16:30:34.043Z</time></trkpt><trkpt lat="44.9157561" lon="10.8457502"><ele>18.0</ele><time>2026-04-17T16:30:35.045Z</time></trkpt><trkpt lat="44.9157825" lon="10.8460222"><ele>18.333333333333332</ele><time>2026-04-17T16:30:36.043Z</time></trkpt><trkpt lat="44.9157934" lon="10.8462911"><ele>18.666666666666664</ele><time>2026-04-17T16:30:37.045Z</time></trkpt><trkpt lat="44.9157946" lon="10.8465652"><ele>19.0</ele><time>2026-04-17T16:30:38.043Z</time></trkpt><trkpt lat="44.9157873" lon="10.8468399"><ele>19.333333333333332</ele><time>2026-04-17T16:30:39.043Z</time></trkpt><trkpt lat="44.9157783" lon="10.8471068"><ele>19.666666666666668</ele><time>2026-04-17T16:30:40.044Z</time></trkpt><trkpt lat="44.9157791" lon="10.8473693"><ele>20.0</ele><time>2026-04-17T16:30:41.043Z</time></trkpt><trkpt lat="44.9157921" lon="10.8476228"><ele>20.333333333333336</ele><time>2026-04-17T16:30:42.044Z</time></trkpt><trkpt lat="44.9158234" lon="10.8478703"><ele>20.666666666666668</ele><time>2026-04-17T16:30:43.044Z</time></trkpt><trkpt lat="44.9158669" lon="10.8481127"><ele>21.0</ele><time>2026-04-17T16:30:44.044Z</time></trkpt><trkpt lat="44.9159166" lon="10.8483527"><ele>20.0</ele><time>2026-04-17T16:30:45.044Z</time></trkpt><trkpt lat="44.9159676" lon="10.848582"><ele>19.0</ele><time>2026-04-17T16:30:46.044Z</time></trkpt><trkpt lat="44.9160107" lon="10.8488042"><ele>18.0</ele><time>2026-04-17T16:30:47.044Z</time></trkpt><trkpt lat="44.9160407" lon="10.8490124"><ele>18.0</ele><time>2026-04-17T16:30:48.044Z</time></trkpt><trkpt lat="44.9160608" lon="10.8492153"><ele>18.0</ele><time>2026-04-17T16:30:49.044Z</time></trkpt><trkpt lat="44.9160752" lon="10.8494083"><ele>18.0</ele><time>2026-04-17T16:30:50.043Z</time></trkpt><trkpt lat="44.9160842" lon="10.849579"><ele>18.0</ele><time>2026-04-17T16:30:51.045Z</time></trkpt><trkpt lat="44.9160937" lon="10.8497344"><ele>18.2</ele><time>2026-04-17T16:30:52.044Z</time></trkpt><trkpt lat="44.9160994" lon="10.8498698"><ele>18.4</ele><time>2026-04-17T16:30:53.043Z</time></trkpt><trkpt lat="44.9161103" lon="10.8499922"><ele>18.599999999999998</ele><time>2026-04-17T16:30:54.043Z</time></trkpt><trkpt lat="44.9161447" lon="10.8500996"><ele>18.8</ele><time>2026-04-17T16:30:55.042Z</time></trkpt><trkpt lat="44.9162071" lon="10.8501882"><ele>19.0</ele><time>2026-04-17T16:30:56.044Z</time></trkpt><trkpt lat="44.9162951" lon="10.8502368"><ele>19.25</ele><time>2026-04-17T16:30:57.043Z</time></trkpt><trkpt lat="44.9164141" lon="10.8502602"><ele>19.5</ele><time>2026-04-17T16:30:58.044Z</time></trkpt><trkpt lat="44.9165393" lon="10.8503162"><ele>19.75</ele><time>2026-04-17T16:30:59.045Z</time></trkpt><trkpt lat="44.9166693" lon="10.8503873"><ele>20.0</ele><time>2026-04-17T16:31:00.043Z</time></trkpt><trkpt lat="44.9168045" lon="10.850483"><ele>20.0</ele><time>2026-04-17T16:31:01.043Z</time></trkpt><trkpt lat="44.9169482" lon="10.8505793"><ele>20.0</ele><time>2026-04-17T16:31:02.043Z</time></trkpt><trkpt lat="44.917099" lon="10.8506855"><ele>20.0</ele><time>2026-04-17T16:31:03.044Z</time></trkpt><trkpt lat="44.9172567" lon="10.8507982"><ele>20.0</ele><time>2026-04-17T16:31:04.044Z</time></trkpt><trkpt lat="44.9174175" lon="10.8509131"><ele>20.0</ele><time>2026-04-17T16:31:05.044Z</time></trkpt><trkpt lat="44.917584" lon="10.8510324"><ele>20.0</ele><time>2026-04-17T16:31:06.044Z</time></trkpt><trkpt lat="44.9177475" lon="10.8511547"><ele>19.0</ele><time>2026-04-17T16:31:07.044Z</time></trkpt><trkpt lat="44.9179082" lon="10.851268"><ele>18.0</ele><time>2026-04-17T16:31:08.043Z</time></trkpt><trkpt lat="44.9180593" lon="10.8513764"><ele>17.0</ele><time>2026-04-17T16:31:09.044Z</time></trkpt><trkpt lat="44.9182071" lon="10.851477"><ele>17.0</ele><time>2026-04-17T16:31:10.044Z</time></trkpt><trkpt lat="44.918348" lon="10.8515686"><ele>17.0</ele><time>2026-04-17T16:31:11.043Z</time></trkpt><trkpt lat="44.9184829" lon="10.8516481"><ele>17.0</ele><time>2026-04-17T16:31:12.044Z</time></trkpt><trkpt lat="44.918606" lon="10.8517125"><ele>17.0</ele><time>2026-04-17T16:31:13.044Z</time></trkpt><trkpt lat="44.9187187" lon="10.8517555"><ele>17.25</ele><time>2026-04-17T16:31:14.044Z</time></trkpt><trkpt lat="44.9188253" lon="10.8517629"><ele>17.5</ele><time>2026-04-17T16:31:15.044Z</time></trkpt><trkpt lat="44.918928" lon="10.8517122"><ele>17.75</ele><time>2026-04-17T16:31:16.044Z</time></trkpt><trkpt lat="44.9190227" lon="10.851601"><ele>18.0</ele><time>2026-04-17T16:31:17.043Z</time></trkpt><trkpt lat="44.9191195" lon="10.8514626"><ele>18.0</ele><time>2026-04-17T16:31:18.044Z</time></trkpt><trkpt lat="44.9192176" lon="10.8513053"><ele>18.0</ele><time>2026-04-17T16:31:19.045Z</time></trkpt><trkpt lat="44.9193172" lon="10.8511399"><ele>18.0</ele><time>2026-04-17T16:31:20.043Z</time></trkpt><trkpt lat="44.9194171" lon="10.8509717"><ele>18.333333333333332</ele><time>2026-04-17T16:31:21.044Z</time></trkpt><trkpt lat="44.9195197" lon="10.8507918"><ele>18.666666666666664</ele><time>2026-04-17T16:31:22.044Z</time></trkpt><trkpt lat="44.9196175" lon="10.8506121"><ele>19.0</ele><time>2026-04-17T16:31:23.044Z</time></trkpt><trkpt lat="44.9197116" lon="10.8504454"><ele>19.0</ele><time>2026-04-17T16:31:24.043Z</time></trkpt><trkpt lat="44.9198013" lon="10.8502895"><ele>19.0</ele><time>2026-04-17T16:31:25.043Z</time></trkpt><trkpt lat="44.9198877" lon="10.8501382"><ele>19.0</ele><time>2026-04-17T16:31:26.043Z</time></trkpt><trkpt lat="44.9199663" lon="10.8500141"><ele>19.0</ele><time>2026-04-17T16:31:27.044Z</time></trkpt><trkpt lat="44.9200424" lon="10.8498899"><ele>18.599999999999998</ele><time>2026-04-17T16:31:28.043Z</time></trkpt><trkpt lat="44.920123" lon="10.8497787"><ele>18.2</ele><time>2026-04-17T16:31:29.043Z</time></trkpt><trkpt lat="44.9201979" lon="10.8496762"><ele>17.799999999999997</ele><time>2026-04-17T16:31:30.043Z</time></trkpt><trkpt lat="44.920245" lon="10.8495654"><ele>17.4</ele><time>2026-04-17T16:31:31.042Z</time></trkpt><trkpt lat="44.9203005" lon="10.8494499"><ele>17.0</ele><time>2026-04-17T16:31:32.044Z</time></trkpt><trkpt lat="44.9203636" lon="10.8493256"><ele>17.0</ele><time>2026-04-17T16:31:33.044Z</time></trkpt><trkpt lat="44.9204351" lon="10.8491977"><ele>17.0</ele><time>2026-04-17T16:31:34.045Z</time></trkpt><trkpt lat="44.9205151" lon="10.8490641"><ele>17.0</ele><time>2026-04-17T16:31:35.044Z</time></trkpt><trkpt lat="44.9206017" lon="10.8489232"><ele>17.0</ele><time>2026-04-17T16:31:36.044Z</time></trkpt><trkpt lat="44.9206876" lon="10.8487796"><ele>17.0</ele><time>2026-04-17T16:31:37.043Z</time></trkpt><trkpt lat="44.9207761" lon="10.8486385"><ele>17.0</ele><time>2026-04-17T16:31:38.042Z</time></trkpt><trkpt lat="44.9208718" lon="10.8484865"><ele>17.0</ele><time>2026-04-17T16:31:39.043Z</time></trkpt><trkpt lat="44.9209759" lon="10.8483322"><ele>17.0</ele><time>2026-04-17T16:31:40.044Z</time></trkpt><trkpt lat="44.9210788" lon="10.8482069"><ele>17.0</ele><time>2026-04-17T16:31:41.043Z</time></trkpt><trkpt lat="44.9212005" lon="10.8480837"><ele>17.0</ele><time>2026-04-17T16:31:42.044Z</time></trkpt><trkpt lat="44.9213305" lon="10.8479861"><ele>17.0</ele><time>2026-04-17T16:31:43.044Z</time></trkpt><trkpt lat="44.9214764" lon="10.8479044"><ele>17.0</ele><time>2026-04-17T16:31:44.043Z</time></trkpt><trkpt lat="44.9216276" lon="10.847825"><ele>17.0</ele><time>2026-04-17T16:31:45.043Z</time></trkpt><trkpt lat="44.9217788" lon="10.8477527"><ele>17.0</ele><time>2026-04-17T16:31:46.044Z</time></trkpt><trkpt lat="44.9219238" lon="10.8476761"><ele>17.25</ele><time>2026-04-17T16:31:47.044Z</time></trkpt><trkpt lat="44.9220663" lon="10.8476141"><ele>17.5</ele><time>2026-04-17T16:31:48.043Z</time></trkpt><trkpt lat="44.9222065" lon="10.8475628"><ele>17.75</ele><time>2026-04-17T16:31:49.043Z</time></trkpt><trkpt lat="44.9223531" lon="10.8475319"><ele>18.0</ele><time>2026-04-17T16:31:50.043Z</time></trkpt><trkpt lat="44.9225033" lon="10.847519"><ele>18.0</ele><time>2026-04-17T16:31:51.044Z</time></trkpt><trkpt lat="44.9226472" lon="10.8475152"><ele>18.0</ele><time>2026-04-17T16:31:52.044Z</time></trkpt><trkpt lat="44.9227829" lon="10.8475159"><ele>18.0</ele><time>2026-04-17T16:31:53.044Z</time></trkpt><trkpt lat="44.9229156" lon="10.8475204"><ele>18.0</ele><time>2026-04-17T16:31:54.043Z</time></trkpt><trkpt lat="44.9230471" lon="10.8475218"><ele>18.0</ele><time>2026-04-17T16:31:55.044Z</time></trkpt><trkpt lat="44.9231805" lon="10.8475247"><ele>18.0</ele><time>2026-04-17T16:31:56.043Z</time></trkpt><trkpt lat="44.9233155" lon="10.847532"><ele>18.0</ele><time>2026-04-17T16:31:57.044Z</time></trkpt><trkpt lat="44.9234428" lon="10.8475404"><ele>18.0</ele><time>2026-04-17T16:31:58.043Z</time></trkpt><trkpt lat="44.9235612" lon="10.8475609"><ele>17.5</ele><time>2026-04-17T16:31:59.043Z</time></trkpt><trkpt lat="44.9236802" lon="10.8475962"><ele>17.0</ele><time>2026-04-17T16:32:00.045Z</time></trkpt><trkpt lat="44.9237929" lon="10.8476471"><ele>16.5</ele><time>2026-04-17T16:32:01.043Z</time></trkpt><trkpt lat="44.9239074" lon="10.8477126"><ele>16.0</ele><time>2026-04-17T16:32:02.043Z</time></trkpt><trkpt lat="44.9240154" lon="10.8477937"><ele>16.0</ele><time>2026-04-17T16:32:03.043Z</time></trkpt><trkpt lat="44.924117" lon="10.8478712"><ele>16.0</ele><time>2026-04-17T16:32:04.043Z</time></trkpt><trkpt lat="44.9242067" lon="10.8479387"><ele>16.0</ele><time>2026-04-17T16:32:05.043Z</time></trkpt><trkpt lat="44.9242925" lon="10.8480148"><ele>16.0</ele><time>2026-04-17T16:32:06.044Z</time></trkpt><trkpt lat="44.9243686" lon="10.8480867"><ele>16.0</ele><time>2026-04-17T16:32:07.045Z</time></trkpt><trkpt lat="44.9244449" lon="10.8481633"><ele>16.166666666666664</ele><time>2026-04-17T16:32:08.044Z</time></trkpt><trkpt lat="44.924522" lon="10.8482386"><ele>16.333333333333332</ele><time>2026-04-17T16:32:09.043Z</time></trkpt><trkpt lat="44.9245967" lon="10.8483168"><ele>16.5</ele><time>2026-04-17T16:32:10.044Z</time></trkpt><trkpt lat="44.9246628" lon="10.8483837"><ele>16.666666666666668</ele><time>2026-04-17T16:32:11.043Z</time></trkpt><trkpt lat="44.9247315" lon="10.848429"><ele>16.833333333333336</ele><time>2026-04-17T16:32:12.043Z</time></trkpt><trkpt lat="44.9248094" lon="10.8484472"><ele>17.0</ele><time>2026-04-17T16:32:13.044Z</time></trkpt><trkpt lat="44.9248957" lon="10.8484488"><ele>17.0</ele><time>2026-04-17T16:32:14.044Z</time></trkpt><trkpt lat="44.924994" lon="10.8484199"><ele>17.0</ele><time>2026-04-17T16:32:15.044Z</time></trkpt><trkpt lat="44.9250991" lon="10.8483758"><ele>17.0</ele><time>2026-04-17T16:32:16.043Z</time></trkpt><trkpt lat="44.9252113" lon="10.8483232"><ele>17.0</ele><time>2026-04-17T16:32:17.043Z</time></trkpt><trkpt lat="44.9253269" lon="10.8482647"><ele>17.25</ele><time>2026-04-17T16:32:18.043Z</time></trkpt><trkpt lat="44.9254511" lon="10.8482"><ele>17.5</ele><time>2026-04-17T16:32:19.043Z</time></trkpt><trkpt lat="44.9255774" lon="10.8481307"><ele>17.75</ele><time>2026-04-17T16:32:20.043Z</time></trkpt><trkpt lat="44.9257116" lon="10.8480607"><ele>18.0</ele><time>2026-04-17T16:32:21.043Z</time></trkpt><trkpt lat="44.925849" lon="10.8479934"><ele>17.5</ele><time>2026-04-17T16:32:22.044Z</time></trkpt><trkpt lat="44.9259901" lon="10.8479283"><ele>17.0</ele><time>2026-04-17T16:32:23.043Z</time></trkpt><trkpt lat="44.9261199" lon="10.8478605"><ele>16.5</ele><time>2026-04-17T16:32:24.044Z</time></trkpt><trkpt lat="44.926241" lon="10.8477959"><ele>16.0</ele><time>2026-04-17T16:32:25.043Z</time></trkpt><trkpt lat="44.9263543" lon="10.8477343"><ele>16.0</ele><time>2026-04-17T16:32:26.044Z</time></trkpt><trkpt lat="44.9264615" lon="10.8476789"><ele>16.0</ele><time>2026-04-17T16:32:27.044Z</time></trkpt><trkpt lat="44.9265618" lon="10.8476351"><ele>16.0</ele><time>2026-04-17T16:32:28.044Z</time></trkpt><trkpt lat="44.9266641" lon="10.8475912"><ele>16.0</ele><time>2026-04-17T16:32:29.045Z</time></trkpt><trkpt lat="44.9267529" lon="10.8475488"><ele>16.0</ele><time>2026-04-17T16:32:30.044Z</time></trkpt><trkpt lat="44.9268371" lon="10.8475051"><ele>16.0</ele><time>2026-04-17T16:32:31.044Z</time></trkpt><trkpt lat="44.9269112" lon="10.8474561"><ele>15.999999999999998</ele><time>2026-04-17T16:32:32.044Z</time></trkpt><trkpt lat="44.9269809" lon="10.8474067"><ele>16.0</ele><time>2026-04-17T16:32:33.044Z</time></trkpt><trkpt lat="44.9270362" lon="10.8473433"><ele>16.0</ele><time>2026-04-17T16:32:34.043Z</time></trkpt><trkpt lat="44.9270855" lon="10.8472773"><ele>15.999999999999998</ele><time>2026-04-17T16:32:35.044Z</time></trkpt><trkpt lat="44.9271293" lon="10.8472071"><ele>16.0</ele><time>2026-04-17T16:32:36.043Z</time></trkpt><trkpt lat="44.9271731" lon="10.8471372"><ele>16.0</ele><time>2026-04-17T16:32:37.043Z</time></trkpt><trkpt lat="44.9272227" lon="10.8470602"><ele>16.0</ele><time>2026-04-17T16:32:38.045Z</time></trkpt><trkpt lat="44.9272883" lon="10.8469724"><ele>16.0</ele><time>2026-04-17T16:32:39.044Z</time></trkpt><trkpt lat="44.9273703" lon="10.8468802"><ele>16.0</ele><time>2026-04-17T16:32:40.044Z</time></trkpt><trkpt lat="44.9274635" lon="10.846786"><ele>16.0</ele><time>2026-04-17T16:32:41.044Z</time></trkpt><trkpt lat="44.9275631" lon="10.8466769"><ele>16.0</ele><time>2026-04-17T16:32:42.043Z</time></trkpt><trkpt lat="44.9276538" lon="10.8465688"><ele>16.0</ele><time>2026-04-17T16:32:43.044Z</time></trkpt><trkpt lat="44.9277305" lon="10.8464689"><ele>16.0</ele><time>2026-04-17T16:32:44.044Z</time></trkpt><trkpt lat="44.9277963" lon="10.8463619"><ele>16.0</ele><time>2026-04-17T16:32:45.044Z</time></trkpt><trkpt lat="44.9278558" lon="10.8462377"><ele>16.0</ele><time>2026-04-17T16:32:46.043Z</time></trkpt><trkpt lat="44.9279112" lon="10.8460959"><ele>16.0</ele><time>2026-04-17T16:32:47.043Z</time></trkpt><trkpt lat="44.9279642" lon="10.8459315"><ele>16.25</ele><time>2026-04-17T16:32:48.044Z</time></trkpt><trkpt lat="44.9280128" lon="10.845752"><ele>16.5</ele><time>2026-04-17T16:32:49.043Z</time></trkpt><trkpt lat="44.9280568" lon="10.8455709"><ele>16.75</ele><time>2026-04-17T16:32:50.043Z</time></trkpt><trkpt lat="44.9281002" lon="10.8453986"><ele>17.0</ele><time>2026-04-17T16:32:51.043Z</time></trkpt><trkpt lat="44.928144" lon="10.8452199"><ele>17.0</ele><time>2026-04-17T16:32:52.043Z</time></trkpt><trkpt lat="44.9281893" lon="10.8450348"><ele>17.0</ele><time>2026-04-17T16:32:53.044Z</time></trkpt><trkpt lat="44.9282376" lon="10.844842"><ele>17.0</ele><time>2026-04-17T16:32:54.043Z</time></trkpt><trkpt lat="44.9282919" lon="10.8446432"><ele>17.0</ele><time>2026-04-17T16:32:55.044Z</time></trkpt><trkpt lat="44.9283489" lon="10.8444483"><ele>16.75</ele><time>2026-04-17T16:32:56.044Z</time></trkpt><trkpt lat="44.9284011" lon="10.8442665"><ele>16.5</ele><time>2026-04-17T16:32:57.043Z</time></trkpt><trkpt lat="44.9284516" lon="10.8440972"><ele>16.25</ele><time>2026-04-17T16:32:58.043Z</time></trkpt><trkpt lat="44.9284978" lon="10.8439205"><ele>16.0</ele><time>2026-04-17T16:32:59.044Z</time></trkpt><trkpt lat="44.9285426" lon="10.8437592"><ele>16.0</ele><time>2026-04-17T16:33:00.045Z</time></trkpt><trkpt lat="44.9285742" lon="10.8436195"><ele>16.0</ele><time>2026-04-17T16:33:01.043Z</time></trkpt><trkpt lat="44.9286089" lon="10.8434893"><ele>16.0</ele><time>2026-04-17T16:33:02.043Z</time></trkpt><trkpt lat="44.9286466" lon="10.843361"><ele>16.0</ele><time>2026-04-17T16:33:03.042Z</time></trkpt><trkpt lat="44.928686" lon="10.8432387"><ele>16.0</ele><time>2026-04-17T16:33:04.043Z</time></trkpt><trkpt lat="44.9287432" lon="10.843124"><ele>16.0</ele><time>2026-04-17T16:33:05.043Z</time></trkpt><trkpt lat="44.928812" lon="10.8430137"><ele>16.0</ele><time>2026-04-17T16:33:06.043Z</time></trkpt><trkpt lat="44.9288915" lon="10.8429081"><ele>16.0</ele><time>2026-04-17T16:33:07.042Z</time></trkpt><trkpt lat="44.9289801" lon="10.8428043"><ele>16.0</ele><time>2026-04-17T16:33:08.044Z</time></trkpt><trkpt lat="44.9290781" lon="10.8426905"><ele>16.25</ele><time>2026-04-17T16:33:09.043Z</time></trkpt><trkpt lat="44.9291725" lon="10.842572"><ele>16.5</ele><time>2026-04-17T16:33:10.044Z</time></trkpt><trkpt lat="44.9292685" lon="10.8424501"><ele>16.75</ele><time>2026-04-17T16:33:11.044Z</time></trkpt><trkpt lat="44.9293639" lon="10.8423302"><ele>17.0</ele><time>2026-04-17T16:33:12.044Z</time></trkpt><trkpt lat="44.9294593" lon="10.8422189"><ele>16.5</ele><time>2026-04-17T16:33:13.044Z</time></trkpt><trkpt lat="44.9295458" lon="10.8421143"><ele>16.0</ele><time>2026-04-17T16:33:14.043Z</time></trkpt><trkpt lat="44.9296298" lon="10.8420119"><ele>15.5</ele><time>2026-04-17T16:33:15.043Z</time></trkpt><trkpt lat="44.9297134" lon="10.8418995"><ele>15.0</ele><time>2026-04-17T16:33:16.043Z</time></trkpt><trkpt lat="44.9297975" lon="10.8417989"><ele>15.0</ele><time>2026-04-17T16:33:17.043Z</time></trkpt><trkpt lat="44.9298857" lon="10.8416948"><ele>15.0</ele><time>2026-04-17T16:33:18.043Z</time></trkpt><trkpt lat="44.9299733" lon="10.841581"><ele>15.0</ele><time>2026-04-17T16:33:19.043Z</time></trkpt><trkpt lat="44.9300649" lon="10.8414684"><ele>15.0</ele><time>2026-04-17T16:33:20.042Z</time></trkpt><trkpt lat="44.9301597" lon="10.8413598"><ele>15.0</ele><time>2026-04-17T16:33:21.044Z</time></trkpt><trkpt lat="44.9302472" lon="10.841266"><ele>15.0</ele><time>2026-04-17T16:33:22.043Z</time></trkpt><trkpt lat="44.9303292" lon="10.8411782"><ele>15.0</ele><time>2026-04-17T16:33:23.044Z</time></trkpt><trkpt lat="44.9304113" lon="10.8410887"><ele>15.0</ele><time>2026-04-17T16:33:24.043Z</time></trkpt><trkpt lat="44.9305004" lon="10.8409962"><ele>15.0</ele><time>2026-04-17T16:33:25.043Z</time></trkpt><trkpt lat="44.9305919" lon="10.8408944"><ele>15.25</ele><time>2026-04-17T16:33:26.043Z</time></trkpt><trkpt lat="44.9306872" lon="10.8407893"><ele>15.5</ele><time>2026-04-17T16:33:27.043Z</time></trkpt><trkpt lat="44.9307822" lon="10.8406792"><ele>15.75</ele><time>2026-04-17T16:33:28.044Z</time></trkpt><trkpt lat="44.9308741" lon="10.8405721"><ele>16.0</ele><time>2026-04-17T16:33:29.044Z</time></trkpt><trkpt lat="44.9309609" lon="10.8404763"><ele>16.5</ele><time>2026-04-17T16:33:30.043Z</time></trkpt><trkpt lat="44.931054" lon="10.8403934"><ele>17.0</ele><time>2026-04-17T16:33:31.044Z</time></trkpt><trkpt lat="44.9311575" lon="10.8403393"><ele>17.5</ele><time>2026-04-17T16:33:32.043Z</time></trkpt><trkpt lat="44.9312782" lon="10.840316"><ele>18.0</ele><time>2026-04-17T16:33:33.045Z</time></trkpt><trkpt lat="44.9314116" lon="10.8403148"><ele>18.0</ele><time>2026-04-17T16:33:34.043Z</time></trkpt><trkpt lat="44.9315541" lon="10.8403159"><ele>18.0</ele><time>2026-04-17T16:33:35.043Z</time></trkpt><trkpt lat="44.9317052" lon="10.8403076"><ele>18.0</ele><time>2026-04-17T16:33:36.044Z</time></trkpt><trkpt lat="44.9318641" lon="10.8402862"><ele>18.25</ele><time>2026-04-17T16:33:37.043Z</time></trkpt><trkpt lat="44.9320214" lon="10.8402557"><ele>18.5</ele><time>2026-04-17T16:33:38.042Z</time></trkpt><trkpt lat="44.932164" lon="10.8402118"><ele>18.75</ele><time>2026-04-17T16:33:39.044Z</time></trkpt><trkpt lat="44.9323011" lon="10.8401575"><ele>19.0</ele><time>2026-04-17T16:33:40.043Z</time></trkpt><trkpt lat="44.9324329" lon="10.8400927"><ele>19.0</ele><time>2026-04-17T16:33:41.043Z</time></trkpt><trkpt lat="44.9325529" lon="10.8400204"><ele>19.0</ele><time>2026-04-17T16:33:42.044Z</time></trkpt><trkpt lat="44.9326811" lon="10.8399495"><ele>19.0</ele><time>2026-04-17T16:33:43.043Z</time></trkpt><trkpt lat="44.9328169" lon="10.8398945"><ele>19.0</ele><time>2026-04-17T16:33:44.044Z</time></trkpt><trkpt lat="44.9329606" lon="10.8398632"><ele>19.0</ele><time>2026-04-17T16:33:45.043Z</time></trkpt><trkpt lat="44.9331106" lon="10.8398477"><ele>19.0</ele><time>2026-04-17T16:33:46.044Z</time></trkpt><trkpt lat="44.9332584" lon="10.8398439"><ele>19.0</ele><time>2026-04-17T16:33:47.043Z</time></trkpt><trkpt lat="44.9334006" lon="10.8398494"><ele>19.0</ele><time>2026-04-17T16:33:48.043Z</time></trkpt><trkpt lat="44.9335435" lon="10.8398493"><ele>19.0</ele><time>2026-04-17T16:33:49.044Z</time></trkpt><trkpt lat="44.9336839" lon="10.8398545"><ele>19.0</ele><time>2026-04-17T16:33:50.043Z</time></trkpt><trkpt lat="44.9338295" lon="10.8398644"><ele>19.0</ele><time>2026-04-17T16:33:51.042Z</time></trkpt><trkpt lat="44.9339576" lon="10.8398716"><ele>19.0</ele><time>2026-04-17T16:33:52.043Z</time></trkpt><trkpt lat="44.9340846" lon="10.839878"><ele>19.0</ele><time>2026-04-17T16:33:53.043Z</time></trkpt><trkpt lat="44.934208" lon="10.8398836"><ele>19.0</ele><time>2026-04-17T16:33:54.044Z</time></trkpt><trkpt lat="44.9343092" lon="10.8398731"><ele>19.0</ele><time>2026-04-17T16:33:55.043Z</time></trkpt><trkpt lat="44.9344093" lon="10.8398749"><ele>19.0</ele><time>2026-04-17T16:33:56.043Z</time></trkpt><trkpt lat="44.9345013" lon="10.839878"><ele>19.0</ele><time>2026-04-17T16:33:57.043Z</time></trkpt><trkpt lat="44.9345772" lon="10.8398772"><ele>18.8</ele><time>2026-04-17T16:33:58.043Z</time></trkpt><trkpt lat="44.9346512" lon="10.8398738"><ele>18.599999999999998</ele><time>2026-04-17T16:33:59.043Z</time></trkpt><trkpt lat="44.9347359" lon="10.8398842"><ele>18.4</ele><time>2026-04-17T16:34:00.044Z</time></trkpt><trkpt lat="44.9348312" lon="10.8399209"><ele>18.2</ele><time>2026-04-17T16:34:01.043Z</time></trkpt><trkpt lat="44.9349311" lon="10.8399773"><ele>18.0</ele><time>2026-04-17T16:34:02.044Z</time></trkpt><trkpt lat="44.9350402" lon="10.8400699"><ele>17.25</ele><time>2026-04-17T16:34:03.043Z</time></trkpt><trkpt lat="44.9351561" lon="10.8401712"><ele>16.5</ele><time>2026-04-17T16:34:04.042Z</time></trkpt><trkpt lat="44.9352804" lon="10.8402803"><ele>15.75</ele><time>2026-04-17T16:34:05.043Z</time></trkpt><trkpt lat="44.9354126" lon="10.8403969"><ele>15.0</ele><time>2026-04-17T16:34:06.044Z</time></trkpt><trkpt lat="44.9355495" lon="10.8405216"><ele>15.0</ele><time>2026-04-17T16:34:07.043Z</time></trkpt><trkpt lat="44.9356885" lon="10.8406506"><ele>15.0</ele><time>2026-04-17T16:34:08.043Z</time></trkpt><trkpt lat="44.9358349" lon="10.8407875"><ele>15.0</ele><time>2026-04-17T16:34:09.044Z</time></trkpt><trkpt lat="44.9359769" lon="10.8409308"><ele>15.333333333333332</ele><time>2026-04-17T16:34:10.044Z</time></trkpt><trkpt lat="44.9361115" lon="10.8410839"><ele>15.666666666666666</ele><time>2026-04-17T16:34:11.044Z</time></trkpt><trkpt lat="44.9362401" lon="10.8412573"><ele>16.0</ele><time>2026-04-17T16:34:12.043Z</time></trkpt><trkpt lat="44.93635" lon="10.8414555"><ele>16.0</ele><time>2026-04-17T16:34:13.045Z</time></trkpt><trkpt lat="44.9364502" lon="10.841662"><ele>16.0</ele><time>2026-04-17T16:34:14.043Z</time></trkpt><trkpt lat="44.9365521" lon="10.8418721"><ele>16.0</ele><time>2026-04-17T16:34:15.044Z</time></trkpt><trkpt lat="44.9366517" lon="10.8420758"><ele>16.333333333333332</ele><time>2026-04-17T16:34:16.044Z</time></trkpt><trkpt lat="44.9367512" lon="10.8422633"><ele>16.666666666666668</ele><time>2026-04-17T16:34:17.043Z</time></trkpt><trkpt lat="44.9368566" lon="10.8424417"><ele>17.0</ele><time>2026-04-17T16:34:18.044Z</time></trkpt><trkpt lat="44.9369677" lon="10.8426032"><ele>17.0</ele><time>2026-04-17T16:34:19.043Z</time></trkpt><trkpt lat="44.937089" lon="10.8427529"><ele>17.0</ele><time>2026-04-17T16:34:20.043Z</time></trkpt><trkpt lat="44.9372202" lon="10.8428791"><ele>17.0</ele><time>2026-04-17T16:34:21.043Z</time></trkpt><trkpt lat="44.9373681" lon="10.8429722"><ele>17.0</ele><time>2026-04-17T16:34:22.043Z</time></trkpt><trkpt lat="44.9375316" lon="10.8430251"><ele>17.0</ele><time>2026-04-17T16:34:23.044Z</time></trkpt><trkpt lat="44.9376984" lon="10.8430657"><ele>17.0</ele><time>2026-04-17T16:34:24.043Z</time></trkpt><trkpt lat="44.9378557" lon="10.8431009"><ele>16.333333333333336</ele><time>2026-04-17T16:34:25.043Z</time></trkpt><trkpt lat="44.9380112" lon="10.8431334"><ele>15.666666666666668</ele><time>2026-04-17T16:34:26.043Z</time></trkpt><trkpt lat="44.9381645" lon="10.843172"><ele>15.0</ele><time>2026-04-17T16:34:27.044Z</time></trkpt><trkpt lat="44.9383257" lon="10.8432127"><ele>15.666666666666668</ele><time>2026-04-17T16:34:28.044Z</time></trkpt><trkpt lat="44.9384863" lon="10.8432472"><ele>16.333333333333336</ele><time>2026-04-17T16:34:29.043Z</time></trkpt><trkpt lat="44.9386451" lon="10.8432847"><ele>17.0</ele><time>2026-04-17T16:34:30.042Z</time></trkpt><trkpt lat="44.9388047" lon="10.8433418"><ele>17.0</ele><time>2026-04-17T16:34:31.044Z</time></trkpt><trkpt lat="44.9389646" lon="10.843417"><ele>17.0</ele><time>2026-04-17T16:34:32.043Z</time></trkpt><trkpt lat="44.9391134" lon="10.8435209"><ele>17.0</ele><time>2026-04-17T16:34:33.043Z</time></trkpt><trkpt lat="44.9392453" lon="10.8436484"><ele>17.333333333333336</ele><time>2026-04-17T16:34:34.045Z</time></trkpt><trkpt lat="44.9393741" lon="10.8438015"><ele>17.666666666666668</ele><time>2026-04-17T16:34:35.044Z</time></trkpt><trkpt lat="44.9395025" lon="10.8439625"><ele>18.0</ele><time>2026-04-17T16:34:36.044Z</time></trkpt><trkpt lat="44.9396393" lon="10.8441196"><ele>18.0</ele><time>2026-04-17T16:34:37.044Z</time></trkpt><trkpt lat="44.939776" lon="10.8442732"><ele>18.0</ele><time>2026-04-17T16:34:38.043Z</time></trkpt><trkpt lat="44.9399155" lon="10.8444248"><ele>18.0</ele><time>2026-04-17T16:34:39.043Z</time></trkpt><trkpt lat="44.940054" lon="10.8445827"><ele>17.333333333333332</ele><time>2026-04-17T16:34:40.044Z</time></trkpt><trkpt lat="44.9401982" lon="10.8447438"><ele>16.666666666666664</ele><time>2026-04-17T16:34:41.043Z</time></trkpt><trkpt lat="44.9403346" lon="10.8449"><ele>16.0</ele><time>2026-04-17T16:34:42.044Z</time></trkpt><trkpt lat="44.9404704" lon="10.8450649"><ele>16.333333333333332</ele><time>2026-04-17T16:34:43.044Z</time></trkpt><trkpt lat="44.9406072" lon="10.8452407"><ele>16.666666666666668</ele><time>2026-04-17T16:34:44.043Z</time></trkpt><trkpt lat="44.9407369" lon="10.8454094"><ele>17.0</ele><time>2026-04-17T16:34:45.043Z</time></trkpt><trkpt lat="44.9408538" lon="10.8455658"><ele>17.0</ele><time>2026-04-17T16:34:46.044Z</time></trkpt><trkpt lat="44.9409763" lon="10.8457368"><ele>17.0</ele><time>2026-04-17T16:34:47.043Z</time></trkpt><trkpt lat="44.9410936" lon="10.8459065"><ele>17.0</ele><time>2026-04-17T16:34:48.043Z</time></trkpt><trkpt lat="44.9412054" lon="10.8460706"><ele>17.0</ele><time>2026-04-17T16:34:49.044Z</time></trkpt><trkpt lat="44.9413103" lon="10.8462204"><ele>17.0</ele><time>2026-04-17T16:34:50.042Z</time></trkpt><trkpt lat="44.9414102" lon="10.8463627"><ele>17.0</ele><time>2026-04-17T16:34:51.044Z</time></trkpt><trkpt lat="44.9415091" lon="10.846494"><ele>17.0</ele><time>2026-04-17T16:34:52.043Z</time></trkpt><trkpt lat="44.9416044" lon="10.8466277"><ele>17.0</ele><time>2026-04-17T16:34:53.043Z</time></trkpt><trkpt lat="44.9416998" lon="10.8467627"><ele>17.0</ele><time>2026-04-17T16:34:54.044Z</time></trkpt><trkpt lat="44.9417843" lon="10.8468862"><ele>17.0</ele><time>2026-04-17T16:34:55.044Z</time></trkpt><trkpt lat="44.9418578" lon="10.8470056"><ele>17.0</ele><time>2026-04-17T16:34:56.043Z</time></trkpt><trkpt lat="44.9419216" lon="10.8471131"><ele>17.0</ele><time>2026-04-17T16:34:57.045Z</time></trkpt><trkpt lat="44.9419809" lon="10.8472071"><ele>17.0</ele><time>2026-04-17T16:34:58.044Z</time></trkpt><trkpt lat="44.9420332" lon="10.8472855"><ele>17.0</ele><time>2026-04-17T16:34:59.043Z</time></trkpt><trkpt lat="44.942083" lon="10.8473634"><ele>17.0</ele><time>2026-04-17T16:35:00.044Z</time></trkpt><trkpt lat="44.942124" lon="10.8474346"><ele>17.0</ele><time>2026-04-17T16:35:01.043Z</time></trkpt><trkpt lat="44.9421801" lon="10.8475388"><ele>17.0</ele><time>2026-04-17T16:35:03.043Z</time></trkpt><trkpt lat="44.942264" lon="10.8475772"><ele>17.0</ele><time>2026-04-17T16:35:05.043Z</time></trkpt><trkpt lat="44.9423247" lon="10.8475355"><ele>17.0</ele><time>2026-04-17T16:35:06.044Z</time></trkpt><trkpt lat="44.9423869" lon="10.8474558"><ele>17.0</ele><time>2026-04-17T16:35:07.043Z</time></trkpt><trkpt lat="44.9424615" lon="10.8473582"><ele>17.0</ele><time>2026-04-17T16:35:08.044Z</time></trkpt><trkpt lat="44.9425398" lon="10.8472495"><ele>17.0</ele><time>2026-04-17T16:35:09.043Z</time></trkpt><trkpt lat="44.9426321" lon="10.8471356"><ele>16.75</ele><time>2026-04-17T16:35:10.044Z</time></trkpt><trkpt lat="44.9427311" lon="10.8470099"><ele>16.5</ele><time>2026-04-17T16:35:11.043Z</time></trkpt><trkpt lat="44.9428332" lon="10.8468864"><ele>16.25</ele><time>2026-04-17T16:35:12.044Z</time></trkpt><trkpt lat="44.9429351" lon="10.8467589"><ele>16.0</ele><time>2026-04-17T16:35:13.043Z</time></trkpt><trkpt lat="44.9430315" lon="10.8466463"><ele>16.0</ele><time>2026-04-17T16:35:14.042Z</time></trkpt><trkpt lat="44.9431273" lon="10.8465524"><ele>16.0</ele><time>2026-04-17T16:35:15.043Z</time></trkpt><trkpt lat="44.9432282" lon="10.8464945"><ele>16.0</ele><time>2026-04-17T16:35:16.044Z</time></trkpt><trkpt lat="44.9433382" lon="10.8464786"><ele>16.0</ele><time>2026-04-17T16:35:17.044Z</time></trkpt><trkpt lat="44.9434558" lon="10.8465031"><ele>16.0</ele><time>2026-04-17T16:35:18.043Z</time></trkpt><trkpt lat="44.9435705" lon="10.8465826"><ele>16.0</ele><time>2026-04-17T16:35:19.042Z</time></trkpt><trkpt lat="44.9436851" lon="10.8466847"><ele>16.0</ele><time>2026-04-17T16:35:20.044Z</time></trkpt><trkpt lat="44.9438022" lon="10.8467996"><ele>16.0</ele><time>2026-04-17T16:35:21.044Z</time></trkpt><trkpt lat="44.9439229" lon="10.8469226"><ele>16.333333333333332</ele><time>2026-04-17T16:35:22.044Z</time></trkpt><trkpt lat="44.9440462" lon="10.847051"><ele>16.666666666666668</ele><time>2026-04-17T16:35:23.044Z</time></trkpt><trkpt lat="44.9441698" lon="10.8471862"><ele>17.0</ele><time>2026-04-17T16:35:24.043Z</time></trkpt><trkpt lat="44.9442896" lon="10.847328"><ele>17.0</ele><time>2026-04-17T16:35:25.043Z</time></trkpt><trkpt lat="44.9444073" lon="10.8474783"><ele>17.0</ele><time>2026-04-17T16:35:26.043Z</time></trkpt><trkpt lat="44.9445207" lon="10.8476304"><ele>17.0</ele><time>2026-04-17T16:35:27.044Z</time></trkpt><trkpt lat="44.944635" lon="10.8477825"><ele>17.0</ele><time>2026-04-17T16:35:28.043Z</time></trkpt><trkpt lat="44.9447491" lon="10.8479254"><ele>17.0</ele><time>2026-04-17T16:35:29.043Z</time></trkpt><trkpt lat="44.9448566" lon="10.8480505"><ele>17.0</ele><time>2026-04-17T16:35:30.043Z</time></trkpt><trkpt lat="44.9449623" lon="10.848163"><ele>17.0</ele><time>2026-04-17T16:35:31.043Z</time></trkpt><trkpt lat="44.9450584" lon="10.848259"><ele>16.5</ele><time>2026-04-17T16:35:32.044Z</time></trkpt><trkpt lat="44.9451647" lon="10.8483555"><ele>16.0</ele><time>2026-04-17T16:35:33.043Z</time></trkpt><trkpt lat="44.9452668" lon="10.8484454"><ele>15.5</ele><time>2026-04-17T16:35:34.043Z</time></trkpt><trkpt lat="44.9453668" lon="10.8485338"><ele>15.0</ele><time>2026-04-17T16:35:35.043Z</time></trkpt><trkpt lat="44.9454568" lon="10.8486112"><ele>15.0</ele><time>2026-04-17T16:35:36.044Z</time></trkpt><trkpt lat="44.9455403" lon="10.8486896"><ele>15.0</ele><time>2026-04-17T16:35:37.043Z</time></trkpt><trkpt lat="44.9456121" lon="10.8487398"><ele>15.0</ele><time>2026-04-17T16:35:38.044Z</time></trkpt><trkpt lat="44.9456692" lon="10.8487858"><ele>15.0</ele><time>2026-04-17T16:35:39.043Z</time></trkpt><trkpt lat="44.9457289" lon="10.8488359"><ele>15.0</ele><time>2026-04-17T16:35:41.044Z</time></trkpt><trkpt lat="44.9458291" lon="10.8489014"><ele>15.0</ele><time>2026-04-17T16:35:44.043Z</time></trkpt><trkpt lat="44.9459123" lon="10.8489603"><ele>15.0</ele><time>2026-04-17T16:35:45.042Z</time></trkpt><trkpt lat="44.946003" lon="10.8490276"><ele>15.0</ele><time>2026-04-17T16:35:46.043Z</time></trkpt><trkpt lat="44.9461011" lon="10.849106"><ele>15.0</ele><time>2026-04-17T16:35:47.044Z</time></trkpt><trkpt lat="44.946218" lon="10.8491939"><ele>15.0</ele><time>2026-04-17T16:35:48.043Z</time></trkpt><trkpt lat="44.9463414" lon="10.8492936"><ele>15.333333333333332</ele><time>2026-04-17T16:35:49.043Z</time></trkpt><trkpt lat="44.9464735" lon="10.8494005"><ele>15.666666666666666</ele><time>2026-04-17T16:35:50.043Z</time></trkpt><trkpt lat="44.9466139" lon="10.8495116"><ele>16.0</ele><time>2026-04-17T16:35:51.043Z</time></trkpt><trkpt lat="44.9467593" lon="10.8496297"><ele>16.333333333333332</ele><time>2026-04-17T16:35:52.043Z</time></trkpt><trkpt lat="44.9469082" lon="10.8497464"><ele>16.666666666666668</ele><time>2026-04-17T16:35:53.044Z</time></trkpt><trkpt lat="44.947062" lon="10.8498706"><ele>17.0</ele><time>2026-04-17T16:35:54.044Z</time></trkpt><trkpt lat="44.9472195" lon="10.8499975"><ele>17.0</ele><time>2026-04-17T16:35:55.043Z</time></trkpt><trkpt lat="44.9473852" lon="10.8501247"><ele>17.0</ele><time>2026-04-17T16:35:56.043Z</time></trkpt><trkpt lat="44.9475494" lon="10.8502575"><ele>17.0</ele><time>2026-04-17T16:35:57.042Z</time></trkpt><trkpt lat="44.9477143" lon="10.8503927"><ele>16.666666666666668</ele><time>2026-04-17T16:35:58.042Z</time></trkpt><trkpt lat="44.9478834" lon="10.8505305"><ele>16.333333333333332</ele><time>2026-04-17T16:35:59.042Z</time></trkpt><trkpt lat="44.948058" lon="10.8506674"><ele>16.0</ele><time>2026-04-17T16:36:00.044Z</time></trkpt><trkpt lat="44.9482353" lon="10.8508082"><ele>16.0</ele><time>2026-04-17T16:36:01.044Z</time></trkpt><trkpt lat="44.9484116" lon="10.8509564"><ele>16.0</ele><time>2026-04-17T16:36:02.043Z</time></trkpt><trkpt lat="44.9485876" lon="10.8511006"><ele>16.0</ele><time>2026-04-17T16:36:03.042Z</time></trkpt><trkpt lat="44.9487623" lon="10.8512435"><ele>16.0</ele><time>2026-04-17T16:36:04.043Z</time></trkpt><trkpt lat="44.9489368" lon="10.8513842"><ele>16.0</ele><time>2026-04-17T16:36:05.044Z</time></trkpt><trkpt lat="44.949115" lon="10.851524"><ele>16.0</ele><time>2026-04-17T16:36:06.044Z</time></trkpt><trkpt lat="44.9492876" lon="10.8516633"><ele>16.333333333333332</ele><time>2026-04-17T16:36:07.042Z</time></trkpt><trkpt lat="44.9494591" lon="10.851802"><ele>16.666666666666668</ele><time>2026-04-17T16:36:08.044Z</time></trkpt><trkpt lat="44.9496288" lon="10.8519406"><ele>17.0</ele><time>2026-04-17T16:36:09.044Z</time></trkpt><trkpt lat="44.9497965" lon="10.8520776"><ele>17.0</ele><time>2026-04-17T16:36:10.044Z</time></trkpt><trkpt lat="44.9499572" lon="10.852212"><ele>17.0</ele><time>2026-04-17T16:36:11.043Z</time></trkpt><trkpt lat="44.9501089" lon="10.8523418"><ele>17.0</ele><time>2026-04-17T16:36:12.044Z</time></trkpt><trkpt lat="44.9502432" lon="10.8524947"><ele>17.0</ele><time>2026-04-17T16:36:13.043Z</time></trkpt><trkpt lat="44.9503796" lon="10.8526455"><ele>17.0</ele><time>2026-04-17T16:36:14.043Z</time></trkpt><trkpt lat="44.9505172" lon="10.8527971"><ele>17.0</ele><time>2026-04-17T16:36:15.044Z</time></trkpt><trkpt lat="44.9506697" lon="10.8529268"><ele>17.0</ele><time>2026-04-17T16:36:16.043Z</time></trkpt><trkpt lat="44.9508347" lon="10.853043"><ele>17.0</ele><time>2026-04-17T16:36:17.043Z</time></trkpt><trkpt lat="44.9510058" lon="10.8531568"><ele>17.0</ele><time>2026-04-17T16:36:18.043Z</time></trkpt><trkpt lat="44.9511762" lon="10.8532814"><ele>16.333333333333336</ele><time>2026-04-17T16:36:19.043Z</time></trkpt><trkpt lat="44.9513479" lon="10.853411"><ele>15.666666666666668</ele><time>2026-04-17T16:36:20.043Z</time></trkpt><trkpt lat="44.9515176" lon="10.8535461"><ele>15.0</ele><time>2026-04-17T16:36:21.043Z</time></trkpt><trkpt lat="44.9516755" lon="10.8536764"><ele>16.666666666666668</ele><time>2026-04-17T16:36:22.044Z</time></trkpt><trkpt lat="44.9518166" lon="10.8537967"><ele>18.333333333333336</ele><time>2026-04-17T16:36:23.045Z</time></trkpt><trkpt lat="44.9519569" lon="10.8539188"><ele>20.0</ele><time>2026-04-17T16:36:24.043Z</time></trkpt><trkpt lat="44.9520983" lon="10.854043"><ele>20.0</ele><time>2026-04-17T16:36:25.043Z</time></trkpt><trkpt lat="44.9522415" lon="10.8541745"><ele>20.0</ele><time>2026-04-17T16:36:26.043Z</time></trkpt><trkpt lat="44.952387" lon="10.8543265"><ele>20.0</ele><time>2026-04-17T16:36:27.043Z</time></trkpt><trkpt lat="44.9525341" lon="10.8544722"><ele>19.333333333333336</ele><time>2026-04-17T16:36:28.043Z</time></trkpt><trkpt lat="44.9526846" lon="10.8546263"><ele>18.666666666666668</ele><time>2026-04-17T16:36:29.043Z</time></trkpt><trkpt lat="44.9528367" lon="10.8547844"><ele>18.0</ele><time>2026-04-17T16:36:30.042Z</time></trkpt><trkpt lat="44.9529929" lon="10.8549541"><ele>18.0</ele><time>2026-04-17T16:36:31.043Z</time></trkpt><trkpt lat="44.9531459" lon="10.8551166"><ele>18.0</ele><time>2026-04-17T16:36:32.044Z</time></trkpt><trkpt lat="44.9533041" lon="10.855289"><ele>18.0</ele><time>2026-04-17T16:36:33.042Z</time></trkpt><trkpt lat="44.9534544" lon="10.855467"><ele>17.666666666666668</ele><time>2026-04-17T16:36:34.043Z</time></trkpt><trkpt lat="44.9535981" lon="10.8556607"><ele>17.333333333333336</ele><time>2026-04-17T16:36:35.044Z</time></trkpt><trkpt lat="44.9537381" lon="10.8558625"><ele>17.0</ele><time>2026-04-17T16:36:36.043Z</time></trkpt><trkpt lat="44.9538746" lon="10.8560678"><ele>17.0</ele><time>2026-04-17T16:36:37.044Z</time></trkpt><trkpt lat="44.9540023" lon="10.8562942"><ele>17.0</ele><time>2026-04-17T16:36:38.043Z</time></trkpt><trkpt lat="44.9541301" lon="10.8565177"><ele>17.0</ele><time>2026-04-17T16:36:39.043Z</time></trkpt><trkpt lat="44.9542593" lon="10.8567523"><ele>17.333333333333336</ele><time>2026-04-17T16:36:40.043Z</time></trkpt><trkpt lat="44.9543833" lon="10.8569838"><ele>17.666666666666668</ele><time>2026-04-17T16:36:41.043Z</time></trkpt><trkpt lat="44.9545082" lon="10.8572188"><ele>18.0</ele><time>2026-04-17T16:36:42.043Z</time></trkpt><trkpt lat="44.9546262" lon="10.8574442"><ele>17.666666666666668</ele><time>2026-04-17T16:36:43.043Z</time></trkpt><trkpt lat="44.9547402" lon="10.8576635"><ele>17.333333333333336</ele><time>2026-04-17T16:36:44.043Z</time></trkpt><trkpt lat="44.954838" lon="10.8578557"><ele>17.0</ele><time>2026-04-17T16:36:45.043Z</time></trkpt><trkpt lat="44.9549374" lon="10.8580472"><ele>17.0</ele><time>2026-04-17T16:36:46.043Z</time></trkpt><trkpt lat="44.9550304" lon="10.8582361"><ele>17.0</ele><time>2026-04-17T16:36:47.043Z</time></trkpt><trkpt lat="44.95512" lon="10.8584088"><ele>17.0</ele><time>2026-04-17T16:36:48.043Z</time></trkpt><trkpt lat="44.9552064" lon="10.8585824"><ele>16.333333333333336</ele><time>2026-04-17T16:36:49.043Z</time></trkpt><trkpt lat="44.9552804" lon="10.8587717"><ele>15.666666666666668</ele><time>2026-04-17T16:36:50.044Z</time></trkpt><trkpt lat="44.9553303" lon="10.8589795"><ele>15.0</ele><time>2026-04-17T16:36:51.044Z</time></trkpt><trkpt lat="44.9553497" lon="10.8592006"><ele>15.0</ele><time>2026-04-17T16:36:52.044Z</time></trkpt><trkpt lat="44.9553581" lon="10.8594312"><ele>15.0</ele><time>2026-04-17T16:36:53.043Z</time></trkpt><trkpt lat="44.9553612" lon="10.8596707"><ele>15.0</ele><time>2026-04-17T16:36:54.043Z</time></trkpt><trkpt lat="44.9553581" lon="10.8599181"><ele>15.333333333333332</ele><time>2026-04-17T16:36:55.043Z</time></trkpt><trkpt lat="44.9553438" lon="10.860171"><ele>15.666666666666666</ele><time>2026-04-17T16:36:56.043Z</time></trkpt><trkpt lat="44.9553161" lon="10.8604299"><ele>16.0</ele><time>2026-04-17T16:36:57.043Z</time></trkpt><trkpt lat="44.9552892" lon="10.8606901"><ele>16.0</ele><time>2026-04-17T16:36:58.044Z</time></trkpt><trkpt lat="44.9552647" lon="10.8609552"><ele>16.0</ele><time>2026-04-17T16:36:59.044Z</time></trkpt><trkpt lat="44.9552526" lon="10.8612258"><ele>16.0</ele><time>2026-04-17T16:37:00.043Z</time></trkpt><trkpt lat="44.9552585" lon="10.8615027"><ele>16.0</ele><time>2026-04-17T16:37:01.043Z</time></trkpt><trkpt lat="44.9552944" lon="10.8617783"><ele>16.0</ele><time>2026-04-17T16:37:02.043Z</time></trkpt><trkpt lat="44.9553349" lon="10.862055"><ele>16.0</ele><time>2026-04-17T16:37:03.044Z</time></trkpt><trkpt lat="44.9553821" lon="10.8623296"><ele>16.0</ele><time>2026-04-17T16:37:04.043Z</time></trkpt><trkpt lat="44.9554286" lon="10.8625839"><ele>16.0</ele><time>2026-04-17T16:37:05.043Z</time></trkpt><trkpt lat="44.9554738" lon="10.8628253"><ele>16.0</ele><time>2026-04-17T16:37:06.043Z</time></trkpt><trkpt lat="44.9555141" lon="10.8630454"><ele>16.0</ele><time>2026-04-17T16:37:07.044Z</time></trkpt><trkpt lat="44.9555497" lon="10.8632453"><ele>16.0</ele><time>2026-04-17T16:37:08.043Z</time></trkpt><trkpt lat="44.9555874" lon="10.8634186"><ele>16.0</ele><time>2026-04-17T16:37:09.044Z</time></trkpt><trkpt lat="44.9556447" lon="10.863571"><ele>16.0</ele><time>2026-04-17T16:37:10.043Z</time></trkpt><trkpt lat="44.9557343" lon="10.8637013"><ele>16.0</ele><time>2026-04-17T16:37:11.044Z</time></trkpt><trkpt lat="44.9558549" lon="10.8638067"><ele>16.0</ele><time>2026-04-17T16:37:12.042Z</time></trkpt><trkpt lat="44.9559985" lon="10.8638743"><ele>16.0</ele><time>2026-04-17T16:37:13.043Z</time></trkpt><trkpt lat="44.956158" lon="10.8639256"><ele>16.0</ele><time>2026-04-17T16:37:14.044Z</time></trkpt><trkpt lat="44.9563277" lon="10.8639761"><ele>16.0</ele><time>2026-04-17T16:37:15.043Z</time></trkpt><trkpt lat="44.9565098" lon="10.8640195"><ele>16.0</ele><time>2026-04-17T16:37:16.044Z</time></trkpt><trkpt lat="44.9566942" lon="10.8640763"><ele>15.333333333333332</ele><time>2026-04-17T16:37:17.043Z</time></trkpt><trkpt lat="44.9568724" lon="10.8641203"><ele>14.666666666666668</ele><time>2026-04-17T16:37:18.043Z</time></trkpt><trkpt lat="44.9570427" lon="10.8641684"><ele>14.0</ele><time>2026-04-17T16:37:19.042Z</time></trkpt><trkpt lat="44.9572026" lon="10.8642057"><ele>14.0</ele><time>2026-04-17T16:37:20.043Z</time></trkpt><trkpt lat="44.9573547" lon="10.8642369"><ele>14.0</ele><time>2026-04-17T16:37:21.043Z</time></trkpt><trkpt lat="44.9574955" lon="10.8642669"><ele>14.0</ele><time>2026-04-17T16:37:22.043Z</time></trkpt><trkpt lat="44.9576246" lon="10.8642955"><ele>14.0</ele><time>2026-04-17T16:37:23.043Z</time></trkpt><trkpt lat="44.9577387" lon="10.8643114"><ele>14.333333333333334</ele><time>2026-04-17T16:37:24.044Z</time></trkpt><trkpt lat="44.957842" lon="10.8643322"><ele>14.666666666666668</ele><time>2026-04-17T16:37:25.043Z</time></trkpt><trkpt lat="44.9579241" lon="10.864355"><ele>15.0</ele><time>2026-04-17T16:37:26.043Z</time></trkpt><trkpt lat="44.9579882" lon="10.8643948"><ele>15.333333333333332</ele><time>2026-04-17T16:37:27.044Z</time></trkpt><trkpt lat="44.9580314" lon="10.8644786"><ele>15.666666666666666</ele><time>2026-04-17T16:37:28.044Z</time></trkpt><trkpt lat="44.9580338" lon="10.8645921"><ele>16.0</ele><time>2026-04-17T16:37:29.044Z</time></trkpt><trkpt lat="44.9580088" lon="10.8647184"><ele>16.0</ele><time>2026-04-17T16:37:30.043Z</time></trkpt><trkpt lat="44.9579679" lon="10.8648668"><ele>16.0</ele><time>2026-04-17T16:37:31.043Z</time></trkpt><trkpt lat="44.957924" lon="10.8650184"><ele>16.0</ele><time>2026-04-17T16:37:32.043Z</time></trkpt><trkpt lat="44.9578797" lon="10.865168"><ele>16.0</ele><time>2026-04-17T16:37:33.043Z</time></trkpt><trkpt lat="44.9578382" lon="10.8653059"><ele>16.0</ele><time>2026-04-17T16:37:34.043Z</time></trkpt><trkpt lat="44.9577908" lon="10.8654577"><ele>16.25</ele><time>2026-04-17T16:37:35.044Z</time></trkpt><trkpt lat="44.9577405" lon="10.8656247"><ele>16.5</ele><time>2026-04-17T16:37:36.043Z</time></trkpt><trkpt lat="44.9576896" lon="10.8657919"><ele>16.75</ele><time>2026-04-17T16:37:37.043Z</time></trkpt><trkpt lat="44.9576323" lon="10.8659718"><ele>17.0</ele><time>2026-04-17T16:37:38.044Z</time></trkpt><trkpt lat="44.9575736" lon="10.8661601"><ele>17.0</ele><time>2026-04-17T16:37:39.043Z</time></trkpt><trkpt lat="44.957512" lon="10.866362"><ele>17.0</ele><time>2026-04-17T16:37:40.043Z</time></trkpt><trkpt lat="44.9574462" lon="10.8665757"><ele>17.0</ele><time>2026-04-17T16:37:41.043Z</time></trkpt><trkpt lat="44.9573795" lon="10.8668003"><ele>16.666666666666668</ele><time>2026-04-17T16:37:42.043Z</time></trkpt><trkpt lat="44.9573111" lon="10.8670265"><ele>16.333333333333332</ele><time>2026-04-17T16:37:43.044Z</time></trkpt><trkpt lat="44.9572478" lon="10.8672385"><ele>16.0</ele><time>2026-04-17T16:37:44.043Z</time></trkpt><trkpt lat="44.9571881" lon="10.8674331"><ele>16.0</ele><time>2026-04-17T16:37:45.044Z</time></trkpt><trkpt lat="44.9571338" lon="10.8676048"><ele>16.0</ele><time>2026-04-17T16:37:46.043Z</time></trkpt><trkpt lat="44.9570904" lon="10.8677568"><ele>16.0</ele><time>2026-04-17T16:37:47.043Z</time></trkpt><trkpt lat="44.9570615" lon="10.867904"><ele>16.0</ele><time>2026-04-17T16:37:48.043Z</time></trkpt><trkpt lat="44.9570756" lon="10.8680542"><ele>15.75</ele><time>2026-04-17T16:37:49.043Z</time></trkpt><trkpt lat="44.9571396" lon="10.8682011"><ele>15.5</ele><time>2026-04-17T16:37:50.043Z</time></trkpt><trkpt lat="44.9572355" lon="10.8683388"><ele>15.25</ele><time>2026-04-17T16:37:51.042Z</time></trkpt><trkpt lat="44.957349" lon="10.8684714"><ele>15.0</ele><time>2026-04-17T16:37:52.043Z</time></trkpt><trkpt lat="44.9574756" lon="10.8685986"><ele>16.0</ele><time>2026-04-17T16:37:53.043Z</time></trkpt><trkpt lat="44.9576084" lon="10.8687342"><ele>17.0</ele><time>2026-04-17T16:37:54.044Z</time></trkpt><trkpt lat="44.9577442" lon="10.8688799"><ele>18.0</ele><time>2026-04-17T16:37:55.043Z</time></trkpt><trkpt lat="44.9578806" lon="10.8690302"><ele>18.0</ele><time>2026-04-17T16:37:56.043Z</time></trkpt><trkpt lat="44.9580254" lon="10.8691835"><ele>18.0</ele><time>2026-04-17T16:37:57.043Z</time></trkpt><trkpt lat="44.9581749" lon="10.8693405"><ele>18.0</ele><time>2026-04-17T16:37:58.044Z</time></trkpt><trkpt lat="44.9583233" lon="10.8694985"><ele>17.333333333333332</ele><time>2026-04-17T16:37:59.043Z</time></trkpt><trkpt lat="44.9584642" lon="10.8696478"><ele>16.666666666666664</ele><time>2026-04-17T16:38:00.043Z</time></trkpt><trkpt lat="44.9586027" lon="10.869791"><ele>16.0</ele><time>2026-04-17T16:38:01.043Z</time></trkpt><trkpt lat="44.9587454" lon="10.8699294"><ele>16.0</ele><time>2026-04-17T16:38:02.043Z</time></trkpt><trkpt lat="44.9588936" lon="10.8700574"><ele>16.0</ele><time>2026-04-17T16:38:03.042Z</time></trkpt><trkpt lat="44.9590533" lon="10.8701545"><ele>16.0</ele><time>2026-04-17T16:38:04.043Z</time></trkpt><trkpt lat="44.9592207" lon="10.8702374"><ele>16.0</ele><time>2026-04-17T16:38:05.044Z</time></trkpt><trkpt lat="44.9593957" lon="10.8703269"><ele>16.0</ele><time>2026-04-17T16:38:06.044Z</time></trkpt><trkpt lat="44.9595658" lon="10.870435"><ele>16.0</ele><time>2026-04-17T16:38:07.044Z</time></trkpt><trkpt lat="44.9597228" lon="10.8705795"><ele>16.0</ele><time>2026-04-17T16:38:08.043Z</time></trkpt><trkpt lat="44.9598805" lon="10.8707371"><ele>16.0</ele><time>2026-04-17T16:38:09.043Z</time></trkpt><trkpt lat="44.9600371" lon="10.8708959"><ele>16.0</ele><time>2026-04-17T16:38:10.044Z</time></trkpt><trkpt lat="44.9601928" lon="10.8710582"><ele>15.333333333333332</ele><time>2026-04-17T16:38:11.043Z</time></trkpt><trkpt lat="44.9603521" lon="10.8712207"><ele>14.666666666666668</ele><time>2026-04-17T16:38:12.043Z</time></trkpt><trkpt lat="44.9605119" lon="10.8713912"><ele>14.0</ele><time>2026-04-17T16:38:13.043Z</time></trkpt><trkpt lat="44.960672" lon="10.8715582"><ele>14.0</ele><time>2026-04-17T16:38:14.043Z</time></trkpt><trkpt lat="44.960835" lon="10.8717239"><ele>14.0</ele><time>2026-04-17T16:38:15.044Z</time></trkpt><trkpt lat="44.9609918" lon="10.8718898"><ele>14.0</ele><time>2026-04-17T16:38:16.043Z</time></trkpt><trkpt lat="44.9611364" lon="10.8720491"><ele>14.333333333333334</ele><time>2026-04-17T16:38:17.044Z</time></trkpt><trkpt lat="44.9612725" lon="10.8722017"><ele>14.666666666666668</ele><time>2026-04-17T16:38:18.042Z</time></trkpt><trkpt lat="44.9614004" lon="10.8723391"><ele>15.0</ele><time>2026-04-17T16:38:19.043Z</time></trkpt><trkpt lat="44.9615278" lon="10.8724753"><ele>15.0</ele><time>2026-04-17T16:38:20.043Z</time></trkpt><trkpt lat="44.9616639" lon="10.8726121"><ele>15.0</ele><time>2026-04-17T16:38:21.043Z</time></trkpt><trkpt lat="44.9618027" lon="10.8727461"><ele>15.0</ele><time>2026-04-17T16:38:22.043Z</time></trkpt><trkpt lat="44.9619321" lon="10.8728781"><ele>15.25</ele><time>2026-04-17T16:38:23.043Z</time></trkpt><trkpt lat="44.9620574" lon="10.873002"><ele>15.5</ele><time>2026-04-17T16:38:24.044Z</time></trkpt><trkpt lat="44.9621674" lon="10.8731243"><ele>15.75</ele><time>2026-04-17T16:38:25.042Z</time></trkpt><trkpt lat="44.962267" lon="10.8732347"><ele>16.0</ele><time>2026-04-17T16:38:26.043Z</time></trkpt><trkpt lat="44.9623555" lon="10.8733508"><ele>16.5</ele><time>2026-04-17T16:38:27.043Z</time></trkpt><trkpt lat="44.9624251" lon="10.8734944"><ele>17.0</ele><time>2026-04-17T16:38:28.043Z</time></trkpt><trkpt lat="44.9624647" lon="10.8736689"><ele>17.5</ele><time>2026-04-17T16:38:29.043Z</time></trkpt><trkpt lat="44.9624931" lon="10.8738621"><ele>18.0</ele><time>2026-04-17T16:38:30.044Z</time></trkpt><trkpt lat="44.962519" lon="10.874066"><ele>17.0</ele><time>2026-04-17T16:38:31.044Z</time></trkpt><trkpt lat="44.9625467" lon="10.8742876"><ele>16.0</ele><time>2026-04-17T16:38:32.044Z</time></trkpt><trkpt lat="44.9625735" lon="10.8745172"><ele>15.0</ele><time>2026-04-17T16:38:33.043Z</time></trkpt><trkpt lat="44.9625994" lon="10.8747522"><ele>15.0</ele><time>2026-04-17T16:38:34.044Z</time></trkpt><trkpt lat="44.9626297" lon="10.8749965"><ele>15.0</ele><time>2026-04-17T16:38:35.043Z</time></trkpt><trkpt lat="44.9626596" lon="10.8752423"><ele>15.0</ele><time>2026-04-17T16:38:36.043Z</time></trkpt><trkpt lat="44.9626881" lon="10.8754918"><ele>15.0</ele><time>2026-04-17T16:38:37.043Z</time></trkpt><trkpt lat="44.9627201" lon="10.8757481"><ele>15.0</ele><time>2026-04-17T16:38:38.043Z</time></trkpt><trkpt lat="44.9627479" lon="10.8760074"><ele>15.0</ele><time>2026-04-17T16:38:39.043Z</time></trkpt><trkpt lat="44.9627768" lon="10.8762694"><ele>14.666666666666668</ele><time>2026-04-17T16:38:40.043Z</time></trkpt><trkpt lat="44.9628097" lon="10.8765315"><ele>14.333333333333334</ele><time>2026-04-17T16:38:41.044Z</time></trkpt><trkpt lat="44.9628433" lon="10.8767989"><ele>14.0</ele><time>2026-04-17T16:38:42.042Z</time></trkpt><trkpt lat="44.9628752" lon="10.8770674"><ele>14.0</ele><time>2026-04-17T16:38:43.043Z</time></trkpt><trkpt lat="44.9629056" lon="10.8773348"><ele>14.0</ele><time>2026-04-17T16:38:44.043Z</time></trkpt><trkpt lat="44.9629368" lon="10.8776105"><ele>14.0</ele><time>2026-04-17T16:38:45.044Z</time></trkpt><trkpt lat="44.9629694" lon="10.8778751"><ele>14.333333333333334</ele><time>2026-04-17T16:38:46.044Z</time></trkpt><trkpt lat="44.9630005" lon="10.8781224"><ele>14.666666666666668</ele><time>2026-04-17T16:38:47.043Z</time></trkpt><trkpt lat="44.963029" lon="10.8783573"><ele>15.0</ele><time>2026-04-17T16:38:48.043Z</time></trkpt><trkpt lat="44.9630552" lon="10.878584"><ele>15.25</ele><time>2026-04-17T16:38:49.043Z</time></trkpt><trkpt lat="44.9630783" lon="10.8787819"><ele>15.5</ele><time>2026-04-17T16:38:50.043Z</time></trkpt><trkpt lat="44.9631005" lon="10.8789693"><ele>15.75</ele><time>2026-04-17T16:38:51.042Z</time></trkpt><trkpt lat="44.9631203" lon="10.879147"><ele>16.0</ele><time>2026-04-17T16:38:52.043Z</time></trkpt><trkpt lat="44.9631447" lon="10.8793138"><ele>16.25</ele><time>2026-04-17T16:38:53.043Z</time></trkpt><trkpt lat="44.9631834" lon="10.8794683"><ele>16.5</ele><time>2026-04-17T16:38:54.043Z</time></trkpt><trkpt lat="44.9632559" lon="10.8796065"><ele>16.75</ele><time>2026-04-17T16:38:55.043Z</time></trkpt><trkpt lat="44.9633511" lon="10.8797366"><ele>17.0</ele><time>2026-04-17T16:38:56.043Z</time></trkpt><trkpt lat="44.9634647" lon="10.8798693"><ele>16.666666666666668</ele><time>2026-04-17T16:38:57.043Z</time></trkpt><trkpt lat="44.9635801" lon="10.8800165"><ele>16.333333333333332</ele><time>2026-04-17T16:38:58.043Z</time></trkpt><trkpt lat="44.9637041" lon="10.8801757"><ele>16.0</ele><time>2026-04-17T16:38:59.044Z</time></trkpt><trkpt lat="44.9638352" lon="10.8803391"><ele>16.0</ele><time>2026-04-17T16:39:00.043Z</time></trkpt><trkpt lat="44.9639749" lon="10.8805069"><ele>16.0</ele><time>2026-04-17T16:39:01.044Z</time></trkpt><trkpt lat="44.9641179" lon="10.8806801"><ele>16.0</ele><time>2026-04-17T16:39:02.043Z</time></trkpt><trkpt lat="44.9642636" lon="10.8808591"><ele>15.333333333333332</ele><time>2026-04-17T16:39:03.043Z</time></trkpt><trkpt lat="44.9644128" lon="10.8810419"><ele>14.666666666666668</ele><time>2026-04-17T16:39:04.043Z</time></trkpt><trkpt lat="44.964564" lon="10.8812292"><ele>14.0</ele><time>2026-04-17T16:39:05.043Z</time></trkpt><trkpt lat="44.964718" lon="10.8814137"><ele>14.0</ele><time>2026-04-17T16:39:06.043Z</time></trkpt><trkpt lat="44.9648719" lon="10.8816052"><ele>14.0</ele><time>2026-04-17T16:39:07.042Z</time></trkpt><trkpt lat="44.9650297" lon="10.8817985"><ele>14.0</ele><time>2026-04-17T16:39:08.043Z</time></trkpt><trkpt lat="44.9651829" lon="10.8819832"><ele>15.0</ele><time>2026-04-17T16:39:09.043Z</time></trkpt><trkpt lat="44.9653293" lon="10.8821637"><ele>16.0</ele><time>2026-04-17T16:39:10.044Z</time></trkpt><trkpt lat="44.9654682" lon="10.8823268"><ele>17.0</ele><time>2026-04-17T16:39:11.043Z</time></trkpt><trkpt lat="44.9655987" lon="10.8824911"><ele>16.333333333333336</ele><time>2026-04-17T16:39:12.043Z</time></trkpt><trkpt lat="44.9657239" lon="10.8826432"><ele>15.666666666666668</ele><time>2026-04-17T16:39:13.043Z</time></trkpt><trkpt lat="44.9658436" lon="10.8827898"><ele>15.0</ele><time>2026-04-17T16:39:14.044Z</time></trkpt><trkpt lat="44.9659595" lon="10.8829389"><ele>15.0</ele><time>2026-04-17T16:39:15.044Z</time></trkpt><trkpt lat="44.9660699" lon="10.8830983"><ele>15.0</ele><time>2026-04-17T16:39:16.043Z</time></trkpt><trkpt lat="44.9661735" lon="10.8832694"><ele>15.0</ele><time>2026-04-17T16:39:17.042Z</time></trkpt><trkpt lat="44.966273" lon="10.8834532"><ele>14.666666666666668</ele><time>2026-04-17T16:39:18.042Z</time></trkpt><trkpt lat="44.9663739" lon="10.8836455"><ele>14.333333333333334</ele><time>2026-04-17T16:39:19.042Z</time></trkpt><trkpt lat="44.9664726" lon="10.8838353"><ele>14.0</ele><time>2026-04-17T16:39:20.044Z</time></trkpt><trkpt lat="44.9665729" lon="10.8840278"><ele>14.0</ele><time>2026-04-17T16:39:21.042Z</time></trkpt><trkpt lat="44.9666797" lon="10.8842208"><ele>14.0</ele><time>2026-04-17T16:39:22.043Z</time></trkpt><trkpt lat="44.9667824" lon="10.8844192"><ele>14.0</ele><time>2026-04-17T16:39:23.044Z</time></trkpt><trkpt lat="44.9668857" lon="10.8846222"><ele>14.0</ele><time>2026-04-17T16:39:24.043Z</time></trkpt><trkpt lat="44.9669863" lon="10.8848219"><ele>14.0</ele><time>2026-04-17T16:39:25.043Z</time></trkpt><trkpt lat="44.9670812" lon="10.8850046"><ele>14.0</ele><time>2026-04-17T16:39:26.042Z</time></trkpt><trkpt lat="44.9671667" lon="10.8851761"><ele>14.5</ele><time>2026-04-17T16:39:27.043Z</time></trkpt><trkpt lat="44.9672468" lon="10.8853414"><ele>15.0</ele><time>2026-04-17T16:39:28.044Z</time></trkpt><trkpt lat="44.9673251" lon="10.8854955"><ele>15.5</ele><time>2026-04-17T16:39:29.043Z</time></trkpt><trkpt lat="44.9673962" lon="10.8856367"><ele>16.0</ele><time>2026-04-17T16:39:30.042Z</time></trkpt><trkpt lat="44.967459" lon="10.8857609"><ele>16.0</ele><time>2026-04-17T16:39:31.042Z</time></trkpt><trkpt lat="44.9675133" lon="10.8858675"><ele>16.0</ele><time>2026-04-17T16:39:32.042Z</time></trkpt><trkpt lat="44.9675598" lon="10.885955"><ele>16.0</ele><time>2026-04-17T16:39:33.043Z</time></trkpt><trkpt lat="44.967633" lon="10.8860054"><ele>16.0</ele><time>2026-04-17T16:39:34.043Z</time></trkpt><trkpt lat="44.9677256" lon="10.8860184"><ele>16.0</ele><time>2026-04-17T16:39:35.043Z</time></trkpt><trkpt lat="44.9678402" lon="10.8859914"><ele>16.0</ele><time>2026-04-17T16:39:36.043Z</time></trkpt><trkpt lat="44.9679766" lon="10.8859591"><ele>16.0</ele><time>2026-04-17T16:39:37.043Z</time></trkpt><trkpt lat="44.9681265" lon="10.8859236"><ele>16.0</ele><time>2026-04-17T16:39:38.043Z</time></trkpt><trkpt lat="44.9682809" lon="10.885883"><ele>16.0</ele><time>2026-04-17T16:39:39.043Z</time></trkpt><trkpt lat="44.9684455" lon="10.8858379"><ele>15.666666666666666</ele><time>2026-04-17T16:39:40.043Z</time></trkpt><trkpt lat="44.9686111" lon="10.8857902"><ele>15.333333333333332</ele><time>2026-04-17T16:39:41.043Z</time></trkpt><trkpt lat="44.9687906" lon="10.8857473"><ele>15.0</ele><time>2026-04-17T16:39:42.043Z</time></trkpt><trkpt lat="44.9689739" lon="10.8857013"><ele>15.0</ele><time>2026-04-17T16:39:43.043Z</time></trkpt><trkpt lat="44.9691625" lon="10.88566"><ele>15.0</ele><time>2026-04-17T16:39:44.043Z</time></trkpt><trkpt lat="44.9693525" lon="10.8856049"><ele>15.0</ele><time>2026-04-17T16:39:45.044Z</time></trkpt><trkpt lat="44.9695455" lon="10.8855543"><ele>15.0</ele><time>2026-04-17T16:39:46.043Z</time></trkpt><trkpt lat="44.9697437" lon="10.8855032"><ele>15.0</ele><time>2026-04-17T16:39:47.043Z</time></trkpt><trkpt lat="44.9699465" lon="10.8854494"><ele>15.0</ele><time>2026-04-17T16:39:48.042Z</time></trkpt><trkpt lat="44.9701476" lon="10.8853959"><ele>15.0</ele><time>2026-04-17T16:39:49.044Z</time></trkpt><trkpt lat="44.9703524" lon="10.8853437"><ele>15.0</ele><time>2026-04-17T16:39:50.043Z</time></trkpt><trkpt lat="44.9705588" lon="10.8852889"><ele>15.0</ele><time>2026-04-17T16:39:51.044Z</time></trkpt><trkpt lat="44.9707662" lon="10.8852381"><ele>15.0</ele><time>2026-04-17T16:39:52.043Z</time></trkpt><trkpt lat="44.9709632" lon="10.8851864"><ele>15.0</ele><time>2026-04-17T16:39:53.043Z</time></trkpt><trkpt lat="44.9711432" lon="10.8851391"><ele>15.0</ele><time>2026-04-17T16:39:54.043Z</time></trkpt><trkpt lat="44.9713206" lon="10.88509"><ele>15.0</ele><time>2026-04-17T16:39:55.042Z</time></trkpt><trkpt lat="44.9714987" lon="10.885047"><ele>15.0</ele><time>2026-04-17T16:39:56.041Z</time></trkpt><trkpt lat="44.9716795" lon="10.8849988"><ele>15.0</ele><time>2026-04-17T16:39:57.043Z</time></trkpt><trkpt lat="44.9718626" lon="10.8849533"><ele>15.666666666666668</ele><time>2026-04-17T16:39:58.044Z</time></trkpt><trkpt lat="44.9720375" lon="10.8849057"><ele>16.333333333333336</ele><time>2026-04-17T16:39:59.043Z</time></trkpt><trkpt lat="44.9722056" lon="10.8848597"><ele>17.0</ele><time>2026-04-17T16:40:00.043Z</time></trkpt><trkpt lat="44.972368" lon="10.8848135"><ele>17.0</ele><time>2026-04-17T16:40:01.044Z</time></trkpt><trkpt lat="44.9725283" lon="10.8847733"><ele>17.0</ele><time>2026-04-17T16:40:02.044Z</time></trkpt><trkpt lat="44.972687" lon="10.8847324"><ele>17.0</ele><time>2026-04-17T16:40:03.042Z</time></trkpt><trkpt lat="44.9728504" lon="10.8847024"><ele>17.0</ele><time>2026-04-17T16:40:04.043Z</time></trkpt><trkpt lat="44.9730138" lon="10.8846994"><ele>17.0</ele><time>2026-04-17T16:40:05.042Z</time></trkpt><trkpt lat="44.9731842" lon="10.8847025"><ele>17.0</ele><time>2026-04-17T16:40:06.043Z</time></trkpt><trkpt lat="44.9733546" lon="10.8847101"><ele>16.333333333333336</ele><time>2026-04-17T16:40:07.043Z</time></trkpt><trkpt lat="44.9735308" lon="10.8847181"><ele>15.666666666666668</ele><time>2026-04-17T16:40:08.043Z</time></trkpt><trkpt lat="44.973705" lon="10.8847275"><ele>15.0</ele><time>2026-04-17T16:40:09.044Z</time></trkpt><trkpt lat="44.9738829" lon="10.8847392"><ele>15.0</ele><time>2026-04-17T16:40:10.043Z</time></trkpt><trkpt lat="44.974062" lon="10.8847525"><ele>15.0</ele><time>2026-04-17T16:40:11.044Z</time></trkpt><trkpt lat="44.9742374" lon="10.884763"><ele>15.0</ele><time>2026-04-17T16:40:12.043Z</time></trkpt><trkpt lat="44.9744173" lon="10.8847802"><ele>15.333333333333332</ele><time>2026-04-17T16:40:13.044Z</time></trkpt><trkpt lat="44.9746026" lon="10.884795"><ele>15.666666666666666</ele><time>2026-04-17T16:40:14.043Z</time></trkpt><trkpt lat="44.9747868" lon="10.8848028"><ele>16.0</ele><time>2026-04-17T16:40:15.043Z</time></trkpt><trkpt lat="44.9749767" lon="10.8848088"><ele>16.0</ele><time>2026-04-17T16:40:16.043Z</time></trkpt><trkpt lat="44.9751679" lon="10.8848166"><ele>16.0</ele><time>2026-04-17T16:40:17.042Z</time></trkpt><trkpt lat="44.9753603" lon="10.884828"><ele>16.0</ele><time>2026-04-17T16:40:18.042Z</time></trkpt><trkpt lat="44.9755526" lon="10.8848431"><ele>16.0</ele><time>2026-04-17T16:40:19.043Z</time></trkpt><trkpt lat="44.9757459" lon="10.8848575"><ele>16.0</ele><time>2026-04-17T16:40:20.044Z</time></trkpt><trkpt lat="44.9759397" lon="10.8848702"><ele>16.0</ele><time>2026-04-17T16:40:21.042Z</time></trkpt><trkpt lat="44.9761308" lon="10.8848844"><ele>16.0</ele><time>2026-04-17T16:40:22.044Z</time></trkpt><trkpt lat="44.9763256" lon="10.8849007"><ele>16.0</ele><time>2026-04-17T16:40:23.043Z</time></trkpt><trkpt lat="44.9765181" lon="10.8849184"><ele>16.0</ele><time>2026-04-17T16:40:24.043Z</time></trkpt><trkpt lat="44.9767121" lon="10.8849347"><ele>15.333333333333332</ele><time>2026-04-17T16:40:25.043Z</time></trkpt><trkpt lat="44.9769042" lon="10.8849494"><ele>14.666666666666668</ele><time>2026-04-17T16:40:26.043Z</time></trkpt><trkpt lat="44.9770961" lon="10.8849586"><ele>14.0</ele><time>2026-04-17T16:40:27.043Z</time></trkpt><trkpt lat="44.9772855" lon="10.8849689"><ele>14.0</ele><time>2026-04-17T16:40:28.043Z</time></trkpt><trkpt lat="44.9774763" lon="10.8849788"><ele>14.0</ele><time>2026-04-17T16:40:29.044Z</time></trkpt><trkpt lat="44.9776701" lon="10.8849908"><ele>14.0</ele><time>2026-04-17T16:40:30.042Z</time></trkpt><trkpt lat="44.9778527" lon="10.8850034"><ele>14.666666666666668</ele><time>2026-04-17T16:40:31.043Z</time></trkpt><trkpt lat="44.9780199" lon="10.8850176"><ele>15.333333333333332</ele><time>2026-04-17T16:40:32.043Z</time></trkpt><trkpt lat="44.9781733" lon="10.8850276"><ele>16.0</ele><time>2026-04-17T16:40:33.044Z</time></trkpt><trkpt lat="44.9783149" lon="10.8850329"><ele>15.600000000000001</ele><time>2026-04-17T16:40:34.043Z</time></trkpt><trkpt lat="44.9784478" lon="10.8850486"><ele>15.200000000000001</ele><time>2026-04-17T16:40:35.044Z</time></trkpt><trkpt lat="44.9785633" lon="10.8850566"><ele>14.799999999999999</ele><time>2026-04-17T16:40:36.043Z</time></trkpt><trkpt lat="44.9786645" lon="10.8850759"><ele>14.399999999999999</ele><time>2026-04-17T16:40:37.044Z</time></trkpt><trkpt lat="44.978757" lon="10.8851111"><ele>14.0</ele><time>2026-04-17T16:40:38.044Z</time></trkpt><trkpt lat="44.9788493" lon="10.8851615"><ele>14.0</ele><time>2026-04-17T16:40:39.043Z</time></trkpt><trkpt lat="44.9789382" lon="10.8852401"><ele>14.0</ele><time>2026-04-17T16:40:40.043Z</time></trkpt><trkpt lat="44.9790364" lon="10.8853477"><ele>14.0</ele><time>2026-04-17T16:40:41.043Z</time></trkpt><trkpt lat="44.9791448" lon="10.8854744"><ele>14.0</ele><time>2026-04-17T16:40:42.043Z</time></trkpt><trkpt lat="44.9792643" lon="10.8856159"><ele>13.666666666666668</ele><time>2026-04-17T16:40:43.043Z</time></trkpt><trkpt lat="44.9793908" lon="10.8857651"><ele>13.333333333333332</ele><time>2026-04-17T16:40:44.043Z</time></trkpt><trkpt lat="44.9795269" lon="10.8859239"><ele>13.0</ele><time>2026-04-17T16:40:45.043Z</time></trkpt><trkpt lat="44.979668" lon="10.8860912"><ele>13.0</ele><time>2026-04-17T16:40:46.044Z</time></trkpt><trkpt lat="44.9798172" lon="10.8862655"><ele>13.0</ele><time>2026-04-17T16:40:47.043Z</time></trkpt><trkpt lat="44.9799721" lon="10.8864463"><ele>13.0</ele><time>2026-04-17T16:40:48.043Z</time></trkpt><trkpt lat="44.9801297" lon="10.8866313"><ele>13.333333333333332</ele><time>2026-04-17T16:40:49.043Z</time></trkpt><trkpt lat="44.9802915" lon="10.8868218"><ele>13.666666666666668</ele><time>2026-04-17T16:40:50.043Z</time></trkpt><trkpt lat="44.9804545" lon="10.8870111"><ele>14.0</ele><time>2026-04-17T16:40:51.043Z</time></trkpt><trkpt lat="44.9806187" lon="10.887215"><ele>14.0</ele><time>2026-04-17T16:40:52.043Z</time></trkpt><trkpt lat="44.9807853" lon="10.8874153"><ele>14.0</ele><time>2026-04-17T16:40:53.043Z</time></trkpt><trkpt lat="44.9809549" lon="10.8876146"><ele>14.0</ele><time>2026-04-17T16:40:54.042Z</time></trkpt><trkpt lat="44.981122" lon="10.8878065"><ele>13.666666666666668</ele><time>2026-04-17T16:40:55.043Z</time></trkpt><trkpt lat="44.9812908" lon="10.8880036"><ele>13.333333333333332</ele><time>2026-04-17T16:40:56.042Z</time></trkpt><trkpt lat="44.9814572" lon="10.8882121"><ele>13.0</ele><time>2026-04-17T16:40:57.043Z</time></trkpt><trkpt lat="44.9816264" lon="10.8884119"><ele>13.666666666666666</ele><time>2026-04-17T16:40:58.041Z</time></trkpt><trkpt lat="44.9817922" lon="10.8886104"><ele>14.333333333333332</ele><time>2026-04-17T16:40:59.044Z</time></trkpt><trkpt lat="44.9819577" lon="10.8888009"><ele>15.0</ele><time>2026-04-17T16:41:00.043Z</time></trkpt><trkpt lat="44.9821238" lon="10.8889943"><ele>15.0</ele><time>2026-04-17T16:41:01.044Z</time></trkpt><trkpt lat="44.9822919" lon="10.8891941"><ele>15.0</ele><time>2026-04-17T16:41:02.043Z</time></trkpt><trkpt lat="44.9824513" lon="10.8893832"><ele>15.0</ele><time>2026-04-17T16:41:03.043Z</time></trkpt><trkpt lat="44.9826107" lon="10.889575"><ele>15.0</ele><time>2026-04-17T16:41:04.041Z</time></trkpt><trkpt lat="44.9827716" lon="10.8897662"><ele>15.0</ele><time>2026-04-17T16:41:05.044Z</time></trkpt><trkpt lat="44.9829314" lon="10.8899523"><ele>15.0</ele><time>2026-04-17T16:41:06.043Z</time></trkpt><trkpt lat="44.9830915" lon="10.8901418"><ele>15.0</ele><time>2026-04-17T16:41:07.043Z</time></trkpt><trkpt lat="44.9832515" lon="10.8903269"><ele>15.0</ele><time>2026-04-17T16:41:08.043Z</time></trkpt><trkpt lat="44.983411" lon="10.8905097"><ele>15.0</ele><time>2026-04-17T16:41:09.044Z</time></trkpt><trkpt lat="44.9835746" lon="10.8906997"><ele>15.0</ele><time>2026-04-17T16:41:10.044Z</time></trkpt><trkpt lat="44.9837351" lon="10.8908892"><ele>15.0</ele><time>2026-04-17T16:41:11.042Z</time></trkpt><trkpt lat="44.9838869" lon="10.8910709"><ele>15.0</ele><time>2026-04-17T16:41:12.044Z</time></trkpt><trkpt lat="44.9840341" lon="10.8912447"><ele>15.0</ele><time>2026-04-17T16:41:13.042Z</time></trkpt><trkpt lat="44.9841753" lon="10.8914081"><ele>15.0</ele><time>2026-04-17T16:41:14.043Z</time></trkpt><trkpt lat="44.9843234" lon="10.8915653"><ele>15.0</ele><time>2026-04-17T16:41:15.043Z</time></trkpt><trkpt lat="44.9844907" lon="10.891692"><ele>15.0</ele><time>2026-04-17T16:41:16.044Z</time></trkpt><trkpt lat="44.9846672" lon="10.8918095"><ele>15.0</ele><time>2026-04-17T16:41:17.043Z</time></trkpt><trkpt lat="44.9848509" lon="10.8919272"><ele>15.0</ele><time>2026-04-17T16:41:18.043Z</time></trkpt><trkpt lat="44.98504" lon="10.8920413"><ele>15.0</ele><time>2026-04-17T16:41:19.044Z</time></trkpt><trkpt lat="44.985228" lon="10.8921584"><ele>15.0</ele><time>2026-04-17T16:41:20.043Z</time></trkpt><trkpt lat="44.9854163" lon="10.8922777"><ele>15.0</ele><time>2026-04-17T16:41:21.043Z</time></trkpt><trkpt lat="44.9856048" lon="10.8923999"><ele>15.0</ele><time>2026-04-17T16:41:22.043Z</time></trkpt><trkpt lat="44.9857875" lon="10.8925324"><ele>15.0</ele><time>2026-04-17T16:41:23.043Z</time></trkpt><trkpt lat="44.9859747" lon="10.8926571"><ele>15.0</ele><time>2026-04-17T16:41:24.044Z</time></trkpt><trkpt lat="44.9861609" lon="10.8927772"><ele>15.0</ele><time>2026-04-17T16:41:25.042Z</time></trkpt><trkpt lat="44.986355" lon="10.8928953"><ele>15.0</ele><time>2026-04-17T16:41:26.043Z</time></trkpt><trkpt lat="44.9865445" lon="10.893012"><ele>15.0</ele><time>2026-04-17T16:41:27.044Z</time></trkpt><trkpt lat="44.9867354" lon="10.8931251"><ele>14.666666666666668</ele><time>2026-04-17T16:41:28.044Z</time></trkpt><trkpt lat="44.9869275" lon="10.8932459"><ele>14.333333333333334</ele><time>2026-04-17T16:41:29.042Z</time></trkpt><trkpt lat="44.9871183" lon="10.8933658"><ele>14.0</ele><time>2026-04-17T16:41:30.043Z</time></trkpt><trkpt lat="44.9873071" lon="10.8934829"><ele>14.0</ele><time>2026-04-17T16:41:31.043Z</time></trkpt><trkpt lat="44.9874946" lon="10.893598"><ele>14.0</ele><time>2026-04-17T16:41:32.043Z</time></trkpt><trkpt lat="44.9876854" lon="10.8937192"><ele>14.0</ele><time>2026-04-17T16:41:33.043Z</time></trkpt><trkpt lat="44.9878771" lon="10.8938444"><ele>14.0</ele><time>2026-04-17T16:41:34.044Z</time></trkpt><trkpt lat="44.9880625" lon="10.8939687"><ele>14.0</ele><time>2026-04-17T16:41:35.043Z</time></trkpt><trkpt lat="44.9882407" lon="10.8940761"><ele>14.0</ele><time>2026-04-17T16:41:36.043Z</time></trkpt><trkpt lat="44.9884115" lon="10.8941859"><ele>14.666666666666668</ele><time>2026-04-17T16:41:37.043Z</time></trkpt><trkpt lat="44.988572" lon="10.8942878"><ele>15.333333333333332</ele><time>2026-04-17T16:41:38.043Z</time></trkpt><trkpt lat="44.9887226" lon="10.8943828"><ele>16.0</ele><time>2026-04-17T16:41:39.044Z</time></trkpt><trkpt lat="44.9888641" lon="10.8944714"><ele>16.0</ele><time>2026-04-17T16:41:40.043Z</time></trkpt><trkpt lat="44.9890013" lon="10.8945619"><ele>16.0</ele><time>2026-04-17T16:41:41.043Z</time></trkpt><trkpt lat="44.9891234" lon="10.8946429"><ele>16.0</ele><time>2026-04-17T16:41:42.043Z</time></trkpt><trkpt lat="44.9892242" lon="10.8947176"><ele>16.0</ele><time>2026-04-17T16:41:43.043Z</time></trkpt><trkpt lat="44.9893261" lon="10.8947722"><ele>16.2</ele><time>2026-04-17T16:41:44.043Z</time></trkpt><trkpt lat="44.9894042" lon="10.8948199"><ele>16.400000000000002</ele><time>2026-04-17T16:41:45.043Z</time></trkpt><trkpt lat="44.9894675" lon="10.8948639"><ele>16.6</ele><time>2026-04-17T16:41:46.043Z</time></trkpt><trkpt lat="44.9895674" lon="10.8949324"><ele>16.8</ele><time>2026-04-17T16:41:48.043Z</time></trkpt><trkpt lat="44.9896367" lon="10.8949843"><ele>17.0</ele><time>2026-04-17T16:41:52.043Z</time></trkpt><trkpt lat="44.9897402" lon="10.89504"><ele>17.0</ele><time>2026-04-17T16:41:54.043Z</time></trkpt><trkpt lat="44.9898208" lon="10.895084"><ele>17.0</ele><time>2026-04-17T16:41:55.042Z</time></trkpt><trkpt lat="44.9899131" lon="10.8951457"><ele>17.0</ele><time>2026-04-17T16:41:56.044Z</time></trkpt><trkpt lat="44.9900136" lon="10.8952136"><ele>17.0</ele><time>2026-04-17T16:41:57.043Z</time></trkpt><trkpt lat="44.9901279" lon="10.8952913"><ele>17.0</ele><time>2026-04-17T16:41:58.043Z</time></trkpt><trkpt lat="44.9902537" lon="10.8953734"><ele>17.0</ele><time>2026-04-17T16:41:59.043Z</time></trkpt><trkpt lat="44.9903872" lon="10.8954594"><ele>17.0</ele><time>2026-04-17T16:42:00.043Z</time></trkpt><trkpt lat="44.9905294" lon="10.8955455"><ele>17.0</ele><time>2026-04-17T16:42:01.043Z</time></trkpt><trkpt lat="44.9906784" lon="10.8956389"><ele>17.0</ele><time>2026-04-17T16:42:02.043Z</time></trkpt><trkpt lat="44.9908345" lon="10.895736"><ele>17.0</ele><time>2026-04-17T16:42:03.042Z</time></trkpt><trkpt lat="44.9909986" lon="10.8958402"><ele>17.0</ele><time>2026-04-17T16:42:04.043Z</time></trkpt><trkpt lat="44.9911658" lon="10.8959467"><ele>16.666666666666668</ele><time>2026-04-17T16:42:05.044Z</time></trkpt><trkpt lat="44.9913375" lon="10.8960574"><ele>16.333333333333332</ele><time>2026-04-17T16:42:06.042Z</time></trkpt><trkpt lat="44.9915139" lon="10.8961704"><ele>16.0</ele><time>2026-04-17T16:42:07.044Z</time></trkpt><trkpt lat="44.9916957" lon="10.8962811"><ele>15.0</ele><time>2026-04-17T16:42:08.042Z</time></trkpt><trkpt lat="44.9918798" lon="10.896397"><ele>14.0</ele><time>2026-04-17T16:42:09.042Z</time></trkpt><trkpt lat="44.9920666" lon="10.8965158"><ele>13.0</ele><time>2026-04-17T16:42:10.043Z</time></trkpt><trkpt lat="44.9922539" lon="10.8966357"><ele>13.666666666666666</ele><time>2026-04-17T16:42:11.042Z</time></trkpt><trkpt lat="44.9924424" lon="10.8967537"><ele>14.333333333333332</ele><time>2026-04-17T16:42:12.043Z</time></trkpt><trkpt lat="44.9926307" lon="10.8968736"><ele>15.0</ele><time>2026-04-17T16:42:13.043Z</time></trkpt><trkpt lat="44.9928185" lon="10.8969946"><ele>15.0</ele><time>2026-04-17T16:42:14.043Z</time></trkpt><trkpt lat="44.9930074" lon="10.8971125"><ele>15.0</ele><time>2026-04-17T16:42:15.043Z</time></trkpt><trkpt lat="44.9931968" lon="10.897234"><ele>15.0</ele><time>2026-04-17T16:42:16.043Z</time></trkpt><trkpt lat="44.9933887" lon="10.8973551"><ele>15.333333333333332</ele><time>2026-04-17T16:42:17.043Z</time></trkpt><trkpt lat="44.9935814" lon="10.8974744"><ele>15.666666666666666</ele><time>2026-04-17T16:42:18.044Z</time></trkpt><trkpt lat="44.9937745" lon="10.8976051"><ele>16.0</ele><time>2026-04-17T16:42:19.042Z</time></trkpt><trkpt lat="44.9939687" lon="10.8977287"><ele>16.0</ele><time>2026-04-17T16:42:20.044Z</time></trkpt><trkpt lat="44.9941623" lon="10.8978559"><ele>16.0</ele><time>2026-04-17T16:42:21.043Z</time></trkpt><trkpt lat="44.9943568" lon="10.8979841"><ele>16.0</ele><time>2026-04-17T16:42:22.042Z</time></trkpt><trkpt lat="44.9945516" lon="10.8981062"><ele>16.0</ele><time>2026-04-17T16:42:23.042Z</time></trkpt><trkpt lat="44.9947453" lon="10.8982277"><ele>16.0</ele><time>2026-04-17T16:42:24.044Z</time></trkpt><trkpt lat="44.9949405" lon="10.8983512"><ele>16.0</ele><time>2026-04-17T16:42:25.043Z</time></trkpt><trkpt lat="44.9951355" lon="10.8984722"><ele>16.333333333333332</ele><time>2026-04-17T16:42:26.044Z</time></trkpt><trkpt lat="44.9953309" lon="10.8985999"><ele>16.666666666666668</ele><time>2026-04-17T16:42:27.042Z</time></trkpt><trkpt lat="44.9955252" lon="10.8987263"><ele>17.0</ele><time>2026-04-17T16:42:28.043Z</time></trkpt><trkpt lat="44.9957221" lon="10.8988548"><ele>16.0</ele><time>2026-04-17T16:42:29.043Z</time></trkpt><trkpt lat="44.9959188" lon="10.898979"><ele>15.0</ele><time>2026-04-17T16:42:30.042Z</time></trkpt><trkpt lat="44.9961065" lon="10.8990971"><ele>14.0</ele><time>2026-04-17T16:42:31.043Z</time></trkpt><trkpt lat="44.9962883" lon="10.8992131"><ele>14.0</ele><time>2026-04-17T16:42:32.043Z</time></trkpt><trkpt lat="44.9964536" lon="10.8993225"><ele>14.0</ele><time>2026-04-17T16:42:33.043Z</time></trkpt><trkpt lat="44.9966199" lon="10.8994299"><ele>14.0</ele><time>2026-04-17T16:42:34.042Z</time></trkpt><trkpt lat="44.9967909" lon="10.8995454"><ele>14.666666666666668</ele><time>2026-04-17T16:42:35.043Z</time></trkpt><trkpt lat="44.9969597" lon="10.8996495"><ele>15.333333333333332</ele><time>2026-04-17T16:42:36.043Z</time></trkpt><trkpt lat="44.9971308" lon="10.8997568"><ele>16.0</ele><time>2026-04-17T16:42:37.043Z</time></trkpt><trkpt lat="44.997307" lon="10.8998649"><ele>16.0</ele><time>2026-04-17T16:42:38.043Z</time></trkpt><trkpt lat="44.9974858" lon="10.8999675"><ele>16.0</ele><time>2026-04-17T16:42:39.044Z</time></trkpt><trkpt lat="44.9976678" lon="10.9000689"><ele>16.0</ele><time>2026-04-17T16:42:40.043Z</time></trkpt><trkpt lat="44.9978529" lon="10.9001644"><ele>15.666666666666666</ele><time>2026-04-17T16:42:41.042Z</time></trkpt><trkpt lat="44.9980406" lon="10.9002561"><ele>15.333333333333332</ele><time>2026-04-17T16:42:42.042Z</time></trkpt><trkpt lat="44.9982257" lon="10.9003451"><ele>15.0</ele><time>2026-04-17T16:42:43.042Z</time></trkpt><trkpt lat="44.9984146" lon="10.9004363"><ele>14.666666666666668</ele><time>2026-04-17T16:42:44.042Z</time></trkpt><trkpt lat="44.9985991" lon="10.9005287"><ele>14.333333333333334</ele><time>2026-04-17T16:42:45.043Z</time></trkpt><trkpt lat="44.9987881" lon="10.9006173"><ele>14.0</ele><time>2026-04-17T16:42:46.043Z</time></trkpt><trkpt lat="44.9989766" lon="10.9007034"><ele>13.666666666666668</ele><time>2026-04-17T16:42:47.043Z</time></trkpt><trkpt lat="44.999168" lon="10.9007905"><ele>13.333333333333332</ele><time>2026-04-17T16:42:48.043Z</time></trkpt><trkpt lat="44.9993583" lon="10.9008765"><ele>13.0</ele><time>2026-04-17T16:42:49.044Z</time></trkpt><trkpt lat="44.9995477" lon="10.900964"><ele>13.666666666666666</ele><time>2026-04-17T16:42:50.042Z</time></trkpt><trkpt lat="44.9997359" lon="10.9010555"><ele>14.333333333333332</ele><time>2026-04-17T16:42:51.043Z</time></trkpt><trkpt lat="44.9999256" lon="10.9011429"><ele>15.0</ele><time>2026-04-17T16:42:52.044Z</time></trkpt><trkpt lat="45.0001125" lon="10.901236"><ele>15.0</ele><time>2026-04-17T16:42:53.042Z</time></trkpt><trkpt lat="45.0002997" lon="10.9013263"><ele>15.0</ele><time>2026-04-17T16:42:54.043Z</time></trkpt><trkpt lat="45.0004871" lon="10.9014144"><ele>15.0</ele><time>2026-04-17T16:42:55.043Z</time></trkpt><trkpt lat="45.0006632" lon="10.901504"><ele>15.0</ele><time>2026-04-17T16:42:56.044Z</time></trkpt><trkpt lat="45.0008302" lon="10.9015863"><ele>15.0</ele><time>2026-04-17T16:42:57.043Z</time></trkpt><trkpt lat="45.0009791" lon="10.9016526"><ele>15.0</ele><time>2026-04-17T16:42:58.043Z</time></trkpt><trkpt lat="45.0011196" lon="10.9017141"><ele>15.25</ele><time>2026-04-17T16:42:59.042Z</time></trkpt><trkpt lat="45.0012439" lon="10.9017703"><ele>15.5</ele><time>2026-04-17T16:43:00.042Z</time></trkpt><trkpt lat="45.0013538" lon="10.9018211"><ele>15.75</ele><time>2026-04-17T16:43:01.042Z</time></trkpt><trkpt lat="45.0014514" lon="10.9018759"><ele>16.0</ele><time>2026-04-17T16:43:02.043Z</time></trkpt><trkpt lat="45.0015358" lon="10.9019609"><ele>16.0</ele><time>2026-04-17T16:43:03.043Z</time></trkpt><trkpt lat="45.0015948" lon="10.9020923"><ele>16.0</ele><time>2026-04-17T16:43:04.044Z</time></trkpt><trkpt lat="45.001643" lon="10.9022564"><ele>16.0</ele><time>2026-04-17T16:43:05.043Z</time></trkpt><trkpt lat="45.001687" lon="10.9024312"><ele>16.0</ele><time>2026-04-17T16:43:06.044Z</time></trkpt><trkpt lat="45.0017303" lon="10.9026148"><ele>16.0</ele><time>2026-04-17T16:43:07.043Z</time></trkpt><trkpt lat="45.0017778" lon="10.9028093"><ele>16.0</ele><time>2026-04-17T16:43:08.044Z</time></trkpt><trkpt lat="45.0018295" lon="10.9030148"><ele>16.0</ele><time>2026-04-17T16:43:09.043Z</time></trkpt><trkpt lat="45.0018802" lon="10.9032347"><ele>17.0</ele><time>2026-04-17T16:43:10.042Z</time></trkpt><trkpt lat="45.0019315" lon="10.9034572"><ele>18.0</ele><time>2026-04-17T16:43:11.043Z</time></trkpt><trkpt lat="45.0019864" lon="10.9036822"><ele>19.0</ele><time>2026-04-17T16:43:12.043Z</time></trkpt><trkpt lat="45.0020399" lon="10.9039064"><ele>19.0</ele><time>2026-04-17T16:43:13.043Z</time></trkpt><trkpt lat="45.002094" lon="10.904135"><ele>19.0</ele><time>2026-04-17T16:43:14.044Z</time></trkpt><trkpt lat="45.0021494" lon="10.9043551"><ele>19.0</ele><time>2026-04-17T16:43:15.044Z</time></trkpt><trkpt lat="45.0022046" lon="10.9045602"><ele>19.0</ele><time>2026-04-17T16:43:16.044Z</time></trkpt><trkpt lat="45.0022527" lon="10.904754"><ele>19.0</ele><time>2026-04-17T16:43:17.043Z</time></trkpt><trkpt lat="45.0022979" lon="10.9049363"><ele>19.0</ele><time>2026-04-17T16:43:18.044Z</time></trkpt><trkpt lat="45.0023386" lon="10.9051015"><ele>19.0</ele><time>2026-04-17T16:43:19.042Z</time></trkpt><trkpt lat="45.0023763" lon="10.9052576"><ele>18.599999999999998</ele><time>2026-04-17T16:43:20.044Z</time></trkpt><trkpt lat="45.0024128" lon="10.9054039"><ele>18.2</ele><time>2026-04-17T16:43:21.042Z</time></trkpt><trkpt lat="45.0024468" lon="10.9055409"><ele>17.799999999999997</ele><time>2026-04-17T16:43:22.043Z</time></trkpt><trkpt lat="45.0024775" lon="10.9056724"><ele>17.4</ele><time>2026-04-17T16:43:23.042Z</time></trkpt><trkpt lat="45.002506" lon="10.9057906"><ele>17.0</ele><time>2026-04-17T16:43:24.044Z</time></trkpt><trkpt lat="45.0025301" lon="10.9058907"><ele>16.8</ele><time>2026-04-17T16:43:25.043Z</time></trkpt><trkpt lat="45.0025675" lon="10.9060264"><ele>16.6</ele><time>2026-04-17T16:43:27.043Z</time></trkpt><trkpt lat="45.0026418" lon="10.9060827"><ele>16.400000000000002</ele><time>2026-04-17T16:43:30.043Z</time></trkpt><trkpt lat="45.0027614" lon="10.9060166"><ele>16.2</ele><time>2026-04-17T16:43:32.042Z</time></trkpt><trkpt lat="45.0028439" lon="10.9059545"><ele>16.0</ele><time>2026-04-17T16:43:33.043Z</time></trkpt><trkpt lat="45.0029418" lon="10.9058728"><ele>16.0</ele><time>2026-04-17T16:43:34.043Z</time></trkpt><trkpt lat="45.0030499" lon="10.90578"><ele>16.0</ele><time>2026-04-17T16:43:35.043Z</time></trkpt><trkpt lat="45.0031683" lon="10.9056796"><ele>16.0</ele><time>2026-04-17T16:43:36.043Z</time></trkpt><trkpt lat="45.0032979" lon="10.9055712"><ele>16.0</ele><time>2026-04-17T16:43:37.044Z</time></trkpt><trkpt lat="45.0034134" lon="10.9054689"><ele>15.75</ele><time>2026-04-17T16:43:38.044Z</time></trkpt><trkpt lat="45.0035348" lon="10.9053694"><ele>15.5</ele><time>2026-04-17T16:43:39.043Z</time></trkpt><trkpt lat="45.0036405" lon="10.9052792"><ele>15.25</ele><time>2026-04-17T16:43:40.043Z</time></trkpt><trkpt lat="45.0037425" lon="10.9051987"><ele>15.0</ele><time>2026-04-17T16:43:41.043Z</time></trkpt><trkpt lat="45.0038214" lon="10.9051442"><ele>15.0</ele><time>2026-04-17T16:43:42.044Z</time></trkpt><trkpt lat="45.003895" lon="10.9051119"><ele>15.0</ele><time>2026-04-17T16:43:43.042Z</time></trkpt><trkpt lat="45.0039585" lon="10.9050883"><ele>15.0</ele><time>2026-04-17T16:43:44.043Z</time></trkpt><trkpt lat="45.004041" lon="10.9051168"><ele>15.0</ele><time>2026-04-17T16:43:48.042Z</time></trkpt><trkpt lat="45.0040944" lon="10.905267"><ele>15.0</ele><time>2026-04-17T16:43:50.042Z</time></trkpt><trkpt lat="45.0041187" lon="10.905383"><ele>15.0</ele><time>2026-04-17T16:43:51.043Z</time></trkpt><trkpt lat="45.0041447" lon="10.9055251"><ele>14.5</ele><time>2026-04-17T16:43:52.044Z</time></trkpt><trkpt lat="45.0041722" lon="10.9056788"><ele>14.0</ele><time>2026-04-17T16:43:53.044Z</time></trkpt><trkpt lat="45.0042068" lon="10.90586"><ele>13.5</ele><time>2026-04-17T16:43:54.042Z</time></trkpt><trkpt lat="45.0042447" lon="10.9060507"><ele>13.0</ele><time>2026-04-17T16:43:55.042Z</time></trkpt><trkpt lat="45.0042878" lon="10.9062518"><ele>13.0</ele><time>2026-04-17T16:43:56.043Z</time></trkpt><trkpt lat="45.0043339" lon="10.9064687"><ele>13.0</ele><time>2026-04-17T16:43:57.043Z</time></trkpt><trkpt lat="45.0043817" lon="10.9066959"><ele>13.0</ele><time>2026-04-17T16:43:58.044Z</time></trkpt><trkpt lat="45.004432" lon="10.9069382"><ele>13.333333333333332</ele><time>2026-04-17T16:43:59.043Z</time></trkpt><trkpt lat="45.004484" lon="10.9071933"><ele>13.666666666666668</ele><time>2026-04-17T16:44:00.044Z</time></trkpt><trkpt lat="45.0045358" lon="10.9074483"><ele>14.0</ele><time>2026-04-17T16:44:01.042Z</time></trkpt><trkpt lat="45.0045828" lon="10.9076862"><ele>14.666666666666668</ele><time>2026-04-17T16:44:02.042Z</time></trkpt><trkpt lat="45.0046282" lon="10.9079106"><ele>15.333333333333332</ele><time>2026-04-17T16:44:03.043Z</time></trkpt><trkpt lat="45.0046704" lon="10.9081195"><ele>16.0</ele><time>2026-04-17T16:44:04.042Z</time></trkpt><trkpt lat="45.0047088" lon="10.908315"><ele>16.25</ele><time>2026-04-17T16:44:05.042Z</time></trkpt><trkpt lat="45.004745" lon="10.9084993"><ele>16.5</ele><time>2026-04-17T16:44:06.044Z</time></trkpt><trkpt lat="45.0047773" lon="10.908673"><ele>16.75</ele><time>2026-04-17T16:44:07.042Z</time></trkpt><trkpt lat="45.0048109" lon="10.9088379"><ele>17.0</ele><time>2026-04-17T16:44:08.043Z</time></trkpt><trkpt lat="45.0048447" lon="10.9089928"><ele>17.0</ele><time>2026-04-17T16:44:09.044Z</time></trkpt><trkpt lat="45.0048735" lon="10.9091338"><ele>17.0</ele><time>2026-04-17T16:44:10.043Z</time></trkpt><trkpt lat="45.0048968" lon="10.9092573"><ele>17.0</ele><time>2026-04-17T16:44:11.043Z</time></trkpt><trkpt lat="45.004919" lon="10.9093689"><ele>17.0</ele><time>2026-04-17T16:44:12.042Z</time></trkpt><trkpt lat="45.0049521" lon="10.909448"><ele>17.0</ele><time>2026-04-17T16:44:13.042Z</time></trkpt><trkpt lat="45.0050086" lon="10.9094921"><ele>17.0</ele><time>2026-04-17T16:44:14.042Z</time></trkpt><trkpt lat="45.0050849" lon="10.9094753"><ele>16.75</ele><time>2026-04-17T16:44:15.043Z</time></trkpt><trkpt lat="45.0051787" lon="10.9094325"><ele>16.5</ele><time>2026-04-17T16:44:16.043Z</time></trkpt><trkpt lat="45.0052873" lon="10.9094033"><ele>16.25</ele><time>2026-04-17T16:44:17.043Z</time></trkpt><trkpt lat="45.0054048" lon="10.9094042"><ele>16.0</ele><time>2026-04-17T16:44:18.044Z</time></trkpt><trkpt lat="45.0055383" lon="10.9094197"><ele>16.0</ele><time>2026-04-17T16:44:19.044Z</time></trkpt><trkpt lat="45.0056721" lon="10.9094578"><ele>16.0</ele><time>2026-04-17T16:44:20.042Z</time></trkpt><trkpt lat="45.0058245" lon="10.9094972"><ele>16.0</ele><time>2026-04-17T16:44:21.043Z</time></trkpt><trkpt lat="45.0059804" lon="10.909534"><ele>16.0</ele><time>2026-04-17T16:44:22.043Z</time></trkpt><trkpt lat="45.006144" lon="10.9095772"><ele>15.666666666666666</ele><time>2026-04-17T16:44:23.043Z</time></trkpt><trkpt lat="45.0063107" lon="10.9096349"><ele>15.333333333333332</ele><time>2026-04-17T16:44:24.042Z</time></trkpt><trkpt lat="45.0064818" lon="10.9097028"><ele>15.0</ele><time>2026-04-17T16:44:25.042Z</time></trkpt><trkpt lat="45.0066499" lon="10.909785"><ele>14.666666666666668</ele><time>2026-04-17T16:44:26.043Z</time></trkpt><trkpt lat="45.0068241" lon="10.9098715"><ele>14.333333333333334</ele><time>2026-04-17T16:44:27.043Z</time></trkpt><trkpt lat="45.0070015" lon="10.909957"><ele>14.0</ele><time>2026-04-17T16:44:28.042Z</time></trkpt><trkpt lat="45.0071862" lon="10.9100216"><ele>14.0</ele><time>2026-04-17T16:44:29.043Z</time></trkpt><trkpt lat="45.0073782" lon="10.9100677"><ele>14.0</ele><time>2026-04-17T16:44:30.043Z</time></trkpt><trkpt lat="45.0075752" lon="10.9100915"><ele>14.0</ele><time>2026-04-17T16:44:31.042Z</time></trkpt><trkpt lat="45.0077756" lon="10.910088"><ele>14.333333333333334</ele><time>2026-04-17T16:44:32.043Z</time></trkpt><trkpt lat="45.0079791" lon="10.910077"><ele>14.666666666666668</ele><time>2026-04-17T16:44:33.043Z</time></trkpt><trkpt lat="45.0081814" lon="10.9100566"><ele>15.0</ele><time>2026-04-17T16:44:34.043Z</time></trkpt><trkpt lat="45.0083879" lon="10.9100268"><ele>15.0</ele><time>2026-04-17T16:44:35.043Z</time></trkpt><trkpt lat="45.008597" lon="10.9100037"><ele>15.0</ele><time>2026-04-17T16:44:36.042Z</time></trkpt><trkpt lat="45.0088066" lon="10.9099853"><ele>15.0</ele><time>2026-04-17T16:44:37.043Z</time></trkpt><trkpt lat="45.0090186" lon="10.909984"><ele>15.0</ele><time>2026-04-17T16:44:38.042Z</time></trkpt><trkpt lat="45.009228" lon="10.9099795"><ele>15.0</ele><time>2026-04-17T16:44:39.042Z</time></trkpt><trkpt lat="45.0094343" lon="10.9099835"><ele>15.0</ele><time>2026-04-17T16:44:40.044Z</time></trkpt><trkpt lat="45.0096438" lon="10.9099905"><ele>15.0</ele><time>2026-04-17T16:44:41.043Z</time></trkpt><trkpt lat="45.0098552" lon="10.9100102"><ele>15.0</ele><time>2026-04-17T16:44:42.042Z</time></trkpt><trkpt lat="45.0100658" lon="10.9100247"><ele>15.0</ele><time>2026-04-17T16:44:43.043Z</time></trkpt><trkpt lat="45.0102797" lon="10.9100477"><ele>15.0</ele><time>2026-04-17T16:44:44.043Z</time></trkpt><trkpt lat="45.0104931" lon="10.9100693"><ele>15.0</ele><time>2026-04-17T16:44:45.043Z</time></trkpt><trkpt lat="45.0107076" lon="10.9100894"><ele>15.0</ele><time>2026-04-17T16:44:46.043Z</time></trkpt><trkpt lat="45.0109211" lon="10.9101084"><ele>15.333333333333332</ele><time>2026-04-17T16:44:47.044Z</time></trkpt><trkpt lat="45.011127" lon="10.9101315"><ele>15.666666666666666</ele><time>2026-04-17T16:44:48.042Z</time></trkpt><trkpt lat="45.0113289" lon="10.910154"><ele>16.0</ele><time>2026-04-17T16:44:49.042Z</time></trkpt><trkpt lat="45.0115247" lon="10.9101701"><ele>15.666666666666666</ele><time>2026-04-17T16:44:50.042Z</time></trkpt><trkpt lat="45.0117217" lon="10.9101692"><ele>15.333333333333332</ele><time>2026-04-17T16:44:51.044Z</time></trkpt><trkpt lat="45.0119209" lon="10.9101379"><ele>15.0</ele><time>2026-04-17T16:44:52.044Z</time></trkpt><trkpt lat="45.0121191" lon="10.9100825"><ele>14.666666666666668</ele><time>2026-04-17T16:44:53.042Z</time></trkpt><trkpt lat="45.0123207" lon="10.910008"><ele>14.333333333333334</ele><time>2026-04-17T16:44:54.042Z</time></trkpt><trkpt lat="45.0125202" lon="10.9099296"><ele>14.0</ele><time>2026-04-17T16:44:55.043Z</time></trkpt><trkpt lat="45.0127235" lon="10.9098494"><ele>14.666666666666668</ele><time>2026-04-17T16:44:56.042Z</time></trkpt><trkpt lat="45.0129185" lon="10.9097595"><ele>15.333333333333332</ele><time>2026-04-17T16:44:57.043Z</time></trkpt><trkpt lat="45.0131001" lon="10.9096794"><ele>16.0</ele><time>2026-04-17T16:44:58.042Z</time></trkpt><trkpt lat="45.0132737" lon="10.9095913"><ele>16.333333333333332</ele><time>2026-04-17T16:44:59.043Z</time></trkpt><trkpt lat="45.0134336" lon="10.9095036"><ele>16.666666666666668</ele><time>2026-04-17T16:45:00.042Z</time></trkpt><trkpt lat="45.0135812" lon="10.9094179"><ele>17.0</ele><time>2026-04-17T16:45:01.042Z</time></trkpt><trkpt lat="45.0137202" lon="10.9093411"><ele>17.0</ele><time>2026-04-17T16:45:02.042Z</time></trkpt><trkpt lat="45.0138553" lon="10.9092678"><ele>17.0</ele><time>2026-04-17T16:45:03.042Z</time></trkpt><trkpt lat="45.0139875" lon="10.909196"><ele>17.0</ele><time>2026-04-17T16:45:04.043Z</time></trkpt><trkpt lat="45.0141236" lon="10.9091314"><ele>17.0</ele><time>2026-04-17T16:45:05.043Z</time></trkpt><trkpt lat="45.0142713" lon="10.9090841"><ele>16.0</ele><time>2026-04-17T16:45:06.043Z</time></trkpt><trkpt lat="45.0144265" lon="10.9090431"><ele>15.0</ele><time>2026-04-17T16:45:07.042Z</time></trkpt><trkpt lat="45.0145878" lon="10.9090199"><ele>14.0</ele><time>2026-04-17T16:45:08.043Z</time></trkpt><trkpt lat="45.0147541" lon="10.9090031"><ele>14.0</ele><time>2026-04-17T16:45:09.042Z</time></trkpt><trkpt lat="45.014929" lon="10.9090134"><ele>14.0</ele><time>2026-04-17T16:45:10.043Z</time></trkpt><trkpt lat="45.0150976" lon="10.9090453"><ele>14.0</ele><time>2026-04-17T16:45:11.042Z</time></trkpt><trkpt lat="45.0152611" lon="10.909087"><ele>14.666666666666668</ele><time>2026-04-17T16:45:12.043Z</time></trkpt><trkpt lat="45.0154292" lon="10.9091191"><ele>15.333333333333332</ele><time>2026-04-17T16:45:13.043Z</time></trkpt><trkpt lat="45.0156004" lon="10.9091288"><ele>16.0</ele><time>2026-04-17T16:45:14.043Z</time></trkpt><trkpt lat="45.0157757" lon="10.909059"><ele>16.0</ele><time>2026-04-17T16:45:15.044Z</time></trkpt><trkpt lat="45.0159481" lon="10.908959"><ele>16.0</ele><time>2026-04-17T16:45:16.043Z</time></trkpt><trkpt lat="45.016123" lon="10.9088337"><ele>16.0</ele><time>2026-04-17T16:45:17.044Z</time></trkpt><trkpt lat="45.0162976" lon="10.9086953"><ele>16.0</ele><time>2026-04-17T16:45:18.043Z</time></trkpt><trkpt lat="45.0164777" lon="10.9085495"><ele>16.0</ele><time>2026-04-17T16:45:19.044Z</time></trkpt><trkpt lat="45.0166576" lon="10.9083962"><ele>16.0</ele><time>2026-04-17T16:45:20.042Z</time></trkpt><trkpt lat="45.0168407" lon="10.9082401"><ele>15.666666666666666</ele><time>2026-04-17T16:45:21.042Z</time></trkpt><trkpt lat="45.0170208" lon="10.9080909"><ele>15.333333333333332</ele><time>2026-04-17T16:45:22.042Z</time></trkpt><trkpt lat="45.0171877" lon="10.9079483"><ele>15.0</ele><time>2026-04-17T16:45:23.042Z</time></trkpt><trkpt lat="45.0173453" lon="10.9078143"><ele>15.333333333333332</ele><time>2026-04-17T16:45:24.042Z</time></trkpt><trkpt lat="45.0175019" lon="10.9076793"><ele>15.666666666666666</ele><time>2026-04-17T16:45:25.043Z</time></trkpt><trkpt lat="45.0176393" lon="10.9075622"><ele>16.0</ele><time>2026-04-17T16:45:26.043Z</time></trkpt><trkpt lat="45.0177753" lon="10.9074445"><ele>16.0</ele><time>2026-04-17T16:45:27.042Z</time></trkpt><trkpt lat="45.0178976" lon="10.9073352"><ele>16.0</ele><time>2026-04-17T16:45:28.042Z</time></trkpt><trkpt lat="45.0180091" lon="10.9072404"><ele>16.0</ele><time>2026-04-17T16:45:29.043Z</time></trkpt><trkpt lat="45.0181069" lon="10.907162"><ele>16.0</ele><time>2026-04-17T16:45:30.043Z</time></trkpt><trkpt lat="45.0182012" lon="10.9071118"><ele>16.0</ele><time>2026-04-17T16:45:31.043Z</time></trkpt><trkpt lat="45.0182934" lon="10.9071089"><ele>16.0</ele><time>2026-04-17T16:45:32.042Z</time></trkpt><trkpt lat="45.0183855" lon="10.9071665"><ele>16.0</ele><time>2026-04-17T16:45:33.043Z</time></trkpt><trkpt lat="45.0184678" lon="10.9072625"><ele>16.0</ele><time>2026-04-17T16:45:34.042Z</time></trkpt><trkpt lat="45.0185497" lon="10.9073943"><ele>16.0</ele><time>2026-04-17T16:45:35.043Z</time></trkpt><trkpt lat="45.0186392" lon="10.9075406"><ele>16.0</ele><time>2026-04-17T16:45:36.041Z</time></trkpt><trkpt lat="45.0187377" lon="10.9076981"><ele>16.0</ele><time>2026-04-17T16:45:37.043Z</time></trkpt><trkpt lat="45.0188456" lon="10.9078756"><ele>16.0</ele><time>2026-04-17T16:45:38.042Z</time></trkpt><trkpt lat="45.0189575" lon="10.9080626"><ele>16.0</ele><time>2026-04-17T16:45:39.042Z</time></trkpt><trkpt lat="45.0190739" lon="10.9082514"><ele>16.0</ele><time>2026-04-17T16:45:40.044Z</time></trkpt><trkpt lat="45.0191912" lon="10.9084473"><ele>16.0</ele><time>2026-04-17T16:45:41.043Z</time></trkpt><trkpt lat="45.0193156" lon="10.908652"><ele>15.333333333333332</ele><time>2026-04-17T16:45:42.042Z</time></trkpt><trkpt lat="45.0194424" lon="10.9088653"><ele>14.666666666666668</ele><time>2026-04-17T16:45:43.042Z</time></trkpt><trkpt lat="45.0195729" lon="10.9090838"><ele>14.0</ele><time>2026-04-17T16:45:44.044Z</time></trkpt><trkpt lat="45.0197083" lon="10.9093071"><ele>14.0</ele><time>2026-04-17T16:45:45.042Z</time></trkpt><trkpt lat="45.019848" lon="10.909533"><ele>14.0</ele><time>2026-04-17T16:45:46.043Z</time></trkpt><trkpt lat="45.0199921" lon="10.9097589"><ele>14.0</ele><time>2026-04-17T16:45:47.042Z</time></trkpt><trkpt lat="45.0201353" lon="10.9099881"><ele>14.0</ele><time>2026-04-17T16:45:48.042Z</time></trkpt><trkpt lat="45.0202779" lon="10.9102175"><ele>14.0</ele><time>2026-04-17T16:45:49.042Z</time></trkpt><trkpt lat="45.0204203" lon="10.9104474"><ele>14.0</ele><time>2026-04-17T16:45:50.043Z</time></trkpt><trkpt lat="45.0205649" lon="10.9106751"><ele>14.0</ele><time>2026-04-17T16:45:51.043Z</time></trkpt><trkpt lat="45.0207014" lon="10.9109094"><ele>14.0</ele><time>2026-04-17T16:45:52.042Z</time></trkpt><trkpt lat="45.0208327" lon="10.9111497"><ele>14.0</ele><time>2026-04-17T16:45:53.043Z</time></trkpt><trkpt lat="45.0209782" lon="10.9113735"><ele>14.0</ele><time>2026-04-17T16:45:54.042Z</time></trkpt><trkpt lat="45.0211175" lon="10.9115996"><ele>14.0</ele><time>2026-04-17T16:45:55.042Z</time></trkpt><trkpt lat="45.0212538" lon="10.9118242"><ele>14.0</ele><time>2026-04-17T16:45:56.042Z</time></trkpt><trkpt lat="45.0213965" lon="10.9120464"><ele>13.666666666666668</ele><time>2026-04-17T16:45:57.041Z</time></trkpt><trkpt lat="45.0215342" lon="10.9122734"><ele>13.333333333333332</ele><time>2026-04-17T16:45:58.043Z</time></trkpt><trkpt lat="45.0216731" lon="10.9124899"><ele>13.0</ele><time>2026-04-17T16:45:59.043Z</time></trkpt><trkpt lat="45.0218044" lon="10.9126968"><ele>13.0</ele><time>2026-04-17T16:46:00.043Z</time></trkpt><trkpt lat="45.0219344" lon="10.9129062"><ele>13.0</ele><time>2026-04-17T16:46:01.042Z</time></trkpt><trkpt lat="45.0220576" lon="10.9131159"><ele>13.0</ele><time>2026-04-17T16:46:02.043Z</time></trkpt><trkpt lat="45.0221793" lon="10.9133242"><ele>13.333333333333332</ele><time>2026-04-17T16:46:03.042Z</time></trkpt><trkpt lat="45.0222988" lon="10.9135132"><ele>13.666666666666668</ele><time>2026-04-17T16:46:04.042Z</time></trkpt><trkpt lat="45.0224266" lon="10.9136895"><ele>14.0</ele><time>2026-04-17T16:46:05.042Z</time></trkpt><trkpt lat="45.0225747" lon="10.9138444"><ele>14.0</ele><time>2026-04-17T16:46:06.042Z</time></trkpt><trkpt lat="45.0227461" lon="10.9139647"><ele>14.0</ele><time>2026-04-17T16:46:07.044Z</time></trkpt><trkpt lat="45.0229285" lon="10.9140725"><ele>14.0</ele><time>2026-04-17T16:46:08.043Z</time></trkpt><trkpt lat="45.02312" lon="10.9141704"><ele>14.333333333333334</ele><time>2026-04-17T16:46:09.043Z</time></trkpt><trkpt lat="45.0233179" lon="10.9142672"><ele>14.666666666666668</ele><time>2026-04-17T16:46:10.044Z</time></trkpt><trkpt lat="45.0235179" lon="10.9143619"><ele>15.0</ele><time>2026-04-17T16:46:11.042Z</time></trkpt><trkpt lat="45.0237195" lon="10.9144596"><ele>15.0</ele><time>2026-04-17T16:46:12.041Z</time></trkpt><trkpt lat="45.0239243" lon="10.9145664"><ele>15.0</ele><time>2026-04-17T16:46:13.042Z</time></trkpt><trkpt lat="45.0241261" lon="10.9146766"><ele>15.0</ele><time>2026-04-17T16:46:14.044Z</time></trkpt><trkpt lat="45.0243305" lon="10.9147783"><ele>15.0</ele><time>2026-04-17T16:46:15.041Z</time></trkpt><trkpt lat="45.0245417" lon="10.9148827"><ele>15.0</ele><time>2026-04-17T16:46:16.043Z</time></trkpt><trkpt lat="45.0247554" lon="10.9149853"><ele>15.0</ele><time>2026-04-17T16:46:17.042Z</time></trkpt><trkpt lat="45.0249664" lon="10.915085"><ele>14.666666666666668</ele><time>2026-04-17T16:46:18.043Z</time></trkpt><trkpt lat="45.0251677" lon="10.9151922"><ele>14.333333333333334</ele><time>2026-04-17T16:46:19.043Z</time></trkpt><trkpt lat="45.025374" lon="10.9152924"><ele>14.0</ele><time>2026-04-17T16:46:20.043Z</time></trkpt><trkpt lat="45.0255754" lon="10.9153939"><ele>14.0</ele><time>2026-04-17T16:46:21.041Z</time></trkpt><trkpt lat="45.0257809" lon="10.9154955"><ele>14.0</ele><time>2026-04-17T16:46:22.043Z</time></trkpt><trkpt lat="45.0259858" lon="10.9155976"><ele>14.0</ele><time>2026-04-17T16:46:23.043Z</time></trkpt><trkpt lat="45.0261898" lon="10.9156956"><ele>14.333333333333334</ele><time>2026-04-17T16:46:24.042Z</time></trkpt><trkpt lat="45.0263873" lon="10.9157822"><ele>14.666666666666668</ele><time>2026-04-17T16:46:25.042Z</time></trkpt><trkpt lat="45.0265871" lon="10.9158818"><ele>15.0</ele><time>2026-04-17T16:46:26.043Z</time></trkpt><trkpt lat="45.0267875" lon="10.9159839"><ele>14.333333333333332</ele><time>2026-04-17T16:46:27.043Z</time></trkpt><trkpt lat="45.0269875" lon="10.9160796"><ele>13.666666666666666</ele><time>2026-04-17T16:46:28.042Z</time></trkpt><trkpt lat="45.0271864" lon="10.9161791"><ele>13.0</ele><time>2026-04-17T16:46:29.043Z</time></trkpt><trkpt lat="45.0273809" lon="10.9162768"><ele>13.666666666666666</ele><time>2026-04-17T16:46:30.043Z</time></trkpt><trkpt lat="45.0275696" lon="10.9163701"><ele>14.333333333333332</ele><time>2026-04-17T16:46:31.043Z</time></trkpt><trkpt lat="45.0277532" lon="10.9164602"><ele>15.0</ele><time>2026-04-17T16:46:32.044Z</time></trkpt><trkpt lat="45.0279301" lon="10.9165546"><ele>15.0</ele><time>2026-04-17T16:46:33.043Z</time></trkpt><trkpt lat="45.0281078" lon="10.9166466"><ele>15.0</ele><time>2026-04-17T16:46:34.043Z</time></trkpt><trkpt lat="45.0282837" lon="10.9167368"><ele>15.0</ele><time>2026-04-17T16:46:35.041Z</time></trkpt><trkpt lat="45.0284536" lon="10.9168196"><ele>15.333333333333332</ele><time>2026-04-17T16:46:36.043Z</time></trkpt><trkpt lat="45.0286185" lon="10.9169003"><ele>15.666666666666666</ele><time>2026-04-17T16:46:37.041Z</time></trkpt><trkpt lat="45.0287806" lon="10.9169774"><ele>16.0</ele><time>2026-04-17T16:46:38.042Z</time></trkpt><trkpt lat="45.0289455" lon="10.917059"><ele>16.0</ele><time>2026-04-17T16:46:39.043Z</time></trkpt><trkpt lat="45.0291133" lon="10.9171432"><ele>16.0</ele><time>2026-04-17T16:46:40.044Z</time></trkpt><trkpt lat="45.0292826" lon="10.9172266"><ele>16.0</ele><time>2026-04-17T16:46:41.043Z</time></trkpt><trkpt lat="45.0294581" lon="10.917314"><ele>16.0</ele><time>2026-04-17T16:46:42.043Z</time></trkpt><trkpt lat="45.0296343" lon="10.9174007"><ele>16.0</ele><time>2026-04-17T16:46:43.044Z</time></trkpt><trkpt lat="45.0298133" lon="10.9174778"><ele>16.0</ele><time>2026-04-17T16:46:44.042Z</time></trkpt><trkpt lat="45.0299971" lon="10.9175752"><ele>16.0</ele><time>2026-04-17T16:46:45.042Z</time></trkpt><trkpt lat="45.0301802" lon="10.9176639"><ele>16.0</ele><time>2026-04-17T16:46:46.043Z</time></trkpt><trkpt lat="45.0303656" lon="10.9177559"><ele>16.0</ele><time>2026-04-17T16:46:47.042Z</time></trkpt><trkpt lat="45.0305477" lon="10.9178586"><ele>16.0</ele><time>2026-04-17T16:46:48.043Z</time></trkpt><trkpt lat="45.0307403" lon="10.9179468"><ele>16.0</ele><time>2026-04-17T16:46:49.043Z</time></trkpt><trkpt lat="45.0309306" lon="10.918039"><ele>16.0</ele><time>2026-04-17T16:46:50.041Z</time></trkpt><trkpt lat="45.0311218" lon="10.9181303"><ele>16.0</ele><time>2026-04-17T16:46:51.042Z</time></trkpt><trkpt lat="45.0313149" lon="10.9182205"><ele>16.0</ele><time>2026-04-17T16:46:52.043Z</time></trkpt><trkpt lat="45.0315043" lon="10.9183128"><ele>16.0</ele><time>2026-04-17T16:46:53.043Z</time></trkpt><trkpt lat="45.0316961" lon="10.9184082"><ele>16.0</ele><time>2026-04-17T16:46:54.043Z</time></trkpt><trkpt lat="45.0318853" lon="10.9185004"><ele>16.0</ele><time>2026-04-17T16:46:55.043Z</time></trkpt><trkpt lat="45.0320772" lon="10.9185947"><ele>16.0</ele><time>2026-04-17T16:46:56.042Z</time></trkpt><trkpt lat="45.0322658" lon="10.9186869"><ele>16.0</ele><time>2026-04-17T16:46:57.043Z</time></trkpt><trkpt lat="45.0324545" lon="10.9187788"><ele>16.0</ele><time>2026-04-17T16:46:58.042Z</time></trkpt><trkpt lat="45.0326414" lon="10.9188693"><ele>16.0</ele><time>2026-04-17T16:46:59.043Z</time></trkpt><trkpt lat="45.0328276" lon="10.9189626"><ele>15.666666666666666</ele><time>2026-04-17T16:47:00.042Z</time></trkpt><trkpt lat="45.0330135" lon="10.9190508"><ele>15.333333333333332</ele><time>2026-04-17T16:47:01.043Z</time></trkpt><trkpt lat="45.0331849" lon="10.9191395"><ele>15.0</ele><time>2026-04-17T16:47:02.042Z</time></trkpt><trkpt lat="45.0333521" lon="10.9192238"><ele>14.333333333333332</ele><time>2026-04-17T16:47:03.042Z</time></trkpt><trkpt lat="45.0335132" lon="10.9193023"><ele>13.666666666666666</ele><time>2026-04-17T16:47:04.043Z</time></trkpt><trkpt lat="45.0336699" lon="10.9193829"><ele>13.0</ele><time>2026-04-17T16:47:05.043Z</time></trkpt><trkpt lat="45.0338241" lon="10.9194553"><ele>13.0</ele><time>2026-04-17T16:47:06.043Z</time></trkpt><trkpt lat="45.033977" lon="10.9195246"><ele>13.0</ele><time>2026-04-17T16:47:07.042Z</time></trkpt><trkpt lat="45.0341184" lon="10.9195995"><ele>13.0</ele><time>2026-04-17T16:47:08.044Z</time></trkpt><trkpt lat="45.0342559" lon="10.9196711"><ele>14.0</ele><time>2026-04-17T16:47:09.043Z</time></trkpt><trkpt lat="45.0343971" lon="10.9197389"><ele>15.0</ele><time>2026-04-17T16:47:10.042Z</time></trkpt><trkpt lat="45.0345444" lon="10.9198073"><ele>16.0</ele><time>2026-04-17T16:47:11.042Z</time></trkpt><trkpt lat="45.0347015" lon="10.9198832"><ele>16.0</ele><time>2026-04-17T16:47:12.043Z</time></trkpt><trkpt lat="45.0348601" lon="10.9199659"><ele>16.0</ele><time>2026-04-17T16:47:13.044Z</time></trkpt><trkpt lat="45.0350103" lon="10.9200446"><ele>16.0</ele><time>2026-04-17T16:47:14.043Z</time></trkpt><trkpt lat="45.0351494" lon="10.9201154"><ele>16.2</ele><time>2026-04-17T16:47:15.043Z</time></trkpt><trkpt lat="45.0352675" lon="10.920177"><ele>16.400000000000002</ele><time>2026-04-17T16:47:16.044Z</time></trkpt><trkpt lat="45.0353638" lon="10.9202238"><ele>16.6</ele><time>2026-04-17T16:47:17.043Z</time></trkpt><trkpt lat="45.0354399" lon="10.9202583"><ele>16.8</ele><time>2026-04-17T16:47:18.041Z</time></trkpt><trkpt lat="45.0355412" lon="10.92031"><ele>17.0</ele><time>2026-04-17T16:47:20.043Z</time></trkpt><trkpt lat="45.0356437" lon="10.9203627"><ele>17.0</ele><time>2026-04-17T16:47:22.043Z</time></trkpt><trkpt lat="45.0357467" lon="10.9204811"><ele>17.0</ele><time>2026-04-17T16:47:24.042Z</time></trkpt><trkpt lat="45.0357905" lon="10.9205778"><ele>17.0</ele><time>2026-04-17T16:47:25.042Z</time></trkpt><trkpt lat="45.0358371" lon="10.9206922"><ele>17.0</ele><time>2026-04-17T16:47:26.042Z</time></trkpt><trkpt lat="45.035887" lon="10.9208181"><ele>17.0</ele><time>2026-04-17T16:47:27.043Z</time></trkpt><trkpt lat="45.035941" lon="10.9209557"><ele>17.0</ele><time>2026-04-17T16:47:28.043Z</time></trkpt><trkpt lat="45.0359935" lon="10.9210819"><ele>17.0</ele><time>2026-04-17T16:47:29.043Z</time></trkpt><trkpt lat="45.0360519" lon="10.9212139"><ele>17.0</ele><time>2026-04-17T16:47:30.042Z</time></trkpt><trkpt lat="45.0361206" lon="10.9213641"><ele>17.0</ele><time>2026-04-17T16:47:31.043Z</time></trkpt><trkpt lat="45.0361952" lon="10.9215268"><ele>17.0</ele><time>2026-04-17T16:47:32.043Z</time></trkpt><trkpt lat="45.0362757" lon="10.9216916"><ele>17.0</ele><time>2026-04-17T16:47:33.043Z</time></trkpt><trkpt lat="45.0363599" lon="10.9218684"><ele>17.0</ele><time>2026-04-17T16:47:34.043Z</time></trkpt><trkpt lat="45.0364473" lon="10.9220553"><ele>16.666666666666668</ele><time>2026-04-17T16:47:35.043Z</time></trkpt><trkpt lat="45.0365372" lon="10.9222492"><ele>16.333333333333332</ele><time>2026-04-17T16:47:36.044Z</time></trkpt><trkpt lat="45.0366278" lon="10.9224389"><ele>16.0</ele><time>2026-04-17T16:47:37.043Z</time></trkpt><trkpt lat="45.036726" lon="10.9226377"><ele>16.0</ele><time>2026-04-17T16:47:38.043Z</time></trkpt><trkpt lat="45.0368261" lon="10.9228356"><ele>16.0</ele><time>2026-04-17T16:47:39.043Z</time></trkpt><trkpt lat="45.0369317" lon="10.9230308"><ele>16.0</ele><time>2026-04-17T16:47:40.044Z</time></trkpt><trkpt lat="45.0370401" lon="10.9232258"><ele>14.666666666666666</ele><time>2026-04-17T16:47:41.044Z</time></trkpt><trkpt lat="45.0371515" lon="10.9234182"><ele>13.333333333333332</ele><time>2026-04-17T16:47:42.043Z</time></trkpt><trkpt lat="45.0372685" lon="10.9236035"><ele>12.0</ele><time>2026-04-17T16:47:43.043Z</time></trkpt><trkpt lat="45.0373924" lon="10.923784"><ele>12.333333333333332</ele><time>2026-04-17T16:47:44.043Z</time></trkpt><trkpt lat="45.0375203" lon="10.923958"><ele>12.666666666666666</ele><time>2026-04-17T16:47:45.042Z</time></trkpt><trkpt lat="45.0376512" lon="10.9241256"><ele>13.0</ele><time>2026-04-17T16:47:46.042Z</time></trkpt><trkpt lat="45.0377909" lon="10.9242903"><ele>13.0</ele><time>2026-04-17T16:47:47.043Z</time></trkpt><trkpt lat="45.0379392" lon="10.9244413"><ele>13.0</ele><time>2026-04-17T16:47:48.044Z</time></trkpt><trkpt lat="45.0380976" lon="10.9245752"><ele>13.0</ele><time>2026-04-17T16:47:49.043Z</time></trkpt><trkpt lat="45.038258" lon="10.9246978"><ele>14.333333333333332</ele><time>2026-04-17T16:47:50.043Z</time></trkpt><trkpt lat="45.0384135" lon="10.9248035"><ele>15.666666666666668</ele><time>2026-04-17T16:47:51.041Z</time></trkpt><trkpt lat="45.0385612" lon="10.9248984"><ele>17.0</ele><time>2026-04-17T16:47:52.044Z</time></trkpt><trkpt lat="45.0387021" lon="10.9249849"><ele>17.0</ele><time>2026-04-17T16:47:53.042Z</time></trkpt><trkpt lat="45.0388377" lon="10.9250657"><ele>17.0</ele><time>2026-04-17T16:47:54.042Z</time></trkpt><trkpt lat="45.0389713" lon="10.9251471"><ele>17.0</ele><time>2026-04-17T16:47:55.043Z</time></trkpt><trkpt lat="45.0391054" lon="10.925226"><ele>17.0</ele><time>2026-04-17T16:47:56.043Z</time></trkpt><trkpt lat="45.0392369" lon="10.9253089"><ele>17.5</ele><time>2026-04-17T16:47:57.042Z</time></trkpt><trkpt lat="45.0393643" lon="10.9253911"><ele>18.0</ele><time>2026-04-17T16:47:58.044Z</time></trkpt><trkpt lat="45.039487" lon="10.9254716"><ele>18.5</ele><time>2026-04-17T16:47:59.043Z</time></trkpt><trkpt lat="45.0396032" lon="10.9255512"><ele>19.0</ele><time>2026-04-17T16:48:00.043Z</time></trkpt><trkpt lat="45.0397145" lon="10.9256256"><ele>19.0</ele><time>2026-04-17T16:48:01.042Z</time></trkpt><trkpt lat="45.0398014" lon="10.9256828"><ele>19.0</ele><time>2026-04-17T16:48:02.042Z</time></trkpt><trkpt lat="45.0398783" lon="10.9257353"><ele>19.0</ele><time>2026-04-17T16:48:03.043Z</time></trkpt><trkpt lat="45.0399384" lon="10.9257774"><ele>19.0</ele><time>2026-04-17T16:48:04.044Z</time></trkpt><trkpt lat="45.0400158" lon="10.9258368"><ele>19.0</ele><time>2026-04-17T16:48:06.042Z</time></trkpt><trkpt lat="45.040087" lon="10.925899"><ele>19.0</ele><time>2026-04-17T16:48:19.042Z</time></trkpt><trkpt lat="45.0402229" lon="10.9259399"><ele>18.75</ele><time>2026-04-17T16:48:21.044Z</time></trkpt><trkpt lat="45.0403186" lon="10.9259608"><ele>18.5</ele><time>2026-04-17T16:48:22.044Z</time></trkpt><trkpt lat="45.0404289" lon="10.9259998"><ele>18.25</ele><time>2026-04-17T16:48:23.044Z</time></trkpt><trkpt lat="45.0405492" lon="10.9260468"><ele>18.0</ele><time>2026-04-17T16:48:24.042Z</time></trkpt><trkpt lat="45.0406794" lon="10.9260945"><ele>18.25</ele><time>2026-04-17T16:48:25.043Z</time></trkpt><trkpt lat="45.0408175" lon="10.926146"><ele>18.5</ele><time>2026-04-17T16:48:26.042Z</time></trkpt><trkpt lat="45.0409586" lon="10.9261881"><ele>18.75</ele><time>2026-04-17T16:48:27.043Z</time></trkpt><trkpt lat="45.0411062" lon="10.9262118"><ele>19.0</ele><time>2026-04-17T16:48:28.044Z</time></trkpt><trkpt lat="45.0412451" lon="10.9262103"><ele>19.0</ele><time>2026-04-17T16:48:29.042Z</time></trkpt><trkpt lat="45.0413804" lon="10.9261904"><ele>19.0</ele><time>2026-04-17T16:48:30.043Z</time></trkpt><trkpt lat="45.0415099" lon="10.9261669"><ele>19.0</ele><time>2026-04-17T16:48:31.042Z</time></trkpt><trkpt lat="45.0416432" lon="10.9261323"><ele>19.0</ele><time>2026-04-17T16:48:32.043Z</time></trkpt><trkpt lat="45.0417783" lon="10.9261039"><ele>19.0</ele><time>2026-04-17T16:48:33.041Z</time></trkpt><trkpt lat="45.0419158" lon="10.9260763"><ele>19.0</ele><time>2026-04-17T16:48:34.043Z</time></trkpt><trkpt lat="45.0420566" lon="10.9260608"><ele>19.0</ele><time>2026-04-17T16:48:35.042Z</time></trkpt><trkpt lat="45.042197" lon="10.926042"><ele>19.0</ele><time>2026-04-17T16:48:36.044Z</time></trkpt><trkpt lat="45.0423358" lon="10.9260399"><ele>19.0</ele><time>2026-04-17T16:48:37.042Z</time></trkpt><trkpt lat="45.0424799" lon="10.9260361"><ele>19.0</ele><time>2026-04-17T16:48:38.041Z</time></trkpt><trkpt lat="45.0426185" lon="10.9260232"><ele>19.0</ele><time>2026-04-17T16:48:39.043Z</time></trkpt><trkpt lat="45.0427591" lon="10.9260122"><ele>19.0</ele><time>2026-04-17T16:48:40.043Z</time></trkpt><trkpt lat="45.0429001" lon="10.9260011"><ele>19.0</ele><time>2026-04-17T16:48:41.043Z</time></trkpt><trkpt lat="45.0430426" lon="10.9259899"><ele>19.0</ele><time>2026-04-17T16:48:42.042Z</time></trkpt><trkpt lat="45.0431823" lon="10.9259723"><ele>19.0</ele><time>2026-04-17T16:48:43.042Z</time></trkpt><trkpt lat="45.0433228" lon="10.9259489"><ele>19.0</ele><time>2026-04-17T16:48:44.044Z</time></trkpt><trkpt lat="45.0434648" lon="10.9259191"><ele>19.25</ele><time>2026-04-17T16:48:45.043Z</time></trkpt><trkpt lat="45.0436074" lon="10.9258874"><ele>19.5</ele><time>2026-04-17T16:48:46.041Z</time></trkpt><trkpt lat="45.043752" lon="10.9258772"><ele>19.75</ele><time>2026-04-17T16:48:47.043Z</time></trkpt><trkpt lat="45.0438982" lon="10.92589"><ele>20.0</ele><time>2026-04-17T16:48:48.042Z</time></trkpt><trkpt lat="45.0440334" lon="10.925946"><ele>20.0</ele><time>2026-04-17T16:48:49.043Z</time></trkpt><trkpt lat="45.0441648" lon="10.9260298"><ele>20.0</ele><time>2026-04-17T16:48:50.045Z</time></trkpt><trkpt lat="45.0442998" lon="10.926118"><ele>20.0</ele><time>2026-04-17T16:48:51.043Z</time></trkpt><trkpt lat="45.0444353" lon="10.9262128"><ele>20.0</ele><time>2026-04-17T16:48:52.042Z</time></trkpt><trkpt lat="45.0445705" lon="10.9263128"><ele>20.0</ele><time>2026-04-17T16:48:53.044Z</time></trkpt><trkpt lat="45.0447029" lon="10.9264155"><ele>20.0</ele><time>2026-04-17T16:48:54.042Z</time></trkpt><trkpt lat="45.0448385" lon="10.92652"><ele>20.0</ele><time>2026-04-17T16:48:55.044Z</time></trkpt><trkpt lat="45.0449727" lon="10.9266328"><ele>19.666666666666668</ele><time>2026-04-17T16:48:56.043Z</time></trkpt><trkpt lat="45.0451042" lon="10.9267424"><ele>19.333333333333332</ele><time>2026-04-17T16:48:57.043Z</time></trkpt><trkpt lat="45.0452369" lon="10.9268622"><ele>19.0</ele><time>2026-04-17T16:48:58.043Z</time></trkpt><trkpt lat="45.04537" lon="10.9269885"><ele>19.0</ele><time>2026-04-17T16:48:59.042Z</time></trkpt><trkpt lat="45.045501" lon="10.9271065"><ele>19.0</ele><time>2026-04-17T16:49:00.042Z</time></trkpt><trkpt lat="45.0456334" lon="10.9272227"><ele>19.0</ele><time>2026-04-17T16:49:01.043Z</time></trkpt><trkpt lat="45.0457696" lon="10.9273297"><ele>18.5</ele><time>2026-04-17T16:49:02.043Z</time></trkpt><trkpt lat="45.0459057" lon="10.9274308"><ele>18.0</ele><time>2026-04-17T16:49:03.043Z</time></trkpt><trkpt lat="45.0460356" lon="10.9275237"><ele>17.5</ele><time>2026-04-17T16:49:04.043Z</time></trkpt><trkpt lat="45.0461567" lon="10.9276185"><ele>17.0</ele><time>2026-04-17T16:49:05.042Z</time></trkpt><trkpt lat="45.0462704" lon="10.9276962"><ele>17.0</ele><time>2026-04-17T16:49:06.043Z</time></trkpt><trkpt lat="45.0463871" lon="10.9277802"><ele>17.0</ele><time>2026-04-17T16:49:07.043Z</time></trkpt><trkpt lat="45.0465079" lon="10.9278682"><ele>17.0</ele><time>2026-04-17T16:49:08.042Z</time></trkpt><trkpt lat="45.046633" lon="10.9279575"><ele>17.0</ele><time>2026-04-17T16:49:09.043Z</time></trkpt><trkpt lat="45.0467618" lon="10.9280514"><ele>16.666666666666668</ele><time>2026-04-17T16:49:10.041Z</time></trkpt><trkpt lat="45.046894" lon="10.9281491"><ele>16.333333333333332</ele><time>2026-04-17T16:49:11.042Z</time></trkpt><trkpt lat="45.0470269" lon="10.928248"><ele>16.0</ele><time>2026-04-17T16:49:12.041Z</time></trkpt><trkpt lat="45.0471648" lon="10.9283462"><ele>16.0</ele><time>2026-04-17T16:49:13.043Z</time></trkpt><trkpt lat="45.047304" lon="10.9284476"><ele>16.0</ele><time>2026-04-17T16:49:14.043Z</time></trkpt><trkpt lat="45.0474449" lon="10.9285485"><ele>16.0</ele><time>2026-04-17T16:49:15.042Z</time></trkpt><trkpt lat="45.0475867" lon="10.9286549"><ele>16.0</ele><time>2026-04-17T16:49:16.043Z</time></trkpt><trkpt lat="45.0477233" lon="10.9287544"><ele>16.0</ele><time>2026-04-17T16:49:17.042Z</time></trkpt><trkpt lat="45.0478543" lon="10.9288478"><ele>16.0</ele><time>2026-04-17T16:49:18.044Z</time></trkpt><trkpt lat="45.0479774" lon="10.9289285"><ele>16.0</ele><time>2026-04-17T16:49:19.042Z</time></trkpt><trkpt lat="45.0480927" lon="10.9290022"><ele>16.0</ele><time>2026-04-17T16:49:20.043Z</time></trkpt><trkpt lat="45.0481987" lon="10.9290731"><ele>16.0</ele><time>2026-04-17T16:49:21.042Z</time></trkpt><trkpt lat="45.0482847" lon="10.9291371"><ele>16.0</ele><time>2026-04-17T16:49:22.043Z</time></trkpt><trkpt lat="45.0483491" lon="10.9292038"><ele>16.0</ele><time>2026-04-17T16:49:23.041Z</time></trkpt><trkpt lat="45.0484323" lon="10.9292966"><ele>16.0</ele><time>2026-04-17T16:49:25.042Z</time></trkpt><trkpt lat="45.0485174" lon="10.929363"><ele>16.0</ele><time>2026-04-17T16:49:27.042Z</time></trkpt><trkpt lat="45.0485335" lon="10.9295608"><ele>16.0</ele><time>2026-04-17T16:49:29.044Z</time></trkpt><trkpt lat="45.0485251" lon="10.9297028"><ele>16.0</ele><time>2026-04-17T16:49:30.044Z</time></trkpt><trkpt lat="45.0485165" lon="10.9298624"><ele>16.0</ele><time>2026-04-17T16:49:31.043Z</time></trkpt><trkpt lat="45.0485058" lon="10.9300437"><ele>16.0</ele><time>2026-04-17T16:49:32.044Z</time></trkpt><trkpt lat="45.0484963" lon="10.9302386"><ele>16.0</ele><time>2026-04-17T16:49:33.042Z</time></trkpt><trkpt lat="45.048485" lon="10.930441"><ele>16.0</ele><time>2026-04-17T16:49:34.043Z</time></trkpt><trkpt lat="45.0484702" lon="10.9306576"><ele>16.0</ele><time>2026-04-17T16:49:35.042Z</time></trkpt><trkpt lat="45.0484532" lon="10.9308818"><ele>16.333333333333332</ele><time>2026-04-17T16:49:36.043Z</time></trkpt><trkpt lat="45.0484386" lon="10.9311208"><ele>16.666666666666668</ele><time>2026-04-17T16:49:37.042Z</time></trkpt><trkpt lat="45.0484226" lon="10.9313677"><ele>17.0</ele><time>2026-04-17T16:49:38.043Z</time></trkpt><trkpt lat="45.0484084" lon="10.9316134"><ele>17.333333333333336</ele><time>2026-04-17T16:49:39.043Z</time></trkpt><trkpt lat="45.0483959" lon="10.9318399"><ele>17.666666666666668</ele><time>2026-04-17T16:49:40.043Z</time></trkpt><trkpt lat="45.0483846" lon="10.9320546"><ele>18.0</ele><time>2026-04-17T16:49:41.043Z</time></trkpt><trkpt lat="45.0483732" lon="10.9322581"><ele>18.0</ele><time>2026-04-17T16:49:42.043Z</time></trkpt><trkpt lat="45.0483623" lon="10.9324552"><ele>18.0</ele><time>2026-04-17T16:49:43.042Z</time></trkpt><trkpt lat="45.048345" lon="10.9326455"><ele>18.0</ele><time>2026-04-17T16:49:44.041Z</time></trkpt><trkpt lat="45.0483347" lon="10.9328331"><ele>18.0</ele><time>2026-04-17T16:49:45.043Z</time></trkpt><trkpt lat="45.0483273" lon="10.9330092"><ele>18.0</ele><time>2026-04-17T16:49:46.043Z</time></trkpt><trkpt lat="45.0483157" lon="10.9331811"><ele>18.0</ele><time>2026-04-17T16:49:47.043Z</time></trkpt><trkpt lat="45.0483058" lon="10.9333283"><ele>18.0</ele><time>2026-04-17T16:49:48.042Z</time></trkpt><trkpt lat="45.0482945" lon="10.9334678"><ele>18.0</ele><time>2026-04-17T16:49:49.043Z</time></trkpt><trkpt lat="45.0482824" lon="10.9335885"><ele>18.0</ele><time>2026-04-17T16:49:50.043Z</time></trkpt><trkpt lat="45.0482688" lon="10.9336934"><ele>17.666666666666668</ele><time>2026-04-17T16:49:51.042Z</time></trkpt><trkpt lat="45.0482578" lon="10.9337849"><ele>17.333333333333332</ele><time>2026-04-17T16:49:52.043Z</time></trkpt><trkpt lat="45.0482648" lon="10.9339002"><ele>17.0</ele><time>2026-04-17T16:49:54.043Z</time></trkpt><trkpt lat="45.048333" lon="10.9339812"><ele>16.666666666666664</ele><time>2026-04-17T16:49:56.042Z</time></trkpt><trkpt lat="45.0484013" lon="10.9340127"><ele>16.333333333333332</ele><time>2026-04-17T16:49:57.043Z</time></trkpt><trkpt lat="45.0484887" lon="10.9340354"><ele>16.0</ele><time>2026-04-17T16:49:58.042Z</time></trkpt><trkpt lat="45.0485882" lon="10.9340528"><ele>15.75</ele><time>2026-04-17T16:49:59.042Z</time></trkpt><trkpt lat="45.048702" lon="10.9340696"><ele>15.5</ele><time>2026-04-17T16:50:00.042Z</time></trkpt><trkpt lat="45.0488238" lon="10.934087"><ele>15.25</ele><time>2026-04-17T16:50:01.042Z</time></trkpt><trkpt lat="45.0489697" lon="10.9341063"><ele>15.0</ele><time>2026-04-17T16:50:02.042Z</time></trkpt><trkpt lat="45.0491163" lon="10.9341245"><ele>15.333333333333332</ele><time>2026-04-17T16:50:03.042Z</time></trkpt><trkpt lat="45.0492715" lon="10.9341443"><ele>15.666666666666666</ele><time>2026-04-17T16:50:04.042Z</time></trkpt><trkpt lat="45.0494375" lon="10.9341676"><ele>16.0</ele><time>2026-04-17T16:50:05.042Z</time></trkpt><trkpt lat="45.0496046" lon="10.9341889"><ele>16.0</ele><time>2026-04-17T16:50:06.042Z</time></trkpt><trkpt lat="45.0497745" lon="10.9342066"><ele>16.0</ele><time>2026-04-17T16:50:07.042Z</time></trkpt><trkpt lat="45.0499491" lon="10.9342309"><ele>16.0</ele><time>2026-04-17T16:50:08.043Z</time></trkpt><trkpt lat="45.0501253" lon="10.9342584"><ele>15.666666666666666</ele><time>2026-04-17T16:50:09.043Z</time></trkpt><trkpt lat="45.0503009" lon="10.9342858"><ele>15.333333333333332</ele><time>2026-04-17T16:50:10.043Z</time></trkpt><trkpt lat="45.0504745" lon="10.9343121"><ele>15.0</ele><time>2026-04-17T16:50:11.042Z</time></trkpt><trkpt lat="45.0506454" lon="10.9343371"><ele>15.666666666666668</ele><time>2026-04-17T16:50:12.043Z</time></trkpt><trkpt lat="45.0508201" lon="10.934365"><ele>16.333333333333336</ele><time>2026-04-17T16:50:13.044Z</time></trkpt><trkpt lat="45.0509883" lon="10.9343931"><ele>17.0</ele><time>2026-04-17T16:50:14.044Z</time></trkpt><trkpt lat="45.0511556" lon="10.9344302"><ele>17.0</ele><time>2026-04-17T16:50:15.042Z</time></trkpt><trkpt lat="45.0513233" lon="10.9344784"><ele>17.0</ele><time>2026-04-17T16:50:16.042Z</time></trkpt><trkpt lat="45.0514899" lon="10.9345248"><ele>17.0</ele><time>2026-04-17T16:50:17.042Z</time></trkpt><trkpt lat="45.0516595" lon="10.9345888"><ele>16.333333333333336</ele><time>2026-04-17T16:50:18.043Z</time></trkpt><trkpt lat="45.0518312" lon="10.9346572"><ele>15.666666666666668</ele><time>2026-04-17T16:50:19.043Z</time></trkpt><trkpt lat="45.0520043" lon="10.9347279"><ele>15.0</ele><time>2026-04-17T16:50:20.042Z</time></trkpt><trkpt lat="45.0521823" lon="10.9347983"><ele>15.0</ele><time>2026-04-17T16:50:21.044Z</time></trkpt><trkpt lat="45.0523609" lon="10.934873"><ele>15.0</ele><time>2026-04-17T16:50:22.041Z</time></trkpt><trkpt lat="45.0525461" lon="10.9349458"><ele>15.0</ele><time>2026-04-17T16:50:23.043Z</time></trkpt><trkpt lat="45.0527332" lon="10.9350209"><ele>15.0</ele><time>2026-04-17T16:50:24.042Z</time></trkpt><trkpt lat="45.0529195" lon="10.9350976"><ele>15.0</ele><time>2026-04-17T16:50:25.042Z</time></trkpt><trkpt lat="45.0531088" lon="10.9351754"><ele>15.0</ele><time>2026-04-17T16:50:26.042Z</time></trkpt><trkpt lat="45.0533035" lon="10.9352535"><ele>15.0</ele><time>2026-04-17T16:50:27.042Z</time></trkpt><trkpt lat="45.0534868" lon="10.9353221"><ele>15.0</ele><time>2026-04-17T16:50:28.043Z</time></trkpt><trkpt lat="45.0536575" lon="10.9353835"><ele>15.0</ele><time>2026-04-17T16:50:29.042Z</time></trkpt><trkpt lat="45.0538151" lon="10.9354469"><ele>15.0</ele><time>2026-04-17T16:50:30.043Z</time></trkpt><trkpt lat="45.0539625" lon="10.9354973"><ele>15.0</ele><time>2026-04-17T16:50:31.043Z</time></trkpt><trkpt lat="45.0541066" lon="10.9355507"><ele>15.0</ele><time>2026-04-17T16:50:32.042Z</time></trkpt><trkpt lat="45.0542497" lon="10.9356055"><ele>15.0</ele><time>2026-04-17T16:50:33.043Z</time></trkpt><trkpt lat="45.0543979" lon="10.9356607"><ele>15.0</ele><time>2026-04-17T16:50:34.042Z</time></trkpt><trkpt lat="45.0545492" lon="10.9357208"><ele>15.0</ele><time>2026-04-17T16:50:35.042Z</time></trkpt><trkpt lat="45.0547088" lon="10.9357836"><ele>15.0</ele><time>2026-04-17T16:50:36.043Z</time></trkpt><trkpt lat="45.0548729" lon="10.9358479"><ele>15.0</ele><time>2026-04-17T16:50:37.043Z</time></trkpt><trkpt lat="45.0550453" lon="10.9359165"><ele>15.0</ele><time>2026-04-17T16:50:38.043Z</time></trkpt><trkpt lat="45.0552215" lon="10.9359859"><ele>15.0</ele><time>2026-04-17T16:50:39.042Z</time></trkpt><trkpt lat="45.0554009" lon="10.9360548"><ele>15.0</ele><time>2026-04-17T16:50:40.042Z</time></trkpt><trkpt lat="45.0555849" lon="10.9361265"><ele>15.0</ele><time>2026-04-17T16:50:41.043Z</time></trkpt><trkpt lat="45.055758" lon="10.9361948"><ele>15.0</ele><time>2026-04-17T16:50:42.041Z</time></trkpt><trkpt lat="45.0559234" lon="10.9362572"><ele>15.666666666666668</ele><time>2026-04-17T16:50:43.043Z</time></trkpt><trkpt lat="45.0560865" lon="10.9363216"><ele>16.333333333333336</ele><time>2026-04-17T16:50:44.043Z</time></trkpt><trkpt lat="45.0562505" lon="10.936394"><ele>17.0</ele><time>2026-04-17T16:50:45.042Z</time></trkpt><trkpt lat="45.0563996" lon="10.9364521"><ele>17.0</ele><time>2026-04-17T16:50:46.042Z</time></trkpt><trkpt lat="45.0565436" lon="10.9365078"><ele>17.0</ele><time>2026-04-17T16:50:47.043Z</time></trkpt><trkpt lat="45.056688" lon="10.9365646"><ele>17.0</ele><time>2026-04-17T16:50:48.043Z</time></trkpt><trkpt lat="45.0568314" lon="10.9366219"><ele>17.0</ele><time>2026-04-17T16:50:49.042Z</time></trkpt><trkpt lat="45.0569734" lon="10.9366954"><ele>17.0</ele><time>2026-04-17T16:50:50.043Z</time></trkpt><trkpt lat="45.0571112" lon="10.9367946"><ele>17.0</ele><time>2026-04-17T16:50:51.042Z</time></trkpt><trkpt lat="45.057249" lon="10.9369173"><ele>17.0</ele><time>2026-04-17T16:50:52.042Z</time></trkpt><trkpt lat="45.0573863" lon="10.9370502"><ele>17.0</ele><time>2026-04-17T16:50:53.042Z</time></trkpt><trkpt lat="45.0575247" lon="10.9371851"><ele>17.0</ele><time>2026-04-17T16:50:54.042Z</time></trkpt><trkpt lat="45.0576588" lon="10.9373169"><ele>17.0</ele><time>2026-04-17T16:50:55.042Z</time></trkpt><trkpt lat="45.0577889" lon="10.9374484"><ele>17.0</ele><time>2026-04-17T16:50:56.043Z</time></trkpt><trkpt lat="45.0579123" lon="10.9375873"><ele>17.0</ele><time>2026-04-17T16:50:57.043Z</time></trkpt><trkpt lat="45.0580256" lon="10.9377561"><ele>17.0</ele><time>2026-04-17T16:50:58.042Z</time></trkpt><trkpt lat="45.0581295" lon="10.9379441"><ele>17.0</ele><time>2026-04-17T16:50:59.044Z</time></trkpt><trkpt lat="45.0582333" lon="10.9381413"><ele>17.0</ele><time>2026-04-17T16:51:00.042Z</time></trkpt><trkpt lat="45.0583412" lon="10.9383431"><ele>17.0</ele><time>2026-04-17T16:51:01.042Z</time></trkpt><trkpt lat="45.0584477" lon="10.9385343"><ele>16.666666666666668</ele><time>2026-04-17T16:51:02.043Z</time></trkpt><trkpt lat="45.058552" lon="10.9387141"><ele>16.333333333333332</ele><time>2026-04-17T16:51:03.043Z</time></trkpt><trkpt lat="45.0586511" lon="10.9388888"><ele>16.0</ele><time>2026-04-17T16:51:04.043Z</time></trkpt><trkpt lat="45.0587497" lon="10.9390578"><ele>16.333333333333332</ele><time>2026-04-17T16:51:05.042Z</time></trkpt><trkpt lat="45.0588491" lon="10.9392255"><ele>16.666666666666668</ele><time>2026-04-17T16:51:06.044Z</time></trkpt><trkpt lat="45.0589486" lon="10.9393951"><ele>17.0</ele><time>2026-04-17T16:51:07.041Z</time></trkpt><trkpt lat="45.0590527" lon="10.9395658"><ele>17.0</ele><time>2026-04-17T16:51:08.042Z</time></trkpt><trkpt lat="45.0591599" lon="10.9397371"><ele>17.0</ele><time>2026-04-17T16:51:09.042Z</time></trkpt><trkpt lat="45.0592646" lon="10.9399116"><ele>17.0</ele><time>2026-04-17T16:51:10.043Z</time></trkpt><trkpt lat="45.0593709" lon="10.9400964"><ele>17.0</ele><time>2026-04-17T16:51:11.042Z</time></trkpt><trkpt lat="45.0594796" lon="10.9402885"><ele>17.0</ele><time>2026-04-17T16:51:12.044Z</time></trkpt><trkpt lat="45.0595823" lon="10.940473"><ele>17.0</ele><time>2026-04-17T16:51:13.042Z</time></trkpt><trkpt lat="45.0596776" lon="10.9406486"><ele>17.0</ele><time>2026-04-17T16:51:14.043Z</time></trkpt><trkpt lat="45.0597665" lon="10.9408164"><ele>17.0</ele><time>2026-04-17T16:51:15.042Z</time></trkpt><trkpt lat="45.0598505" lon="10.9409761"><ele>17.0</ele><time>2026-04-17T16:51:16.042Z</time></trkpt><trkpt lat="45.0599271" lon="10.9411131"><ele>17.0</ele><time>2026-04-17T16:51:17.042Z</time></trkpt><trkpt lat="45.0600063" lon="10.9412394"><ele>16.75</ele><time>2026-04-17T16:51:18.041Z</time></trkpt><trkpt lat="45.0601013" lon="10.9413591"><ele>16.5</ele><time>2026-04-17T16:51:19.042Z</time></trkpt><trkpt lat="45.0602086" lon="10.9414685"><ele>16.25</ele><time>2026-04-17T16:51:20.042Z</time></trkpt><trkpt lat="45.0603257" lon="10.9415695"><ele>16.0</ele><time>2026-04-17T16:51:21.042Z</time></trkpt><trkpt lat="45.0604498" lon="10.9416629"><ele>16.0</ele><time>2026-04-17T16:51:22.042Z</time></trkpt><trkpt lat="45.0605767" lon="10.9417502"><ele>16.0</ele><time>2026-04-17T16:51:23.042Z</time></trkpt><trkpt lat="45.0607092" lon="10.9418347"><ele>16.0</ele><time>2026-04-17T16:51:24.042Z</time></trkpt><trkpt lat="45.0608393" lon="10.9419031"><ele>16.0</ele><time>2026-04-17T16:51:25.042Z</time></trkpt><trkpt lat="45.0609722" lon="10.9419548"><ele>16.25</ele><time>2026-04-17T16:51:26.042Z</time></trkpt><trkpt lat="45.0611139" lon="10.9419794"><ele>16.5</ele><time>2026-04-17T16:51:27.042Z</time></trkpt><trkpt lat="45.061266" lon="10.9419805"><ele>16.75</ele><time>2026-04-17T16:51:28.041Z</time></trkpt><trkpt lat="45.0614139" lon="10.9419634"><ele>17.0</ele><time>2026-04-17T16:51:29.043Z</time></trkpt><trkpt lat="45.0615644" lon="10.9419507"><ele>16.75</ele><time>2026-04-17T16:51:30.043Z</time></trkpt><trkpt lat="45.0617055" lon="10.9419206"><ele>16.5</ele><time>2026-04-17T16:51:31.043Z</time></trkpt><trkpt lat="45.0618521" lon="10.9418696"><ele>16.25</ele><time>2026-04-17T16:51:32.042Z</time></trkpt><trkpt lat="45.0619993" lon="10.9418009"><ele>16.0</ele><time>2026-04-17T16:51:33.042Z</time></trkpt><trkpt lat="45.0621492" lon="10.9417268"><ele>16.0</ele><time>2026-04-17T16:51:34.042Z</time></trkpt><trkpt lat="45.0622941" lon="10.9416594"><ele>16.0</ele><time>2026-04-17T16:51:35.043Z</time></trkpt><trkpt lat="45.062436" lon="10.9415932"><ele>16.0</ele><time>2026-04-17T16:51:36.042Z</time></trkpt><trkpt lat="45.0625771" lon="10.9415472"><ele>16.0</ele><time>2026-04-17T16:51:37.043Z</time></trkpt><trkpt lat="45.062723" lon="10.9415209"><ele>16.25</ele><time>2026-04-17T16:51:38.042Z</time></trkpt><trkpt lat="45.0628668" lon="10.9415154"><ele>16.5</ele><time>2026-04-17T16:51:39.042Z</time></trkpt><trkpt lat="45.0630026" lon="10.9415215"><ele>16.75</ele><time>2026-04-17T16:51:40.043Z</time></trkpt><trkpt lat="45.0631258" lon="10.9415444"><ele>17.0</ele><time>2026-04-17T16:51:41.044Z</time></trkpt><trkpt lat="45.0632386" lon="10.9416258"><ele>17.25</ele><time>2026-04-17T16:51:42.042Z</time></trkpt><trkpt lat="45.0633467" lon="10.9417337"><ele>17.5</ele><time>2026-04-17T16:51:43.042Z</time></trkpt><trkpt lat="45.0634446" lon="10.941871"><ele>17.75</ele><time>2026-04-17T16:51:44.042Z</time></trkpt><trkpt lat="45.0635383" lon="10.942032"><ele>18.0</ele><time>2026-04-17T16:51:45.042Z</time></trkpt><trkpt lat="45.0636214" lon="10.9422089"><ele>18.0</ele><time>2026-04-17T16:51:46.042Z</time></trkpt><trkpt lat="45.0636873" lon="10.9423894"><ele>18.0</ele><time>2026-04-17T16:51:47.042Z</time></trkpt><trkpt lat="45.0637366" lon="10.9425519"><ele>18.0</ele><time>2026-04-17T16:51:48.043Z</time></trkpt><trkpt lat="45.0637835" lon="10.9426936"><ele>18.0</ele><time>2026-04-17T16:51:49.043Z</time></trkpt><trkpt lat="45.0638244" lon="10.9428171"><ele>18.0</ele><time>2026-04-17T16:51:50.043Z</time></trkpt><trkpt lat="45.0638684" lon="10.9429513"><ele>18.0</ele><time>2026-04-17T16:51:51.042Z</time></trkpt><trkpt lat="45.0639204" lon="10.9430985"><ele>18.0</ele><time>2026-04-17T16:51:52.042Z</time></trkpt><trkpt lat="45.0639849" lon="10.9432533"><ele>18.0</ele><time>2026-04-17T16:51:53.042Z</time></trkpt><trkpt lat="45.0640643" lon="10.9434099"><ele>18.0</ele><time>2026-04-17T16:51:54.044Z</time></trkpt><trkpt lat="45.0641638" lon="10.9435715"><ele>18.0</ele><time>2026-04-17T16:51:55.043Z</time></trkpt><trkpt lat="45.0642857" lon="10.9437206"><ele>18.0</ele><time>2026-04-17T16:51:56.042Z</time></trkpt><trkpt lat="45.0644222" lon="10.943852"><ele>18.0</ele><time>2026-04-17T16:51:57.043Z</time></trkpt><trkpt lat="45.0645537" lon="10.9439725"><ele>18.0</ele><time>2026-04-17T16:51:58.042Z</time></trkpt><trkpt lat="45.0646816" lon="10.944078"><ele>18.0</ele><time>2026-04-17T16:51:59.042Z</time></trkpt><trkpt lat="45.0647992" lon="10.9441874"><ele>18.0</ele><time>2026-04-17T16:52:00.043Z</time></trkpt><trkpt lat="45.064899" lon="10.9443023"><ele>17.75</ele><time>2026-04-17T16:52:01.042Z</time></trkpt><trkpt lat="45.0649817" lon="10.9444274"><ele>17.5</ele><time>2026-04-17T16:52:02.042Z</time></trkpt><trkpt lat="45.0650455" lon="10.9445824"><ele>17.25</ele><time>2026-04-17T16:52:03.043Z</time></trkpt><trkpt lat="45.0651047" lon="10.9447543"><ele>17.0</ele><time>2026-04-17T16:52:04.042Z</time></trkpt><trkpt lat="45.0651393" lon="10.9449491"><ele>17.0</ele><time>2026-04-17T16:52:05.042Z</time></trkpt><trkpt lat="45.06516" lon="10.9451519"><ele>17.0</ele><time>2026-04-17T16:52:06.041Z</time></trkpt><trkpt lat="45.0651656" lon="10.9453454"><ele>17.0</ele><time>2026-04-17T16:52:07.042Z</time></trkpt><trkpt lat="45.0651572" lon="10.9455369"><ele>17.0</ele><time>2026-04-17T16:52:08.042Z</time></trkpt><trkpt lat="45.0651442" lon="10.9457305"><ele>17.0</ele><time>2026-04-17T16:52:09.042Z</time></trkpt><trkpt lat="45.0651294" lon="10.945921"><ele>17.0</ele><time>2026-04-17T16:52:10.043Z</time></trkpt><trkpt lat="45.0651201" lon="10.9461227"><ele>17.0</ele><time>2026-04-17T16:52:11.042Z</time></trkpt><trkpt lat="45.065117" lon="10.9463296"><ele>17.0</ele><time>2026-04-17T16:52:12.043Z</time></trkpt><trkpt lat="45.0651214" lon="10.9465411"><ele>17.25</ele><time>2026-04-17T16:52:13.042Z</time></trkpt><trkpt lat="45.0651321" lon="10.9467432"><ele>17.5</ele><time>2026-04-17T16:52:14.043Z</time></trkpt><trkpt lat="45.0651436" lon="10.9469316"><ele>17.75</ele><time>2026-04-17T16:52:15.042Z</time></trkpt><trkpt lat="45.0651554" lon="10.9471074"><ele>18.0</ele><time>2026-04-17T16:52:16.043Z</time></trkpt><trkpt lat="45.0651592" lon="10.9472823"><ele>18.0</ele><time>2026-04-17T16:52:17.042Z</time></trkpt><trkpt lat="45.0651377" lon="10.9474582"><ele>18.0</ele><time>2026-04-17T16:52:18.043Z</time></trkpt><trkpt lat="45.065077" lon="10.9476334"><ele>18.0</ele><time>2026-04-17T16:52:19.042Z</time></trkpt><trkpt lat="45.0650066" lon="10.9478216"><ele>18.0</ele><time>2026-04-17T16:52:20.042Z</time></trkpt><trkpt lat="45.0649392" lon="10.9480127"><ele>17.75</ele><time>2026-04-17T16:52:21.043Z</time></trkpt><trkpt lat="45.0648777" lon="10.9481978"><ele>17.5</ele><time>2026-04-17T16:52:22.043Z</time></trkpt><trkpt lat="45.0648271" lon="10.9483572"><ele>17.25</ele><time>2026-04-17T16:52:23.042Z</time></trkpt><trkpt lat="45.0647794" lon="10.9484901"><ele>17.0</ele><time>2026-04-17T16:52:24.043Z</time></trkpt><trkpt lat="45.064748" lon="10.9485938"><ele>17.0</ele><time>2026-04-17T16:52:25.044Z</time></trkpt><trkpt lat="45.0647056" lon="10.9487362"><ele>17.0</ele><time>2026-04-17T16:52:27.042Z</time></trkpt><trkpt lat="45.0647793" lon="10.9487348"><ele>17.0</ele><time>2026-04-17T16:52:30.042Z</time></trkpt><trkpt lat="45.0648559" lon="10.9485559"><ele>17.0</ele><time>2026-04-17T16:52:32.042Z</time></trkpt><trkpt lat="45.0649059" lon="10.9484244"><ele>17.0</ele><time>2026-04-17T16:52:33.042Z</time></trkpt><trkpt lat="45.0649573" lon="10.9482785"><ele>17.25</ele><time>2026-04-17T16:52:34.043Z</time></trkpt><trkpt lat="45.0650208" lon="10.9481042"><ele>17.5</ele><time>2026-04-17T16:52:35.043Z</time></trkpt><trkpt lat="45.0650895" lon="10.947929"><ele>17.75</ele><time>2026-04-17T16:52:36.043Z</time></trkpt><trkpt lat="45.0651681" lon="10.947741"><ele>18.0</ele><time>2026-04-17T16:52:37.042Z</time></trkpt><trkpt lat="45.0652562" lon="10.9475454"><ele>18.0</ele><time>2026-04-17T16:52:38.041Z</time></trkpt><trkpt lat="45.065353" lon="10.9473502"><ele>18.0</ele><time>2026-04-17T16:52:39.042Z</time></trkpt><trkpt lat="45.0654581" lon="10.9471502"><ele>18.0</ele><time>2026-04-17T16:52:40.043Z</time></trkpt><trkpt lat="45.0655699" lon="10.9469502"><ele>18.0</ele><time>2026-04-17T16:52:41.041Z</time></trkpt><trkpt lat="45.0656846" lon="10.9467489"><ele>18.0</ele><time>2026-04-17T16:52:42.042Z</time></trkpt><trkpt lat="45.0658015" lon="10.9465511"><ele>18.0</ele><time>2026-04-17T16:52:43.042Z</time></trkpt><trkpt lat="45.0659174" lon="10.9463461"><ele>18.333333333333332</ele><time>2026-04-17T16:52:44.042Z</time></trkpt><trkpt lat="45.0660362" lon="10.9461389"><ele>18.666666666666664</ele><time>2026-04-17T16:52:45.042Z</time></trkpt><trkpt lat="45.0661557" lon="10.9459257"><ele>19.0</ele><time>2026-04-17T16:52:46.042Z</time></trkpt><trkpt lat="45.066277" lon="10.9457193"><ele>18.333333333333332</ele><time>2026-04-17T16:52:47.042Z</time></trkpt><trkpt lat="45.0663893" lon="10.9455258"><ele>17.666666666666668</ele><time>2026-04-17T16:52:48.042Z</time></trkpt><trkpt lat="45.066489" lon="10.9453261"><ele>17.0</ele><time>2026-04-17T16:52:49.042Z</time></trkpt><trkpt lat="45.066575" lon="10.9451146"><ele>16.333333333333336</ele><time>2026-04-17T16:52:50.042Z</time></trkpt><trkpt lat="45.0666502" lon="10.9448903"><ele>15.666666666666668</ele><time>2026-04-17T16:52:51.043Z</time></trkpt><trkpt lat="45.0667209" lon="10.9446611"><ele>15.0</ele><time>2026-04-17T16:52:52.043Z</time></trkpt><trkpt lat="45.0667946" lon="10.9444284"><ele>16.0</ele><time>2026-04-17T16:52:53.042Z</time></trkpt><trkpt lat="45.0668628" lon="10.9441938"><ele>17.0</ele><time>2026-04-17T16:52:54.042Z</time></trkpt><trkpt lat="45.0669427" lon="10.943966"><ele>18.0</ele><time>2026-04-17T16:52:55.043Z</time></trkpt><trkpt lat="45.0670322" lon="10.9437418"><ele>18.0</ele><time>2026-04-17T16:52:56.043Z</time></trkpt><trkpt lat="45.0671278" lon="10.9435132"><ele>18.0</ele><time>2026-04-17T16:52:57.042Z</time></trkpt><trkpt lat="45.0672295" lon="10.9432845"><ele>18.0</ele><time>2026-04-17T16:52:58.041Z</time></trkpt><trkpt lat="45.0673371" lon="10.9430575"><ele>17.666666666666668</ele><time>2026-04-17T16:52:59.043Z</time></trkpt><trkpt lat="45.0674506" lon="10.9428401"><ele>17.333333333333336</ele><time>2026-04-17T16:53:00.043Z</time></trkpt><trkpt lat="45.0675702" lon="10.9426249"><ele>17.0</ele><time>2026-04-17T16:53:01.042Z</time></trkpt><trkpt lat="45.0676902" lon="10.9424032"><ele>17.0</ele><time>2026-04-17T16:53:02.042Z</time></trkpt><trkpt lat="45.0678062" lon="10.942182"><ele>17.0</ele><time>2026-04-17T16:53:03.042Z</time></trkpt><trkpt lat="45.0679164" lon="10.9419574"><ele>17.0</ele><time>2026-04-17T16:53:04.043Z</time></trkpt><trkpt lat="45.0680225" lon="10.9417257"><ele>16.666666666666668</ele><time>2026-04-17T16:53:05.042Z</time></trkpt><trkpt lat="45.068128" lon="10.9414874"><ele>16.333333333333332</ele><time>2026-04-17T16:53:06.043Z</time></trkpt><trkpt lat="45.0682276" lon="10.94124"><ele>16.0</ele><time>2026-04-17T16:53:07.043Z</time></trkpt><trkpt lat="45.0683141" lon="10.9409793"><ele>15.666666666666666</ele><time>2026-04-17T16:53:08.042Z</time></trkpt><trkpt lat="45.06839" lon="10.9407047"><ele>15.333333333333332</ele><time>2026-04-17T16:53:09.043Z</time></trkpt><trkpt lat="45.0684644" lon="10.9404247"><ele>15.0</ele><time>2026-04-17T16:53:10.043Z</time></trkpt><trkpt lat="45.0685389" lon="10.9401407"><ele>15.666666666666668</ele><time>2026-04-17T16:53:11.042Z</time></trkpt><trkpt lat="45.0686115" lon="10.9398605"><ele>16.333333333333336</ele><time>2026-04-17T16:53:12.042Z</time></trkpt><trkpt lat="45.068674" lon="10.9395914"><ele>17.0</ele><time>2026-04-17T16:53:13.042Z</time></trkpt><trkpt lat="45.0687355" lon="10.9393306"><ele>17.0</ele><time>2026-04-17T16:53:14.042Z</time></trkpt><trkpt lat="45.0687925" lon="10.9390812"><ele>17.0</ele><time>2026-04-17T16:53:15.042Z</time></trkpt><trkpt lat="45.0688525" lon="10.9388347"><ele>17.0</ele><time>2026-04-17T16:53:16.042Z</time></trkpt><trkpt lat="45.0689119" lon="10.9385963"><ele>17.333333333333336</ele><time>2026-04-17T16:53:17.041Z</time></trkpt><trkpt lat="45.068976" lon="10.9383627"><ele>17.666666666666668</ele><time>2026-04-17T16:53:18.044Z</time></trkpt><trkpt lat="45.0690531" lon="10.9381369"><ele>18.0</ele><time>2026-04-17T16:53:19.042Z</time></trkpt><trkpt lat="45.0691449" lon="10.9379141"><ele>18.0</ele><time>2026-04-17T16:53:20.042Z</time></trkpt><trkpt lat="45.0692392" lon="10.9376882"><ele>18.0</ele><time>2026-04-17T16:53:21.043Z</time></trkpt><trkpt lat="45.0693256" lon="10.9374513"><ele>18.0</ele><time>2026-04-17T16:53:22.043Z</time></trkpt><trkpt lat="45.0694044" lon="10.9372029"><ele>17.666666666666668</ele><time>2026-04-17T16:53:23.042Z</time></trkpt><trkpt lat="45.0694779" lon="10.9369494"><ele>17.333333333333336</ele><time>2026-04-17T16:53:24.042Z</time></trkpt><trkpt lat="45.0695454" lon="10.9366833"><ele>17.0</ele><time>2026-04-17T16:53:25.042Z</time></trkpt><trkpt lat="45.0696056" lon="10.9364146"><ele>16.666666666666668</ele><time>2026-04-17T16:53:26.043Z</time></trkpt><trkpt lat="45.0696668" lon="10.9361431"><ele>16.333333333333332</ele><time>2026-04-17T16:53:27.041Z</time></trkpt><trkpt lat="45.0697309" lon="10.9358718"><ele>16.0</ele><time>2026-04-17T16:53:28.043Z</time></trkpt><trkpt lat="45.0697975" lon="10.9356002"><ele>15.666666666666666</ele><time>2026-04-17T16:53:29.043Z</time></trkpt><trkpt lat="45.0698606" lon="10.9353422"><ele>15.333333333333332</ele><time>2026-04-17T16:53:30.042Z</time></trkpt><trkpt lat="45.0699195" lon="10.9351021"><ele>15.0</ele><time>2026-04-17T16:53:31.042Z</time></trkpt><trkpt lat="45.0699778" lon="10.934873"><ele>16.666666666666668</ele><time>2026-04-17T16:53:32.042Z</time></trkpt><trkpt lat="45.0700345" lon="10.9346579"><ele>18.333333333333336</ele><time>2026-04-17T16:53:33.043Z</time></trkpt><trkpt lat="45.0700882" lon="10.9344563"><ele>20.0</ele><time>2026-04-17T16:53:34.044Z</time></trkpt><trkpt lat="45.070134" lon="10.9342527"><ele>19.75</ele><time>2026-04-17T16:53:35.043Z</time></trkpt><trkpt lat="45.0701758" lon="10.9340508"><ele>19.5</ele><time>2026-04-17T16:53:36.042Z</time></trkpt><trkpt lat="45.0702085" lon="10.933856"><ele>19.25</ele><time>2026-04-17T16:53:37.042Z</time></trkpt><trkpt lat="45.0702419" lon="10.9336666"><ele>19.0</ele><time>2026-04-17T16:53:38.041Z</time></trkpt><trkpt lat="45.0702769" lon="10.9334813"><ele>19.0</ele><time>2026-04-17T16:53:39.043Z</time></trkpt><trkpt lat="45.0703107" lon="10.9332935"><ele>19.0</ele><time>2026-04-17T16:53:40.042Z</time></trkpt><trkpt lat="45.0703427" lon="10.9331132"><ele>19.0</ele><time>2026-04-17T16:53:41.042Z</time></trkpt><trkpt lat="45.0703693" lon="10.9329377"><ele>19.0</ele><time>2026-04-17T16:53:42.042Z</time></trkpt><trkpt lat="45.0703967" lon="10.9327775"><ele>19.0</ele><time>2026-04-17T16:53:43.042Z</time></trkpt><trkpt lat="45.0704179" lon="10.9326381"><ele>19.0</ele><time>2026-04-17T16:53:44.042Z</time></trkpt><trkpt lat="45.0704355" lon="10.9325163"><ele>19.0</ele><time>2026-04-17T16:53:45.043Z</time></trkpt><trkpt lat="45.070445" lon="10.9323976"><ele>19.0</ele><time>2026-04-17T16:53:47.042Z</time></trkpt><trkpt lat="45.0704293" lon="10.9322723"><ele>19.0</ele><time>2026-04-17T16:54:02.042Z</time></trkpt><trkpt lat="45.0703046" lon="10.9322187"><ele>19.25</ele><time>2026-04-17T16:54:04.042Z</time></trkpt><trkpt lat="45.0702021" lon="10.9322342"><ele>19.5</ele><time>2026-04-17T16:54:05.042Z</time></trkpt><trkpt lat="45.0700905" lon="10.9322413"><ele>19.75</ele><time>2026-04-17T16:54:06.042Z</time></trkpt><trkpt lat="45.0699634" lon="10.9322401"><ele>20.0</ele><time>2026-04-17T16:54:07.042Z</time></trkpt><trkpt lat="45.0698262" lon="10.9322318"><ele>19.5</ele><time>2026-04-17T16:54:08.043Z</time></trkpt><trkpt lat="45.0696921" lon="10.9322103"><ele>19.0</ele><time>2026-04-17T16:54:09.041Z</time></trkpt><trkpt lat="45.0695741" lon="10.9321869"><ele>18.5</ele><time>2026-04-17T16:54:10.042Z</time></trkpt><trkpt lat="45.0694639" lon="10.9321674"><ele>18.0</ele><time>2026-04-17T16:54:11.043Z</time></trkpt><trkpt lat="45.0693665" lon="10.9321422"><ele>18.0</ele><time>2026-04-17T16:54:12.042Z</time></trkpt><trkpt lat="45.0692849" lon="10.9321169"><ele>18.0</ele><time>2026-04-17T16:54:13.042Z</time></trkpt><trkpt lat="45.0692114" lon="10.932093"><ele>18.0</ele><time>2026-04-17T16:54:14.043Z</time></trkpt><trkpt lat="45.069105" lon="10.9320891"><ele>18.0</ele><time>2026-04-17T16:54:16.042Z</time></trkpt><trkpt lat="45.0690708" lon="10.9321744"><ele>18.0</ele><time>2026-04-17T16:54:19.042Z</time></trkpt><trkpt lat="45.0691818" lon="10.93224"><ele>18.0</ele><time>2026-04-17T16:54:21.042Z</time></trkpt><trkpt lat="45.0692709" lon="10.9322679"><ele>18.0</ele><time>2026-04-17T16:54:22.042Z</time></trkpt><trkpt lat="45.069376" lon="10.9322976"><ele>18.0</ele><time>2026-04-17T16:54:23.042Z</time></trkpt><trkpt lat="45.0694915" lon="10.9323299"><ele>18.0</ele><time>2026-04-17T16:54:24.042Z</time></trkpt><trkpt lat="45.0696231" lon="10.9323645"><ele>18.0</ele><time>2026-04-17T16:54:25.042Z</time></trkpt><trkpt lat="45.0697591" lon="10.9323981"><ele>18.0</ele><time>2026-04-17T16:54:26.043Z</time></trkpt><trkpt lat="45.069904" lon="10.9324414"><ele>18.0</ele><time>2026-04-17T16:54:27.043Z</time></trkpt><trkpt lat="45.0700413" lon="10.9324787"><ele>18.0</ele><time>2026-04-17T16:54:28.042Z</time></trkpt><trkpt lat="45.0701748" lon="10.9325148"><ele>18.25</ele><time>2026-04-17T16:54:29.042Z</time></trkpt><trkpt lat="45.0703102" lon="10.9325427"><ele>18.5</ele><time>2026-04-17T16:54:30.041Z</time></trkpt><trkpt lat="45.0704347" lon="10.9325876"><ele>18.75</ele><time>2026-04-17T16:54:31.043Z</time></trkpt><trkpt lat="45.0705676" lon="10.9326279"><ele>19.0</ele><time>2026-04-17T16:54:32.042Z</time></trkpt><trkpt lat="45.0706948" lon="10.9326695"><ele>20.5</ele><time>2026-04-17T16:54:33.042Z</time></trkpt><trkpt lat="45.0708226" lon="10.9327105"><ele>22.0</ele><time>2026-04-17T16:54:34.042Z</time></trkpt><trkpt lat="45.0709515" lon="10.9327451"><ele>23.5</ele><time>2026-04-17T16:54:35.042Z</time></trkpt><trkpt lat="45.0710806" lon="10.9327815"><ele>25.0</ele><time>2026-04-17T16:54:36.042Z</time></trkpt><trkpt lat="45.0712138" lon="10.9328216"><ele>25.0</ele><time>2026-04-17T16:54:37.042Z</time></trkpt><trkpt lat="45.071351" lon="10.9328605"><ele>25.0</ele><time>2026-04-17T16:54:38.043Z</time></trkpt><trkpt lat="45.0714833" lon="10.9329018"><ele>25.0</ele><time>2026-04-17T16:54:39.042Z</time></trkpt><trkpt lat="45.0716098" lon="10.9329387"><ele>25.0</ele><time>2026-04-17T16:54:40.042Z</time></trkpt><trkpt lat="45.0717358" lon="10.9329744"><ele>25.0</ele><time>2026-04-17T16:54:41.042Z</time></trkpt><trkpt lat="45.0718638" lon="10.9330143"><ele>25.0</ele><time>2026-04-17T16:54:42.042Z</time></trkpt><trkpt lat="45.0719807" lon="10.9330482"><ele>25.0</ele><time>2026-04-17T16:54:43.042Z</time></trkpt><trkpt lat="45.0720888" lon="10.9330748"><ele>25.0</ele><time>2026-04-17T16:54:44.042Z</time></trkpt><trkpt lat="45.072188" lon="10.9331024"><ele>25.0</ele><time>2026-04-17T16:54:45.042Z</time></trkpt><trkpt lat="45.0722817" lon="10.9331381"><ele>25.0</ele><time>2026-04-17T16:54:46.043Z</time></trkpt><trkpt lat="45.0723716" lon="10.9331884"><ele>25.0</ele><time>2026-04-17T16:54:47.042Z</time></trkpt><trkpt lat="45.0724575" lon="10.933253"><ele>25.0</ele><time>2026-04-17T16:54:48.043Z</time></trkpt><trkpt lat="45.0725385" lon="10.9333201"><ele>25.0</ele><time>2026-04-17T16:54:49.042Z</time></trkpt><trkpt lat="45.0726246" lon="10.9333941"><ele>23.2</ele><time>2026-04-17T16:54:50.043Z</time></trkpt><trkpt lat="45.0727156" lon="10.9334674"><ele>21.4</ele><time>2026-04-17T16:54:51.043Z</time></trkpt><trkpt lat="45.072812" lon="10.9335292"><ele>19.6</ele><time>2026-04-17T16:54:52.043Z</time></trkpt><trkpt lat="45.0729133" lon="10.9335738"><ele>17.8</ele><time>2026-04-17T16:54:53.043Z</time></trkpt><trkpt lat="45.0730187" lon="10.9336015"><ele>16.0</ele><time>2026-04-17T16:54:54.042Z</time></trkpt><trkpt lat="45.073131" lon="10.9336285"><ele>16.0</ele><time>2026-04-17T16:54:55.042Z</time></trkpt><trkpt lat="45.0732486" lon="10.933658"><ele>16.0</ele><time>2026-04-17T16:54:56.042Z</time></trkpt><trkpt lat="45.0733672" lon="10.933694"><ele>16.0</ele><time>2026-04-17T16:54:57.042Z</time></trkpt><trkpt lat="45.0734881" lon="10.93373"><ele>16.0</ele><time>2026-04-17T16:54:58.042Z</time></trkpt><trkpt lat="45.0736144" lon="10.9337663"><ele>14.333333333333332</ele><time>2026-04-17T16:54:59.042Z</time></trkpt><trkpt lat="45.0737525" lon="10.9338037"><ele>12.666666666666666</ele><time>2026-04-17T16:55:00.043Z</time></trkpt><trkpt lat="45.0739043" lon="10.9338462"><ele>11.0</ele><time>2026-04-17T16:55:01.042Z</time></trkpt><trkpt lat="45.0740706" lon="10.9338886"><ele>11.0</ele><time>2026-04-17T16:55:02.042Z</time></trkpt><trkpt lat="45.0742438" lon="10.9339398"><ele>11.0</ele><time>2026-04-17T16:55:03.042Z</time></trkpt><trkpt lat="45.0744209" lon="10.9339997"><ele>11.0</ele><time>2026-04-17T16:55:04.041Z</time></trkpt><trkpt lat="45.0745942" lon="10.9340581"><ele>11.0</ele><time>2026-04-17T16:55:05.043Z</time></trkpt><trkpt lat="45.0747789" lon="10.9341107"><ele>11.0</ele><time>2026-04-17T16:55:06.043Z</time></trkpt><trkpt lat="45.0749601" lon="10.9341716"><ele>11.0</ele><time>2026-04-17T16:55:07.042Z</time></trkpt><trkpt lat="45.0751306" lon="10.9342221"><ele>13.333333333333332</ele><time>2026-04-17T16:55:08.043Z</time></trkpt><trkpt lat="45.0752858" lon="10.9342741"><ele>15.666666666666666</ele><time>2026-04-17T16:55:09.042Z</time></trkpt><trkpt lat="45.0754356" lon="10.9343223"><ele>18.0</ele><time>2026-04-17T16:55:10.042Z</time></trkpt><trkpt lat="45.075583" lon="10.9343594"><ele>18.0</ele><time>2026-04-17T16:55:11.042Z</time></trkpt><trkpt lat="45.0757385" lon="10.9343569"><ele>18.0</ele><time>2026-04-17T16:55:12.043Z</time></trkpt><trkpt lat="45.0758961" lon="10.9343244"><ele>18.0</ele><time>2026-04-17T16:55:13.043Z</time></trkpt><trkpt lat="45.0760705" lon="10.9343043"><ele>18.333333333333332</ele><time>2026-04-17T16:55:14.042Z</time></trkpt><trkpt lat="45.0762361" lon="10.9343025"><ele>18.666666666666664</ele><time>2026-04-17T16:55:15.042Z</time></trkpt><trkpt lat="45.0764151" lon="10.9343433"><ele>19.0</ele><time>2026-04-17T16:55:16.043Z</time></trkpt><trkpt lat="45.076592" lon="10.9343683"><ele>18.666666666666664</ele><time>2026-04-17T16:55:17.042Z</time></trkpt><trkpt lat="45.0767782" lon="10.9343783"><ele>18.333333333333332</ele><time>2026-04-17T16:55:18.043Z</time></trkpt><trkpt lat="45.0769642" lon="10.9343788"><ele>18.0</ele><time>2026-04-17T16:55:19.042Z</time></trkpt><trkpt lat="45.0771532" lon="10.9343407"><ele>18.0</ele><time>2026-04-17T16:55:20.042Z</time></trkpt><trkpt lat="45.0773485" lon="10.9342873"><ele>18.0</ele><time>2026-04-17T16:55:21.043Z</time></trkpt><trkpt lat="45.0775396" lon="10.9342048"><ele>18.0</ele><time>2026-04-17T16:55:22.042Z</time></trkpt><trkpt lat="45.0777238" lon="10.9341098"><ele>18.0</ele><time>2026-04-17T16:55:23.042Z</time></trkpt><trkpt lat="45.0779022" lon="10.933987"><ele>18.0</ele><time>2026-04-17T16:55:24.042Z</time></trkpt><trkpt lat="45.0780739" lon="10.9338526"><ele>18.0</ele><time>2026-04-17T16:55:25.043Z</time></trkpt><trkpt lat="45.078238" lon="10.933693"><ele>17.666666666666668</ele><time>2026-04-17T16:55:26.041Z</time></trkpt><trkpt lat="45.078392" lon="10.9335116"><ele>17.333333333333336</ele><time>2026-04-17T16:55:27.043Z</time></trkpt><trkpt lat="45.0785351" lon="10.9333132"><ele>17.0</ele><time>2026-04-17T16:55:28.043Z</time></trkpt><trkpt lat="45.0786647" lon="10.933094"><ele>17.0</ele><time>2026-04-17T16:55:29.043Z</time></trkpt><trkpt lat="45.078782" lon="10.9328693"><ele>17.0</ele><time>2026-04-17T16:55:30.042Z</time></trkpt><trkpt lat="45.0788691" lon="10.9326446"><ele>17.0</ele><time>2026-04-17T16:55:31.042Z</time></trkpt><trkpt lat="45.0789457" lon="10.932417"><ele>17.0</ele><time>2026-04-17T16:55:32.043Z</time></trkpt><trkpt lat="45.0790085" lon="10.9321901"><ele>17.0</ele><time>2026-04-17T16:55:33.043Z</time></trkpt><trkpt lat="45.0790636" lon="10.9319489"><ele>17.0</ele><time>2026-04-17T16:55:34.042Z</time></trkpt><trkpt lat="45.0791184" lon="10.9317019"><ele>17.0</ele><time>2026-04-17T16:55:35.043Z</time></trkpt><trkpt lat="45.079163" lon="10.9314443"><ele>17.0</ele><time>2026-04-17T16:55:36.042Z</time></trkpt><trkpt lat="45.0792095" lon="10.9311857"><ele>17.0</ele><time>2026-04-17T16:55:37.043Z</time></trkpt><trkpt lat="45.0792593" lon="10.9309203"><ele>17.0</ele><time>2026-04-17T16:55:38.042Z</time></trkpt><trkpt lat="45.0793089" lon="10.9306565"><ele>17.0</ele><time>2026-04-17T16:55:39.042Z</time></trkpt><trkpt lat="45.0793614" lon="10.9303884"><ele>17.0</ele><time>2026-04-17T16:55:40.042Z</time></trkpt><trkpt lat="45.0794093" lon="10.9301269"><ele>18.0</ele><time>2026-04-17T16:55:41.042Z</time></trkpt><trkpt lat="45.0794578" lon="10.9298573"><ele>19.0</ele><time>2026-04-17T16:55:42.042Z</time></trkpt><trkpt lat="45.0795101" lon="10.9295881"><ele>20.0</ele><time>2026-04-17T16:55:43.043Z</time></trkpt><trkpt lat="45.079562" lon="10.9293255"><ele>20.333333333333336</ele><time>2026-04-17T16:55:44.042Z</time></trkpt><trkpt lat="45.0796085" lon="10.9290867"><ele>20.666666666666668</ele><time>2026-04-17T16:55:45.042Z</time></trkpt><trkpt lat="45.0796541" lon="10.9288487"><ele>21.0</ele><time>2026-04-17T16:55:46.042Z</time></trkpt><trkpt lat="45.0796934" lon="10.9286381"><ele>21.0</ele><time>2026-04-17T16:55:47.042Z</time></trkpt><trkpt lat="45.0797278" lon="10.9284246"><ele>21.0</ele><time>2026-04-17T16:55:48.043Z</time></trkpt><trkpt lat="45.0797643" lon="10.9282333"><ele>21.0</ele><time>2026-04-17T16:55:49.043Z</time></trkpt><trkpt lat="45.0797988" lon="10.9280528"><ele>21.0</ele><time>2026-04-17T16:55:50.041Z</time></trkpt><trkpt lat="45.0798297" lon="10.9278874"><ele>21.0</ele><time>2026-04-17T16:55:51.042Z</time></trkpt><trkpt lat="45.079856" lon="10.9277437"><ele>21.0</ele><time>2026-04-17T16:55:52.043Z</time></trkpt><trkpt lat="45.0798713" lon="10.9276311"><ele>21.0</ele><time>2026-04-17T16:55:53.042Z</time></trkpt><trkpt lat="45.0798231" lon="10.9275027"><ele>21.0</ele><time>2026-04-17T16:55:55.042Z</time></trkpt><trkpt lat="45.0797652" lon="10.9274611"><ele>21.0</ele><time>2026-04-17T16:55:56.043Z</time></trkpt><trkpt lat="45.0796491" lon="10.9274168"><ele>21.0</ele><time>2026-04-17T16:55:58.042Z</time></trkpt><trkpt lat="45.0795406" lon="10.9273819"><ele>21.0</ele><time>2026-04-17T16:56:00.043Z</time></trkpt><trkpt lat="45.0794093" lon="10.9273591"><ele>21.0</ele><time>2026-04-17T16:56:02.041Z</time></trkpt><trkpt lat="45.0793129" lon="10.9273458"><ele>21.0</ele><time>2026-04-17T16:56:03.041Z</time></trkpt><trkpt lat="45.0792061" lon="10.9273281"><ele>21.0</ele><time>2026-04-17T16:56:04.043Z</time></trkpt><trkpt lat="45.0790913" lon="10.9273125"><ele>20.400000000000002</ele><time>2026-04-17T16:56:05.041Z</time></trkpt><trkpt lat="45.0789785" lon="10.9273011"><ele>19.8</ele><time>2026-04-17T16:56:06.042Z</time></trkpt><trkpt lat="45.078867" lon="10.9272876"><ele>19.200000000000003</ele><time>2026-04-17T16:56:07.041Z</time></trkpt><trkpt lat="45.0787575" lon="10.9272709"><ele>18.6</ele><time>2026-04-17T16:56:08.043Z</time></trkpt><trkpt lat="45.0786584" lon="10.9272489"><ele>18.0</ele><time>2026-04-17T16:56:09.042Z</time></trkpt><trkpt lat="45.0785727" lon="10.9272324"><ele>18.0</ele><time>2026-04-17T16:56:10.042Z</time></trkpt><trkpt lat="45.0784947" lon="10.9272175"><ele>18.0</ele><time>2026-04-17T16:56:11.043Z</time></trkpt><trkpt lat="45.0784217" lon="10.9272015"><ele>18.0</ele><time>2026-04-17T16:56:12.041Z</time></trkpt><trkpt lat="45.0783134" lon="10.9271731"><ele>18.0</ele><time>2026-04-17T16:56:14.043Z</time></trkpt><trkpt lat="45.0782488" lon="10.9270911"><ele>18.0</ele><time>2026-04-17T16:56:16.042Z</time></trkpt><trkpt lat="45.0782428" lon="10.9269536"><ele>18.0</ele><time>2026-04-17T16:56:18.042Z</time></trkpt><trkpt lat="45.0782803" lon="10.9267821"><ele>17.8</ele><time>2026-04-17T16:56:20.041Z</time></trkpt><trkpt lat="45.0783015" lon="10.9266608"><ele>17.6</ele><time>2026-04-17T16:56:22.042Z</time></trkpt><trkpt lat="45.0782339" lon="10.9266494"><ele>17.4</ele><time>2026-04-17T16:56:27.038Z</time></trkpt><trkpt lat="45.0781804" lon="10.9267771"><ele>17.2</ele><time>2026-04-17T16:56:28.042Z</time></trkpt><trkpt lat="45.0781322" lon="10.9269115"><ele>17.0</ele><time>2026-04-17T16:56:29.042Z</time></trkpt><trkpt lat="45.0780777" lon="10.9270562"><ele>16.5</ele><time>2026-04-17T16:56:30.042Z</time></trkpt><trkpt lat="45.0780145" lon="10.9272167"><ele>16.0</ele><time>2026-04-17T16:56:31.042Z</time></trkpt><trkpt lat="45.0779467" lon="10.9273918"><ele>15.5</ele><time>2026-04-17T16:56:32.042Z</time></trkpt><trkpt lat="45.0778775" lon="10.9275823"><ele>15.0</ele><time>2026-04-17T16:56:33.043Z</time></trkpt><trkpt lat="45.0778028" lon="10.9277796"><ele>15.0</ele><time>2026-04-17T16:56:34.042Z</time></trkpt><trkpt lat="45.0777223" lon="10.9279907"><ele>15.0</ele><time>2026-04-17T16:56:35.042Z</time></trkpt><trkpt lat="45.0776413" lon="10.9282072"><ele>15.0</ele><time>2026-04-17T16:56:36.043Z</time></trkpt><trkpt lat="45.0775551" lon="10.9284339"><ele>15.333333333333332</ele><time>2026-04-17T16:56:37.042Z</time></trkpt><trkpt lat="45.0774675" lon="10.9286671"><ele>15.666666666666666</ele><time>2026-04-17T16:56:38.042Z</time></trkpt><trkpt lat="45.0773776" lon="10.9289072"><ele>16.0</ele><time>2026-04-17T16:56:39.043Z</time></trkpt><trkpt lat="45.077286" lon="10.9291483"><ele>15.333333333333332</ele><time>2026-04-17T16:56:40.042Z</time></trkpt><trkpt lat="45.0771915" lon="10.9293903"><ele>14.666666666666668</ele><time>2026-04-17T16:56:41.043Z</time></trkpt><trkpt lat="45.0771004" lon="10.9296316"><ele>14.0</ele><time>2026-04-17T16:56:42.042Z</time></trkpt><trkpt lat="45.0770085" lon="10.9298699"><ele>14.0</ele><time>2026-04-17T16:56:43.043Z</time></trkpt><trkpt lat="45.0769172" lon="10.9301122"><ele>14.0</ele><time>2026-04-17T16:56:44.042Z</time></trkpt><trkpt lat="45.0768289" lon="10.9303481"><ele>14.0</ele><time>2026-04-17T16:56:45.042Z</time></trkpt><trkpt lat="45.0767362" lon="10.9305848"><ele>14.0</ele><time>2026-04-17T16:56:46.043Z</time></trkpt><trkpt lat="45.0766441" lon="10.9308184"><ele>14.0</ele><time>2026-04-17T16:56:47.043Z</time></trkpt><trkpt lat="45.0765554" lon="10.931053"><ele>14.0</ele><time>2026-04-17T16:56:48.042Z</time></trkpt><trkpt lat="45.0764666" lon="10.9312869"><ele>14.0</ele><time>2026-04-17T16:56:49.043Z</time></trkpt><trkpt lat="45.0763751" lon="10.9315218"><ele>14.0</ele><time>2026-04-17T16:56:50.041Z</time></trkpt><trkpt lat="45.0762887" lon="10.9317582"><ele>14.0</ele><time>2026-04-17T16:56:51.043Z</time></trkpt><trkpt lat="45.0762069" lon="10.9319818"><ele>14.0</ele><time>2026-04-17T16:56:52.042Z</time></trkpt><trkpt lat="45.0761329" lon="10.9321894"><ele>14.0</ele><time>2026-04-17T16:56:53.042Z</time></trkpt><trkpt lat="45.0760736" lon="10.9323927"><ele>14.0</ele><time>2026-04-17T16:56:54.042Z</time></trkpt><trkpt lat="45.0760271" lon="10.9326154"><ele>14.666666666666668</ele><time>2026-04-17T16:56:55.042Z</time></trkpt><trkpt lat="45.0759735" lon="10.9328427"><ele>15.333333333333332</ele><time>2026-04-17T16:56:56.043Z</time></trkpt><trkpt lat="45.0759177" lon="10.9330588"><ele>16.0</ele><time>2026-04-17T16:56:57.042Z</time></trkpt><trkpt lat="45.0758679" lon="10.9332702"><ele>17.0</ele><time>2026-04-17T16:56:58.042Z</time></trkpt><trkpt lat="45.0758124" lon="10.9334722"><ele>18.0</ele><time>2026-04-17T16:56:59.042Z</time></trkpt><trkpt lat="45.0757587" lon="10.9336763"><ele>19.0</ele><time>2026-04-17T16:57:00.042Z</time></trkpt><trkpt lat="45.0757075" lon="10.933875"><ele>18.75</ele><time>2026-04-17T16:57:01.042Z</time></trkpt><trkpt lat="45.07566" lon="10.9340717"><ele>18.5</ele><time>2026-04-17T16:57:02.042Z</time></trkpt><trkpt lat="45.0756191" lon="10.9342565"><ele>18.25</ele><time>2026-04-17T16:57:03.042Z</time></trkpt><trkpt lat="45.075572" lon="10.9344642"><ele>18.0</ele><time>2026-04-17T16:57:04.042Z</time></trkpt><trkpt lat="45.0755181" lon="10.9346557"><ele>18.0</ele><time>2026-04-17T16:57:05.041Z</time></trkpt><trkpt lat="45.0754585" lon="10.934861"><ele>18.0</ele><time>2026-04-17T16:57:06.042Z</time></trkpt><trkpt lat="45.0753982" lon="10.9350705"><ele>18.0</ele><time>2026-04-17T16:57:07.043Z</time></trkpt><trkpt lat="45.0753392" lon="10.9352833"><ele>18.0</ele><time>2026-04-17T16:57:08.042Z</time></trkpt><trkpt lat="45.0752803" lon="10.9355051"><ele>18.0</ele><time>2026-04-17T16:57:09.042Z</time></trkpt><trkpt lat="45.0752152" lon="10.9357333"><ele>18.0</ele><time>2026-04-17T16:57:10.042Z</time></trkpt><trkpt lat="45.0751558" lon="10.935962"><ele>18.0</ele><time>2026-04-17T16:57:11.043Z</time></trkpt><trkpt lat="45.075104" lon="10.9361931"><ele>18.0</ele><time>2026-04-17T16:57:12.042Z</time></trkpt><trkpt lat="45.0750721" lon="10.9364348"><ele>18.0</ele><time>2026-04-17T16:57:13.043Z</time></trkpt><trkpt lat="45.0750448" lon="10.9366855"><ele>17.666666666666668</ele><time>2026-04-17T16:57:14.042Z</time></trkpt><trkpt lat="45.0750255" lon="10.9369317"><ele>17.333333333333336</ele><time>2026-04-17T16:57:15.042Z</time></trkpt><trkpt lat="45.0750101" lon="10.9371796"><ele>17.0</ele><time>2026-04-17T16:57:16.043Z</time></trkpt><trkpt lat="45.0749884" lon="10.9374244"><ele>16.666666666666668</ele><time>2026-04-17T16:57:17.043Z</time></trkpt><trkpt lat="45.0749602" lon="10.9376529"><ele>16.333333333333332</ele><time>2026-04-17T16:57:18.042Z</time></trkpt><trkpt lat="45.0749145" lon="10.9378702"><ele>16.0</ele><time>2026-04-17T16:57:19.042Z</time></trkpt><trkpt lat="45.0748436" lon="10.9380835"><ele>16.0</ele><time>2026-04-17T16:57:20.042Z</time></trkpt><trkpt lat="45.0747544" lon="10.9382833"><ele>16.0</ele><time>2026-04-17T16:57:21.042Z</time></trkpt><trkpt lat="45.0746551" lon="10.9384757"><ele>16.0</ele><time>2026-04-17T16:57:22.042Z</time></trkpt><trkpt lat="45.0745567" lon="10.9386688"><ele>16.333333333333332</ele><time>2026-04-17T16:57:23.042Z</time></trkpt><trkpt lat="45.0744706" lon="10.9388791"><ele>16.666666666666668</ele><time>2026-04-17T16:57:24.042Z</time></trkpt><trkpt lat="45.0744028" lon="10.9391099"><ele>17.0</ele><time>2026-04-17T16:57:25.041Z</time></trkpt><trkpt lat="45.0743492" lon="10.9393563"><ele>17.0</ele><time>2026-04-17T16:57:26.043Z</time></trkpt><trkpt lat="45.0743032" lon="10.9396108"><ele>17.0</ele><time>2026-04-17T16:57:27.042Z</time></trkpt><trkpt lat="45.0742613" lon="10.9398737"><ele>17.0</ele><time>2026-04-17T16:57:28.043Z</time></trkpt><trkpt lat="45.0742216" lon="10.9401364"><ele>17.0</ele><time>2026-04-17T16:57:29.042Z</time></trkpt><trkpt lat="45.0741803" lon="10.9404014"><ele>17.0</ele><time>2026-04-17T16:57:30.042Z</time></trkpt><trkpt lat="45.0741413" lon="10.9406635"><ele>17.0</ele><time>2026-04-17T16:57:31.042Z</time></trkpt><trkpt lat="45.0741093" lon="10.9409253"><ele>17.0</ele><time>2026-04-17T16:57:32.043Z</time></trkpt><trkpt lat="45.0740944" lon="10.9411872"><ele>17.0</ele><time>2026-04-17T16:57:33.042Z</time></trkpt><trkpt lat="45.0740955" lon="10.9414581"><ele>17.0</ele><time>2026-04-17T16:57:34.042Z</time></trkpt><trkpt lat="45.0741025" lon="10.9417333"><ele>17.0</ele><time>2026-04-17T16:57:35.042Z</time></trkpt><trkpt lat="45.074109" lon="10.9419952"><ele>17.0</ele><time>2026-04-17T16:57:36.043Z</time></trkpt><trkpt lat="45.0741142" lon="10.942251"><ele>17.0</ele><time>2026-04-17T16:57:37.042Z</time></trkpt><trkpt lat="45.0741192" lon="10.9424872"><ele>17.0</ele><time>2026-04-17T16:57:38.042Z</time></trkpt><trkpt lat="45.0741255" lon="10.9427176"><ele>17.0</ele><time>2026-04-17T16:57:39.042Z</time></trkpt><trkpt lat="45.0740901" lon="10.9429373"><ele>17.0</ele><time>2026-04-17T16:57:40.042Z</time></trkpt><trkpt lat="45.0740579" lon="10.9431714"><ele>18.0</ele><time>2026-04-17T16:57:41.041Z</time></trkpt><trkpt lat="45.0740186" lon="10.9434029"><ele>19.0</ele><time>2026-04-17T16:57:42.043Z</time></trkpt><trkpt lat="45.0739762" lon="10.9436295"><ele>20.0</ele><time>2026-04-17T16:57:43.043Z</time></trkpt><trkpt lat="45.0739309" lon="10.9438408"><ele>20.0</ele><time>2026-04-17T16:57:44.042Z</time></trkpt><trkpt lat="45.0738781" lon="10.9440381"><ele>20.0</ele><time>2026-04-17T16:57:45.042Z</time></trkpt><trkpt lat="45.0738146" lon="10.9442138"><ele>20.0</ele><time>2026-04-17T16:57:46.042Z</time></trkpt><trkpt lat="45.073741" lon="10.944359"><ele>20.0</ele><time>2026-04-17T16:57:47.043Z</time></trkpt><trkpt lat="45.0736646" lon="10.9444824"><ele>19.833333333333336</ele><time>2026-04-17T16:57:48.043Z</time></trkpt><trkpt lat="45.0735908" lon="10.9445846"><ele>19.666666666666668</ele><time>2026-04-17T16:57:49.043Z</time></trkpt><trkpt lat="45.0735266" lon="10.944669"><ele>19.5</ele><time>2026-04-17T16:57:50.042Z</time></trkpt><trkpt lat="45.0734706" lon="10.9447432"><ele>19.333333333333332</ele><time>2026-04-17T16:57:51.042Z</time></trkpt><trkpt lat="45.0734207" lon="10.9448039"><ele>19.166666666666664</ele><time>2026-04-17T16:57:52.042Z</time></trkpt><trkpt lat="45.0733154" lon="10.9448732"><ele>19.0</ele><time>2026-04-17T16:57:54.042Z</time></trkpt><trkpt lat="45.0732462" lon="10.9449687"><ele>18.8</ele><time>2026-04-17T16:57:56.042Z</time></trkpt><trkpt lat="45.0732823" lon="10.9451019"><ele>18.599999999999998</ele><time>2026-04-17T16:57:58.041Z</time></trkpt><trkpt lat="45.0733392" lon="10.9451571"><ele>18.4</ele><time>2026-04-17T16:57:59.041Z</time></trkpt><trkpt lat="45.0734195" lon="10.9452212"><ele>18.2</ele><time>2026-04-17T16:58:00.042Z</time></trkpt><trkpt lat="45.0735114" lon="10.9452965"><ele>18.0</ele><time>2026-04-17T16:58:01.042Z</time></trkpt><trkpt lat="45.0736097" lon="10.9453762"><ele>18.0</ele><time>2026-04-17T16:58:02.043Z</time></trkpt><trkpt lat="45.0737311" lon="10.9454687"><ele>18.0</ele><time>2026-04-17T16:58:03.041Z</time></trkpt><trkpt lat="45.0738581" lon="10.9455644"><ele>18.0</ele><time>2026-04-17T16:58:04.042Z</time></trkpt><trkpt lat="45.0739921" lon="10.9456644"><ele>18.0</ele><time>2026-04-17T16:58:05.042Z</time></trkpt><trkpt lat="45.0741306" lon="10.9457739"><ele>18.25</ele><time>2026-04-17T16:58:06.042Z</time></trkpt><trkpt lat="45.0742663" lon="10.9458769"><ele>18.5</ele><time>2026-04-17T16:58:07.042Z</time></trkpt><trkpt lat="45.0743927" lon="10.9459754"><ele>18.75</ele><time>2026-04-17T16:58:08.042Z</time></trkpt><trkpt lat="45.0745138" lon="10.9460594"><ele>19.0</ele><time>2026-04-17T16:58:09.042Z</time></trkpt><trkpt lat="45.0746338" lon="10.9461297"><ele>19.0</ele><time>2026-04-17T16:58:10.042Z</time></trkpt><trkpt lat="45.0747562" lon="10.9461872"><ele>19.0</ele><time>2026-04-17T16:58:11.041Z</time></trkpt><trkpt lat="45.0748849" lon="10.9462349"><ele>19.0</ele><time>2026-04-17T16:58:12.042Z</time></trkpt><trkpt lat="45.0750216" lon="10.9462682"><ele>19.0</ele><time>2026-04-17T16:58:13.041Z</time></trkpt><trkpt lat="45.0751609" lon="10.9462806"><ele>18.5</ele><time>2026-04-17T16:58:14.043Z</time></trkpt><trkpt lat="45.0753002" lon="10.9462827"><ele>18.0</ele><time>2026-04-17T16:58:15.042Z</time></trkpt><trkpt lat="45.0754401" lon="10.9462776"><ele>17.5</ele><time>2026-04-17T16:58:16.043Z</time></trkpt><trkpt lat="45.0755748" lon="10.9462671"><ele>17.0</ele><time>2026-04-17T16:58:17.042Z</time></trkpt><trkpt lat="45.0757097" lon="10.9462575"><ele>17.0</ele><time>2026-04-17T16:58:18.042Z</time></trkpt><trkpt lat="45.0758406" lon="10.946252"><ele>17.0</ele><time>2026-04-17T16:58:19.042Z</time></trkpt><trkpt lat="45.0759704" lon="10.94625"><ele>17.0</ele><time>2026-04-17T16:58:20.043Z</time></trkpt><trkpt lat="45.0761013" lon="10.9462594"><ele>17.0</ele><time>2026-04-17T16:58:21.042Z</time></trkpt><trkpt lat="45.0762289" lon="10.946287"><ele>17.0</ele><time>2026-04-17T16:58:22.042Z</time></trkpt><trkpt lat="45.076357" lon="10.9463491"><ele>17.0</ele><time>2026-04-17T16:58:23.042Z</time></trkpt><trkpt lat="45.0764813" lon="10.9464334"><ele>17.0</ele><time>2026-04-17T16:58:24.042Z</time></trkpt><trkpt lat="45.0766016" lon="10.9465431"><ele>17.0</ele><time>2026-04-17T16:58:25.042Z</time></trkpt><trkpt lat="45.0767048" lon="10.9466866"><ele>17.0</ele><time>2026-04-17T16:58:26.041Z</time></trkpt><trkpt lat="45.0768036" lon="10.9468346"><ele>17.0</ele><time>2026-04-17T16:58:27.042Z</time></trkpt><trkpt lat="45.0769124" lon="10.9469781"><ele>17.0</ele><time>2026-04-17T16:58:28.042Z</time></trkpt><trkpt lat="45.0770355" lon="10.947104"><ele>17.0</ele><time>2026-04-17T16:58:29.041Z</time></trkpt><trkpt lat="45.0771754" lon="10.9472185"><ele>17.0</ele><time>2026-04-17T16:58:30.043Z</time></trkpt><trkpt lat="45.0773287" lon="10.947331"><ele>17.0</ele><time>2026-04-17T16:58:31.042Z</time></trkpt><trkpt lat="45.0774857" lon="10.9474416"><ele>17.0</ele><time>2026-04-17T16:58:32.042Z</time></trkpt><trkpt lat="45.0776531" lon="10.9475548"><ele>17.666666666666668</ele><time>2026-04-17T16:58:33.04Z</time></trkpt><trkpt lat="45.0778229" lon="10.9476786"><ele>18.333333333333332</ele><time>2026-04-17T16:58:34.041Z</time></trkpt><trkpt lat="45.0779909" lon="10.9478067"><ele>19.0</ele><time>2026-04-17T16:58:35.042Z</time></trkpt><trkpt lat="45.0781618" lon="10.9479411"><ele>18.333333333333332</ele><time>2026-04-17T16:58:36.042Z</time></trkpt><trkpt lat="45.0783336" lon="10.948081"><ele>17.666666666666668</ele><time>2026-04-17T16:58:37.041Z</time></trkpt><trkpt lat="45.078505" lon="10.9482303"><ele>17.0</ele><time>2026-04-17T16:58:38.042Z</time></trkpt><trkpt lat="45.0786748" lon="10.9483916"><ele>17.0</ele><time>2026-04-17T16:58:39.042Z</time></trkpt><trkpt lat="45.0788459" lon="10.9485584"><ele>17.0</ele><time>2026-04-17T16:58:40.043Z</time></trkpt><trkpt lat="45.0790219" lon="10.948722"><ele>17.0</ele><time>2026-04-17T16:58:41.042Z</time></trkpt><trkpt lat="45.0791923" lon="10.9488826"><ele>16.333333333333336</ele><time>2026-04-17T16:58:42.042Z</time></trkpt><trkpt lat="45.0793602" lon="10.9490458"><ele>15.666666666666668</ele><time>2026-04-17T16:58:43.042Z</time></trkpt><trkpt lat="45.0795238" lon="10.9492005"><ele>15.0</ele><time>2026-04-17T16:58:44.042Z</time></trkpt><trkpt lat="45.0796932" lon="10.9493523"><ele>15.0</ele><time>2026-04-17T16:58:45.042Z</time></trkpt><trkpt lat="45.0798587" lon="10.949499"><ele>15.0</ele><time>2026-04-17T16:58:46.042Z</time></trkpt><trkpt lat="45.0800281" lon="10.9496482"><ele>15.0</ele><time>2026-04-17T16:58:47.041Z</time></trkpt><trkpt lat="45.0801952" lon="10.949789"><ele>14.666666666666668</ele><time>2026-04-17T16:58:48.042Z</time></trkpt><trkpt lat="45.0803613" lon="10.9499327"><ele>14.333333333333334</ele><time>2026-04-17T16:58:49.041Z</time></trkpt><trkpt lat="45.0805285" lon="10.9500719"><ele>14.0</ele><time>2026-04-17T16:58:50.042Z</time></trkpt><trkpt lat="45.0806843" lon="10.9502106"><ele>14.666666666666668</ele><time>2026-04-17T16:58:51.042Z</time></trkpt><trkpt lat="45.0808296" lon="10.9503465"><ele>15.333333333333332</ele><time>2026-04-17T16:58:52.042Z</time></trkpt><trkpt lat="45.0809695" lon="10.9504768"><ele>16.0</ele><time>2026-04-17T16:58:53.041Z</time></trkpt><trkpt lat="45.0811011" lon="10.9506037"><ele>16.0</ele><time>2026-04-17T16:58:54.042Z</time></trkpt><trkpt lat="45.0812237" lon="10.9507339"><ele>16.0</ele><time>2026-04-17T16:58:55.043Z</time></trkpt><trkpt lat="45.0813426" lon="10.9508678"><ele>16.0</ele><time>2026-04-17T16:58:56.041Z</time></trkpt><trkpt lat="45.0814611" lon="10.9510033"><ele>16.333333333333332</ele><time>2026-04-17T16:58:57.042Z</time></trkpt><trkpt lat="45.0815811" lon="10.9511228"><ele>16.666666666666668</ele><time>2026-04-17T16:58:58.042Z</time></trkpt><trkpt lat="45.0817137" lon="10.9512239"><ele>17.0</ele><time>2026-04-17T16:58:59.042Z</time></trkpt><trkpt lat="45.081868" lon="10.9512829"><ele>16.333333333333336</ele><time>2026-04-17T16:59:00.042Z</time></trkpt><trkpt lat="45.0820333" lon="10.9513114"><ele>15.666666666666668</ele><time>2026-04-17T16:59:01.042Z</time></trkpt><trkpt lat="45.0822129" lon="10.9513152"><ele>15.0</ele><time>2026-04-17T16:59:02.042Z</time></trkpt><trkpt lat="45.0823982" lon="10.9513165"><ele>14.666666666666668</ele><time>2026-04-17T16:59:03.042Z</time></trkpt><trkpt lat="45.08259" lon="10.9513134"><ele>14.333333333333334</ele><time>2026-04-17T16:59:04.042Z</time></trkpt><trkpt lat="45.0827864" lon="10.9513093"><ele>14.0</ele><time>2026-04-17T16:59:05.042Z</time></trkpt><trkpt lat="45.0829846" lon="10.9513079"><ele>14.0</ele><time>2026-04-17T16:59:06.042Z</time></trkpt><trkpt lat="45.0831797" lon="10.9513082"><ele>14.0</ele><time>2026-04-17T16:59:07.043Z</time></trkpt><trkpt lat="45.0833632" lon="10.9513105"><ele>14.0</ele><time>2026-04-17T16:59:08.042Z</time></trkpt><trkpt lat="45.0835364" lon="10.9513116"><ele>14.25</ele><time>2026-04-17T16:59:09.042Z</time></trkpt><trkpt lat="45.083691" lon="10.9513209"><ele>14.5</ele><time>2026-04-17T16:59:10.042Z</time></trkpt><trkpt lat="45.0838243" lon="10.9513431"><ele>14.75</ele><time>2026-04-17T16:59:11.042Z</time></trkpt><trkpt lat="45.0839378" lon="10.951401"><ele>15.0</ele><time>2026-04-17T16:59:12.043Z</time></trkpt><trkpt lat="45.084046" lon="10.9514871"><ele>15.0</ele><time>2026-04-17T16:59:13.042Z</time></trkpt><trkpt lat="45.0841525" lon="10.9515851"><ele>15.0</ele><time>2026-04-17T16:59:14.041Z</time></trkpt><trkpt lat="45.0842478" lon="10.9516996"><ele>15.0</ele><time>2026-04-17T16:59:15.042Z</time></trkpt><trkpt lat="45.0843284" lon="10.9518291"><ele>15.0</ele><time>2026-04-17T16:59:16.043Z</time></trkpt><trkpt lat="45.0843925" lon="10.9519597"><ele>14.833333333333334</ele><time>2026-04-17T16:59:17.042Z</time></trkpt><trkpt lat="45.0844405" lon="10.952079"><ele>14.666666666666668</ele><time>2026-04-17T16:59:18.042Z</time></trkpt><trkpt lat="45.0844748" lon="10.9521818"><ele>14.5</ele><time>2026-04-17T16:59:19.042Z</time></trkpt><trkpt lat="45.0844988" lon="10.9522756"><ele>14.333333333333334</ele><time>2026-04-17T16:59:20.042Z</time></trkpt><trkpt lat="45.0845181" lon="10.9523809"><ele>14.166666666666668</ele><time>2026-04-17T16:59:22.041Z</time></trkpt><trkpt lat="45.0845278" lon="10.9525348"><ele>14.0</ele><time>2026-04-17T16:59:26.042Z</time></trkpt><trkpt lat="45.0845378" lon="10.9526937"><ele>14.000000000000002</ele><time>2026-04-17T16:59:28.041Z</time></trkpt><trkpt lat="45.0845458" lon="10.9528021"><ele>14.0</ele><time>2026-04-17T16:59:29.042Z</time></trkpt><trkpt lat="45.0845541" lon="10.952927"><ele>14.0</ele><time>2026-04-17T16:59:30.043Z</time></trkpt><trkpt lat="45.0845626" lon="10.9530608"><ele>14.0</ele><time>2026-04-17T16:59:31.042Z</time></trkpt><trkpt lat="45.0845747" lon="10.9531827"><ele>14.000000000000002</ele><time>2026-04-17T16:59:32.042Z</time></trkpt><trkpt lat="45.0845856" lon="10.9533027"><ele>14.0</ele><time>2026-04-17T16:59:33.042Z</time></trkpt><trkpt lat="45.084597" lon="10.9534316"><ele>14.000000000000002</ele><time>2026-04-17T16:59:34.042Z</time></trkpt><trkpt lat="45.084607" lon="10.9535555"><ele>14.0</ele><time>2026-04-17T16:59:35.042Z</time></trkpt><trkpt lat="45.0846207" lon="10.9536771"><ele>14.0</ele><time>2026-04-17T16:59:36.041Z</time></trkpt><trkpt lat="45.0846333" lon="10.9537992"><ele>14.0</ele><time>2026-04-17T16:59:37.042Z</time></trkpt><trkpt lat="45.0846577" lon="10.9539177"><ele>14.000000000000002</ele><time>2026-04-17T16:59:38.043Z</time></trkpt><trkpt lat="45.0847097" lon="10.9539962"><ele>14.0</ele><time>2026-04-17T16:59:39.043Z</time></trkpt><trkpt lat="45.0847887" lon="10.9540282"><ele>14.0</ele><time>2026-04-17T16:59:40.041Z</time></trkpt><trkpt lat="45.0848852" lon="10.9540272"><ele>14.0</ele><time>2026-04-17T16:59:41.042Z</time></trkpt><trkpt lat="45.0849952" lon="10.9540106"><ele>14.0</ele><time>2026-04-17T16:59:42.041Z</time></trkpt><trkpt lat="45.0851197" lon="10.9539905"><ele>14.0</ele><time>2026-04-17T16:59:43.042Z</time></trkpt><trkpt lat="45.0852413" lon="10.9539669"><ele>14.399999999999999</ele><time>2026-04-17T16:59:44.042Z</time></trkpt><trkpt lat="45.0853554" lon="10.9539423"><ele>14.799999999999999</ele><time>2026-04-17T16:59:45.041Z</time></trkpt><trkpt lat="45.0854559" lon="10.9539233"><ele>15.200000000000001</ele><time>2026-04-17T16:59:46.042Z</time></trkpt><trkpt lat="45.0855366" lon="10.9539135"><ele>15.600000000000001</ele><time>2026-04-17T16:59:47.042Z</time></trkpt><trkpt lat="45.0856018" lon="10.9539348"><ele>16.0</ele><time>2026-04-17T16:59:48.041Z</time></trkpt><trkpt lat="45.0856639" lon="10.9540848"><ele>16.333333333333332</ele><time>2026-04-17T16:59:50.042Z</time></trkpt><trkpt lat="45.0856625" lon="10.9542131"><ele>16.666666666666664</ele><time>2026-04-17T16:59:51.043Z</time></trkpt><trkpt lat="45.0856707" lon="10.9543389"><ele>17.0</ele><time>2026-04-17T16:59:52.042Z</time></trkpt><trkpt lat="45.08568" lon="10.9544707"><ele>17.333333333333332</ele><time>2026-04-17T16:59:53.042Z</time></trkpt><trkpt lat="45.0856918" lon="10.9545965"><ele>17.666666666666668</ele><time>2026-04-17T16:59:54.042Z</time></trkpt><trkpt lat="45.0857048" lon="10.9546994"><ele>18.0</ele><time>2026-04-17T16:59:55.042Z</time></trkpt><trkpt lat="45.085792" lon="10.954821"><ele>18.0</ele><time>2026-04-17T16:59:57.041Z</time></trkpt><trkpt lat="45.085867" lon="10.9548393"><ele>18.0</ele><time>2026-04-17T16:59:58.042Z</time></trkpt><trkpt lat="45.0859573" lon="10.9548693"><ele>18.0</ele><time>2026-04-17T16:59:59.042Z</time></trkpt><trkpt lat="45.0860643" lon="10.9549088"><ele>18.0</ele><time>2026-04-17T17:00:00.043Z</time></trkpt><trkpt lat="45.0861787" lon="10.9549716"><ele>18.0</ele><time>2026-04-17T17:00:01.043Z</time></trkpt><trkpt lat="45.0862999" lon="10.955056"><ele>18.25</ele><time>2026-04-17T17:00:02.042Z</time></trkpt><trkpt lat="45.0864176" lon="10.9551397"><ele>18.5</ele><time>2026-04-17T17:00:03.042Z</time></trkpt><trkpt lat="45.086528" lon="10.9552254"><ele>18.75</ele><time>2026-04-17T17:00:04.042Z</time></trkpt><trkpt lat="45.0866248" lon="10.9553257"><ele>19.0</ele><time>2026-04-17T17:00:05.042Z</time></trkpt><trkpt lat="45.0867092" lon="10.955446"><ele>19.0</ele><time>2026-04-17T17:00:06.042Z</time></trkpt><trkpt lat="45.0867754" lon="10.9555824"><ele>19.0</ele><time>2026-04-17T17:00:07.042Z</time></trkpt><trkpt lat="45.0868363" lon="10.9557318"><ele>19.0</ele><time>2026-04-17T17:00:08.042Z</time></trkpt><trkpt lat="45.0868984" lon="10.9558853"><ele>19.0</ele><time>2026-04-17T17:00:09.041Z</time></trkpt><trkpt lat="45.0869584" lon="10.9560361"><ele>19.2</ele><time>2026-04-17T17:00:10.042Z</time></trkpt><trkpt lat="45.0870157" lon="10.9561711"><ele>19.4</ele><time>2026-04-17T17:00:11.041Z</time></trkpt><trkpt lat="45.087069" lon="10.9562915"><ele>19.6</ele><time>2026-04-17T17:00:12.042Z</time></trkpt><trkpt lat="45.0871141" lon="10.9563873"><ele>19.8</ele><time>2026-04-17T17:00:13.042Z</time></trkpt><trkpt lat="45.0871602" lon="10.9564621"><ele>20.0</ele><time>2026-04-17T17:00:14.042Z</time></trkpt><trkpt lat="45.0872853" lon="10.9564918"><ele>20.0</ele><time>2026-04-17T17:00:16.042Z</time></trkpt><trkpt lat="45.0873566" lon="10.9564362"><ele>20.0</ele><time>2026-04-17T17:00:17.043Z</time></trkpt><trkpt lat="45.0874235" lon="10.9563443"><ele>20.0</ele><time>2026-04-17T17:00:18.041Z</time></trkpt><trkpt lat="45.0874902" lon="10.9562254"><ele>20.0</ele><time>2026-04-17T17:00:19.043Z</time></trkpt><trkpt lat="45.0875526" lon="10.956074"><ele>20.0</ele><time>2026-04-17T17:00:20.042Z</time></trkpt><trkpt lat="45.0876123" lon="10.9559055"><ele>19.0</ele><time>2026-04-17T17:00:21.042Z</time></trkpt><trkpt lat="45.0876713" lon="10.9557315"><ele>18.0</ele><time>2026-04-17T17:00:22.041Z</time></trkpt><trkpt lat="45.0877286" lon="10.9555334"><ele>17.0</ele><time>2026-04-17T17:00:23.041Z</time></trkpt><trkpt lat="45.0877987" lon="10.9553384"><ele>16.0</ele><time>2026-04-17T17:00:24.041Z</time></trkpt><trkpt lat="45.0878736" lon="10.9551414"><ele>15.0</ele><time>2026-04-17T17:00:25.043Z</time></trkpt><trkpt lat="45.0879599" lon="10.9549484"><ele>14.0</ele><time>2026-04-17T17:00:26.042Z</time></trkpt><trkpt lat="45.0880576" lon="10.9547652"><ele>13.0</ele><time>2026-04-17T17:00:27.042Z</time></trkpt><trkpt lat="45.0881593" lon="10.9545755"><ele>13.666666666666666</ele><time>2026-04-17T17:00:28.042Z</time></trkpt><trkpt lat="45.0882669" lon="10.9543902"><ele>14.333333333333332</ele><time>2026-04-17T17:00:29.042Z</time></trkpt><trkpt lat="45.0883809" lon="10.9542051"><ele>15.0</ele><time>2026-04-17T17:00:30.041Z</time></trkpt><trkpt lat="45.0884932" lon="10.9540166"><ele>15.333333333333332</ele><time>2026-04-17T17:00:31.042Z</time></trkpt><trkpt lat="45.0886074" lon="10.9538249"><ele>15.666666666666666</ele><time>2026-04-17T17:00:32.042Z</time></trkpt><trkpt lat="45.0887217" lon="10.9536362"><ele>16.0</ele><time>2026-04-17T17:00:33.042Z</time></trkpt><trkpt lat="45.088839" lon="10.9534476"><ele>16.0</ele><time>2026-04-17T17:00:34.042Z</time></trkpt><trkpt lat="45.0889533" lon="10.9532642"><ele>16.0</ele><time>2026-04-17T17:00:35.042Z</time></trkpt><trkpt lat="45.0890572" lon="10.9530876"><ele>16.0</ele><time>2026-04-17T17:00:36.043Z</time></trkpt><trkpt lat="45.0891562" lon="10.9529062"><ele>16.0</ele><time>2026-04-17T17:00:37.043Z</time></trkpt><trkpt lat="45.0892478" lon="10.9527066"><ele>16.0</ele><time>2026-04-17T17:00:38.042Z</time></trkpt><trkpt lat="45.0893342" lon="10.9524984"><ele>16.0</ele><time>2026-04-17T17:00:39.042Z</time></trkpt><trkpt lat="45.0894309" lon="10.9522809"><ele>16.0</ele><time>2026-04-17T17:00:40.04Z</time></trkpt><trkpt lat="45.0895246" lon="10.9520628"><ele>16.0</ele><time>2026-04-17T17:00:41.041Z</time></trkpt><trkpt lat="45.0896168" lon="10.9518562"><ele>16.0</ele><time>2026-04-17T17:00:42.04Z</time></trkpt><trkpt lat="45.0897064" lon="10.9516511"><ele>16.0</ele><time>2026-04-17T17:00:43.042Z</time></trkpt><trkpt lat="45.089793" lon="10.9514385"><ele>16.0</ele><time>2026-04-17T17:00:44.041Z</time></trkpt><trkpt lat="45.0898846" lon="10.9512261"><ele>16.0</ele><time>2026-04-17T17:00:45.041Z</time></trkpt><trkpt lat="45.0899691" lon="10.9510162"><ele>15.666666666666666</ele><time>2026-04-17T17:00:46.042Z</time></trkpt><trkpt lat="45.0900512" lon="10.9508206"><ele>15.333333333333332</ele><time>2026-04-17T17:00:47.042Z</time></trkpt><trkpt lat="45.090129" lon="10.9506316"><ele>15.0</ele><time>2026-04-17T17:00:48.041Z</time></trkpt><trkpt lat="45.0902077" lon="10.9504471"><ele>15.0</ele><time>2026-04-17T17:00:49.042Z</time></trkpt><trkpt lat="45.0902877" lon="10.9502702"><ele>15.0</ele><time>2026-04-17T17:00:50.042Z</time></trkpt><trkpt lat="45.0903642" lon="10.9500988"><ele>15.0</ele><time>2026-04-17T17:00:51.042Z</time></trkpt><trkpt lat="45.0904343" lon="10.9499285"><ele>15.0</ele><time>2026-04-17T17:00:52.042Z</time></trkpt><trkpt lat="45.0905061" lon="10.9497663"><ele>15.0</ele><time>2026-04-17T17:00:53.043Z</time></trkpt><trkpt lat="45.0905757" lon="10.94962"><ele>15.0</ele><time>2026-04-17T17:00:54.042Z</time></trkpt><trkpt lat="45.0906417" lon="10.9494893"><ele>15.0</ele><time>2026-04-17T17:00:55.042Z</time></trkpt><trkpt lat="45.0907065" lon="10.9493713"><ele>15.0</ele><time>2026-04-17T17:00:56.042Z</time></trkpt><trkpt lat="45.0907666" lon="10.9492758"><ele>15.0</ele><time>2026-04-17T17:00:57.042Z</time></trkpt><trkpt lat="45.0908209" lon="10.9491901"><ele>15.0</ele><time>2026-04-17T17:00:58.043Z</time></trkpt><trkpt lat="45.0909019" lon="10.9490894"><ele>15.0</ele><time>2026-04-17T17:01:00.041Z</time></trkpt><trkpt lat="45.0909605" lon="10.9490533"><ele>15.0</ele><time>2026-04-17T17:01:03.043Z</time></trkpt><trkpt lat="45.0910219" lon="10.94916"><ele>15.0</ele><time>2026-04-17T17:01:13.043Z</time></trkpt><trkpt lat="45.0910599" lon="10.9492418"><ele>15.0</ele><time>2026-04-17T17:01:14.04Z</time></trkpt><trkpt lat="45.0911064" lon="10.949351"><ele>15.0</ele><time>2026-04-17T17:01:15.041Z</time></trkpt><trkpt lat="45.0911594" lon="10.9494805"><ele>15.25</ele><time>2026-04-17T17:01:16.043Z</time></trkpt><trkpt lat="45.0912201" lon="10.9496294"><ele>15.5</ele><time>2026-04-17T17:01:17.043Z</time></trkpt><trkpt lat="45.0912868" lon="10.9497983"><ele>15.75</ele><time>2026-04-17T17:01:18.041Z</time></trkpt><trkpt lat="45.0913552" lon="10.9499761"><ele>16.0</ele><time>2026-04-17T17:01:19.041Z</time></trkpt><trkpt lat="45.0914307" lon="10.9501682"><ele>16.0</ele><time>2026-04-17T17:01:20.043Z</time></trkpt><trkpt lat="45.0915117" lon="10.950363"><ele>16.0</ele><time>2026-04-17T17:01:21.042Z</time></trkpt><trkpt lat="45.0915932" lon="10.9505477"><ele>16.0</ele><time>2026-04-17T17:01:22.041Z</time></trkpt><trkpt lat="45.0916709" lon="10.950733"><ele>15.75</ele><time>2026-04-17T17:01:23.042Z</time></trkpt><trkpt lat="45.0917351" lon="10.9509086"><ele>15.5</ele><time>2026-04-17T17:01:24.042Z</time></trkpt><trkpt lat="45.0917993" lon="10.9510786"><ele>15.25</ele><time>2026-04-17T17:01:25.043Z</time></trkpt><trkpt lat="45.0918589" lon="10.9512467"><ele>15.0</ele><time>2026-04-17T17:01:26.042Z</time></trkpt><trkpt lat="45.0919186" lon="10.9514092"><ele>15.0</ele><time>2026-04-17T17:01:27.043Z</time></trkpt><trkpt lat="45.0919883" lon="10.9515732"><ele>15.0</ele><time>2026-04-17T17:01:28.042Z</time></trkpt><trkpt lat="45.0920508" lon="10.9517359"><ele>15.0</ele><time>2026-04-17T17:01:29.042Z</time></trkpt><trkpt lat="45.0921128" lon="10.9518933"><ele>15.0</ele><time>2026-04-17T17:01:30.043Z</time></trkpt><trkpt lat="45.0921717" lon="10.9520419"><ele>15.2</ele><time>2026-04-17T17:01:31.041Z</time></trkpt><trkpt lat="45.0922261" lon="10.9521759"><ele>15.4</ele><time>2026-04-17T17:01:32.043Z</time></trkpt><trkpt lat="45.0922666" lon="10.9523065"><ele>15.600000000000001</ele><time>2026-04-17T17:01:33.042Z</time></trkpt><trkpt lat="45.0922902" lon="10.9524279"><ele>15.8</ele><time>2026-04-17T17:01:34.042Z</time></trkpt><trkpt lat="45.0923061" lon="10.9525496"><ele>16.0</ele><time>2026-04-17T17:01:35.043Z</time></trkpt><trkpt lat="45.0923096" lon="10.952688"><ele>16.2</ele><time>2026-04-17T17:01:36.043Z</time></trkpt><trkpt lat="45.09232" lon="10.9528157"><ele>16.400000000000002</ele><time>2026-04-17T17:01:37.043Z</time></trkpt><trkpt lat="45.0923528" lon="10.9529446"><ele>16.6</ele><time>2026-04-17T17:01:38.043Z</time></trkpt><trkpt lat="45.0924083" lon="10.9530507"><ele>16.8</ele><time>2026-04-17T17:01:39.041Z</time></trkpt><trkpt lat="45.0924759" lon="10.9531377"><ele>17.0</ele><time>2026-04-17T17:01:40.042Z</time></trkpt><trkpt lat="45.0925756" lon="10.9531481"><ele>16.6</ele><time>2026-04-17T17:01:41.043Z</time></trkpt><trkpt lat="45.0926723" lon="10.9531219"><ele>16.2</ele><time>2026-04-17T17:01:42.042Z</time></trkpt><trkpt lat="45.0927543" lon="10.9530381"><ele>15.8</ele><time>2026-04-17T17:01:43.042Z</time></trkpt><trkpt lat="45.0928069" lon="10.9529057"><ele>15.4</ele><time>2026-04-17T17:01:44.041Z</time></trkpt><trkpt lat="45.0928192" lon="10.9527456"><ele>15.0</ele><time>2026-04-17T17:01:45.041Z</time></trkpt><trkpt lat="45.0928193" lon="10.9525736"><ele>14.75</ele><time>2026-04-17T17:01:46.043Z</time></trkpt><trkpt lat="45.0928471" lon="10.9523999"><ele>14.5</ele><time>2026-04-17T17:01:47.042Z</time></trkpt><trkpt lat="45.0928882" lon="10.9522321"><ele>14.25</ele><time>2026-04-17T17:01:48.041Z</time></trkpt><trkpt lat="45.0929677" lon="10.9520716"><ele>14.0</ele><time>2026-04-17T17:01:49.041Z</time></trkpt><trkpt lat="45.093046" lon="10.9519251"><ele>14.0</ele><time>2026-04-17T17:01:50.042Z</time></trkpt><trkpt lat="45.0931281" lon="10.9517844"><ele>14.0</ele><time>2026-04-17T17:01:51.042Z</time></trkpt><trkpt lat="45.0932133" lon="10.9516444"><ele>14.0</ele><time>2026-04-17T17:01:52.042Z</time></trkpt><trkpt lat="45.0933009" lon="10.951502"><ele>14.0</ele><time>2026-04-17T17:01:53.042Z</time></trkpt><trkpt lat="45.0933951" lon="10.9513554"><ele>13.75</ele><time>2026-04-17T17:01:54.042Z</time></trkpt><trkpt lat="45.0934867" lon="10.951206"><ele>13.5</ele><time>2026-04-17T17:01:55.041Z</time></trkpt><trkpt lat="45.0935837" lon="10.95106"><ele>13.25</ele><time>2026-04-17T17:01:56.041Z</time></trkpt><trkpt lat="45.0936789" lon="10.9509082"><ele>13.0</ele><time>2026-04-17T17:01:57.042Z</time></trkpt><trkpt lat="45.0937734" lon="10.9507589"><ele>13.5</ele><time>2026-04-17T17:01:58.042Z</time></trkpt><trkpt lat="45.0938667" lon="10.9506115"><ele>14.0</ele><time>2026-04-17T17:01:59.043Z</time></trkpt><trkpt lat="45.0939563" lon="10.950467"><ele>14.5</ele><time>2026-04-17T17:02:00.043Z</time></trkpt><trkpt lat="45.094052" lon="10.950319"><ele>15.0</ele><time>2026-04-17T17:02:01.042Z</time></trkpt><trkpt lat="45.0941504" lon="10.9501721"><ele>15.25</ele><time>2026-04-17T17:02:02.041Z</time></trkpt><trkpt lat="45.0942459" lon="10.9500224"><ele>15.5</ele><time>2026-04-17T17:02:03.043Z</time></trkpt><trkpt lat="45.0943297" lon="10.949893"><ele>15.75</ele><time>2026-04-17T17:02:04.043Z</time></trkpt><trkpt lat="45.0944014" lon="10.9497831"><ele>16.0</ele><time>2026-04-17T17:02:05.042Z</time></trkpt><trkpt lat="45.0944659" lon="10.9496827"><ele>15.999999999999998</ele><time>2026-04-17T17:02:06.043Z</time></trkpt><trkpt lat="45.0945182" lon="10.9495978"><ele>16.0</ele><time>2026-04-17T17:02:07.042Z</time></trkpt><trkpt lat="45.0945912" lon="10.9494819"><ele>16.0</ele><time>2026-04-17T17:02:09.042Z</time></trkpt><trkpt lat="45.0946569" lon="10.949378"><ele>16.0</ele><time>2026-04-17T17:02:11.041Z</time></trkpt><trkpt lat="45.0947047" lon="10.9493066"><ele>15.999999999999998</ele><time>2026-04-17T17:02:12.042Z</time></trkpt><trkpt lat="45.0947584" lon="10.9492269"><ele>16.0</ele><time>2026-04-17T17:02:13.041Z</time></trkpt><trkpt lat="45.0948129" lon="10.9491343"><ele>16.0</ele><time>2026-04-17T17:02:14.042Z</time></trkpt><trkpt lat="45.0948751" lon="10.9490313"><ele>16.0</ele><time>2026-04-17T17:02:15.042Z</time></trkpt><trkpt lat="45.0949431" lon="10.9489261"><ele>16.0</ele><time>2026-04-17T17:02:16.043Z</time></trkpt><trkpt lat="45.0950121" lon="10.9488206"><ele>16.0</ele><time>2026-04-17T17:02:17.043Z</time></trkpt><trkpt lat="45.0950842" lon="10.9487053"><ele>16.0</ele><time>2026-04-17T17:02:18.042Z</time></trkpt><trkpt lat="45.0951638" lon="10.9485809"><ele>15.75</ele><time>2026-04-17T17:02:19.041Z</time></trkpt><trkpt lat="45.0952484" lon="10.9484567"><ele>15.5</ele><time>2026-04-17T17:02:20.043Z</time></trkpt><trkpt lat="45.0953388" lon="10.9483174"><ele>15.25</ele><time>2026-04-17T17:02:21.041Z</time></trkpt><trkpt lat="45.095432" lon="10.9481698"><ele>15.0</ele><time>2026-04-17T17:02:22.041Z</time></trkpt><trkpt lat="45.0955313" lon="10.9480143"><ele>15.0</ele><time>2026-04-17T17:02:23.042Z</time></trkpt><trkpt lat="45.0956318" lon="10.9478552"><ele>15.0</ele><time>2026-04-17T17:02:24.042Z</time></trkpt><trkpt lat="45.0957354" lon="10.947689"><ele>15.0</ele><time>2026-04-17T17:02:25.042Z</time></trkpt><trkpt lat="45.0958404" lon="10.9475282"><ele>15.0</ele><time>2026-04-17T17:02:26.042Z</time></trkpt><trkpt lat="45.0959393" lon="10.9473671"><ele>15.0</ele><time>2026-04-17T17:02:27.042Z</time></trkpt><trkpt lat="45.0960398" lon="10.9472163"><ele>15.0</ele><time>2026-04-17T17:02:28.042Z</time></trkpt><trkpt lat="45.0961244" lon="10.9470833"><ele>15.0</ele><time>2026-04-17T17:02:29.043Z</time></trkpt><trkpt lat="45.0962039" lon="10.9469566"><ele>15.0</ele><time>2026-04-17T17:02:30.041Z</time></trkpt><trkpt lat="45.0962773" lon="10.9468376"><ele>15.0</ele><time>2026-04-17T17:02:31.042Z</time></trkpt><trkpt lat="45.0963469" lon="10.9467302"><ele>15.0</ele><time>2026-04-17T17:02:32.041Z</time></trkpt><trkpt lat="45.0963898" lon="10.9466614"><ele>15.0</ele><time>2026-04-17T17:02:33.041Z</time></trkpt><trkpt lat="45.0964489" lon="10.9465724"><ele>15.0</ele><time>2026-04-17T17:02:35.043Z</time></trkpt><trkpt lat="45.0964508" lon="10.9464283"><ele>15.0</ele><time>2026-04-17T17:02:43.042Z</time></trkpt><trkpt lat="45.096441" lon="10.9462976"><ele>15.0</ele><time>2026-04-17T17:02:45.043Z</time></trkpt><trkpt lat="45.0964416" lon="10.946109"><ele>15.0</ele><time>2026-04-17T17:02:47.042Z</time></trkpt><trkpt lat="45.0964424" lon="10.9459971"><ele>15.0</ele><time>2026-04-17T17:02:48.042Z</time></trkpt><trkpt lat="45.0964484" lon="10.9458786"><ele>15.0</ele><time>2026-04-17T17:02:49.042Z</time></trkpt><trkpt lat="45.0964525" lon="10.9457522"><ele>15.0</ele><time>2026-04-17T17:02:50.042Z</time></trkpt><trkpt lat="45.0964557" lon="10.9456189"><ele>15.0</ele><time>2026-04-17T17:02:51.041Z</time></trkpt><trkpt lat="45.0964591" lon="10.945482"><ele>15.0</ele><time>2026-04-17T17:02:52.042Z</time></trkpt><trkpt lat="45.0964667" lon="10.9453381"><ele>15.0</ele><time>2026-04-17T17:02:53.042Z</time></trkpt><trkpt lat="45.096475" lon="10.9451918"><ele>15.0</ele><time>2026-04-17T17:02:54.041Z</time></trkpt><trkpt lat="45.0964837" lon="10.945046"><ele>15.0</ele><time>2026-04-17T17:02:55.041Z</time></trkpt><trkpt lat="45.0964906" lon="10.9448974"><ele>15.0</ele><time>2026-04-17T17:02:56.042Z</time></trkpt><trkpt lat="45.0964969" lon="10.9447461"><ele>15.0</ele><time>2026-04-17T17:02:57.042Z</time></trkpt><trkpt lat="45.096501" lon="10.9446019"><ele>15.0</ele><time>2026-04-17T17:02:58.043Z</time></trkpt><trkpt lat="45.0965043" lon="10.9444727"><ele>15.0</ele><time>2026-04-17T17:02:59.042Z</time></trkpt><trkpt lat="45.0965057" lon="10.944356"><ele>15.0</ele><time>2026-04-17T17:03:00.042Z</time></trkpt><trkpt lat="45.0965078" lon="10.9442514"><ele>15.0</ele><time>2026-04-17T17:03:01.043Z</time></trkpt><trkpt lat="45.0965121" lon="10.94415"><ele>15.0</ele><time>2026-04-17T17:03:02.042Z</time></trkpt><trkpt lat="45.0965111" lon="10.9440605"><ele>15.0</ele><time>2026-04-17T17:03:03.041Z</time></trkpt><trkpt lat="45.0964598" lon="10.9439137"><ele>15.0</ele><time>2026-04-17T17:03:05.043Z</time></trkpt><trkpt lat="45.0963709" lon="10.9438354"><ele>15.0</ele><time>2026-04-17T17:03:07.042Z</time></trkpt><trkpt lat="45.0963092" lon="10.9437824"><ele>15.0</ele><time>2026-04-17T17:03:09.043Z</time></trkpt><trkpt lat="45.0962099" lon="10.9437013"><ele>15.0</ele><time>2026-04-17T17:03:12.04Z</time></trkpt><trkpt lat="45.0961506" lon="10.9436527"><ele>15.0</ele><time>2026-04-17T17:03:13.043Z</time></trkpt><trkpt lat="45.0960886" lon="10.9435972"><ele>15.0</ele><time>2026-04-17T17:03:14.042Z</time></trkpt><trkpt lat="45.096027" lon="10.9435489"><ele>15.0</ele><time>2026-04-17T17:03:15.042Z</time></trkpt><trkpt lat="45.0959681" lon="10.9435138"><ele>15.0</ele><time>2026-04-17T17:03:16.042Z</time></trkpt><trkpt lat="45.0958567" lon="10.943451"><ele>15.0</ele><time>2026-04-17T17:03:18.042Z</time></trkpt><trkpt lat="45.0957812" lon="10.9434133"><ele>15.0</ele><time>2026-04-17T17:03:19.041Z</time></trkpt><trkpt lat="45.0956907" lon="10.9433842"><ele>15.0</ele><time>2026-04-17T17:03:20.041Z</time></trkpt><trkpt lat="45.0955924" lon="10.9433571"><ele>15.0</ele><time>2026-04-17T17:03:21.042Z</time></trkpt><trkpt lat="45.0954786" lon="10.9433621"><ele>15.0</ele><time>2026-04-17T17:03:22.042Z</time></trkpt><trkpt lat="45.0953568" lon="10.9433825"><ele>14.75</ele><time>2026-04-17T17:03:23.041Z</time></trkpt><trkpt lat="45.0952304" lon="10.9434095"><ele>14.5</ele><time>2026-04-17T17:03:24.042Z</time></trkpt><trkpt lat="45.0951118" lon="10.9434366"><ele>14.25</ele><time>2026-04-17T17:03:25.043Z</time></trkpt><trkpt lat="45.0950018" lon="10.9434762"><ele>14.0</ele><time>2026-04-17T17:03:26.041Z</time></trkpt><trkpt lat="45.0948976" lon="10.9435299"><ele>14.399999999999999</ele><time>2026-04-17T17:03:27.042Z</time></trkpt><trkpt lat="45.0947954" lon="10.9435899"><ele>14.799999999999999</ele><time>2026-04-17T17:03:28.041Z</time></trkpt><trkpt lat="45.0947055" lon="10.9436529"><ele>15.200000000000001</ele><time>2026-04-17T17:03:29.042Z</time></trkpt><trkpt lat="45.0946183" lon="10.9437237"><ele>15.600000000000001</ele><time>2026-04-17T17:03:30.042Z</time></trkpt><trkpt lat="45.0945318" lon="10.9438031"><ele>16.0</ele><time>2026-04-17T17:03:31.042Z</time></trkpt><trkpt lat="45.0944498" lon="10.9438973"><ele>15.999999999999998</ele><time>2026-04-17T17:03:32.041Z</time></trkpt><trkpt lat="45.0943812" lon="10.9440041"><ele>16.0</ele><time>2026-04-17T17:03:33.041Z</time></trkpt><trkpt lat="45.0943266" lon="10.9441019"><ele>16.0</ele><time>2026-04-17T17:03:34.042Z</time></trkpt><trkpt lat="45.0942735" lon="10.944202"><ele>16.0</ele><time>2026-04-17T17:03:35.042Z</time></trkpt><trkpt lat="45.0942376" lon="10.9442785"><ele>15.999999999999998</ele><time>2026-04-17T17:03:36.043Z</time></trkpt><trkpt lat="45.0942006" lon="10.9443555"><ele>16.0</ele><time>2026-04-17T17:03:37.043Z</time></trkpt><trkpt lat="45.0941183" lon="10.9444555"><ele>16.2</ele><time>2026-04-17T17:03:39.042Z</time></trkpt><trkpt lat="45.0940357" lon="10.9444573"><ele>16.400000000000002</ele><time>2026-04-17T17:03:41.041Z</time></trkpt><trkpt lat="45.0939806" lon="10.9443944"><ele>16.6</ele><time>2026-04-17T17:03:42.041Z</time></trkpt><trkpt lat="45.0939232" lon="10.9443084"><ele>16.8</ele><time>2026-04-17T17:03:43.041Z</time></trkpt><trkpt lat="45.0938611" lon="10.944188"><ele>17.0</ele><time>2026-04-17T17:03:44.043Z</time></trkpt><trkpt lat="45.0937923" lon="10.9440434"><ele>17.0</ele><time>2026-04-17T17:03:45.042Z</time></trkpt><trkpt lat="45.0937129" lon="10.9438877"><ele>17.0</ele><time>2026-04-17T17:03:46.041Z</time></trkpt><trkpt lat="45.0936353" lon="10.9437281"><ele>17.0</ele><time>2026-04-17T17:03:47.042Z</time></trkpt><trkpt lat="45.093558" lon="10.943567"><ele>17.0</ele><time>2026-04-17T17:03:48.042Z</time></trkpt><trkpt lat="45.0934789" lon="10.9434093"><ele>17.0</ele><time>2026-04-17T17:03:49.042Z</time></trkpt><trkpt lat="45.0934055" lon="10.9432419"><ele>17.0</ele><time>2026-04-17T17:03:50.041Z</time></trkpt><trkpt lat="45.0933309" lon="10.9430656"><ele>17.0</ele><time>2026-04-17T17:03:51.043Z</time></trkpt><trkpt lat="45.0932581" lon="10.9428855"><ele>17.0</ele><time>2026-04-17T17:03:52.041Z</time></trkpt><trkpt lat="45.0931846" lon="10.9426957"><ele>17.333333333333336</ele><time>2026-04-17T17:03:53.042Z</time></trkpt><trkpt lat="45.0931111" lon="10.9425007"><ele>17.666666666666668</ele><time>2026-04-17T17:03:54.042Z</time></trkpt><trkpt lat="45.0930418" lon="10.9422962"><ele>18.0</ele><time>2026-04-17T17:03:55.041Z</time></trkpt><trkpt lat="45.0929813" lon="10.9420777"><ele>18.0</ele><time>2026-04-17T17:03:56.041Z</time></trkpt><trkpt lat="45.0929242" lon="10.9418512"><ele>18.0</ele><time>2026-04-17T17:03:57.041Z</time></trkpt><trkpt lat="45.0928746" lon="10.9416175"><ele>18.0</ele><time>2026-04-17T17:03:58.041Z</time></trkpt><trkpt lat="45.09283" lon="10.9413771"><ele>17.0</ele><time>2026-04-17T17:03:59.041Z</time></trkpt><trkpt lat="45.0927931" lon="10.9411309"><ele>16.0</ele><time>2026-04-17T17:04:00.04Z</time></trkpt><trkpt lat="45.0927618" lon="10.9408821"><ele>15.0</ele><time>2026-04-17T17:04:01.042Z</time></trkpt><trkpt lat="45.0927348" lon="10.9406307"><ele>15.0</ele><time>2026-04-17T17:04:02.042Z</time></trkpt><trkpt lat="45.0927036" lon="10.940375"><ele>15.0</ele><time>2026-04-17T17:04:03.043Z</time></trkpt><trkpt lat="45.0926694" lon="10.9401158"><ele>15.0</ele><time>2026-04-17T17:04:04.041Z</time></trkpt><trkpt lat="45.092636" lon="10.9398507"><ele>15.0</ele><time>2026-04-17T17:04:05.042Z</time></trkpt><trkpt lat="45.0925956" lon="10.9395886"><ele>15.0</ele><time>2026-04-17T17:04:06.042Z</time></trkpt><trkpt lat="45.0925589" lon="10.9393398"><ele>15.0</ele><time>2026-04-17T17:04:07.042Z</time></trkpt><trkpt lat="45.0925186" lon="10.9391112"><ele>15.0</ele><time>2026-04-17T17:04:08.041Z</time></trkpt><trkpt lat="45.0924818" lon="10.9388934"><ele>15.0</ele><time>2026-04-17T17:04:09.041Z</time></trkpt><trkpt lat="45.0924449" lon="10.9386716"><ele>15.0</ele><time>2026-04-17T17:04:10.042Z</time></trkpt><trkpt lat="45.0924094" lon="10.9384508"><ele>15.666666666666668</ele><time>2026-04-17T17:04:11.043Z</time></trkpt><trkpt lat="45.0923772" lon="10.9382177"><ele>16.333333333333336</ele><time>2026-04-17T17:04:12.042Z</time></trkpt><trkpt lat="45.0923506" lon="10.9379761"><ele>17.0</ele><time>2026-04-17T17:04:13.041Z</time></trkpt><trkpt lat="45.0923319" lon="10.9377309"><ele>17.0</ele><time>2026-04-17T17:04:14.041Z</time></trkpt><trkpt lat="45.0923177" lon="10.9374803"><ele>17.0</ele><time>2026-04-17T17:04:15.042Z</time></trkpt><trkpt lat="45.0923107" lon="10.9372335"><ele>17.0</ele><time>2026-04-17T17:04:16.042Z</time></trkpt><trkpt lat="45.0923071" lon="10.937004"><ele>17.0</ele><time>2026-04-17T17:04:17.042Z</time></trkpt><trkpt lat="45.0923053" lon="10.9367873"><ele>17.0</ele><time>2026-04-17T17:04:18.041Z</time></trkpt><trkpt lat="45.0923077" lon="10.9365647"><ele>17.0</ele><time>2026-04-17T17:04:19.042Z</time></trkpt><trkpt lat="45.0923104" lon="10.9363464"><ele>16.666666666666668</ele><time>2026-04-17T17:04:20.043Z</time></trkpt><trkpt lat="45.0923139" lon="10.9361236"><ele>16.333333333333332</ele><time>2026-04-17T17:04:21.042Z</time></trkpt><trkpt lat="45.0923169" lon="10.9358985"><ele>16.0</ele><time>2026-04-17T17:04:22.042Z</time></trkpt><trkpt lat="45.0923241" lon="10.9356751"><ele>15.666666666666666</ele><time>2026-04-17T17:04:23.043Z</time></trkpt><trkpt lat="45.0923434" lon="10.9354397"><ele>15.333333333333332</ele><time>2026-04-17T17:04:24.043Z</time></trkpt><trkpt lat="45.0923659" lon="10.9352072"><ele>15.0</ele><time>2026-04-17T17:04:25.042Z</time></trkpt><trkpt lat="45.0923876" lon="10.934978"><ele>15.0</ele><time>2026-04-17T17:04:26.041Z</time></trkpt><trkpt lat="45.0924181" lon="10.9347446"><ele>15.0</ele><time>2026-04-17T17:04:27.042Z</time></trkpt><trkpt lat="45.0924679" lon="10.9345163"><ele>15.0</ele><time>2026-04-17T17:04:28.043Z</time></trkpt><trkpt lat="45.0925204" lon="10.9342854"><ele>15.0</ele><time>2026-04-17T17:04:29.043Z</time></trkpt><trkpt lat="45.0925854" lon="10.9340603"><ele>15.0</ele><time>2026-04-17T17:04:30.041Z</time></trkpt><trkpt lat="45.0926615" lon="10.9338357"><ele>15.0</ele><time>2026-04-17T17:04:31.043Z</time></trkpt><trkpt lat="45.0927405" lon="10.9336174"><ele>15.0</ele><time>2026-04-17T17:04:32.041Z</time></trkpt><trkpt lat="45.092816" lon="10.9334"><ele>15.0</ele><time>2026-04-17T17:04:33.04Z</time></trkpt><trkpt lat="45.0929001" lon="10.9331772"><ele>15.0</ele><time>2026-04-17T17:04:34.041Z</time></trkpt><trkpt lat="45.0929913" lon="10.9329636"><ele>15.0</ele><time>2026-04-17T17:04:35.042Z</time></trkpt><trkpt lat="45.0930814" lon="10.9327537"><ele>15.0</ele><time>2026-04-17T17:04:36.041Z</time></trkpt><trkpt lat="45.0931677" lon="10.9325512"><ele>15.0</ele><time>2026-04-17T17:04:37.041Z</time></trkpt><trkpt lat="45.0932587" lon="10.9323647"><ele>15.0</ele><time>2026-04-17T17:04:38.041Z</time></trkpt><trkpt lat="45.0933391" lon="10.9321749"><ele>15.0</ele><time>2026-04-17T17:04:39.042Z</time></trkpt><trkpt lat="45.0934144" lon="10.9319841"><ele>15.0</ele><time>2026-04-17T17:04:40.042Z</time></trkpt><trkpt lat="45.093487" lon="10.9318051"><ele>15.25</ele><time>2026-04-17T17:04:41.041Z</time></trkpt><trkpt lat="45.0935551" lon="10.9316262"><ele>15.5</ele><time>2026-04-17T17:04:42.042Z</time></trkpt><trkpt lat="45.0936297" lon="10.9314526"><ele>15.75</ele><time>2026-04-17T17:04:43.043Z</time></trkpt><trkpt lat="45.0937059" lon="10.9312795"><ele>16.0</ele><time>2026-04-17T17:04:44.042Z</time></trkpt><trkpt lat="45.0937874" lon="10.9311122"><ele>16.0</ele><time>2026-04-17T17:04:45.042Z</time></trkpt><trkpt lat="45.0938712" lon="10.9309457"><ele>16.0</ele><time>2026-04-17T17:04:46.042Z</time></trkpt><trkpt lat="45.0939538" lon="10.9308006"><ele>16.0</ele><time>2026-04-17T17:04:47.042Z</time></trkpt><trkpt lat="45.0940421" lon="10.9306578"><ele>16.0</ele><time>2026-04-17T17:04:48.041Z</time></trkpt><trkpt lat="45.0941358" lon="10.9305083"><ele>15.75</ele><time>2026-04-17T17:04:49.043Z</time></trkpt><trkpt lat="45.0942349" lon="10.9303774"><ele>15.5</ele><time>2026-04-17T17:04:50.042Z</time></trkpt><trkpt lat="45.0943545" lon="10.9302567"><ele>15.25</ele><time>2026-04-17T17:04:51.043Z</time></trkpt><trkpt lat="45.09448" lon="10.9301524"><ele>15.0</ele><time>2026-04-17T17:04:52.041Z</time></trkpt><trkpt lat="45.0946087" lon="10.9300624"><ele>15.25</ele><time>2026-04-17T17:04:53.041Z</time></trkpt><trkpt lat="45.0947457" lon="10.929989"><ele>15.5</ele><time>2026-04-17T17:04:54.043Z</time></trkpt><trkpt lat="45.094884" lon="10.9299367"><ele>15.75</ele><time>2026-04-17T17:04:55.041Z</time></trkpt><trkpt lat="45.0950381" lon="10.9298941"><ele>16.0</ele><time>2026-04-17T17:04:56.042Z</time></trkpt><trkpt lat="45.0951831" lon="10.9298489"><ele>15.5</ele><time>2026-04-17T17:04:57.042Z</time></trkpt><trkpt lat="45.0953243" lon="10.9298032"><ele>15.0</ele><time>2026-04-17T17:04:58.041Z</time></trkpt><trkpt lat="45.095456" lon="10.9297685"><ele>14.5</ele><time>2026-04-17T17:04:59.042Z</time></trkpt><trkpt lat="45.0955832" lon="10.9297421"><ele>14.0</ele><time>2026-04-17T17:05:00.041Z</time></trkpt><trkpt lat="45.0957104" lon="10.9297191"><ele>14.25</ele><time>2026-04-17T17:05:01.04Z</time></trkpt><trkpt lat="45.0958353" lon="10.9296955"><ele>14.5</ele><time>2026-04-17T17:05:02.041Z</time></trkpt><trkpt lat="45.0959603" lon="10.9296426"><ele>14.75</ele><time>2026-04-17T17:05:03.042Z</time></trkpt><trkpt lat="45.0960905" lon="10.9295632"><ele>15.0</ele><time>2026-04-17T17:05:04.043Z</time></trkpt><trkpt lat="45.096212" lon="10.929474"><ele>15.0</ele><time>2026-04-17T17:05:05.042Z</time></trkpt><trkpt lat="45.0963267" lon="10.9293808"><ele>15.0</ele><time>2026-04-17T17:05:06.041Z</time></trkpt><trkpt lat="45.0964395" lon="10.9292762"><ele>15.0</ele><time>2026-04-17T17:05:07.042Z</time></trkpt><trkpt lat="45.0965472" lon="10.9291562"><ele>15.0</ele><time>2026-04-17T17:05:08.04Z</time></trkpt><trkpt lat="45.0966452" lon="10.9290284"><ele>15.25</ele><time>2026-04-17T17:05:09.042Z</time></trkpt><trkpt lat="45.0967395" lon="10.9288883"><ele>15.5</ele><time>2026-04-17T17:05:10.041Z</time></trkpt><trkpt lat="45.0968264" lon="10.9287282"><ele>15.75</ele><time>2026-04-17T17:05:11.042Z</time></trkpt><trkpt lat="45.0969133" lon="10.9285547"><ele>16.0</ele><time>2026-04-17T17:05:12.041Z</time></trkpt><trkpt lat="45.0969837" lon="10.9283791"><ele>16.25</ele><time>2026-04-17T17:05:13.04Z</time></trkpt><trkpt lat="45.0970472" lon="10.9282"><ele>16.5</ele><time>2026-04-17T17:05:14.042Z</time></trkpt><trkpt lat="45.0971026" lon="10.9280071"><ele>16.75</ele><time>2026-04-17T17:05:15.042Z</time></trkpt><trkpt lat="45.097154" lon="10.9278217"><ele>17.0</ele><time>2026-04-17T17:05:16.042Z</time></trkpt><trkpt lat="45.0972032" lon="10.9276358"><ele>17.0</ele><time>2026-04-17T17:05:17.041Z</time></trkpt><trkpt lat="45.0972403" lon="10.9274376"><ele>17.0</ele><time>2026-04-17T17:05:18.041Z</time></trkpt><trkpt lat="45.097267" lon="10.9272322"><ele>17.0</ele><time>2026-04-17T17:05:19.042Z</time></trkpt><trkpt lat="45.0972709" lon="10.9270031"><ele>17.0</ele><time>2026-04-17T17:05:20.041Z</time></trkpt><trkpt lat="45.0972695" lon="10.9267439"><ele>17.0</ele><time>2026-04-17T17:05:21.041Z</time></trkpt><trkpt lat="45.0972678" lon="10.9264748"><ele>17.0</ele><time>2026-04-17T17:05:22.042Z</time></trkpt><trkpt lat="45.0972663" lon="10.9262049"><ele>16.666666666666668</ele><time>2026-04-17T17:05:23.043Z</time></trkpt><trkpt lat="45.0972639" lon="10.9259455"><ele>16.333333333333332</ele><time>2026-04-17T17:05:24.043Z</time></trkpt><trkpt lat="45.0972579" lon="10.9256918"><ele>16.0</ele><time>2026-04-17T17:05:25.041Z</time></trkpt><trkpt lat="45.0972503" lon="10.9254333"><ele>16.0</ele><time>2026-04-17T17:05:26.042Z</time></trkpt><trkpt lat="45.097231" lon="10.9251716"><ele>16.0</ele><time>2026-04-17T17:05:27.043Z</time></trkpt><trkpt lat="45.0972045" lon="10.9249132"><ele>16.0</ele><time>2026-04-17T17:05:28.041Z</time></trkpt><trkpt lat="45.0971762" lon="10.9246547"><ele>16.0</ele><time>2026-04-17T17:05:29.041Z</time></trkpt><trkpt lat="45.0971445" lon="10.9244005"><ele>16.0</ele><time>2026-04-17T17:05:30.041Z</time></trkpt><trkpt lat="45.0971121" lon="10.9241668"><ele>16.0</ele><time>2026-04-17T17:05:31.041Z</time></trkpt><trkpt lat="45.0970812" lon="10.9239384"><ele>16.0</ele><time>2026-04-17T17:05:32.04Z</time></trkpt><trkpt lat="45.0970489" lon="10.9237136"><ele>16.0</ele><time>2026-04-17T17:05:33.043Z</time></trkpt><trkpt lat="45.0970212" lon="10.9234865"><ele>16.0</ele><time>2026-04-17T17:05:34.041Z</time></trkpt><trkpt lat="45.0969977" lon="10.9232563"><ele>15.666666666666666</ele><time>2026-04-17T17:05:35.043Z</time></trkpt><trkpt lat="45.0969799" lon="10.9230212"><ele>15.333333333333332</ele><time>2026-04-17T17:05:36.042Z</time></trkpt><trkpt lat="45.0969686" lon="10.9227958"><ele>15.0</ele><time>2026-04-17T17:05:37.042Z</time></trkpt><trkpt lat="45.0969653" lon="10.9225718"><ele>14.75</ele><time>2026-04-17T17:05:38.041Z</time></trkpt><trkpt lat="45.0969675" lon="10.9223972"><ele>14.5</ele><time>2026-04-17T17:05:39.043Z</time></trkpt><trkpt lat="45.0969766" lon="10.9222124"><ele>14.25</ele><time>2026-04-17T17:05:40.04Z</time></trkpt><trkpt lat="45.0969859" lon="10.9220242"><ele>14.0</ele><time>2026-04-17T17:05:41.041Z</time></trkpt><trkpt lat="45.0970048" lon="10.9218478"><ele>14.25</ele><time>2026-04-17T17:05:42.042Z</time></trkpt><trkpt lat="45.0970287" lon="10.9216718"><ele>14.5</ele><time>2026-04-17T17:05:43.042Z</time></trkpt><trkpt lat="45.0970599" lon="10.9215134"><ele>14.75</ele><time>2026-04-17T17:05:44.042Z</time></trkpt><trkpt lat="45.0970974" lon="10.9213626"><ele>15.0</ele><time>2026-04-17T17:05:45.041Z</time></trkpt><trkpt lat="45.0971536" lon="10.9212213"><ele>15.0</ele><time>2026-04-17T17:05:46.041Z</time></trkpt><trkpt lat="45.0972171" lon="10.9210834"><ele>15.0</ele><time>2026-04-17T17:05:47.042Z</time></trkpt><trkpt lat="45.0972975" lon="10.9209628"><ele>15.0</ele><time>2026-04-17T17:05:48.042Z</time></trkpt><trkpt lat="45.0973948" lon="10.9208596"><ele>15.0</ele><time>2026-04-17T17:05:49.042Z</time></trkpt><trkpt lat="45.0975077" lon="10.9207663"><ele>15.25</ele><time>2026-04-17T17:05:50.041Z</time></trkpt><trkpt lat="45.0976316" lon="10.9206926"><ele>15.5</ele><time>2026-04-17T17:05:51.04Z</time></trkpt><trkpt lat="45.0977602" lon="10.9206303"><ele>15.75</ele><time>2026-04-17T17:05:52.041Z</time></trkpt><trkpt lat="45.0979035" lon="10.9205872"><ele>16.0</ele><time>2026-04-17T17:05:53.042Z</time></trkpt><trkpt lat="45.0980444" lon="10.9205563"><ele>16.0</ele><time>2026-04-17T17:05:54.041Z</time></trkpt><trkpt lat="45.0982002" lon="10.9205526"><ele>16.0</ele><time>2026-04-17T17:05:55.041Z</time></trkpt><trkpt lat="45.09837" lon="10.9205628"><ele>16.0</ele><time>2026-04-17T17:05:56.042Z</time></trkpt><trkpt lat="45.0985396" lon="10.9205802"><ele>15.666666666666666</ele><time>2026-04-17T17:05:57.041Z</time></trkpt><trkpt lat="45.0987051" lon="10.9206118"><ele>15.333333333333332</ele><time>2026-04-17T17:05:58.042Z</time></trkpt><trkpt lat="45.0988775" lon="10.920655"><ele>15.0</ele><time>2026-04-17T17:05:59.043Z</time></trkpt><trkpt lat="45.0990526" lon="10.9207082"><ele>15.666666666666668</ele><time>2026-04-17T17:06:00.042Z</time></trkpt><trkpt lat="45.0992257" lon="10.9207774"><ele>16.333333333333336</ele><time>2026-04-17T17:06:01.041Z</time></trkpt><trkpt lat="45.0994005" lon="10.9208539"><ele>17.0</ele><time>2026-04-17T17:06:02.043Z</time></trkpt><trkpt lat="45.099565" lon="10.9209221"><ele>16.5</ele><time>2026-04-17T17:06:03.041Z</time></trkpt><trkpt lat="45.0997189" lon="10.920989"><ele>16.0</ele><time>2026-04-17T17:06:04.041Z</time></trkpt><trkpt lat="45.0998589" lon="10.9210527"><ele>15.5</ele><time>2026-04-17T17:06:05.042Z</time></trkpt><trkpt lat="45.0999912" lon="10.9211086"><ele>15.0</ele><time>2026-04-17T17:06:06.041Z</time></trkpt><trkpt lat="45.100117" lon="10.9211564"><ele>15.0</ele><time>2026-04-17T17:06:07.041Z</time></trkpt><trkpt lat="45.1002496" lon="10.9211978"><ele>15.0</ele><time>2026-04-17T17:06:08.041Z</time></trkpt><trkpt lat="45.100382" lon="10.9212432"><ele>15.0</ele><time>2026-04-17T17:06:09.042Z</time></trkpt><trkpt lat="45.1005166" lon="10.921297"><ele>15.0</ele><time>2026-04-17T17:06:10.042Z</time></trkpt><trkpt lat="45.1006561" lon="10.9213554"><ele>14.333333333333332</ele><time>2026-04-17T17:06:11.042Z</time></trkpt><trkpt lat="45.1008027" lon="10.9214185"><ele>13.666666666666666</ele><time>2026-04-17T17:06:12.041Z</time></trkpt><trkpt lat="45.100956" lon="10.9214744"><ele>13.0</ele><time>2026-04-17T17:06:13.041Z</time></trkpt><trkpt lat="45.1011172" lon="10.9215255"><ele>13.0</ele><time>2026-04-17T17:06:14.042Z</time></trkpt><trkpt lat="45.1012797" lon="10.9215714"><ele>13.0</ele><time>2026-04-17T17:06:15.041Z</time></trkpt><trkpt lat="45.1014459" lon="10.9216186"><ele>13.0</ele><time>2026-04-17T17:06:16.042Z</time></trkpt><trkpt lat="45.1016152" lon="10.9216675"><ele>13.0</ele><time>2026-04-17T17:06:17.041Z</time></trkpt><trkpt lat="45.1017803" lon="10.9217126"><ele>13.0</ele><time>2026-04-17T17:06:18.042Z</time></trkpt><trkpt lat="45.1019434" lon="10.9217569"><ele>13.0</ele><time>2026-04-17T17:06:19.04Z</time></trkpt><trkpt lat="45.1021119" lon="10.9217996"><ele>13.0</ele><time>2026-04-17T17:06:20.041Z</time></trkpt><trkpt lat="45.1022822" lon="10.9218428"><ele>13.0</ele><time>2026-04-17T17:06:21.042Z</time></trkpt><trkpt lat="45.1024546" lon="10.9218801"><ele>13.0</ele><time>2026-04-17T17:06:22.041Z</time></trkpt><trkpt lat="45.1026176" lon="10.9219206"><ele>13.0</ele><time>2026-04-17T17:06:23.042Z</time></trkpt><trkpt lat="45.1027839" lon="10.9219606"><ele>13.0</ele><time>2026-04-17T17:06:24.041Z</time></trkpt><trkpt lat="45.1029358" lon="10.9220029"><ele>13.0</ele><time>2026-04-17T17:06:25.042Z</time></trkpt><trkpt lat="45.1030862" lon="10.9220411"><ele>13.0</ele><time>2026-04-17T17:06:26.042Z</time></trkpt><trkpt lat="45.1032416" lon="10.9220678"><ele>13.0</ele><time>2026-04-17T17:06:27.042Z</time></trkpt><trkpt lat="45.1033987" lon="10.9220895"><ele>13.0</ele><time>2026-04-17T17:06:28.043Z</time></trkpt><trkpt lat="45.103559" lon="10.9221076"><ele>13.666666666666666</ele><time>2026-04-17T17:06:29.042Z</time></trkpt><trkpt lat="45.1037183" lon="10.9221206"><ele>14.333333333333332</ele><time>2026-04-17T17:06:30.042Z</time></trkpt><trkpt lat="45.1038806" lon="10.922129"><ele>15.0</ele><time>2026-04-17T17:06:31.041Z</time></trkpt><trkpt lat="45.1040363" lon="10.9221308"><ele>15.333333333333332</ele><time>2026-04-17T17:06:32.041Z</time></trkpt><trkpt lat="45.1041959" lon="10.9221306"><ele>15.666666666666666</ele><time>2026-04-17T17:06:33.041Z</time></trkpt><trkpt lat="45.1043484" lon="10.9221248"><ele>16.0</ele><time>2026-04-17T17:06:34.041Z</time></trkpt><trkpt lat="45.1044996" lon="10.9221149"><ele>16.0</ele><time>2026-04-17T17:06:35.04Z</time></trkpt><trkpt lat="45.1046527" lon="10.9221013"><ele>16.0</ele><time>2026-04-17T17:06:36.041Z</time></trkpt><trkpt lat="45.1048087" lon="10.9220869"><ele>16.0</ele><time>2026-04-17T17:06:37.041Z</time></trkpt><trkpt lat="45.1049682" lon="10.9220709"><ele>15.333333333333332</ele><time>2026-04-17T17:06:38.042Z</time></trkpt><trkpt lat="45.1051298" lon="10.9220485"><ele>14.666666666666668</ele><time>2026-04-17T17:06:39.043Z</time></trkpt><trkpt lat="45.1052939" lon="10.9220248"><ele>14.0</ele><time>2026-04-17T17:06:40.042Z</time></trkpt><trkpt lat="45.1054505" lon="10.9219943"><ele>14.0</ele><time>2026-04-17T17:06:41.041Z</time></trkpt><trkpt lat="45.1055976" lon="10.9219627"><ele>14.0</ele><time>2026-04-17T17:06:42.042Z</time></trkpt><trkpt lat="45.1057372" lon="10.9219172"><ele>14.0</ele><time>2026-04-17T17:06:43.043Z</time></trkpt><trkpt lat="45.1058816" lon="10.9218494"><ele>14.0</ele><time>2026-04-17T17:06:44.04Z</time></trkpt><trkpt lat="45.1060351" lon="10.9217688"><ele>14.666666666666668</ele><time>2026-04-17T17:06:45.043Z</time></trkpt><trkpt lat="45.1061919" lon="10.9216734"><ele>15.333333333333332</ele><time>2026-04-17T17:06:46.042Z</time></trkpt><trkpt lat="45.1063476" lon="10.9215824"><ele>16.0</ele><time>2026-04-17T17:06:47.043Z</time></trkpt><trkpt lat="45.1064992" lon="10.9214862"><ele>15.333333333333332</ele><time>2026-04-17T17:06:48.042Z</time></trkpt><trkpt lat="45.1066478" lon="10.9213826"><ele>14.666666666666668</ele><time>2026-04-17T17:06:49.041Z</time></trkpt><trkpt lat="45.1067958" lon="10.9212725"><ele>14.0</ele><time>2026-04-17T17:06:50.043Z</time></trkpt><trkpt lat="45.1069407" lon="10.9211577"><ele>14.0</ele><time>2026-04-17T17:06:51.042Z</time></trkpt><trkpt lat="45.1070867" lon="10.9210326"><ele>14.0</ele><time>2026-04-17T17:06:52.04Z</time></trkpt><trkpt lat="45.107232" lon="10.9208986"><ele>14.0</ele><time>2026-04-17T17:06:53.042Z</time></trkpt><trkpt lat="45.107372" lon="10.920761"><ele>14.25</ele><time>2026-04-17T17:06:54.042Z</time></trkpt><trkpt lat="45.1075018" lon="10.9206281"><ele>14.5</ele><time>2026-04-17T17:06:55.041Z</time></trkpt><trkpt lat="45.107617" lon="10.9204983"><ele>14.75</ele><time>2026-04-17T17:06:56.041Z</time></trkpt><trkpt lat="45.1077224" lon="10.9203768"><ele>15.0</ele><time>2026-04-17T17:06:57.042Z</time></trkpt><trkpt lat="45.1078217" lon="10.920263"><ele>15.0</ele><time>2026-04-17T17:06:58.042Z</time></trkpt><trkpt lat="45.1079192" lon="10.9201347"><ele>15.0</ele><time>2026-04-17T17:06:59.042Z</time></trkpt><trkpt lat="45.1080039" lon="10.9199989"><ele>15.0</ele><time>2026-04-17T17:07:00.042Z</time></trkpt><trkpt lat="45.1080702" lon="10.9198515"><ele>15.0</ele><time>2026-04-17T17:07:01.043Z</time></trkpt><trkpt lat="45.1081243" lon="10.9196739"><ele>15.0</ele><time>2026-04-17T17:07:02.042Z</time></trkpt><trkpt lat="45.1081754" lon="10.919467"><ele>15.0</ele><time>2026-04-17T17:07:03.041Z</time></trkpt><trkpt lat="45.1082263" lon="10.9192553"><ele>15.0</ele><time>2026-04-17T17:07:04.042Z</time></trkpt><trkpt lat="45.1082689" lon="10.9190463"><ele>15.0</ele><time>2026-04-17T17:07:05.042Z</time></trkpt><trkpt lat="45.1083094" lon="10.9188401"><ele>15.0</ele><time>2026-04-17T17:07:06.042Z</time></trkpt><trkpt lat="45.1083451" lon="10.9186376"><ele>15.0</ele><time>2026-04-17T17:07:07.041Z</time></trkpt><trkpt lat="45.1083612" lon="10.9184301"><ele>15.0</ele><time>2026-04-17T17:07:08.041Z</time></trkpt><trkpt lat="45.1083667" lon="10.9182317"><ele>14.75</ele><time>2026-04-17T17:07:09.041Z</time></trkpt><trkpt lat="45.1083601" lon="10.9180437"><ele>14.5</ele><time>2026-04-17T17:07:10.041Z</time></trkpt><trkpt lat="45.1083433" lon="10.9178679"><ele>14.25</ele><time>2026-04-17T17:07:11.042Z</time></trkpt><trkpt lat="45.1083167" lon="10.9176886"><ele>14.0</ele><time>2026-04-17T17:07:12.041Z</time></trkpt><trkpt lat="45.1082842" lon="10.9174894"><ele>14.0</ele><time>2026-04-17T17:07:13.041Z</time></trkpt><trkpt lat="45.108248" lon="10.9173002"><ele>14.0</ele><time>2026-04-17T17:07:14.042Z</time></trkpt><trkpt lat="45.1082105" lon="10.9171108"><ele>14.0</ele><time>2026-04-17T17:07:15.041Z</time></trkpt><trkpt lat="45.1081691" lon="10.9169249"><ele>14.0</ele><time>2026-04-17T17:07:16.041Z</time></trkpt><trkpt lat="45.108113" lon="10.9167362"><ele>15.0</ele><time>2026-04-17T17:07:17.041Z</time></trkpt><trkpt lat="45.1080414" lon="10.9165302"><ele>16.0</ele><time>2026-04-17T17:07:18.043Z</time></trkpt><trkpt lat="45.1079618" lon="10.9163158"><ele>17.0</ele><time>2026-04-17T17:07:19.042Z</time></trkpt><trkpt lat="45.1078839" lon="10.9160938"><ele>16.333333333333336</ele><time>2026-04-17T17:07:20.041Z</time></trkpt><trkpt lat="45.1078087" lon="10.9158781"><ele>15.666666666666668</ele><time>2026-04-17T17:07:21.041Z</time></trkpt><trkpt lat="45.1077291" lon="10.9156827"><ele>15.0</ele><time>2026-04-17T17:07:22.042Z</time></trkpt><trkpt lat="45.1076524" lon="10.9154841"><ele>15.0</ele><time>2026-04-17T17:07:23.041Z</time></trkpt><trkpt lat="45.1075844" lon="10.9152969"><ele>15.0</ele><time>2026-04-17T17:07:24.043Z</time></trkpt><trkpt lat="45.1075155" lon="10.9151004"><ele>15.0</ele><time>2026-04-17T17:07:25.042Z</time></trkpt><trkpt lat="45.107446" lon="10.914895"><ele>15.333333333333332</ele><time>2026-04-17T17:07:26.042Z</time></trkpt><trkpt lat="45.1073761" lon="10.9146946"><ele>15.666666666666666</ele><time>2026-04-17T17:07:27.042Z</time></trkpt><trkpt lat="45.1073157" lon="10.9144957"><ele>16.0</ele><time>2026-04-17T17:07:28.042Z</time></trkpt><trkpt lat="45.1072669" lon="10.9142953"><ele>16.0</ele><time>2026-04-17T17:07:29.041Z</time></trkpt><trkpt lat="45.1072311" lon="10.9140869"><ele>16.0</ele><time>2026-04-17T17:07:30.042Z</time></trkpt><trkpt lat="45.1072047" lon="10.9138779"><ele>16.0</ele><time>2026-04-17T17:07:31.042Z</time></trkpt><trkpt lat="45.1071919" lon="10.913663"><ele>16.0</ele><time>2026-04-17T17:07:32.042Z</time></trkpt><trkpt lat="45.1071916" lon="10.9134516"><ele>16.0</ele><time>2026-04-17T17:07:33.041Z</time></trkpt><trkpt lat="45.107204" lon="10.9132348"><ele>16.0</ele><time>2026-04-17T17:07:34.04Z</time></trkpt><trkpt lat="45.1072206" lon="10.9130129"><ele>16.0</ele><time>2026-04-17T17:07:35.043Z</time></trkpt><trkpt lat="45.1072457" lon="10.9127895"><ele>16.0</ele><time>2026-04-17T17:07:36.041Z</time></trkpt><trkpt lat="45.1072762" lon="10.9125624"><ele>16.0</ele><time>2026-04-17T17:07:37.042Z</time></trkpt><trkpt lat="45.1073142" lon="10.9123305"><ele>16.0</ele><time>2026-04-17T17:07:38.041Z</time></trkpt><trkpt lat="45.1073559" lon="10.9121028"><ele>16.0</ele><time>2026-04-17T17:07:39.042Z</time></trkpt><trkpt lat="45.1074052" lon="10.9118697"><ele>16.0</ele><time>2026-04-17T17:07:40.041Z</time></trkpt><trkpt lat="45.1074605" lon="10.9116259"><ele>16.0</ele><time>2026-04-17T17:07:41.042Z</time></trkpt><trkpt lat="45.107516" lon="10.9113718"><ele>16.0</ele><time>2026-04-17T17:07:42.041Z</time></trkpt><trkpt lat="45.1075735" lon="10.9111025"><ele>16.0</ele><time>2026-04-17T17:07:43.043Z</time></trkpt><trkpt lat="45.1076328" lon="10.9108227"><ele>16.0</ele><time>2026-04-17T17:07:44.043Z</time></trkpt><trkpt lat="45.1076956" lon="10.9105353"><ele>16.0</ele><time>2026-04-17T17:07:45.042Z</time></trkpt><trkpt lat="45.1077619" lon="10.9102396"><ele>16.0</ele><time>2026-04-17T17:07:46.041Z</time></trkpt><trkpt lat="45.1078267" lon="10.9099368"><ele>15.5</ele><time>2026-04-17T17:07:47.041Z</time></trkpt><trkpt lat="45.1078941" lon="10.9096213"><ele>15.0</ele><time>2026-04-17T17:07:48.041Z</time></trkpt><trkpt lat="45.107964" lon="10.9092879"><ele>14.5</ele><time>2026-04-17T17:07:49.04Z</time></trkpt><trkpt lat="45.1080355" lon="10.9089515"><ele>14.0</ele><time>2026-04-17T17:07:50.043Z</time></trkpt><trkpt lat="45.108106" lon="10.9086286"><ele>14.0</ele><time>2026-04-17T17:07:51.042Z</time></trkpt><trkpt lat="45.1081694" lon="10.9083166"><ele>14.0</ele><time>2026-04-17T17:07:52.042Z</time></trkpt><trkpt lat="45.1082304" lon="10.908016"><ele>14.0</ele><time>2026-04-17T17:07:53.041Z</time></trkpt><trkpt lat="45.1082962" lon="10.9077294"><ele>14.0</ele><time>2026-04-17T17:07:54.042Z</time></trkpt><trkpt lat="45.1083595" lon="10.9074562"><ele>14.0</ele><time>2026-04-17T17:07:55.043Z</time></trkpt><trkpt lat="45.1084204" lon="10.9071906"><ele>14.333333333333334</ele><time>2026-04-17T17:07:56.042Z</time></trkpt><trkpt lat="45.1084768" lon="10.9069223"><ele>14.666666666666668</ele><time>2026-04-17T17:07:57.043Z</time></trkpt><trkpt lat="45.1085337" lon="10.9066504"><ele>15.0</ele><time>2026-04-17T17:07:58.042Z</time></trkpt><trkpt lat="45.1085931" lon="10.9063774"><ele>15.0</ele><time>2026-04-17T17:07:59.043Z</time></trkpt><trkpt lat="45.1086503" lon="10.9060985"><ele>15.0</ele><time>2026-04-17T17:08:00.042Z</time></trkpt><trkpt lat="45.1087089" lon="10.905818"><ele>15.0</ele><time>2026-04-17T17:08:01.041Z</time></trkpt><trkpt lat="45.108765" lon="10.9055388"><ele>14.666666666666668</ele><time>2026-04-17T17:08:02.042Z</time></trkpt><trkpt lat="45.1088176" lon="10.9052908"><ele>14.333333333333334</ele><time>2026-04-17T17:08:03.043Z</time></trkpt><trkpt lat="45.1088709" lon="10.9050537"><ele>14.0</ele><time>2026-04-17T17:08:04.042Z</time></trkpt><trkpt lat="45.1089159" lon="10.9048378"><ele>14.0</ele><time>2026-04-17T17:08:05.042Z</time></trkpt><trkpt lat="45.1089588" lon="10.9046332"><ele>14.0</ele><time>2026-04-17T17:08:06.041Z</time></trkpt><trkpt lat="45.1089954" lon="10.9044495"><ele>14.0</ele><time>2026-04-17T17:08:07.041Z</time></trkpt><trkpt lat="45.1090283" lon="10.9042823"><ele>14.0</ele><time>2026-04-17T17:08:08.043Z</time></trkpt><trkpt lat="45.1090594" lon="10.9041225"><ele>14.399999999999999</ele><time>2026-04-17T17:08:09.041Z</time></trkpt><trkpt lat="45.1090893" lon="10.9039731"><ele>14.799999999999999</ele><time>2026-04-17T17:08:10.04Z</time></trkpt><trkpt lat="45.1091141" lon="10.9038303"><ele>15.200000000000001</ele><time>2026-04-17T17:08:11.041Z</time></trkpt><trkpt lat="45.1091373" lon="10.903704"><ele>15.600000000000001</ele><time>2026-04-17T17:08:12.041Z</time></trkpt><trkpt lat="45.1091627" lon="10.9035784"><ele>16.0</ele><time>2026-04-17T17:08:13.041Z</time></trkpt><trkpt lat="45.1091873" lon="10.9034641"><ele>15.833333333333332</ele><time>2026-04-17T17:08:14.041Z</time></trkpt><trkpt lat="45.1092154" lon="10.9033617"><ele>15.666666666666666</ele><time>2026-04-17T17:08:15.043Z</time></trkpt><trkpt lat="45.1092554" lon="10.9032769"><ele>15.5</ele><time>2026-04-17T17:08:16.041Z</time></trkpt><trkpt lat="45.1093137" lon="10.9032107"><ele>15.333333333333332</ele><time>2026-04-17T17:08:17.043Z</time></trkpt><trkpt lat="45.1093875" lon="10.9031697"><ele>15.166666666666666</ele><time>2026-04-17T17:08:18.04Z</time></trkpt><trkpt lat="45.109472" lon="10.9031782"><ele>15.0</ele><time>2026-04-17T17:08:19.043Z</time></trkpt><trkpt lat="45.1095682" lon="10.9032273"><ele>15.0</ele><time>2026-04-17T17:08:20.041Z</time></trkpt><trkpt lat="45.1096839" lon="10.9033002"><ele>15.0</ele><time>2026-04-17T17:08:21.042Z</time></trkpt><trkpt lat="45.1097995" lon="10.9033746"><ele>15.0</ele><time>2026-04-17T17:08:22.042Z</time></trkpt><trkpt lat="45.1099093" lon="10.9034337"><ele>15.0</ele><time>2026-04-17T17:08:23.042Z</time></trkpt><trkpt lat="45.1100118" lon="10.9034679"><ele>15.0</ele><time>2026-04-17T17:08:24.042Z</time></trkpt><trkpt lat="45.1101008" lon="10.9034785"><ele>15.0</ele><time>2026-04-17T17:08:25.041Z</time></trkpt><trkpt lat="45.1101866" lon="10.9034542"><ele>15.0</ele><time>2026-04-17T17:08:26.042Z</time></trkpt><trkpt lat="45.1102788" lon="10.9034068"><ele>15.0</ele><time>2026-04-17T17:08:27.042Z</time></trkpt><trkpt lat="45.1103813" lon="10.9033408"><ele>15.0</ele><time>2026-04-17T17:08:28.042Z</time></trkpt><trkpt lat="45.1104813" lon="10.9032494"><ele>15.5</ele><time>2026-04-17T17:08:29.042Z</time></trkpt><trkpt lat="45.1105836" lon="10.9031398"><ele>16.0</ele><time>2026-04-17T17:08:30.041Z</time></trkpt><trkpt lat="45.1106838" lon="10.9030236"><ele>16.5</ele><time>2026-04-17T17:08:31.041Z</time></trkpt><trkpt lat="45.110775" lon="10.9029109"><ele>17.0</ele><time>2026-04-17T17:08:32.042Z</time></trkpt><trkpt lat="45.1108627" lon="10.9027982"><ele>17.0</ele><time>2026-04-17T17:08:33.041Z</time></trkpt><trkpt lat="45.1109485" lon="10.9026905"><ele>17.0</ele><time>2026-04-17T17:08:34.041Z</time></trkpt><trkpt lat="45.1110276" lon="10.9025942"><ele>17.0</ele><time>2026-04-17T17:08:35.042Z</time></trkpt><trkpt lat="45.1110987" lon="10.9025083"><ele>17.0</ele><time>2026-04-17T17:08:36.041Z</time></trkpt><trkpt lat="45.1111641" lon="10.9024307"><ele>17.0</ele><time>2026-04-17T17:08:37.042Z</time></trkpt><trkpt lat="45.111234" lon="10.9023624"><ele>17.2</ele><time>2026-04-17T17:08:38.043Z</time></trkpt><trkpt lat="45.1113123" lon="10.9022954"><ele>17.4</ele><time>2026-04-17T17:08:39.042Z</time></trkpt><trkpt lat="45.1114067" lon="10.9022299"><ele>17.6</ele><time>2026-04-17T17:08:40.041Z</time></trkpt><trkpt lat="45.1115096" lon="10.9021745"><ele>17.8</ele><time>2026-04-17T17:08:41.042Z</time></trkpt><trkpt lat="45.1116241" lon="10.9021203"><ele>18.0</ele><time>2026-04-17T17:08:42.04Z</time></trkpt><trkpt lat="45.1117467" lon="10.9020677"><ele>18.25</ele><time>2026-04-17T17:08:43.041Z</time></trkpt><trkpt lat="45.1118749" lon="10.9020076"><ele>18.5</ele><time>2026-04-17T17:08:44.041Z</time></trkpt><trkpt lat="45.1120015" lon="10.901954"><ele>18.75</ele><time>2026-04-17T17:08:45.042Z</time></trkpt><trkpt lat="45.1121203" lon="10.9019005"><ele>19.0</ele><time>2026-04-17T17:08:46.042Z</time></trkpt><trkpt lat="45.112237" lon="10.9018375"><ele>19.0</ele><time>2026-04-17T17:08:47.042Z</time></trkpt><trkpt lat="45.1123575" lon="10.9017854"><ele>19.0</ele><time>2026-04-17T17:08:48.042Z</time></trkpt><trkpt lat="45.1124843" lon="10.9017581"><ele>19.0</ele><time>2026-04-17T17:08:49.042Z</time></trkpt><trkpt lat="45.1126125" lon="10.9017618"><ele>19.0</ele><time>2026-04-17T17:08:50.042Z</time></trkpt><trkpt lat="45.1127488" lon="10.9017861"><ele>18.75</ele><time>2026-04-17T17:08:51.042Z</time></trkpt><trkpt lat="45.1128961" lon="10.9018263"><ele>18.5</ele><time>2026-04-17T17:08:52.04Z</time></trkpt><trkpt lat="45.1130309" lon="10.9018635"><ele>18.25</ele><time>2026-04-17T17:08:53.041Z</time></trkpt><trkpt lat="45.1131579" lon="10.9019017"><ele>18.0</ele><time>2026-04-17T17:08:54.041Z</time></trkpt><trkpt lat="45.1132742" lon="10.9019379"><ele>17.5</ele><time>2026-04-17T17:08:55.042Z</time></trkpt><trkpt lat="45.1133826" lon="10.901973"><ele>17.0</ele><time>2026-04-17T17:08:56.043Z</time></trkpt><trkpt lat="45.113489" lon="10.902005"><ele>16.5</ele><time>2026-04-17T17:08:57.042Z</time></trkpt><trkpt lat="45.1136081" lon="10.9020359"><ele>16.0</ele><time>2026-04-17T17:08:58.043Z</time></trkpt><trkpt lat="45.1137429" lon="10.9020405"><ele>16.0</ele><time>2026-04-17T17:08:59.041Z</time></trkpt><trkpt lat="45.1138897" lon="10.9020252"><ele>16.0</ele><time>2026-04-17T17:09:00.041Z</time></trkpt><trkpt lat="45.1140403" lon="10.9019802"><ele>16.0</ele><time>2026-04-17T17:09:01.042Z</time></trkpt><trkpt lat="45.1141812" lon="10.9019179"><ele>16.0</ele><time>2026-04-17T17:09:02.04Z</time></trkpt><trkpt lat="45.1143193" lon="10.9018405"><ele>16.666666666666664</ele><time>2026-04-17T17:09:03.042Z</time></trkpt><trkpt lat="45.1144519" lon="10.9017407"><ele>17.333333333333332</ele><time>2026-04-17T17:09:04.041Z</time></trkpt><trkpt lat="45.114579" lon="10.9016323"><ele>18.0</ele><time>2026-04-17T17:09:05.041Z</time></trkpt><trkpt lat="45.1146996" lon="10.9014994"><ele>18.0</ele><time>2026-04-17T17:09:06.042Z</time></trkpt><trkpt lat="45.1148104" lon="10.9013268"><ele>18.0</ele><time>2026-04-17T17:09:07.041Z</time></trkpt><trkpt lat="45.114908" lon="10.9011176"><ele>18.0</ele><time>2026-04-17T17:09:08.041Z</time></trkpt><trkpt lat="45.1150089" lon="10.900894"><ele>17.333333333333332</ele><time>2026-04-17T17:09:09.041Z</time></trkpt><trkpt lat="45.1150989" lon="10.9006766"><ele>16.666666666666664</ele><time>2026-04-17T17:09:10.042Z</time></trkpt><trkpt lat="45.1151919" lon="10.9004585"><ele>16.0</ele><time>2026-04-17T17:09:11.042Z</time></trkpt><trkpt lat="45.1152778" lon="10.9002419"><ele>16.666666666666664</ele><time>2026-04-17T17:09:12.041Z</time></trkpt><trkpt lat="45.1153607" lon="10.9000233"><ele>17.333333333333332</ele><time>2026-04-17T17:09:13.041Z</time></trkpt><trkpt lat="45.1154399" lon="10.8997939"><ele>18.0</ele><time>2026-04-17T17:09:14.043Z</time></trkpt><trkpt lat="45.1155152" lon="10.8995575"><ele>18.0</ele><time>2026-04-17T17:09:15.041Z</time></trkpt><trkpt lat="45.1155869" lon="10.8993117"><ele>18.0</ele><time>2026-04-17T17:09:16.042Z</time></trkpt><trkpt lat="45.1156541" lon="10.8990594"><ele>18.0</ele><time>2026-04-17T17:09:17.042Z</time></trkpt><trkpt lat="45.1157133" lon="10.8988027"><ele>17.0</ele><time>2026-04-17T17:09:18.041Z</time></trkpt><trkpt lat="45.1157681" lon="10.8985367"><ele>16.0</ele><time>2026-04-17T17:09:19.041Z</time></trkpt><trkpt lat="45.1158102" lon="10.8982652"><ele>15.0</ele><time>2026-04-17T17:09:20.042Z</time></trkpt><trkpt lat="45.1158477" lon="10.8979921"><ele>14.666666666666668</ele><time>2026-04-17T17:09:21.042Z</time></trkpt><trkpt lat="45.1158818" lon="10.8977159"><ele>14.333333333333334</ele><time>2026-04-17T17:09:22.041Z</time></trkpt><trkpt lat="45.1159155" lon="10.8974486"><ele>14.0</ele><time>2026-04-17T17:09:23.04Z</time></trkpt><trkpt lat="45.1159447" lon="10.8971949"><ele>14.0</ele><time>2026-04-17T17:09:24.041Z</time></trkpt><trkpt lat="45.1159726" lon="10.8969559"><ele>14.0</ele><time>2026-04-17T17:09:25.042Z</time></trkpt><trkpt lat="45.1159933" lon="10.8967136"><ele>14.0</ele><time>2026-04-17T17:09:26.042Z</time></trkpt><trkpt lat="45.116013" lon="10.8964669"><ele>14.0</ele><time>2026-04-17T17:09:27.042Z</time></trkpt><trkpt lat="45.116039" lon="10.8962117"><ele>14.0</ele><time>2026-04-17T17:09:28.043Z</time></trkpt><trkpt lat="45.1160759" lon="10.895956"><ele>14.0</ele><time>2026-04-17T17:09:29.042Z</time></trkpt><trkpt lat="45.1161186" lon="10.8956973"><ele>13.666666666666668</ele><time>2026-04-17T17:09:30.042Z</time></trkpt><trkpt lat="45.1161591" lon="10.8954313"><ele>13.333333333333332</ele><time>2026-04-17T17:09:31.042Z</time></trkpt><trkpt lat="45.1162017" lon="10.8951635"><ele>13.0</ele><time>2026-04-17T17:09:32.043Z</time></trkpt><trkpt lat="45.1162479" lon="10.8948937"><ele>13.666666666666666</ele><time>2026-04-17T17:09:33.041Z</time></trkpt><trkpt lat="45.116297" lon="10.8946219"><ele>14.333333333333332</ele><time>2026-04-17T17:09:34.042Z</time></trkpt><trkpt lat="45.1163496" lon="10.8943468"><ele>15.0</ele><time>2026-04-17T17:09:35.041Z</time></trkpt><trkpt lat="45.1164243" lon="10.8940863"><ele>15.0</ele><time>2026-04-17T17:09:36.042Z</time></trkpt><trkpt lat="45.1165175" lon="10.8938311"><ele>15.0</ele><time>2026-04-17T17:09:37.041Z</time></trkpt><trkpt lat="45.1166168" lon="10.8935793"><ele>15.0</ele><time>2026-04-17T17:09:38.041Z</time></trkpt><trkpt lat="45.1167303" lon="10.8933359"><ele>15.0</ele><time>2026-04-17T17:09:39.041Z</time></trkpt><trkpt lat="45.1168436" lon="10.8931023"><ele>15.0</ele><time>2026-04-17T17:09:40.042Z</time></trkpt><trkpt lat="45.1169636" lon="10.8928861"><ele>15.0</ele><time>2026-04-17T17:09:41.042Z</time></trkpt><trkpt lat="45.1170859" lon="10.8926798"><ele>15.666666666666668</ele><time>2026-04-17T17:09:42.043Z</time></trkpt><trkpt lat="45.1172085" lon="10.8924661"><ele>16.333333333333336</ele><time>2026-04-17T17:09:43.042Z</time></trkpt><trkpt lat="45.1173302" lon="10.8922481"><ele>17.0</ele><time>2026-04-17T17:09:44.041Z</time></trkpt><trkpt lat="45.1174406" lon="10.8920121"><ele>17.0</ele><time>2026-04-17T17:09:45.041Z</time></trkpt><trkpt lat="45.1175453" lon="10.8917738"><ele>17.0</ele><time>2026-04-17T17:09:46.041Z</time></trkpt><trkpt lat="45.1176449" lon="10.8915253"><ele>17.0</ele><time>2026-04-17T17:09:47.041Z</time></trkpt><trkpt lat="45.1177392" lon="10.8912683"><ele>17.0</ele><time>2026-04-17T17:09:48.041Z</time></trkpt><trkpt lat="45.117833" lon="10.8910027"><ele>17.0</ele><time>2026-04-17T17:09:49.043Z</time></trkpt><trkpt lat="45.1179169" lon="10.8907365"><ele>17.0</ele><time>2026-04-17T17:09:50.041Z</time></trkpt><trkpt lat="45.1179863" lon="10.890484"><ele>17.666666666666668</ele><time>2026-04-17T17:09:51.041Z</time></trkpt><trkpt lat="45.1180502" lon="10.8902415"><ele>18.333333333333332</ele><time>2026-04-17T17:09:52.041Z</time></trkpt><trkpt lat="45.1181103" lon="10.8900151"><ele>19.0</ele><time>2026-04-17T17:09:53.042Z</time></trkpt><trkpt lat="45.1181655" lon="10.8898113"><ele>19.0</ele><time>2026-04-17T17:09:54.04Z</time></trkpt><trkpt lat="45.1182134" lon="10.8896428"><ele>19.0</ele><time>2026-04-17T17:09:55.041Z</time></trkpt><trkpt lat="45.118259" lon="10.8895062"><ele>19.0</ele><time>2026-04-17T17:09:56.042Z</time></trkpt><trkpt lat="45.1183182" lon="10.8894005"><ele>19.0</ele><time>2026-04-17T17:09:57.041Z</time></trkpt><trkpt lat="45.1184043" lon="10.889333"><ele>19.0</ele><time>2026-04-17T17:09:58.042Z</time></trkpt><trkpt lat="45.1185098" lon="10.8893319"><ele>18.5</ele><time>2026-04-17T17:09:59.043Z</time></trkpt><trkpt lat="45.1186204" lon="10.889385"><ele>18.0</ele><time>2026-04-17T17:10:00.042Z</time></trkpt><trkpt lat="45.1187474" lon="10.8894612"><ele>17.5</ele><time>2026-04-17T17:10:01.042Z</time></trkpt><trkpt lat="45.1188801" lon="10.889551"><ele>17.0</ele><time>2026-04-17T17:10:02.042Z</time></trkpt><trkpt lat="45.119026" lon="10.8896472"><ele>16.333333333333336</ele><time>2026-04-17T17:10:03.042Z</time></trkpt><trkpt lat="45.1191787" lon="10.8897465"><ele>15.666666666666668</ele><time>2026-04-17T17:10:04.042Z</time></trkpt><trkpt lat="45.1193177" lon="10.8898378"><ele>15.0</ele><time>2026-04-17T17:10:05.041Z</time></trkpt><trkpt lat="45.119438" lon="10.8899164"><ele>15.0</ele><time>2026-04-17T17:10:06.041Z</time></trkpt><trkpt lat="45.1195478" lon="10.8899776"><ele>15.0</ele><time>2026-04-17T17:10:07.041Z</time></trkpt><trkpt lat="45.1196535" lon="10.8900006"><ele>15.0</ele><time>2026-04-17T17:10:08.041Z</time></trkpt><trkpt lat="45.1197692" lon="10.8899817"><ele>15.0</ele><time>2026-04-17T17:10:09.042Z</time></trkpt><trkpt lat="45.1198932" lon="10.8899065"><ele>16.333333333333332</ele><time>2026-04-17T17:10:10.042Z</time></trkpt><trkpt lat="45.1200283" lon="10.8898132"><ele>17.666666666666664</ele><time>2026-04-17T17:10:11.042Z</time></trkpt><trkpt lat="45.1201752" lon="10.8897293"><ele>19.0</ele><time>2026-04-17T17:10:12.041Z</time></trkpt><trkpt lat="45.1203378" lon="10.8896661"><ele>19.0</ele><time>2026-04-17T17:10:13.043Z</time></trkpt><trkpt lat="45.1205081" lon="10.8896354"><ele>19.0</ele><time>2026-04-17T17:10:14.041Z</time></trkpt><trkpt lat="45.1206926" lon="10.8896457"><ele>19.0</ele><time>2026-04-17T17:10:15.041Z</time></trkpt><trkpt lat="45.1208702" lon="10.88967"><ele>19.0</ele><time>2026-04-17T17:10:16.042Z</time></trkpt><trkpt lat="45.1210364" lon="10.8897048"><ele>19.0</ele><time>2026-04-17T17:10:17.042Z</time></trkpt><trkpt lat="45.1211939" lon="10.8897552"><ele>19.0</ele><time>2026-04-17T17:10:18.041Z</time></trkpt><trkpt lat="45.1213484" lon="10.8898115"><ele>19.0</ele><time>2026-04-17T17:10:19.041Z</time></trkpt><trkpt lat="45.1215021" lon="10.8898796"><ele>19.0</ele><time>2026-04-17T17:10:20.042Z</time></trkpt><trkpt lat="45.1216508" lon="10.8899652"><ele>19.0</ele><time>2026-04-17T17:10:21.041Z</time></trkpt><trkpt lat="45.1217882" lon="10.8900651"><ele>19.75</ele><time>2026-04-17T17:10:22.042Z</time></trkpt><trkpt lat="45.1219122" lon="10.890171"><ele>20.5</ele><time>2026-04-17T17:10:23.042Z</time></trkpt><trkpt lat="45.1220268" lon="10.890274"><ele>21.25</ele><time>2026-04-17T17:10:24.042Z</time></trkpt><trkpt lat="45.1221368" lon="10.8903654"><ele>22.0</ele><time>2026-04-17T17:10:25.042Z</time></trkpt><trkpt lat="45.1222359" lon="10.8904482"><ele>22.0</ele><time>2026-04-17T17:10:26.041Z</time></trkpt><trkpt lat="45.1223288" lon="10.8905255"><ele>22.0</ele><time>2026-04-17T17:10:27.041Z</time></trkpt><trkpt lat="45.122409" lon="10.8905971"><ele>22.0</ele><time>2026-04-17T17:10:28.042Z</time></trkpt><trkpt lat="45.1224741" lon="10.8906514"><ele>22.0</ele><time>2026-04-17T17:10:29.042Z</time></trkpt><trkpt lat="45.122535" lon="10.8906751"><ele>22.0</ele><time>2026-04-17T17:10:30.041Z</time></trkpt><trkpt lat="45.1226284" lon="10.8905817"><ele>21.200000000000003</ele><time>2026-04-17T17:10:32.041Z</time></trkpt><trkpt lat="45.1226588" lon="10.8904635"><ele>20.400000000000002</ele><time>2026-04-17T17:10:33.042Z</time></trkpt><trkpt lat="45.1226933" lon="10.8903303"><ele>19.6</ele><time>2026-04-17T17:10:34.041Z</time></trkpt><trkpt lat="45.1227366" lon="10.8901755"><ele>18.8</ele><time>2026-04-17T17:10:35.041Z</time></trkpt><trkpt lat="45.1227959" lon="10.8900159"><ele>18.0</ele><time>2026-04-17T17:10:36.041Z</time></trkpt><trkpt lat="45.122869" lon="10.8898508"><ele>17.75</ele><time>2026-04-17T17:10:37.043Z</time></trkpt><trkpt lat="45.1229596" lon="10.889686"><ele>17.5</ele><time>2026-04-17T17:10:38.041Z</time></trkpt><trkpt lat="45.1230592" lon="10.8895354"><ele>17.25</ele><time>2026-04-17T17:10:39.041Z</time></trkpt><trkpt lat="45.1231538" lon="10.8893975"><ele>17.0</ele><time>2026-04-17T17:10:40.042Z</time></trkpt><trkpt lat="45.1232345" lon="10.8892863"><ele>16.833333333333336</ele><time>2026-04-17T17:10:41.042Z</time></trkpt><trkpt lat="45.1232969" lon="10.8891892"><ele>16.666666666666668</ele><time>2026-04-17T17:10:42.042Z</time></trkpt><trkpt lat="45.1233455" lon="10.889106"><ele>16.5</ele><time>2026-04-17T17:10:43.042Z</time></trkpt><trkpt lat="45.1234234" lon="10.889062"><ele>16.333333333333332</ele><time>2026-04-17T17:10:45.041Z</time></trkpt><trkpt lat="45.1234348" lon="10.8892057"><ele>16.166666666666664</ele><time>2026-04-17T17:10:48.042Z</time></trkpt><trkpt lat="45.1234065" lon="10.889314"><ele>16.0</ele><time>2026-04-17T17:10:49.043Z</time></trkpt><trkpt lat="45.1233757" lon="10.8894486"><ele>15.75</ele><time>2026-04-17T17:10:50.042Z</time></trkpt><trkpt lat="45.1233406" lon="10.8896056"><ele>15.5</ele><time>2026-04-17T17:10:51.042Z</time></trkpt><trkpt lat="45.1233038" lon="10.889782"><ele>15.25</ele><time>2026-04-17T17:10:52.042Z</time></trkpt><trkpt lat="45.1232661" lon="10.8899765"><ele>15.0</ele><time>2026-04-17T17:10:53.041Z</time></trkpt><trkpt lat="45.1232293" lon="10.8901904"><ele>16.0</ele><time>2026-04-17T17:10:54.041Z</time></trkpt><trkpt lat="45.1231925" lon="10.8904191"><ele>17.0</ele><time>2026-04-17T17:10:55.043Z</time></trkpt><trkpt lat="45.1231599" lon="10.890665"><ele>18.0</ele><time>2026-04-17T17:10:56.042Z</time></trkpt><trkpt lat="45.1231242" lon="10.8908999"><ele>18.25</ele><time>2026-04-17T17:10:57.041Z</time></trkpt><trkpt lat="45.1230891" lon="10.8911213"><ele>18.5</ele><time>2026-04-17T17:10:58.042Z</time></trkpt><trkpt lat="45.1230564" lon="10.891303"><ele>18.75</ele><time>2026-04-17T17:10:59.042Z</time></trkpt><trkpt lat="45.1230219" lon="10.8914725"><ele>19.0</ele><time>2026-04-17T17:11:00.04Z</time></trkpt><trkpt lat="45.122991" lon="10.8916109"><ele>19.0</ele><time>2026-04-17T17:11:01.041Z</time></trkpt><trkpt lat="45.1229694" lon="10.8917249"><ele>19.0</ele><time>2026-04-17T17:11:02.041Z</time></trkpt><trkpt lat="45.1229752" lon="10.8918232"><ele>19.0</ele><time>2026-04-17T17:11:03.042Z</time></trkpt><trkpt lat="45.1230499" lon="10.8919532"><ele>19.0</ele><time>2026-04-17T17:11:05.041Z</time></trkpt><trkpt lat="45.1231364" lon="10.8920306"><ele>19.0</ele><time>2026-04-17T17:11:07.041Z</time></trkpt><trkpt lat="45.1232142" lon="10.8920936"><ele>19.0</ele><time>2026-04-17T17:11:09.041Z</time></trkpt><trkpt lat="45.1232576" lon="10.8921618"><ele>19.0</ele><time>2026-04-17T17:11:11.041Z</time></trkpt><trkpt lat="45.1232682" lon="10.8922758"><ele>19.0</ele><time>2026-04-17T17:11:13.043Z</time></trkpt><trkpt lat="45.1232324" lon="10.8924501"><ele>19.0</ele><time>2026-04-17T17:11:15.042Z</time></trkpt><trkpt lat="45.1232103" lon="10.8925352"><ele>19.0</ele><time>2026-04-17T17:11:16.041Z</time></trkpt><trkpt lat="45.1231864" lon="10.8926181"><ele>19.0</ele><time>2026-04-17T17:11:17.042Z</time></trkpt><trkpt lat="45.1231606" lon="10.8927169"><ele>19.0</ele><time>2026-04-17T17:11:19.041Z</time></trkpt><trkpt lat="45.1231959" lon="10.8928309"><ele>19.0</ele><time>2026-04-17T17:11:21.041Z</time></trkpt><trkpt lat="45.1232536" lon="10.8928937"><ele>19.0</ele><time>2026-04-17T17:11:22.042Z</time></trkpt><trkpt lat="45.1233315" lon="10.8929473"><ele>19.0</ele><time>2026-04-17T17:11:23.042Z</time></trkpt><trkpt lat="45.1234279" lon="10.8930077"><ele>19.0</ele><time>2026-04-17T17:11:24.041Z</time></trkpt><trkpt lat="45.1235354" lon="10.8930753"><ele>19.0</ele><time>2026-04-17T17:11:25.041Z</time></trkpt><trkpt lat="45.1236499" lon="10.8931535"><ele>19.0</ele><time>2026-04-17T17:11:26.042Z</time></trkpt><trkpt lat="45.1237747" lon="10.8932366"><ele>19.0</ele><time>2026-04-17T17:11:27.041Z</time></trkpt><trkpt lat="45.1239084" lon="10.8933229"><ele>19.0</ele><time>2026-04-17T17:11:28.042Z</time></trkpt><trkpt lat="45.1240504" lon="10.8934144"><ele>18.333333333333332</ele><time>2026-04-17T17:11:29.041Z</time></trkpt><trkpt lat="45.1241978" lon="10.8935119"><ele>17.666666666666668</ele><time>2026-04-17T17:11:30.041Z</time></trkpt><trkpt lat="45.1243509" lon="10.8936107"><ele>17.0</ele><time>2026-04-17T17:11:31.04Z</time></trkpt><trkpt lat="45.124509" lon="10.8937162"><ele>17.0</ele><time>2026-04-17T17:11:32.041Z</time></trkpt><trkpt lat="45.1246709" lon="10.8938256"><ele>17.0</ele><time>2026-04-17T17:11:33.042Z</time></trkpt><trkpt lat="45.1248324" lon="10.8939435"><ele>17.0</ele><time>2026-04-17T17:11:34.041Z</time></trkpt><trkpt lat="45.1249993" lon="10.8940656"><ele>16.666666666666668</ele><time>2026-04-17T17:11:35.042Z</time></trkpt><trkpt lat="45.1251665" lon="10.8941967"><ele>16.333333333333332</ele><time>2026-04-17T17:11:36.041Z</time></trkpt><trkpt lat="45.1253355" lon="10.8943295"><ele>16.0</ele><time>2026-04-17T17:11:37.041Z</time></trkpt><trkpt lat="45.1255078" lon="10.8944653"><ele>16.666666666666664</ele><time>2026-04-17T17:11:38.042Z</time></trkpt><trkpt lat="45.1256855" lon="10.894598"><ele>17.333333333333332</ele><time>2026-04-17T17:11:39.041Z</time></trkpt><trkpt lat="45.1258647" lon="10.8947314"><ele>18.0</ele><time>2026-04-17T17:11:40.04Z</time></trkpt><trkpt lat="45.1260442" lon="10.8948648"><ele>18.0</ele><time>2026-04-17T17:11:41.041Z</time></trkpt><trkpt lat="45.126226" lon="10.8950031"><ele>18.0</ele><time>2026-04-17T17:11:42.042Z</time></trkpt><trkpt lat="45.1264033" lon="10.8951551"><ele>18.0</ele><time>2026-04-17T17:11:43.042Z</time></trkpt><trkpt lat="45.1265794" lon="10.8953183"><ele>17.333333333333332</ele><time>2026-04-17T17:11:44.041Z</time></trkpt><trkpt lat="45.1267527" lon="10.8954843"><ele>16.666666666666664</ele><time>2026-04-17T17:11:45.041Z</time></trkpt><trkpt lat="45.1269293" lon="10.895652"><ele>16.0</ele><time>2026-04-17T17:11:46.042Z</time></trkpt><trkpt lat="45.1271112" lon="10.89582"><ele>17.0</ele><time>2026-04-17T17:11:47.043Z</time></trkpt><trkpt lat="45.1272952" lon="10.8959793"><ele>18.0</ele><time>2026-04-17T17:11:48.042Z</time></trkpt><trkpt lat="45.127481" lon="10.8961318"><ele>19.0</ele><time>2026-04-17T17:11:49.041Z</time></trkpt><trkpt lat="45.1276723" lon="10.8962768"><ele>19.333333333333332</ele><time>2026-04-17T17:11:50.041Z</time></trkpt><trkpt lat="45.1278703" lon="10.8964102"><ele>19.666666666666668</ele><time>2026-04-17T17:11:51.041Z</time></trkpt><trkpt lat="45.1280654" lon="10.8965403"><ele>20.0</ele><time>2026-04-17T17:11:52.041Z</time></trkpt><trkpt lat="45.1282458" lon="10.8966604"><ele>20.0</ele><time>2026-04-17T17:11:53.041Z</time></trkpt><trkpt lat="45.1284167" lon="10.8967675"><ele>20.0</ele><time>2026-04-17T17:11:54.041Z</time></trkpt><trkpt lat="45.1285819" lon="10.896874"><ele>20.0</ele><time>2026-04-17T17:11:55.042Z</time></trkpt><trkpt lat="45.1287503" lon="10.8969757"><ele>20.0</ele><time>2026-04-17T17:11:56.041Z</time></trkpt><trkpt lat="45.1289282" lon="10.8970529"><ele>20.0</ele><time>2026-04-17T17:11:57.041Z</time></trkpt><trkpt lat="45.1291155" lon="10.8971076"><ele>20.0</ele><time>2026-04-17T17:11:58.041Z</time></trkpt><trkpt lat="45.1293059" lon="10.8971607"><ele>20.333333333333336</ele><time>2026-04-17T17:11:59.042Z</time></trkpt><trkpt lat="45.1294919" lon="10.8972209"><ele>20.666666666666668</ele><time>2026-04-17T17:12:00.041Z</time></trkpt><trkpt lat="45.1296785" lon="10.8972905"><ele>21.0</ele><time>2026-04-17T17:12:01.042Z</time></trkpt><trkpt lat="45.1298602" lon="10.8973734"><ele>20.333333333333332</ele><time>2026-04-17T17:12:02.043Z</time></trkpt><trkpt lat="45.1300443" lon="10.8974627"><ele>19.666666666666664</ele><time>2026-04-17T17:12:03.042Z</time></trkpt><trkpt lat="45.1302305" lon="10.8975535"><ele>19.0</ele><time>2026-04-17T17:12:04.041Z</time></trkpt><trkpt lat="45.1304149" lon="10.8976325"><ele>19.0</ele><time>2026-04-17T17:12:05.042Z</time></trkpt><trkpt lat="45.130601" lon="10.8977249"><ele>19.0</ele><time>2026-04-17T17:12:06.041Z</time></trkpt><trkpt lat="45.1307868" lon="10.8978147"><ele>19.0</ele><time>2026-04-17T17:12:07.041Z</time></trkpt><trkpt lat="45.1309771" lon="10.8978939"><ele>18.666666666666664</ele><time>2026-04-17T17:12:08.042Z</time></trkpt><trkpt lat="45.1311623" lon="10.8979757"><ele>18.333333333333332</ele><time>2026-04-17T17:12:09.042Z</time></trkpt><trkpt lat="45.1313554" lon="10.8980559"><ele>18.0</ele><time>2026-04-17T17:12:10.041Z</time></trkpt><trkpt lat="45.1315392" lon="10.8981277"><ele>18.333333333333332</ele><time>2026-04-17T17:12:11.041Z</time></trkpt><trkpt lat="45.1317125" lon="10.8981949"><ele>18.666666666666664</ele><time>2026-04-17T17:12:12.041Z</time></trkpt><trkpt lat="45.1318761" lon="10.8982535"><ele>19.0</ele><time>2026-04-17T17:12:13.041Z</time></trkpt><trkpt lat="45.1320299" lon="10.8983091"><ele>19.0</ele><time>2026-04-17T17:12:14.041Z</time></trkpt><trkpt lat="45.13218" lon="10.8983678"><ele>19.0</ele><time>2026-04-17T17:12:15.043Z</time></trkpt><trkpt lat="45.1323178" lon="10.8984175"><ele>19.0</ele><time>2026-04-17T17:12:16.041Z</time></trkpt><trkpt lat="45.1324491" lon="10.8984573"><ele>19.0</ele><time>2026-04-17T17:12:17.041Z</time></trkpt><trkpt lat="45.1325835" lon="10.8984754"><ele>18.75</ele><time>2026-04-17T17:12:18.042Z</time></trkpt><trkpt lat="45.1327242" lon="10.8984604"><ele>18.5</ele><time>2026-04-17T17:12:19.042Z</time></trkpt><trkpt lat="45.1328673" lon="10.8984059"><ele>18.25</ele><time>2026-04-17T17:12:20.041Z</time></trkpt><trkpt lat="45.1330126" lon="10.8983257"><ele>18.0</ele><time>2026-04-17T17:12:21.042Z</time></trkpt><trkpt lat="45.133167" lon="10.8982426"><ele>18.0</ele><time>2026-04-17T17:12:22.042Z</time></trkpt><trkpt lat="45.1333257" lon="10.8981538"><ele>18.0</ele><time>2026-04-17T17:12:23.041Z</time></trkpt><trkpt lat="45.1334897" lon="10.8980633"><ele>18.0</ele><time>2026-04-17T17:12:24.042Z</time></trkpt><trkpt lat="45.1336581" lon="10.8979688"><ele>18.0</ele><time>2026-04-17T17:12:25.041Z</time></trkpt><trkpt lat="45.1338196" lon="10.8978754"><ele>18.0</ele><time>2026-04-17T17:12:26.041Z</time></trkpt><trkpt lat="45.1339722" lon="10.8977816"><ele>18.0</ele><time>2026-04-17T17:12:27.042Z</time></trkpt><trkpt lat="45.1341182" lon="10.8976635"><ele>18.666666666666668</ele><time>2026-04-17T17:12:28.041Z</time></trkpt><trkpt lat="45.1342502" lon="10.8975088"><ele>19.333333333333336</ele><time>2026-04-17T17:12:29.041Z</time></trkpt><trkpt lat="45.1343733" lon="10.897317"><ele>20.0</ele><time>2026-04-17T17:12:30.041Z</time></trkpt><trkpt lat="45.1344953" lon="10.8971088"><ele>20.0</ele><time>2026-04-17T17:12:31.041Z</time></trkpt><trkpt lat="45.1346173" lon="10.8968947"><ele>20.0</ele><time>2026-04-17T17:12:32.041Z</time></trkpt><trkpt lat="45.1347395" lon="10.8966747"><ele>20.0</ele><time>2026-04-17T17:12:33.043Z</time></trkpt><trkpt lat="45.1348613" lon="10.8964581"><ele>19.666666666666668</ele><time>2026-04-17T17:12:34.042Z</time></trkpt><trkpt lat="45.1349892" lon="10.8962309"><ele>19.333333333333332</ele><time>2026-04-17T17:12:35.041Z</time></trkpt><trkpt lat="45.1351135" lon="10.8960022"><ele>19.0</ele><time>2026-04-17T17:12:36.041Z</time></trkpt><trkpt lat="45.1352413" lon="10.8957727"><ele>18.666666666666664</ele><time>2026-04-17T17:12:37.042Z</time></trkpt><trkpt lat="45.1353627" lon="10.8955522"><ele>18.333333333333332</ele><time>2026-04-17T17:12:38.042Z</time></trkpt><trkpt lat="45.1354796" lon="10.895343"><ele>18.0</ele><time>2026-04-17T17:12:39.041Z</time></trkpt><trkpt lat="45.1355887" lon="10.8951473"><ele>18.0</ele><time>2026-04-17T17:12:40.042Z</time></trkpt><trkpt lat="45.1356955" lon="10.8949642"><ele>18.0</ele><time>2026-04-17T17:12:41.041Z</time></trkpt><trkpt lat="45.1357943" lon="10.8947921"><ele>18.0</ele><time>2026-04-17T17:12:42.041Z</time></trkpt><trkpt lat="45.1358974" lon="10.8946257"><ele>18.0</ele><time>2026-04-17T17:12:43.042Z</time></trkpt><trkpt lat="45.1360086" lon="10.8944714"><ele>18.0</ele><time>2026-04-17T17:12:44.041Z</time></trkpt><trkpt lat="45.1361372" lon="10.8943198"><ele>18.0</ele><time>2026-04-17T17:12:45.041Z</time></trkpt><trkpt lat="45.1362717" lon="10.8941752"><ele>18.0</ele><time>2026-04-17T17:12:46.041Z</time></trkpt><trkpt lat="45.136402" lon="10.8940374"><ele>18.0</ele><time>2026-04-17T17:12:47.04Z</time></trkpt><trkpt lat="45.1365232" lon="10.893905"><ele>18.0</ele><time>2026-04-17T17:12:48.042Z</time></trkpt><trkpt lat="45.1366377" lon="10.8937871"><ele>17.75</ele><time>2026-04-17T17:12:49.041Z</time></trkpt><trkpt lat="45.1367358" lon="10.8936813"><ele>17.5</ele><time>2026-04-17T17:12:50.042Z</time></trkpt><trkpt lat="45.1368249" lon="10.8935755"><ele>17.25</ele><time>2026-04-17T17:12:51.041Z</time></trkpt><trkpt lat="45.1369019" lon="10.8934476"><ele>17.0</ele><time>2026-04-17T17:12:52.042Z</time></trkpt><trkpt lat="45.1369665" lon="10.8932827"><ele>17.666666666666668</ele><time>2026-04-17T17:12:53.042Z</time></trkpt><trkpt lat="45.137015" lon="10.893089"><ele>18.333333333333332</ele><time>2026-04-17T17:12:54.041Z</time></trkpt><trkpt lat="45.1370564" lon="10.8928735"><ele>19.0</ele><time>2026-04-17T17:12:55.042Z</time></trkpt><trkpt lat="45.1370982" lon="10.892648"><ele>18.666666666666664</ele><time>2026-04-17T17:12:56.041Z</time></trkpt><trkpt lat="45.1371426" lon="10.8924078"><ele>18.333333333333332</ele><time>2026-04-17T17:12:57.042Z</time></trkpt><trkpt lat="45.1371873" lon="10.8921655"><ele>18.0</ele><time>2026-04-17T17:12:58.041Z</time></trkpt><trkpt lat="45.1372379" lon="10.8919117"><ele>18.666666666666668</ele><time>2026-04-17T17:12:59.041Z</time></trkpt><trkpt lat="45.137289" lon="10.8916536"><ele>19.333333333333336</ele><time>2026-04-17T17:13:00.041Z</time></trkpt><trkpt lat="45.1373308" lon="10.8913884"><ele>20.0</ele><time>2026-04-17T17:13:01.041Z</time></trkpt><trkpt lat="45.1373563" lon="10.8911161"><ele>20.0</ele><time>2026-04-17T17:13:02.042Z</time></trkpt><trkpt lat="45.137372" lon="10.8908327"><ele>20.0</ele><time>2026-04-17T17:13:03.042Z</time></trkpt><trkpt lat="45.1373832" lon="10.890549"><ele>20.0</ele><time>2026-04-17T17:13:04.041Z</time></trkpt><trkpt lat="45.1373856" lon="10.8902508"><ele>19.0</ele><time>2026-04-17T17:13:05.041Z</time></trkpt><trkpt lat="45.1373878" lon="10.88996"><ele>18.0</ele><time>2026-04-17T17:13:06.041Z</time></trkpt><trkpt lat="45.1373906" lon="10.889683"><ele>17.0</ele><time>2026-04-17T17:13:07.042Z</time></trkpt><trkpt lat="45.13739" lon="10.8894165"><ele>17.0</ele><time>2026-04-17T17:13:08.04Z</time></trkpt><trkpt lat="45.1373893" lon="10.8891608"><ele>17.0</ele><time>2026-04-17T17:13:09.043Z</time></trkpt><trkpt lat="45.1373884" lon="10.8889103"><ele>17.0</ele><time>2026-04-17T17:13:10.042Z</time></trkpt><trkpt lat="45.1373821" lon="10.8886672"><ele>17.0</ele><time>2026-04-17T17:13:11.041Z</time></trkpt><trkpt lat="45.1373719" lon="10.8884295"><ele>17.0</ele><time>2026-04-17T17:13:12.041Z</time></trkpt><trkpt lat="45.1373646" lon="10.8881939"><ele>17.0</ele><time>2026-04-17T17:13:13.041Z</time></trkpt><trkpt lat="45.1373564" lon="10.8879621"><ele>17.333333333333336</ele><time>2026-04-17T17:13:14.042Z</time></trkpt><trkpt lat="45.137352" lon="10.8877306"><ele>17.666666666666668</ele><time>2026-04-17T17:13:15.041Z</time></trkpt><trkpt lat="45.137344" lon="10.887512"><ele>18.0</ele><time>2026-04-17T17:13:16.041Z</time></trkpt><trkpt lat="45.1373416" lon="10.8872885"><ele>18.333333333333332</ele><time>2026-04-17T17:13:17.042Z</time></trkpt><trkpt lat="45.1373391" lon="10.8870662"><ele>18.666666666666664</ele><time>2026-04-17T17:13:18.041Z</time></trkpt><trkpt lat="45.1373398" lon="10.8868393"><ele>19.0</ele><time>2026-04-17T17:13:19.041Z</time></trkpt><trkpt lat="45.137336" lon="10.8866087"><ele>19.0</ele><time>2026-04-17T17:13:20.041Z</time></trkpt><trkpt lat="45.1373291" lon="10.8863705"><ele>19.0</ele><time>2026-04-17T17:13:21.042Z</time></trkpt><trkpt lat="45.1373233" lon="10.8861308"><ele>19.0</ele><time>2026-04-17T17:13:22.041Z</time></trkpt><trkpt lat="45.1373165" lon="10.8858841"><ele>19.0</ele><time>2026-04-17T17:13:23.042Z</time></trkpt><trkpt lat="45.1373109" lon="10.8856268"><ele>19.0</ele><time>2026-04-17T17:13:24.042Z</time></trkpt><trkpt lat="45.1373022" lon="10.8853625"><ele>19.0</ele><time>2026-04-17T17:13:25.043Z</time></trkpt><trkpt lat="45.1372922" lon="10.885092"><ele>18.666666666666664</ele><time>2026-04-17T17:13:26.041Z</time></trkpt><trkpt lat="45.1372859" lon="10.8848253"><ele>18.333333333333332</ele><time>2026-04-17T17:13:27.041Z</time></trkpt><trkpt lat="45.1372789" lon="10.8845726"><ele>18.0</ele><time>2026-04-17T17:13:28.041Z</time></trkpt><trkpt lat="45.1372704" lon="10.8843261"><ele>17.666666666666668</ele><time>2026-04-17T17:13:29.041Z</time></trkpt><trkpt lat="45.1372626" lon="10.8840837"><ele>17.333333333333336</ele><time>2026-04-17T17:13:30.042Z</time></trkpt><trkpt lat="45.137254" lon="10.8838456"><ele>17.0</ele><time>2026-04-17T17:13:31.043Z</time></trkpt><trkpt lat="45.1372443" lon="10.8836122"><ele>17.0</ele><time>2026-04-17T17:13:32.041Z</time></trkpt><trkpt lat="45.1372381" lon="10.8833919"><ele>17.0</ele><time>2026-04-17T17:13:33.041Z</time></trkpt><trkpt lat="45.1372304" lon="10.8831831"><ele>17.0</ele><time>2026-04-17T17:13:34.042Z</time></trkpt><trkpt lat="45.1372251" lon="10.8829956"><ele>17.0</ele><time>2026-04-17T17:13:35.042Z</time></trkpt><trkpt lat="45.1372218" lon="10.8828224"><ele>17.0</ele><time>2026-04-17T17:13:36.043Z</time></trkpt><trkpt lat="45.1372199" lon="10.8826666"><ele>17.0</ele><time>2026-04-17T17:13:37.041Z</time></trkpt><trkpt lat="45.1372161" lon="10.8825175"><ele>17.0</ele><time>2026-04-17T17:13:38.041Z</time></trkpt><trkpt lat="45.1372108" lon="10.8823581"><ele>17.0</ele><time>2026-04-17T17:13:39.042Z</time></trkpt><trkpt lat="45.1372036" lon="10.8821782"><ele>17.0</ele><time>2026-04-17T17:13:40.041Z</time></trkpt><trkpt lat="45.1371957" lon="10.8819841"><ele>17.0</ele><time>2026-04-17T17:13:41.04Z</time></trkpt><trkpt lat="45.137185" lon="10.8817734"><ele>17.0</ele><time>2026-04-17T17:13:42.041Z</time></trkpt><trkpt lat="45.1371766" lon="10.8815603"><ele>17.0</ele><time>2026-04-17T17:13:43.041Z</time></trkpt><trkpt lat="45.1371697" lon="10.8813576"><ele>17.0</ele><time>2026-04-17T17:13:44.042Z</time></trkpt><trkpt lat="45.1371598" lon="10.8811654"><ele>17.0</ele><time>2026-04-17T17:13:45.042Z</time></trkpt><trkpt lat="45.1371493" lon="10.8809963"><ele>17.0</ele><time>2026-04-17T17:13:46.04Z</time></trkpt><trkpt lat="45.1371433" lon="10.8808393"><ele>17.0</ele><time>2026-04-17T17:13:47.043Z</time></trkpt><trkpt lat="45.1371406" lon="10.8807015"><ele>17.2</ele><time>2026-04-17T17:13:48.041Z</time></trkpt><trkpt lat="45.1371451" lon="10.8805911"><ele>17.4</ele><time>2026-04-17T17:13:49.043Z</time></trkpt><trkpt lat="45.1371646" lon="10.8804301"><ele>17.6</ele><time>2026-04-17T17:13:51.041Z</time></trkpt><trkpt lat="45.1371905" lon="10.880331"><ele>17.8</ele><time>2026-04-17T17:13:52.041Z</time></trkpt><trkpt lat="45.1372266" lon="10.8802201"><ele>18.0</ele><time>2026-04-17T17:13:53.041Z</time></trkpt><trkpt lat="45.1372691" lon="10.8800897"><ele>18.2</ele><time>2026-04-17T17:13:54.043Z</time></trkpt><trkpt lat="45.1373099" lon="10.879953"><ele>18.4</ele><time>2026-04-17T17:13:55.043Z</time></trkpt><trkpt lat="45.1373455" lon="10.8798252"><ele>18.599999999999998</ele><time>2026-04-17T17:13:56.041Z</time></trkpt><trkpt lat="45.1373796" lon="10.8796956"><ele>18.8</ele><time>2026-04-17T17:13:57.041Z</time></trkpt><trkpt lat="45.1374169" lon="10.8795615"><ele>19.0</ele><time>2026-04-17T17:13:58.04Z</time></trkpt><trkpt lat="45.1374461" lon="10.8794136"><ele>19.25</ele><time>2026-04-17T17:13:59.041Z</time></trkpt><trkpt lat="45.1374614" lon="10.8792483"><ele>19.5</ele><time>2026-04-17T17:14:00.041Z</time></trkpt><trkpt lat="45.1374672" lon="10.8790741"><ele>19.75</ele><time>2026-04-17T17:14:01.042Z</time></trkpt><trkpt lat="45.1374662" lon="10.878915"><ele>20.0</ele><time>2026-04-17T17:14:02.041Z</time></trkpt><trkpt lat="45.1374603" lon="10.8787737"><ele>20.0</ele><time>2026-04-17T17:14:03.041Z</time></trkpt><trkpt lat="45.1374535" lon="10.8786704"><ele>20.0</ele><time>2026-04-17T17:14:04.042Z</time></trkpt><trkpt lat="45.1374288" lon="10.8785232"><ele>20.0</ele><time>2026-04-17T17:14:06.041Z</time></trkpt><trkpt lat="45.1374339" lon="10.8783818"><ele>20.0</ele><time>2026-04-17T17:14:08.041Z</time></trkpt><trkpt lat="45.1374398" lon="10.878291"><ele>20.0</ele><time>2026-04-17T17:14:09.042Z</time></trkpt><trkpt lat="45.1374481" lon="10.8781801"><ele>20.0</ele><time>2026-04-17T17:14:10.041Z</time></trkpt><trkpt lat="45.1374543" lon="10.8780501"><ele>20.0</ele><time>2026-04-17T17:14:11.04Z</time></trkpt><trkpt lat="45.1374647" lon="10.8779036"><ele>20.0</ele><time>2026-04-17T17:14:12.041Z</time></trkpt><trkpt lat="45.1374781" lon="10.8777419"><ele>20.0</ele><time>2026-04-17T17:14:13.041Z</time></trkpt><trkpt lat="45.137493" lon="10.8775669"><ele>20.0</ele><time>2026-04-17T17:14:14.042Z</time></trkpt><trkpt lat="45.1375098" lon="10.8773803"><ele>20.25</ele><time>2026-04-17T17:14:15.042Z</time></trkpt><trkpt lat="45.1375286" lon="10.8771821"><ele>20.5</ele><time>2026-04-17T17:14:16.043Z</time></trkpt><trkpt lat="45.1375463" lon="10.8769751"><ele>20.75</ele><time>2026-04-17T17:14:17.042Z</time></trkpt><trkpt lat="45.1375635" lon="10.8767672"><ele>21.0</ele><time>2026-04-17T17:14:18.041Z</time></trkpt><trkpt lat="45.1375825" lon="10.8765535"><ele>21.0</ele><time>2026-04-17T17:14:19.04Z</time></trkpt><trkpt lat="45.1376" lon="10.8763451"><ele>21.0</ele><time>2026-04-17T17:14:20.041Z</time></trkpt><trkpt lat="45.1376198" lon="10.8761348"><ele>21.0</ele><time>2026-04-17T17:14:21.041Z</time></trkpt><trkpt lat="45.1376378" lon="10.8759282"><ele>21.0</ele><time>2026-04-17T17:14:22.041Z</time></trkpt><trkpt lat="45.1376576" lon="10.8757215"><ele>21.0</ele><time>2026-04-17T17:14:23.042Z</time></trkpt><trkpt lat="45.1376737" lon="10.8755169"><ele>21.0</ele><time>2026-04-17T17:14:24.041Z</time></trkpt><trkpt lat="45.1376914" lon="10.8753127"><ele>21.0</ele><time>2026-04-17T17:14:25.042Z</time></trkpt><trkpt lat="45.1377085" lon="10.8751114"><ele>21.0</ele><time>2026-04-17T17:14:26.042Z</time></trkpt><trkpt lat="45.1377244" lon="10.8749039"><ele>21.0</ele><time>2026-04-17T17:14:27.042Z</time></trkpt><trkpt lat="45.1377427" lon="10.8746944"><ele>21.0</ele><time>2026-04-17T17:14:28.041Z</time></trkpt><trkpt lat="45.1377677" lon="10.8744936"><ele>21.0</ele><time>2026-04-17T17:14:29.042Z</time></trkpt><trkpt lat="45.1377946" lon="10.8742959"><ele>21.0</ele><time>2026-04-17T17:14:30.042Z</time></trkpt><trkpt lat="45.1378239" lon="10.8740963"><ele>20.75</ele><time>2026-04-17T17:14:31.042Z</time></trkpt><trkpt lat="45.1378515" lon="10.8739001"><ele>20.5</ele><time>2026-04-17T17:14:32.042Z</time></trkpt><trkpt lat="45.1378808" lon="10.8737003"><ele>20.25</ele><time>2026-04-17T17:14:33.042Z</time></trkpt><trkpt lat="45.1379086" lon="10.8734985"><ele>20.0</ele><time>2026-04-17T17:14:34.041Z</time></trkpt><trkpt lat="45.137933" lon="10.8732921"><ele>20.0</ele><time>2026-04-17T17:14:35.041Z</time></trkpt><trkpt lat="45.1379613" lon="10.8730819"><ele>20.0</ele><time>2026-04-17T17:14:36.042Z</time></trkpt><trkpt lat="45.1379956" lon="10.8728721"><ele>20.0</ele><time>2026-04-17T17:14:37.041Z</time></trkpt><trkpt lat="45.1380437" lon="10.8726657"><ele>19.666666666666668</ele><time>2026-04-17T17:14:38.042Z</time></trkpt><trkpt lat="45.1381038" lon="10.8724632"><ele>19.333333333333332</ele><time>2026-04-17T17:14:39.041Z</time></trkpt><trkpt lat="45.1381749" lon="10.8722594"><ele>19.0</ele><time>2026-04-17T17:14:40.042Z</time></trkpt><trkpt lat="45.1382501" lon="10.8720569"><ele>19.0</ele><time>2026-04-17T17:14:41.042Z</time></trkpt><trkpt lat="45.1383222" lon="10.8718697"><ele>19.0</ele><time>2026-04-17T17:14:42.042Z</time></trkpt><trkpt lat="45.1383864" lon="10.8716885"><ele>19.0</ele><time>2026-04-17T17:14:43.042Z</time></trkpt><trkpt lat="45.1384357" lon="10.8715029"><ele>19.0</ele><time>2026-04-17T17:14:44.043Z</time></trkpt><trkpt lat="45.1384704" lon="10.8713032"><ele>19.5</ele><time>2026-04-17T17:14:45.041Z</time></trkpt><trkpt lat="45.1384669" lon="10.8710984"><ele>20.0</ele><time>2026-04-17T17:14:46.04Z</time></trkpt><trkpt lat="45.138445" lon="10.8708946"><ele>20.5</ele><time>2026-04-17T17:14:47.041Z</time></trkpt><trkpt lat="45.1384163" lon="10.8706893"><ele>21.0</ele><time>2026-04-17T17:14:48.042Z</time></trkpt><trkpt lat="45.1383884" lon="10.8704903"><ele>21.25</ele><time>2026-04-17T17:14:49.041Z</time></trkpt><trkpt lat="45.1383602" lon="10.8702953"><ele>21.5</ele><time>2026-04-17T17:14:50.041Z</time></trkpt><trkpt lat="45.1383379" lon="10.8701137"><ele>21.75</ele><time>2026-04-17T17:14:51.042Z</time></trkpt><trkpt lat="45.1383261" lon="10.8699312"><ele>22.0</ele><time>2026-04-17T17:14:52.042Z</time></trkpt><trkpt lat="45.1383311" lon="10.8697563"><ele>21.5</ele><time>2026-04-17T17:14:53.043Z</time></trkpt><trkpt lat="45.1383484" lon="10.8695876"><ele>21.0</ele><time>2026-04-17T17:14:54.042Z</time></trkpt><trkpt lat="45.1383827" lon="10.8694191"><ele>20.5</ele><time>2026-04-17T17:14:55.041Z</time></trkpt><trkpt lat="45.138436" lon="10.8692542"><ele>20.0</ele><time>2026-04-17T17:14:56.042Z</time></trkpt><trkpt lat="45.1385047" lon="10.8690992"><ele>19.25</ele><time>2026-04-17T17:14:57.041Z</time></trkpt><trkpt lat="45.1385941" lon="10.8689551"><ele>18.5</ele><time>2026-04-17T17:14:58.041Z</time></trkpt><trkpt lat="45.1387027" lon="10.868825"><ele>17.75</ele><time>2026-04-17T17:14:59.042Z</time></trkpt><trkpt lat="45.1388291" lon="10.868722"><ele>17.0</ele><time>2026-04-17T17:15:00.041Z</time></trkpt><trkpt lat="45.1389728" lon="10.8686454"><ele>17.666666666666668</ele><time>2026-04-17T17:15:01.041Z</time></trkpt><trkpt lat="45.139123" lon="10.868582"><ele>18.333333333333332</ele><time>2026-04-17T17:15:02.043Z</time></trkpt><trkpt lat="45.1392774" lon="10.868504"><ele>19.0</ele><time>2026-04-17T17:15:03.042Z</time></trkpt><trkpt lat="45.1394241" lon="10.8683953"><ele>19.0</ele><time>2026-04-17T17:15:04.042Z</time></trkpt><trkpt lat="45.1395607" lon="10.8682564"><ele>19.0</ele><time>2026-04-17T17:15:05.042Z</time></trkpt><trkpt lat="45.1396829" lon="10.8680886"><ele>19.0</ele><time>2026-04-17T17:15:06.041Z</time></trkpt><trkpt lat="45.1397996" lon="10.8678999"><ele>19.0</ele><time>2026-04-17T17:15:07.041Z</time></trkpt><trkpt lat="45.1399134" lon="10.8677145"><ele>19.0</ele><time>2026-04-17T17:15:08.042Z</time></trkpt><trkpt lat="45.1400219" lon="10.8675417"><ele>19.0</ele><time>2026-04-17T17:15:09.042Z</time></trkpt><trkpt lat="45.1401295" lon="10.8673724"><ele>19.0</ele><time>2026-04-17T17:15:10.041Z</time></trkpt><trkpt lat="45.1402421" lon="10.8671978"><ele>19.0</ele><time>2026-04-17T17:15:11.041Z</time></trkpt><trkpt lat="45.1403471" lon="10.8670331"><ele>19.0</ele><time>2026-04-17T17:15:12.041Z</time></trkpt><trkpt lat="45.140447" lon="10.8668839"><ele>19.25</ele><time>2026-04-17T17:15:13.043Z</time></trkpt><trkpt lat="45.140541" lon="10.8667458"><ele>19.5</ele><time>2026-04-17T17:15:14.041Z</time></trkpt><trkpt lat="45.140628" lon="10.8666283"><ele>19.75</ele><time>2026-04-17T17:15:15.042Z</time></trkpt><trkpt lat="45.1407259" lon="10.8665306"><ele>20.0</ele><time>2026-04-17T17:15:16.042Z</time></trkpt><trkpt lat="45.1408431" lon="10.8664706"><ele>20.0</ele><time>2026-04-17T17:15:17.042Z</time></trkpt><trkpt lat="45.1409591" lon="10.8664035"><ele>20.0</ele><time>2026-04-17T17:15:18.041Z</time></trkpt><trkpt lat="45.1410594" lon="10.8662804"><ele>20.0</ele><time>2026-04-17T17:15:19.041Z</time></trkpt><trkpt lat="45.1411327" lon="10.8661139"><ele>20.0</ele><time>2026-04-17T17:15:20.042Z</time></trkpt><trkpt lat="45.1412171" lon="10.8659522"><ele>20.0</ele><time>2026-04-17T17:15:21.041Z</time></trkpt><trkpt lat="45.1413359" lon="10.8658195"><ele>20.0</ele><time>2026-04-17T17:15:22.042Z</time></trkpt><trkpt lat="45.1414679" lon="10.8656989"><ele>20.0</ele><time>2026-04-17T17:15:23.041Z</time></trkpt><trkpt lat="45.1416344" lon="10.86559"><ele>20.333333333333336</ele><time>2026-04-17T17:15:24.041Z</time></trkpt><trkpt lat="45.1417908" lon="10.8654736"><ele>20.666666666666668</ele><time>2026-04-17T17:15:25.041Z</time></trkpt><trkpt lat="45.1419717" lon="10.8653463"><ele>21.0</ele><time>2026-04-17T17:15:26.041Z</time></trkpt><trkpt lat="45.1421505" lon="10.8652142"><ele>20.666666666666668</ele><time>2026-04-17T17:15:27.041Z</time></trkpt><trkpt lat="45.1423369" lon="10.8650903"><ele>20.333333333333336</ele><time>2026-04-17T17:15:28.041Z</time></trkpt><trkpt lat="45.1425242" lon="10.8649509"><ele>20.0</ele><time>2026-04-17T17:15:29.041Z</time></trkpt><trkpt lat="45.142716" lon="10.8648078"><ele>20.0</ele><time>2026-04-17T17:15:30.041Z</time></trkpt><trkpt lat="45.142906" lon="10.8646579"><ele>20.0</ele><time>2026-04-17T17:15:31.042Z</time></trkpt><trkpt lat="45.1431024" lon="10.8645091"><ele>20.0</ele><time>2026-04-17T17:15:32.041Z</time></trkpt><trkpt lat="45.1432979" lon="10.8643622"><ele>20.0</ele><time>2026-04-17T17:15:33.042Z</time></trkpt><trkpt lat="45.1434939" lon="10.8642069"><ele>20.0</ele><time>2026-04-17T17:15:34.043Z</time></trkpt><trkpt lat="45.1436809" lon="10.8640382"><ele>20.0</ele><time>2026-04-17T17:15:35.041Z</time></trkpt><trkpt lat="45.1438632" lon="10.8638505"><ele>20.0</ele><time>2026-04-17T17:15:36.042Z</time></trkpt><trkpt lat="45.144039" lon="10.8636459"><ele>20.0</ele><time>2026-04-17T17:15:37.041Z</time></trkpt><trkpt lat="45.144207" lon="10.8634303"><ele>22.0</ele><time>2026-04-17T17:15:38.041Z</time></trkpt><trkpt lat="45.144361" lon="10.8631897"><ele>24.0</ele><time>2026-04-17T17:15:39.041Z</time></trkpt><trkpt lat="45.1445064" lon="10.8629381"><ele>24.0</ele><time>2026-04-17T17:15:40.041Z</time></trkpt><trkpt lat="45.1446481" lon="10.8626798"><ele>24.0</ele><time>2026-04-17T17:15:41.04Z</time></trkpt><trkpt lat="45.1447847" lon="10.8624268"><ele>24.0</ele><time>2026-04-17T17:15:42.042Z</time></trkpt><trkpt lat="45.1449227" lon="10.8621785"><ele>24.0</ele><time>2026-04-17T17:15:43.04Z</time></trkpt><trkpt lat="45.1450548" lon="10.8619225"><ele>24.0</ele><time>2026-04-17T17:15:44.041Z</time></trkpt><trkpt lat="45.1451759" lon="10.8616576"><ele>23.333333333333332</ele><time>2026-04-17T17:15:45.041Z</time></trkpt><trkpt lat="45.1452731" lon="10.8613868"><ele>22.666666666666664</ele><time>2026-04-17T17:15:46.041Z</time></trkpt><trkpt lat="45.1453533" lon="10.8611261"><ele>22.0</ele><time>2026-04-17T17:15:47.041Z</time></trkpt><trkpt lat="45.1454263" lon="10.8608775"><ele>20.666666666666664</ele><time>2026-04-17T17:15:48.041Z</time></trkpt><trkpt lat="45.1454876" lon="10.8606476"><ele>19.333333333333332</ele><time>2026-04-17T17:15:49.041Z</time></trkpt><trkpt lat="45.1455417" lon="10.8604294"><ele>18.0</ele><time>2026-04-17T17:15:50.042Z</time></trkpt><trkpt lat="45.1455875" lon="10.8602366"><ele>17.75</ele><time>2026-04-17T17:15:51.041Z</time></trkpt><trkpt lat="45.145639" lon="10.8600643"><ele>17.5</ele><time>2026-04-17T17:15:52.041Z</time></trkpt><trkpt lat="45.1456987" lon="10.859908"><ele>17.25</ele><time>2026-04-17T17:15:53.041Z</time></trkpt><trkpt lat="45.1457825" lon="10.85978"><ele>17.0</ele><time>2026-04-17T17:15:54.042Z</time></trkpt><trkpt lat="45.1458789" lon="10.8596708"><ele>17.5</ele><time>2026-04-17T17:15:55.042Z</time></trkpt><trkpt lat="45.1459607" lon="10.8595447"><ele>18.0</ele><time>2026-04-17T17:15:56.042Z</time></trkpt><trkpt lat="45.1460083" lon="10.8593739"><ele>18.5</ele><time>2026-04-17T17:15:57.042Z</time></trkpt><trkpt lat="45.1460069" lon="10.8591819"><ele>19.0</ele><time>2026-04-17T17:15:58.041Z</time></trkpt><trkpt lat="45.1459713" lon="10.8589713"><ele>19.0</ele><time>2026-04-17T17:15:59.041Z</time></trkpt><trkpt lat="45.145945" lon="10.8587463"><ele>19.0</ele><time>2026-04-17T17:16:00.042Z</time></trkpt><trkpt lat="45.1459333" lon="10.8585025"><ele>19.0</ele><time>2026-04-17T17:16:01.043Z</time></trkpt><trkpt lat="45.1459262" lon="10.858258"><ele>19.0</ele><time>2026-04-17T17:16:02.041Z</time></trkpt><trkpt lat="45.1459341" lon="10.8580365"><ele>19.0</ele><time>2026-04-17T17:16:03.042Z</time></trkpt><trkpt lat="45.1459373" lon="10.8578174"><ele>19.0</ele><time>2026-04-17T17:16:04.042Z</time></trkpt><trkpt lat="45.1459437" lon="10.8576067"><ele>19.333333333333332</ele><time>2026-04-17T17:16:05.041Z</time></trkpt><trkpt lat="45.1459488" lon="10.8573976"><ele>19.666666666666668</ele><time>2026-04-17T17:16:06.042Z</time></trkpt><trkpt lat="45.1459584" lon="10.8571844"><ele>20.0</ele><time>2026-04-17T17:16:07.042Z</time></trkpt><trkpt lat="45.1459742" lon="10.8569667"><ele>19.666666666666668</ele><time>2026-04-17T17:16:08.042Z</time></trkpt><trkpt lat="45.1459979" lon="10.8567371"><ele>19.333333333333332</ele><time>2026-04-17T17:16:09.043Z</time></trkpt><trkpt lat="45.1460318" lon="10.8565055"><ele>19.0</ele><time>2026-04-17T17:16:10.04Z</time></trkpt><trkpt lat="45.1460822" lon="10.8562733"><ele>19.0</ele><time>2026-04-17T17:16:11.041Z</time></trkpt><trkpt lat="45.1461485" lon="10.8560431"><ele>19.0</ele><time>2026-04-17T17:16:12.041Z</time></trkpt><trkpt lat="45.1462281" lon="10.8558161"><ele>19.0</ele><time>2026-04-17T17:16:13.04Z</time></trkpt><trkpt lat="45.1463151" lon="10.8555862"><ele>19.333333333333332</ele><time>2026-04-17T17:16:14.041Z</time></trkpt><trkpt lat="45.1463986" lon="10.8553595"><ele>19.666666666666668</ele><time>2026-04-17T17:16:15.042Z</time></trkpt><trkpt lat="45.1464858" lon="10.8551341"><ele>20.0</ele><time>2026-04-17T17:16:16.041Z</time></trkpt><trkpt lat="45.1465685" lon="10.8549088"><ele>20.333333333333336</ele><time>2026-04-17T17:16:17.041Z</time></trkpt><trkpt lat="45.1466517" lon="10.8546821"><ele>20.666666666666668</ele><time>2026-04-17T17:16:18.042Z</time></trkpt><trkpt lat="45.1467385" lon="10.8544518"><ele>21.0</ele><time>2026-04-17T17:16:19.041Z</time></trkpt><trkpt lat="45.1468246" lon="10.8542195"><ele>20.333333333333332</ele><time>2026-04-17T17:16:20.041Z</time></trkpt><trkpt lat="45.1469105" lon="10.8539898"><ele>19.666666666666664</ele><time>2026-04-17T17:16:21.041Z</time></trkpt><trkpt lat="45.1470001" lon="10.8537597"><ele>19.0</ele><time>2026-04-17T17:16:22.042Z</time></trkpt><trkpt lat="45.1470888" lon="10.8535345"><ele>20.0</ele><time>2026-04-17T17:16:23.042Z</time></trkpt><trkpt lat="45.1471769" lon="10.8533071"><ele>21.0</ele><time>2026-04-17T17:16:24.042Z</time></trkpt><trkpt lat="45.1472663" lon="10.8530797"><ele>22.0</ele><time>2026-04-17T17:16:25.041Z</time></trkpt><trkpt lat="45.1473553" lon="10.8528528"><ele>22.666666666666664</ele><time>2026-04-17T17:16:26.041Z</time></trkpt><trkpt lat="45.1474423" lon="10.852626"><ele>23.333333333333332</ele><time>2026-04-17T17:16:27.041Z</time></trkpt><trkpt lat="45.1475276" lon="10.8523981"><ele>24.0</ele><time>2026-04-17T17:16:28.043Z</time></trkpt><trkpt lat="45.147611" lon="10.8521768"><ele>24.0</ele><time>2026-04-17T17:16:29.043Z</time></trkpt><trkpt lat="45.147695" lon="10.8519495"><ele>24.0</ele><time>2026-04-17T17:16:30.041Z</time></trkpt><trkpt lat="45.1477814" lon="10.8517274"><ele>24.0</ele><time>2026-04-17T17:16:31.041Z</time></trkpt><trkpt lat="45.1478634" lon="10.8515159"><ele>24.0</ele><time>2026-04-17T17:16:32.043Z</time></trkpt><trkpt lat="45.1479391" lon="10.851316"><ele>24.0</ele><time>2026-04-17T17:16:33.042Z</time></trkpt><trkpt lat="45.1480115" lon="10.8511267"><ele>24.0</ele><time>2026-04-17T17:16:34.042Z</time></trkpt><trkpt lat="45.1480783" lon="10.8509489"><ele>24.0</ele><time>2026-04-17T17:16:35.042Z</time></trkpt><trkpt lat="45.1481389" lon="10.8507878"><ele>24.0</ele><time>2026-04-17T17:16:36.041Z</time></trkpt><trkpt lat="45.1481962" lon="10.8506519"><ele>24.0</ele><time>2026-04-17T17:16:37.041Z</time></trkpt><trkpt lat="45.148248" lon="10.8505413"><ele>24.0</ele><time>2026-04-17T17:16:38.042Z</time></trkpt><trkpt lat="45.1483142" lon="10.8504477"><ele>24.0</ele><time>2026-04-17T17:16:39.041Z</time></trkpt><trkpt lat="45.1484074" lon="10.8503996"><ele>24.0</ele><time>2026-04-17T17:16:40.041Z</time></trkpt><trkpt lat="45.148514" lon="10.8503733"><ele>24.0</ele><time>2026-04-17T17:16:41.041Z</time></trkpt><trkpt lat="45.1486299" lon="10.8503348"><ele>24.0</ele><time>2026-04-17T17:16:42.041Z</time></trkpt><trkpt lat="45.1487403" lon="10.8502543"><ele>24.0</ele><time>2026-04-17T17:16:43.042Z</time></trkpt><trkpt lat="45.1488394" lon="10.850164"><ele>24.75</ele><time>2026-04-17T17:16:44.041Z</time></trkpt><trkpt lat="45.1489514" lon="10.8500958"><ele>25.5</ele><time>2026-04-17T17:16:45.041Z</time></trkpt><trkpt lat="45.1490763" lon="10.8500707"><ele>26.25</ele><time>2026-04-17T17:16:46.041Z</time></trkpt><trkpt lat="45.1492043" lon="10.850084"><ele>27.0</ele><time>2026-04-17T17:16:47.041Z</time></trkpt><trkpt lat="45.1493468" lon="10.8501245"><ele>25.0</ele><time>2026-04-17T17:16:48.041Z</time></trkpt><trkpt lat="45.1494961" lon="10.8501791"><ele>23.0</ele><time>2026-04-17T17:16:49.041Z</time></trkpt><trkpt lat="45.1496519" lon="10.8502427"><ele>21.0</ele><time>2026-04-17T17:16:50.041Z</time></trkpt><trkpt lat="45.1498118" lon="10.8503123"><ele>21.666666666666668</ele><time>2026-04-17T17:16:51.042Z</time></trkpt><trkpt lat="45.1499778" lon="10.8503793"><ele>22.333333333333336</ele><time>2026-04-17T17:16:52.04Z</time></trkpt><trkpt lat="45.1501477" lon="10.8504472"><ele>23.0</ele><time>2026-04-17T17:16:53.041Z</time></trkpt><trkpt lat="45.1503159" lon="10.8505125"><ele>23.0</ele><time>2026-04-17T17:16:54.041Z</time></trkpt><trkpt lat="45.1504885" lon="10.8505859"><ele>23.0</ele><time>2026-04-17T17:16:55.041Z</time></trkpt><trkpt lat="45.1506605" lon="10.850652"><ele>23.0</ele><time>2026-04-17T17:16:56.041Z</time></trkpt><trkpt lat="45.1508283" lon="10.8507253"><ele>22.666666666666668</ele><time>2026-04-17T17:16:57.041Z</time></trkpt><trkpt lat="45.1509979" lon="10.8508085"><ele>22.333333333333332</ele><time>2026-04-17T17:16:58.041Z</time></trkpt><trkpt lat="45.1511663" lon="10.8509002"><ele>22.0</ele><time>2026-04-17T17:16:59.04Z</time></trkpt><trkpt lat="45.1513332" lon="10.8510016"><ele>22.0</ele><time>2026-04-17T17:17:00.042Z</time></trkpt><trkpt lat="45.1514983" lon="10.8511106"><ele>22.0</ele><time>2026-04-17T17:17:01.043Z</time></trkpt><trkpt lat="45.1516613" lon="10.8512324"><ele>22.0</ele><time>2026-04-17T17:17:02.041Z</time></trkpt><trkpt lat="45.151822" lon="10.8513671"><ele>20.666666666666664</ele><time>2026-04-17T17:17:03.043Z</time></trkpt><trkpt lat="45.1519806" lon="10.8515124"><ele>19.333333333333332</ele><time>2026-04-17T17:17:04.041Z</time></trkpt><trkpt lat="45.1521361" lon="10.8516621"><ele>18.0</ele><time>2026-04-17T17:17:05.041Z</time></trkpt><trkpt lat="45.1522869" lon="10.8518223"><ele>20.0</ele><time>2026-04-17T17:17:06.042Z</time></trkpt><trkpt lat="45.1524337" lon="10.8519954"><ele>22.0</ele><time>2026-04-17T17:17:07.041Z</time></trkpt><trkpt lat="45.1525744" lon="10.8521729"><ele>24.0</ele><time>2026-04-17T17:17:08.042Z</time></trkpt><trkpt lat="45.1527114" lon="10.8523613"><ele>24.0</ele><time>2026-04-17T17:17:09.041Z</time></trkpt><trkpt lat="45.1528408" lon="10.85256"><ele>24.0</ele><time>2026-04-17T17:17:10.041Z</time></trkpt><trkpt lat="45.1529649" lon="10.8527706"><ele>24.0</ele><time>2026-04-17T17:17:11.043Z</time></trkpt><trkpt lat="45.1530842" lon="10.8529869"><ele>23.333333333333332</ele><time>2026-04-17T17:17:12.041Z</time></trkpt><trkpt lat="45.1531983" lon="10.8532095"><ele>22.666666666666664</ele><time>2026-04-17T17:17:13.041Z</time></trkpt><trkpt lat="45.1533109" lon="10.8534321"><ele>22.0</ele><time>2026-04-17T17:17:14.042Z</time></trkpt><trkpt lat="45.1534179" lon="10.8536501"><ele>21.0</ele><time>2026-04-17T17:17:15.042Z</time></trkpt><trkpt lat="45.1535182" lon="10.8538572"><ele>20.0</ele><time>2026-04-17T17:17:16.043Z</time></trkpt><trkpt lat="45.1536108" lon="10.8540507"><ele>19.0</ele><time>2026-04-17T17:17:17.041Z</time></trkpt><trkpt lat="45.1536963" lon="10.8542285"><ele>19.0</ele><time>2026-04-17T17:17:18.042Z</time></trkpt><trkpt lat="45.1537756" lon="10.8543977"><ele>19.0</ele><time>2026-04-17T17:17:19.042Z</time></trkpt><trkpt lat="45.153846" lon="10.8545524"><ele>19.0</ele><time>2026-04-17T17:17:20.042Z</time></trkpt><trkpt lat="45.1539012" lon="10.8546977"><ele>19.0</ele><time>2026-04-17T17:17:21.041Z</time></trkpt><trkpt lat="45.1539395" lon="10.8548451"><ele>19.0</ele><time>2026-04-17T17:17:22.041Z</time></trkpt><trkpt lat="45.1539517" lon="10.8550014"><ele>19.0</ele><time>2026-04-17T17:17:23.041Z</time></trkpt><trkpt lat="45.1539258" lon="10.8551749"><ele>19.0</ele><time>2026-04-17T17:17:24.041Z</time></trkpt><trkpt lat="45.1538792" lon="10.85536"><ele>19.0</ele><time>2026-04-17T17:17:25.042Z</time></trkpt><trkpt lat="45.1538458" lon="10.8555546"><ele>19.0</ele><time>2026-04-17T17:17:26.042Z</time></trkpt><trkpt lat="45.153841" lon="10.8557485"><ele>19.0</ele><time>2026-04-17T17:17:27.042Z</time></trkpt><trkpt lat="45.1538691" lon="10.8559347"><ele>19.0</ele><time>2026-04-17T17:17:28.042Z</time></trkpt><trkpt lat="45.1539262" lon="10.8561111"><ele>19.0</ele><time>2026-04-17T17:17:29.041Z</time></trkpt><trkpt lat="45.1540097" lon="10.8562635"><ele>19.25</ele><time>2026-04-17T17:17:30.041Z</time></trkpt><trkpt lat="45.154117" lon="10.8563916"><ele>19.5</ele><time>2026-04-17T17:17:31.041Z</time></trkpt><trkpt lat="45.1542343" lon="10.8564882"><ele>19.75</ele><time>2026-04-17T17:17:32.041Z</time></trkpt><trkpt lat="45.154379" lon="10.8565082"><ele>20.0</ele><time>2026-04-17T17:17:33.041Z</time></trkpt><trkpt lat="45.1545228" lon="10.8565015"><ele>20.0</ele><time>2026-04-17T17:17:34.041Z</time></trkpt><trkpt lat="45.1546616" lon="10.8564417"><ele>20.0</ele><time>2026-04-17T17:17:35.041Z</time></trkpt><trkpt lat="45.1547853" lon="10.8563385"><ele>20.0</ele><time>2026-04-17T17:17:36.041Z</time></trkpt><trkpt lat="45.1548899" lon="10.8562018"><ele>20.0</ele><time>2026-04-17T17:17:37.041Z</time></trkpt><trkpt lat="45.1549939" lon="10.8560548"><ele>19.666666666666668</ele><time>2026-04-17T17:17:38.042Z</time></trkpt><trkpt lat="45.1551061" lon="10.8559233"><ele>19.333333333333332</ele><time>2026-04-17T17:17:39.042Z</time></trkpt><trkpt lat="45.1552351" lon="10.8558091"><ele>19.0</ele><time>2026-04-17T17:17:40.041Z</time></trkpt><trkpt lat="45.155375" lon="10.8557241"><ele>19.0</ele><time>2026-04-17T17:17:41.041Z</time></trkpt><trkpt lat="45.1555276" lon="10.8556605"><ele>19.0</ele><time>2026-04-17T17:17:42.042Z</time></trkpt><trkpt lat="45.1556907" lon="10.8556237"><ele>19.0</ele><time>2026-04-17T17:17:43.041Z</time></trkpt><trkpt lat="45.1558624" lon="10.8555908"><ele>20.666666666666664</ele><time>2026-04-17T17:17:44.041Z</time></trkpt><trkpt lat="45.1560312" lon="10.8555552"><ele>22.333333333333332</ele><time>2026-04-17T17:17:45.042Z</time></trkpt><trkpt lat="45.1562058" lon="10.8555159"><ele>24.0</ele><time>2026-04-17T17:17:46.041Z</time></trkpt><trkpt lat="45.1563857" lon="10.8554732"><ele>23.666666666666668</ele><time>2026-04-17T17:17:47.042Z</time></trkpt><trkpt lat="45.1565665" lon="10.8554335"><ele>23.333333333333336</ele><time>2026-04-17T17:17:48.041Z</time></trkpt><trkpt lat="45.1567529" lon="10.8553965"><ele>23.0</ele><time>2026-04-17T17:17:49.041Z</time></trkpt><trkpt lat="45.1569394" lon="10.8553648"><ele>23.0</ele><time>2026-04-17T17:17:50.042Z</time></trkpt><trkpt lat="45.1571279" lon="10.8553284"><ele>23.0</ele><time>2026-04-17T17:17:51.042Z</time></trkpt><trkpt lat="45.1573218" lon="10.8552904"><ele>23.0</ele><time>2026-04-17T17:17:52.043Z</time></trkpt><trkpt lat="45.1575047" lon="10.8552474"><ele>22.666666666666668</ele><time>2026-04-17T17:17:53.041Z</time></trkpt><trkpt lat="45.1576886" lon="10.8552077"><ele>22.333333333333332</ele><time>2026-04-17T17:17:54.041Z</time></trkpt><trkpt lat="45.1578726" lon="10.8551589"><ele>22.0</ele><time>2026-04-17T17:17:55.042Z</time></trkpt><trkpt lat="45.1580572" lon="10.8550973"><ele>22.666666666666664</ele><time>2026-04-17T17:17:56.041Z</time></trkpt><trkpt lat="45.1582403" lon="10.8550275"><ele>23.333333333333332</ele><time>2026-04-17T17:17:57.041Z</time></trkpt><trkpt lat="45.1584203" lon="10.8549517"><ele>24.0</ele><time>2026-04-17T17:17:58.041Z</time></trkpt><trkpt lat="45.1585973" lon="10.8548701"><ele>24.0</ele><time>2026-04-17T17:17:59.041Z</time></trkpt><trkpt lat="45.158774" lon="10.8547793"><ele>24.0</ele><time>2026-04-17T17:18:00.043Z</time></trkpt><trkpt lat="45.1589467" lon="10.854685"><ele>24.0</ele><time>2026-04-17T17:18:01.041Z</time></trkpt><trkpt lat="45.1591178" lon="10.8545808"><ele>24.0</ele><time>2026-04-17T17:18:02.041Z</time></trkpt><trkpt lat="45.1592842" lon="10.8544619"><ele>24.0</ele><time>2026-04-17T17:18:03.041Z</time></trkpt><trkpt lat="45.1594474" lon="10.854345"><ele>24.0</ele><time>2026-04-17T17:18:04.042Z</time></trkpt><trkpt lat="45.1596111" lon="10.8542265"><ele>24.0</ele><time>2026-04-17T17:18:05.042Z</time></trkpt><trkpt lat="45.1597684" lon="10.8541018"><ele>24.0</ele><time>2026-04-17T17:18:06.041Z</time></trkpt><trkpt lat="45.1599283" lon="10.8539624"><ele>24.0</ele><time>2026-04-17T17:18:07.041Z</time></trkpt><trkpt lat="45.1600923" lon="10.8538247"><ele>24.333333333333336</ele><time>2026-04-17T17:18:08.041Z</time></trkpt><trkpt lat="45.1602551" lon="10.8536918"><ele>24.666666666666668</ele><time>2026-04-17T17:18:09.041Z</time></trkpt><trkpt lat="45.1604175" lon="10.8535556"><ele>25.0</ele><time>2026-04-17T17:18:10.042Z</time></trkpt><trkpt lat="45.160583" lon="10.8534134"><ele>24.0</ele><time>2026-04-17T17:18:11.041Z</time></trkpt><trkpt lat="45.1607518" lon="10.8532757"><ele>23.0</ele><time>2026-04-17T17:18:12.041Z</time></trkpt><trkpt lat="45.1609234" lon="10.8531357"><ele>22.0</ele><time>2026-04-17T17:18:13.041Z</time></trkpt><trkpt lat="45.1610923" lon="10.8529947"><ele>22.0</ele><time>2026-04-17T17:18:14.041Z</time></trkpt><trkpt lat="45.1612627" lon="10.8528487"><ele>22.0</ele><time>2026-04-17T17:18:15.042Z</time></trkpt><trkpt lat="45.1614298" lon="10.8527058"><ele>22.0</ele><time>2026-04-17T17:18:16.041Z</time></trkpt><trkpt lat="45.1615965" lon="10.8525608"><ele>21.666666666666664</ele><time>2026-04-17T17:18:17.042Z</time></trkpt><trkpt lat="45.1617636" lon="10.8524222"><ele>21.333333333333332</ele><time>2026-04-17T17:18:18.042Z</time></trkpt><trkpt lat="45.1619252" lon="10.852285"><ele>21.0</ele><time>2026-04-17T17:18:19.042Z</time></trkpt><trkpt lat="45.162081" lon="10.8521553"><ele>21.0</ele><time>2026-04-17T17:18:20.041Z</time></trkpt><trkpt lat="45.1622361" lon="10.8520249"><ele>21.0</ele><time>2026-04-17T17:18:21.043Z</time></trkpt><trkpt lat="45.1623877" lon="10.8518975"><ele>21.0</ele><time>2026-04-17T17:18:22.041Z</time></trkpt><trkpt lat="45.1625365" lon="10.8517717"><ele>21.0</ele><time>2026-04-17T17:18:23.041Z</time></trkpt><trkpt lat="45.1626824" lon="10.8516475"><ele>21.0</ele><time>2026-04-17T17:18:24.041Z</time></trkpt><trkpt lat="45.1628268" lon="10.8515239"><ele>21.0</ele><time>2026-04-17T17:18:25.042Z</time></trkpt><trkpt lat="45.1629692" lon="10.8514034"><ele>21.0</ele><time>2026-04-17T17:18:26.041Z</time></trkpt><trkpt lat="45.1631093" lon="10.8512834"><ele>21.0</ele><time>2026-04-17T17:18:27.041Z</time></trkpt><trkpt lat="45.1632474" lon="10.8511681"><ele>21.0</ele><time>2026-04-17T17:18:28.041Z</time></trkpt><trkpt lat="45.1633804" lon="10.8510558"><ele>21.0</ele><time>2026-04-17T17:18:29.042Z</time></trkpt><trkpt lat="45.1635085" lon="10.8509567"><ele>21.0</ele><time>2026-04-17T17:18:30.041Z</time></trkpt><trkpt lat="45.1636301" lon="10.8508653"><ele>21.0</ele><time>2026-04-17T17:18:31.041Z</time></trkpt><trkpt lat="45.1637456" lon="10.85079"><ele>21.0</ele><time>2026-04-17T17:18:32.041Z</time></trkpt><trkpt lat="45.1638542" lon="10.8507314"><ele>21.0</ele><time>2026-04-17T17:18:33.042Z</time></trkpt><trkpt lat="45.1639538" lon="10.8506906"><ele>21.0</ele><time>2026-04-17T17:18:34.041Z</time></trkpt><trkpt lat="45.164038" lon="10.8506616"><ele>21.0</ele><time>2026-04-17T17:18:35.041Z</time></trkpt><trkpt lat="45.164108" lon="10.8506394"><ele>21.0</ele><time>2026-04-17T17:18:36.042Z</time></trkpt><trkpt lat="45.1641924" lon="10.8506394"><ele>21.0</ele><time>2026-04-17T17:18:38.041Z</time></trkpt><trkpt lat="45.1642655" lon="10.8506636"><ele>21.0</ele><time>2026-04-17T17:18:42.041Z</time></trkpt><trkpt lat="45.1643452" lon="10.8507253"><ele>20.8</ele><time>2026-04-17T17:18:44.042Z</time></trkpt><trkpt lat="45.1644055" lon="10.8507859"><ele>20.6</ele><time>2026-04-17T17:18:45.041Z</time></trkpt><trkpt lat="45.1644795" lon="10.8508532"><ele>20.4</ele><time>2026-04-17T17:18:46.041Z</time></trkpt><trkpt lat="45.1645776" lon="10.8509075"><ele>20.2</ele><time>2026-04-17T17:18:47.041Z</time></trkpt><trkpt lat="45.1646903" lon="10.8509293"><ele>20.0</ele><time>2026-04-17T17:18:48.04Z</time></trkpt><trkpt lat="45.1648206" lon="10.8509206"><ele>20.75</ele><time>2026-04-17T17:18:49.042Z</time></trkpt><trkpt lat="45.1649689" lon="10.8509206"><ele>21.5</ele><time>2026-04-17T17:18:50.042Z</time></trkpt><trkpt lat="45.165118" lon="10.8509193"><ele>22.25</ele><time>2026-04-17T17:18:51.042Z</time></trkpt><trkpt lat="45.1652565" lon="10.8509195"><ele>23.0</ele><time>2026-04-17T17:18:52.041Z</time></trkpt><trkpt lat="45.1653888" lon="10.850919"><ele>23.0</ele><time>2026-04-17T17:18:53.041Z</time></trkpt><trkpt lat="45.1655095" lon="10.8509088"><ele>23.0</ele><time>2026-04-17T17:18:54.041Z</time></trkpt><trkpt lat="45.1656215" lon="10.8508775"><ele>23.0</ele><time>2026-04-17T17:18:55.041Z</time></trkpt><trkpt lat="45.1657279" lon="10.850807"><ele>23.0</ele><time>2026-04-17T17:18:56.041Z</time></trkpt><trkpt lat="45.1658173" lon="10.8506949"><ele>23.0</ele><time>2026-04-17T17:18:57.041Z</time></trkpt><trkpt lat="45.1658891" lon="10.8505529"><ele>23.0</ele><time>2026-04-17T17:18:58.042Z</time></trkpt><trkpt lat="45.165955" lon="10.8503852"><ele>23.0</ele><time>2026-04-17T17:18:59.042Z</time></trkpt><trkpt lat="45.1660241" lon="10.8502272"><ele>23.0</ele><time>2026-04-17T17:19:00.041Z</time></trkpt><trkpt lat="45.166129" lon="10.8500863"><ele>23.0</ele><time>2026-04-17T17:19:01.042Z</time></trkpt><trkpt lat="45.1662497" lon="10.849953"><ele>23.0</ele><time>2026-04-17T17:19:02.041Z</time></trkpt><trkpt lat="45.1663897" lon="10.8498434"><ele>23.0</ele><time>2026-04-17T17:19:03.042Z</time></trkpt><trkpt lat="45.166539" lon="10.8497601"><ele>23.333333333333336</ele><time>2026-04-17T17:19:04.041Z</time></trkpt><trkpt lat="45.1666956" lon="10.8497068"><ele>23.666666666666668</ele><time>2026-04-17T17:19:05.041Z</time></trkpt><trkpt lat="45.1668451" lon="10.8496663"><ele>24.0</ele><time>2026-04-17T17:19:06.042Z</time></trkpt><trkpt lat="45.1669928" lon="10.8496362"><ele>24.0</ele><time>2026-04-17T17:19:07.041Z</time></trkpt><trkpt lat="45.1671344" lon="10.8496018"><ele>24.0</ele><time>2026-04-17T17:19:08.042Z</time></trkpt><trkpt lat="45.1672734" lon="10.8495748"><ele>24.0</ele><time>2026-04-17T17:19:09.041Z</time></trkpt><trkpt lat="45.1674096" lon="10.8495344"><ele>24.0</ele><time>2026-04-17T17:19:10.04Z</time></trkpt><trkpt lat="45.1675454" lon="10.8495"><ele>22.75</ele><time>2026-04-17T17:19:11.042Z</time></trkpt><trkpt lat="45.1676744" lon="10.8494684"><ele>21.5</ele><time>2026-04-17T17:19:12.042Z</time></trkpt><trkpt lat="45.1677995" lon="10.8494343"><ele>20.25</ele><time>2026-04-17T17:19:13.041Z</time></trkpt><trkpt lat="45.1679189" lon="10.8494037"><ele>19.0</ele><time>2026-04-17T17:19:14.043Z</time></trkpt><trkpt lat="45.168028" lon="10.8493776"><ele>19.0</ele><time>2026-04-17T17:19:15.041Z</time></trkpt><trkpt lat="45.1681312" lon="10.8493536"><ele>19.0</ele><time>2026-04-17T17:19:16.041Z</time></trkpt><trkpt lat="45.1682232" lon="10.8493352"><ele>19.0</ele><time>2026-04-17T17:19:17.041Z</time></trkpt><trkpt lat="45.1683164" lon="10.849321"><ele>19.0</ele><time>2026-04-17T17:19:18.042Z</time></trkpt><trkpt lat="45.1683849" lon="10.8493228"><ele>19.0</ele><time>2026-04-17T17:19:19.042Z</time></trkpt><trkpt lat="45.1684512" lon="10.8493359"><ele>19.0</ele><time>2026-04-17T17:19:21.042Z</time></trkpt><trkpt lat="45.1685163" lon="10.8493714"><ele>19.6</ele><time>2026-04-17T17:19:23.042Z</time></trkpt><trkpt lat="45.1686328" lon="10.8494828"><ele>20.2</ele><time>2026-04-17T17:19:25.042Z</time></trkpt><trkpt lat="45.1687116" lon="10.8495476"><ele>20.8</ele><time>2026-04-17T17:19:26.045Z</time></trkpt><trkpt lat="45.1688083" lon="10.8495812"><ele>21.400000000000002</ele><time>2026-04-17T17:19:27.041Z</time></trkpt><trkpt lat="45.1689145" lon="10.8495596"><ele>22.0</ele><time>2026-04-17T17:19:28.041Z</time></trkpt><trkpt lat="45.1690091" lon="10.8494829"><ele>22.400000000000002</ele><time>2026-04-17T17:19:29.041Z</time></trkpt><trkpt lat="45.1690798" lon="10.8493707"><ele>22.8</ele><time>2026-04-17T17:19:30.046Z</time></trkpt><trkpt lat="45.1691159" lon="10.8492331"><ele>23.2</ele><time>2026-04-17T17:19:31.041Z</time></trkpt><trkpt lat="45.1691217" lon="10.8490843"><ele>23.6</ele><time>2026-04-17T17:19:32.041Z</time></trkpt><trkpt lat="45.1690821" lon="10.8489509"><ele>24.0</ele><time>2026-04-17T17:19:33.041Z</time></trkpt><trkpt lat="45.169025" lon="10.8488287"><ele>24.0</ele><time>2026-04-17T17:19:34.042Z</time></trkpt><trkpt lat="45.1689541" lon="10.848701"><ele>24.0</ele><time>2026-04-17T17:19:35.042Z</time></trkpt><trkpt lat="45.1688887" lon="10.8485612"><ele>24.0</ele><time>2026-04-17T17:19:36.045Z</time></trkpt><trkpt lat="45.1688298" lon="10.8484223"><ele>24.0</ele><time>2026-04-17T17:19:37.041Z</time></trkpt><trkpt lat="45.1687868" lon="10.8482502"><ele>24.0</ele><time>2026-04-17T17:19:38.044Z</time></trkpt><trkpt lat="45.1687505" lon="10.8480714"><ele>24.0</ele><time>2026-04-17T17:19:39.041Z</time></trkpt><trkpt lat="45.1687173" lon="10.847881"><ele>24.0</ele><time>2026-04-17T17:19:40.041Z</time></trkpt><trkpt lat="45.1686841" lon="10.8476938"><ele>24.0</ele><time>2026-04-17T17:19:41.042Z</time></trkpt><trkpt lat="45.1686489" lon="10.8475188"><ele>23.5</ele><time>2026-04-17T17:19:42.041Z</time></trkpt><trkpt lat="45.16861" lon="10.8473449"><ele>23.0</ele><time>2026-04-17T17:19:43.041Z</time></trkpt><trkpt lat="45.1685714" lon="10.8471751"><ele>22.5</ele><time>2026-04-17T17:19:44.04Z</time></trkpt><trkpt lat="45.1685333" lon="10.8470017"><ele>22.0</ele><time>2026-04-17T17:19:45.041Z</time></trkpt><trkpt lat="45.1684965" lon="10.8468312"><ele>21.75</ele><time>2026-04-17T17:19:46.043Z</time></trkpt><trkpt lat="45.1684636" lon="10.8466552"><ele>21.5</ele><time>2026-04-17T17:19:47.042Z</time></trkpt><trkpt lat="45.1684247" lon="10.8464843"><ele>21.25</ele><time>2026-04-17T17:19:48.041Z</time></trkpt><trkpt lat="45.1683869" lon="10.8463159"><ele>21.0</ele><time>2026-04-17T17:19:49.041Z</time></trkpt><trkpt lat="45.1683528" lon="10.8461602"><ele>21.0</ele><time>2026-04-17T17:19:50.041Z</time></trkpt><trkpt lat="45.1683217" lon="10.8460052"><ele>21.0</ele><time>2026-04-17T17:19:51.043Z</time></trkpt><trkpt lat="45.1682935" lon="10.8458515"><ele>21.0</ele><time>2026-04-17T17:19:52.042Z</time></trkpt><trkpt lat="45.1682715" lon="10.8456952"><ele>21.0</ele><time>2026-04-17T17:19:53.041Z</time></trkpt><trkpt lat="45.1682681" lon="10.8455375"><ele>21.0</ele><time>2026-04-17T17:19:54.042Z</time></trkpt><trkpt lat="45.168286" lon="10.8453897"><ele>21.5</ele><time>2026-04-17T17:19:55.041Z</time></trkpt><trkpt lat="45.1683239" lon="10.8452353"><ele>22.0</ele><time>2026-04-17T17:19:56.042Z</time></trkpt><trkpt lat="45.1683572" lon="10.8450821"><ele>22.5</ele><time>2026-04-17T17:19:57.041Z</time></trkpt><trkpt lat="45.1684257" lon="10.8449448"><ele>23.0</ele><time>2026-04-17T17:19:58.041Z</time></trkpt><trkpt lat="45.1685172" lon="10.8448217"><ele>23.0</ele><time>2026-04-17T17:19:59.041Z</time></trkpt><trkpt lat="45.1686171" lon="10.8446891"><ele>23.0</ele><time>2026-04-17T17:20:00.042Z</time></trkpt><trkpt lat="45.1687256" lon="10.8445541"><ele>23.0</ele><time>2026-04-17T17:20:01.041Z</time></trkpt><trkpt lat="45.1688252" lon="10.8444275"><ele>23.0</ele><time>2026-04-17T17:20:02.042Z</time></trkpt><trkpt lat="45.1689189" lon="10.8443072"><ele>22.75</ele><time>2026-04-17T17:20:03.041Z</time></trkpt><trkpt lat="45.1690105" lon="10.8441929"><ele>22.5</ele><time>2026-04-17T17:20:04.04Z</time></trkpt><trkpt lat="45.1691066" lon="10.8440749"><ele>22.25</ele><time>2026-04-17T17:20:05.042Z</time></trkpt><trkpt lat="45.169197" lon="10.8439631"><ele>22.0</ele><time>2026-04-17T17:20:06.041Z</time></trkpt><trkpt lat="45.1692761" lon="10.8438549"><ele>22.0</ele><time>2026-04-17T17:20:07.041Z</time></trkpt><trkpt lat="45.1693586" lon="10.8437507"><ele>22.0</ele><time>2026-04-17T17:20:08.04Z</time></trkpt><trkpt lat="45.1694314" lon="10.8436581"><ele>22.0</ele><time>2026-04-17T17:20:09.041Z</time></trkpt><trkpt lat="45.1694933" lon="10.8435816"><ele>22.0</ele><time>2026-04-17T17:20:10.041Z</time></trkpt><trkpt lat="45.1696217" lon="10.8435253"><ele>22.0</ele><time>2026-04-17T17:20:12.042Z</time></trkpt><trkpt lat="45.1696812" lon="10.8436259"><ele>22.0</ele><time>2026-04-17T17:20:13.041Z</time></trkpt><trkpt lat="45.1697461" lon="10.8437131"><ele>22.0</ele><time>2026-04-17T17:20:14.042Z</time></trkpt><trkpt lat="45.1698294" lon="10.8438181"><ele>22.0</ele><time>2026-04-17T17:20:15.042Z</time></trkpt><trkpt lat="45.1699169" lon="10.8439403"><ele>22.0</ele><time>2026-04-17T17:20:16.041Z</time></trkpt><trkpt lat="45.1700023" lon="10.8440675"><ele>22.0</ele><time>2026-04-17T17:20:17.042Z</time></trkpt><trkpt lat="45.1700797" lon="10.8441858"><ele>21.8</ele><time>2026-04-17T17:20:18.04Z</time></trkpt><trkpt lat="45.170151" lon="10.8442963"><ele>21.6</ele><time>2026-04-17T17:20:19.041Z</time></trkpt><trkpt lat="45.1702226" lon="10.8443901"><ele>21.400000000000002</ele><time>2026-04-17T17:20:20.043Z</time></trkpt><trkpt lat="45.1702996" lon="10.8444398"><ele>21.200000000000003</ele><time>2026-04-17T17:20:21.041Z</time></trkpt><trkpt lat="45.1703794" lon="10.8444252"><ele>21.0</ele><time>2026-04-17T17:20:22.041Z</time></trkpt><trkpt lat="45.1704492" lon="10.844355"><ele>21.0</ele><time>2026-04-17T17:20:23.041Z</time></trkpt><trkpt lat="45.1705152" lon="10.8442644"><ele>21.0</ele><time>2026-04-17T17:20:24.042Z</time></trkpt><trkpt lat="45.1705812" lon="10.844181"><ele>21.0</ele><time>2026-04-17T17:20:25.04Z</time></trkpt><trkpt lat="45.1706437" lon="10.8440942"><ele>21.0</ele><time>2026-04-17T17:20:26.04Z</time></trkpt><trkpt lat="45.1707092" lon="10.8440107"><ele>21.0</ele><time>2026-04-17T17:20:27.041Z</time></trkpt><trkpt lat="45.1707722" lon="10.8439271"><ele>21.0</ele><time>2026-04-17T17:20:28.041Z</time></trkpt><trkpt lat="45.170836" lon="10.8438447"><ele>21.166666666666668</ele><time>2026-04-17T17:20:29.04Z</time></trkpt><trkpt lat="45.1709015" lon="10.8437641"><ele>21.333333333333332</ele><time>2026-04-17T17:20:30.041Z</time></trkpt><trkpt lat="45.1709647" lon="10.843684"><ele>21.5</ele><time>2026-04-17T17:20:31.042Z</time></trkpt><trkpt lat="45.1710289" lon="10.8435979"><ele>21.666666666666664</ele><time>2026-04-17T17:20:32.04Z</time></trkpt><trkpt lat="45.1710813" lon="10.8434991"><ele>21.833333333333332</ele><time>2026-04-17T17:20:33.04Z</time></trkpt><trkpt lat="45.1710958" lon="10.843368"><ele>22.0</ele><time>2026-04-17T17:20:34.041Z</time></trkpt><trkpt lat="45.1710748" lon="10.8432216"><ele>22.400000000000002</ele><time>2026-04-17T17:20:35.041Z</time></trkpt><trkpt lat="45.1710414" lon="10.8430781"><ele>22.8</ele><time>2026-04-17T17:20:36.042Z</time></trkpt><trkpt lat="45.1710039" lon="10.8429452"><ele>23.2</ele><time>2026-04-17T17:20:37.041Z</time></trkpt><trkpt lat="45.170961" lon="10.8428226"><ele>23.6</ele><time>2026-04-17T17:20:38.041Z</time></trkpt><trkpt lat="45.1708928" lon="10.8427348"><ele>24.0</ele><time>2026-04-17T17:20:39.041Z</time></trkpt><trkpt lat="45.1708003" lon="10.8427011"><ele>24.0</ele><time>2026-04-17T17:20:40.042Z</time></trkpt><trkpt lat="45.1707101" lon="10.84275"><ele>24.0</ele><time>2026-04-17T17:20:41.041Z</time></trkpt><trkpt lat="45.1706206" lon="10.8428447"><ele>24.0</ele><time>2026-04-17T17:20:42.042Z</time></trkpt><trkpt lat="45.1705425" lon="10.8429346"><ele>24.0</ele><time>2026-04-17T17:20:43.041Z</time></trkpt><trkpt lat="45.1704792" lon="10.8430185"><ele>24.0</ele><time>2026-04-17T17:20:44.041Z</time></trkpt><trkpt lat="45.170434" lon="10.8430872"><ele>22.0</ele><time>2026-04-17T17:20:45.041Z</time></trkpt><trkpt lat="45.1704051" lon="10.843203"><ele>22.0</ele><time>2026-04-17T17:20:47.042Z</time></trkpt><trkpt lat="45.1704579" lon="10.8432921"><ele>22.0</ele><time>2026-04-17T17:20:49.042Z</time></trkpt><trkpt lat="45.1705064" lon="10.8433701"><ele>22.0</ele><time>2026-04-17T17:20:51.041Z</time></trkpt></trkseg></trk></gpx>